<?xml version='1.0' encoding='UTF-8'?><gpx version="1.1" creator="JPX - https://github.com/jenetics/jpx" xmlns="http://www.topografix.com/GPX/1/1"><trk><trkseg><trkpt lat="50.355840584040735" lon="3.524952244952305"><ele>28.999999999999996</ele><time>2026-04-12T11:00:51Z</time></trkpt><trkpt lat="50.355882940623076" lon="3.525037959818578"><ele>29.0</ele><time>2026-04-12T11:00:54Z</time></trkpt><trkpt lat="50.35595685243327" lon="3.5250829782671094"><ele>29.0</ele><time>2026-04-12T11:00:58Z</time></trkpt><trkpt lat="50.35602914608517" lon="3.5251413155894324"><ele>29.0</ele><time>2026-04-12T11:01:01Z</time></trkpt><trkpt lat="50.356078358806755" lon="3.5252539429375447"><ele>28.999999999999996</ele><time>2026-04-12T11:01:04Z</time></trkpt><trkpt lat="50.35602643745601" lon="3.5254072097319877"><ele>29.0</ele><time>2026-04-12T11:01:07Z</time></trkpt><trkpt lat="50.35598446192554" lon="3.525545378666779"><ele>29.333333333333332</ele><time>2026-04-12T11:01:09Z</time></trkpt><trkpt lat="50.35592344905509" lon="3.52563245488364"><ele>29.666666666666664</ele><time>2026-04-12T11:01:11Z</time></trkpt><trkpt lat="50.35587716469987" lon="3.5257361323227734"><ele>30.0</ele><time>2026-04-12T11:01:13Z</time></trkpt><trkpt lat="50.35582062617067" lon="3.5258377366003044"><ele>30.333333333333336</ele><time>2026-04-12T11:01:15Z</time></trkpt><trkpt lat="50.355774490304384" lon="3.5259514084653625"><ele>30.666666666666668</ele><time>2026-04-12T11:01:17Z</time></trkpt><trkpt lat="50.3556950719436" lon="3.526054915750817"><ele>31.0</ele><time>2026-04-12T11:01:19Z</time></trkpt><trkpt lat="50.355667245318735" lon="3.526169019454259"><ele>31.000000000000004</ele><time>2026-04-12T11:01:21Z</time></trkpt><trkpt lat="50.35566648863374" lon="3.526283217384403"><ele>31.0</ele><time>2026-04-12T11:01:22.999Z</time></trkpt><trkpt lat="50.35569786657268" lon="3.526399706524638"><ele>31.0</ele><time>2026-04-12T11:01:24.999Z</time></trkpt><trkpt lat="50.35572904414768" lon="3.5265116836254484"><ele>31.0</ele><time>2026-04-12T11:01:26.999Z</time></trkpt><trkpt lat="50.35577898455637" lon="3.526595970965972"><ele>31.000000000000004</ele><time>2026-04-12T11:01:28.999Z</time></trkpt><trkpt lat="50.35587125859676" lon="3.5266077193906193"><ele>31.0</ele><time>2026-04-12T11:01:30.999Z</time></trkpt><trkpt lat="50.355902776229975" lon="3.526694835663345"><ele>31.000000000000004</ele><time>2026-04-12T11:01:31.999Z</time></trkpt><trkpt lat="50.355972042976134" lon="3.5267604492856575"><ele>31.0</ele><time>2026-04-12T11:01:33.999Z</time></trkpt><trkpt lat="50.35603823936999" lon="3.5268579373026983"><ele>31.0</ele><time>2026-04-12T11:01:35.999Z</time></trkpt><trkpt lat="50.35610869075552" lon="3.5269344157402496"><ele>31.0</ele><time>2026-04-12T11:01:37.999Z</time></trkpt><trkpt lat="50.35616225958503" lon="3.5269969167832094"><ele>31.000000000000004</ele><time>2026-04-12T11:01:39.999Z</time></trkpt><trkpt lat="50.35619345327852" lon="3.527090718184432"><ele>31.0</ele><time>2026-04-12T11:01:41.999Z</time></trkpt><trkpt lat="50.356087441539394" lon="3.527169674479384"><ele>31.4</ele><time>2026-04-12T11:01:43.999Z</time></trkpt><trkpt lat="50.35599760298405" lon="3.5272081690190475"><ele>31.8</ele><time>2026-04-12T11:01:45.999Z</time></trkpt><trkpt lat="50.355916377996586" lon="3.527282779522211"><ele>32.199999999999996</ele><time>2026-04-12T11:01:47.999Z</time></trkpt><trkpt lat="50.35589935091282" lon="3.5273901536291823"><ele>32.6</ele><time>2026-04-12T11:01:48.999Z</time></trkpt><trkpt lat="50.35579075519756" lon="3.5274224395771854"><ele>33.0</ele><time>2026-04-12T11:01:50.999Z</time></trkpt><trkpt lat="50.35567696636497" lon="3.527474627141755"><ele>33.0</ele><time>2026-04-12T11:01:52.999Z</time></trkpt><trkpt lat="50.35558278297223" lon="3.5275457560872447"><ele>33.0</ele><time>2026-04-12T11:01:54.999Z</time></trkpt><trkpt lat="50.35550848140869" lon="3.527631330314783"><ele>33.0</ele><time>2026-04-12T11:01:56.998Z</time></trkpt><trkpt lat="50.35544514164663" lon="3.5277690544436866"><ele>33.0</ele><time>2026-04-12T11:01:58.998Z</time></trkpt><trkpt lat="50.355363609614365" lon="3.5278733170243672"><ele>33.0</ele><time>2026-04-12T11:02:00.998Z</time></trkpt><trkpt lat="50.35528272434347" lon="3.527971811654221"><ele>33.0</ele><time>2026-04-12T11:02:02.998Z</time></trkpt><trkpt lat="50.355205225289446" lon="3.528060621804729"><ele>33.0</ele><time>2026-04-12T11:02:04.998Z</time></trkpt><trkpt lat="50.35513464112376" lon="3.5281830553548663"><ele>33.0</ele><time>2026-04-12T11:02:06.998Z</time></trkpt><trkpt lat="50.355059808568505" lon="3.528255572170937"><ele>33.0</ele><time>2026-04-12T11:02:08.999Z</time></trkpt><trkpt lat="50.35501101662143" lon="3.5283463952805407"><ele>33.0</ele><time>2026-04-12T11:02:10.999Z</time></trkpt><trkpt lat="50.3549513837888" lon="3.5284391232366077"><ele>33.0</ele><time>2026-04-12T11:02:12.999Z</time></trkpt><trkpt lat="50.35486125574608" lon="3.5285304956975634"><ele>33.0</ele><time>2026-04-12T11:02:14.999Z</time></trkpt><trkpt lat="50.35479877355668" lon="3.528626944614892"><ele>33.0</ele><time>2026-04-12T11:02:16.999Z</time></trkpt><trkpt lat="50.35469690037211" lon="3.5286713946454826"><ele>33.0</ele><time>2026-04-12T11:02:18.999Z</time></trkpt><trkpt lat="50.354634104003914" lon="3.528759135970899"><ele>33.0</ele><time>2026-04-12T11:02:20.999Z</time></trkpt><trkpt lat="50.354602636670904" lon="3.528856686006505"><ele>33.0</ele><time>2026-04-12T11:02:22.999Z</time></trkpt><trkpt lat="50.35451480256029" lon="3.528922729123804"><ele>33.0</ele><time>2026-04-12T11:02:24.999Z</time></trkpt><trkpt lat="50.354450492117046" lon="3.528997403454494"><ele>32.833333333333336</ele><time>2026-04-12T11:02:26.999Z</time></trkpt><trkpt lat="50.35438566027448" lon="3.5290815758855687"><ele>32.666666666666664</ele><time>2026-04-12T11:02:28.999Z</time></trkpt><trkpt lat="50.354323704914684" lon="3.529166751569437"><ele>32.5</ele><time>2026-04-12T11:02:30.999Z</time></trkpt><trkpt lat="50.35432706723525" lon="3.5292762998023286"><ele>32.33333333333333</ele><time>2026-04-12T11:02:32.999Z</time></trkpt><trkpt lat="50.35437500273334" lon="3.529352211148535"><ele>32.166666666666664</ele><time>2026-04-12T11:02:34.999Z</time></trkpt><trkpt lat="50.35440746793026" lon="3.529448547612853"><ele>32.0</ele><time>2026-04-12T11:02:36.999Z</time></trkpt><trkpt lat="50.35440610637444" lon="3.5295677481324192"><ele>31.999999999999996</ele><time>2026-04-12T11:02:38.999Z</time></trkpt><trkpt lat="50.35436437244301" lon="3.52967889469572"><ele>32.0</ele><time>2026-04-12T11:02:40.999Z</time></trkpt><trkpt lat="50.354340878842855" lon="3.5297916182982396"><ele>32.0</ele><time>2026-04-12T11:02:42.999Z</time></trkpt><trkpt lat="50.35430999324141" lon="3.529912507364052"><ele>32.0</ele><time>2026-04-12T11:02:44.999Z</time></trkpt><trkpt lat="50.354267177934524" lon="3.5300073493185176"><ele>31.999999999999996</ele><time>2026-04-12T11:02:46.999Z</time></trkpt><trkpt lat="50.35420347282985" lon="3.530012677497054"><ele>32.0</ele><time>2026-04-12T11:02:47.999Z</time></trkpt><trkpt lat="50.354113334497754" lon="3.530036137507959"><ele>31.999999999999996</ele><time>2026-04-12T11:02:49.999Z</time></trkpt><trkpt lat="50.354028382878866" lon="3.5300656562882318"><ele>32.0</ele><time>2026-04-12T11:02:51.999Z</time></trkpt><trkpt lat="50.353966473066684" lon="3.5300438511113597"><ele>32.0</ele><time>2026-04-12T11:02:53.999Z</time></trkpt><trkpt lat="50.35389466693371" lon="3.5301497337120122"><ele>32.0</ele><time>2026-04-12T11:02:56.999Z</time></trkpt><trkpt lat="50.35387562155424" lon="3.530304331224437"><ele>31.999999999999996</ele><time>2026-04-12T11:02:58.999Z</time></trkpt><trkpt lat="50.35384777013345" lon="3.5304344420028766"><ele>32.0</ele><time>2026-04-12T11:03:00.999Z</time></trkpt><trkpt lat="50.35380257385809" lon="3.5305688517155116"><ele>32.0</ele><time>2026-04-12T11:03:02.999Z</time></trkpt><trkpt lat="50.3537668617937" lon="3.530699300723007"><ele>32.0</ele><time>2026-04-12T11:03:04.999Z</time></trkpt><trkpt lat="50.35373136566837" lon="3.5308366865150345"><ele>32.0</ele><time>2026-04-12T11:03:06.999Z</time></trkpt><trkpt lat="50.35369025522404" lon="3.5309767066335245"><ele>32.0</ele><time>2026-04-12T11:03:08.999Z</time></trkpt><trkpt lat="50.35349580475976" lon="3.531749293092306"><ele>32.2</ele><time>2026-04-12T11:03:19.999Z</time></trkpt><trkpt lat="50.353456937635215" lon="3.53187133001029"><ele>32.400000000000006</ele><time>2026-04-12T11:03:21.999Z</time></trkpt><trkpt lat="50.35342276901926" lon="3.5320095124463373"><ele>32.599999999999994</ele><time>2026-04-12T11:03:23.999Z</time></trkpt><trkpt lat="50.35337997978481" lon="3.5321476932854683"><ele>32.8</ele><time>2026-04-12T11:03:25.999Z</time></trkpt><trkpt lat="50.35334743991354" lon="3.532306627268855"><ele>33.0</ele><time>2026-04-12T11:03:27.999Z</time></trkpt><trkpt lat="50.35331722651966" lon="3.532440994408392"><ele>33.4</ele><time>2026-04-12T11:03:29.999Z</time></trkpt><trkpt lat="50.35329772670983" lon="3.5325793153376224"><ele>33.8</ele><time>2026-04-12T11:03:31.999Z</time></trkpt><trkpt lat="50.35326081678684" lon="3.5327344509838503"><ele>34.2</ele><time>2026-04-12T11:03:33.999Z</time></trkpt><trkpt lat="50.3532252117623" lon="3.5328910961188553"><ele>34.6</ele><time>2026-04-12T11:03:35.999Z</time></trkpt><trkpt lat="50.353179658927004" lon="3.533051492725513"><ele>35.0</ele><time>2026-04-12T11:03:37.999Z</time></trkpt><trkpt lat="50.35313375122442" lon="3.5332181091573327"><ele>35.0</ele><time>2026-04-12T11:03:39.999Z</time></trkpt><trkpt lat="50.35308755414169" lon="3.533378412479104"><ele>35.0</ele><time>2026-04-12T11:03:41.999Z</time></trkpt><trkpt lat="50.35302706378247" lon="3.533550534980655"><ele>35.0</ele><time>2026-04-12T11:03:43.999Z</time></trkpt><trkpt lat="50.35300652383543" lon="3.533645716509994"><ele>35.0</ele><time>2026-04-12T11:03:44.999Z</time></trkpt><trkpt lat="50.352973936855015" lon="3.5337306760789193"><ele>35.0</ele><time>2026-04-12T11:03:45.999Z</time></trkpt><trkpt lat="50.35295331739076" lon="3.5338439253095064"><ele>35.0</ele><time>2026-04-12T11:03:46.999Z</time></trkpt><trkpt lat="50.35292860917477" lon="3.5339401071461594"><ele>34.42857142857143</ele><time>2026-04-12T11:03:47.999Z</time></trkpt><trkpt lat="50.352901775304474" lon="3.534045475001344"><ele>33.85714285714286</ele><time>2026-04-12T11:03:48.999Z</time></trkpt><trkpt lat="50.35287276958846" lon="3.5341489026891404"><ele>33.285714285714285</ele><time>2026-04-12T11:03:49.999Z</time></trkpt><trkpt lat="50.35284390087493" lon="3.534250013889991"><ele>32.714285714285715</ele><time>2026-04-12T11:03:50.999Z</time></trkpt><trkpt lat="50.35280683648317" lon="3.534360102478346"><ele>32.142857142857146</ele><time>2026-04-12T11:03:51.999Z</time></trkpt><trkpt lat="50.352777973262384" lon="3.5344581610807153"><ele>31.571428571428573</ele><time>2026-04-12T11:03:52.999Z</time></trkpt><trkpt lat="50.35275567380663" lon="3.534559233571668"><ele>31.0</ele><time>2026-04-12T11:03:53.999Z</time></trkpt><trkpt lat="50.35273536904096" lon="3.53466876584078"><ele>31.0</ele><time>2026-04-12T11:03:54.999Z</time></trkpt><trkpt lat="50.352715085741096" lon="3.5347687768400826"><ele>31.000000000000004</ele><time>2026-04-12T11:03:55.999Z</time></trkpt><trkpt lat="50.35269222360494" lon="3.5348703702217072"><ele>31.0</ele><time>2026-04-12T11:03:56.999Z</time></trkpt><trkpt lat="50.352684652943736" lon="3.5349755585296516"><ele>31.0</ele><time>2026-04-12T11:03:57.999Z</time></trkpt><trkpt lat="50.35264842636801" lon="3.535070137204309"><ele>31.000000000000004</ele><time>2026-04-12T11:03:58.999Z</time></trkpt><trkpt lat="50.35261959495371" lon="3.535172164151155"><ele>31.0</ele><time>2026-04-12T11:03:59.999Z</time></trkpt><trkpt lat="50.35260132410088" lon="3.5352667594746143"><ele>31.0</ele><time>2026-04-12T11:04:00.999Z</time></trkpt><trkpt lat="50.352577312949656" lon="3.535364714438758"><ele>31.200000000000003</ele><time>2026-04-12T11:04:01.999Z</time></trkpt><trkpt lat="50.352554398683544" lon="3.535461539348525"><ele>31.400000000000002</ele><time>2026-04-12T11:04:02.997Z</time></trkpt><trkpt lat="50.35250742992454" lon="3.5356376633236346"><ele>31.6</ele><time>2026-04-12T11:04:04.997Z</time></trkpt><trkpt lat="50.35247026419954" lon="3.5358000962575944"><ele>31.8</ele><time>2026-04-12T11:04:06.997Z</time></trkpt><trkpt lat="50.352432062286226" lon="3.5359483503458184"><ele>32.0</ele><time>2026-04-12T11:04:08.997Z</time></trkpt><trkpt lat="50.35240368539642" lon="3.536081187869006"><ele>31.999999999999996</ele><time>2026-04-12T11:04:11.997Z</time></trkpt><trkpt lat="50.35239262641344" lon="3.5361794124546"><ele>32.0</ele><time>2026-04-12T11:04:13.997Z</time></trkpt><trkpt lat="50.35235124138658" lon="3.536293933545085"><ele>32.0</ele><time>2026-04-12T11:04:15.998Z</time></trkpt><trkpt lat="50.352300031476226" lon="3.536424970924982"><ele>32.0</ele><time>2026-04-12T11:04:17.998Z</time></trkpt><trkpt lat="50.35226378427529" lon="3.5365465077503404"><ele>31.999999999999996</ele><time>2026-04-12T11:04:19.998Z</time></trkpt><trkpt lat="50.35221734556505" lon="3.5366803603643877"><ele>32.0</ele><time>2026-04-12T11:04:21.998Z</time></trkpt><trkpt lat="50.352174132887846" lon="3.536805926455595"><ele>31.8</ele><time>2026-04-12T11:04:23.998Z</time></trkpt><trkpt lat="50.35212840281512" lon="3.5369287245138294"><ele>31.6</ele><time>2026-04-12T11:04:25.998Z</time></trkpt><trkpt lat="50.35208726950055" lon="3.537072784761591"><ele>31.400000000000002</ele><time>2026-04-12T11:04:27.998Z</time></trkpt><trkpt lat="50.352048145550086" lon="3.537198887440222"><ele>31.200000000000003</ele><time>2026-04-12T11:04:29.998Z</time></trkpt><trkpt lat="50.35200762773164" lon="3.5373211469037265"><ele>31.0</ele><time>2026-04-12T11:04:31.999Z</time></trkpt><trkpt lat="50.35196485707816" lon="3.5374526751605955"><ele>31.333333333333336</ele><time>2026-04-12T11:04:33.999Z</time></trkpt><trkpt lat="50.35194939891157" lon="3.537566434858791"><ele>31.666666666666668</ele><time>2026-04-12T11:04:35.999Z</time></trkpt><trkpt lat="50.35191875346318" lon="3.5376864592159953"><ele>32.0</ele><time>2026-04-12T11:04:37.999Z</time></trkpt><trkpt lat="50.35188995758159" lon="3.537804992194502"><ele>32.333333333333336</ele><time>2026-04-12T11:04:39.999Z</time></trkpt><trkpt lat="50.35184858980784" lon="3.537929364026535"><ele>32.666666666666664</ele><time>2026-04-12T11:04:41.999Z</time></trkpt><trkpt lat="50.35180252627018" lon="3.538058646406767"><ele>33.0</ele><time>2026-04-12T11:04:43.999Z</time></trkpt><trkpt lat="50.351758700160964" lon="3.538179792883677"><ele>33.4</ele><time>2026-04-12T11:04:45.999Z</time></trkpt><trkpt lat="50.35170704107178" lon="3.5383021529425123"><ele>33.8</ele><time>2026-04-12T11:04:47.999Z</time></trkpt><trkpt lat="50.35167497570242" lon="3.5384326746809873"><ele>34.2</ele><time>2026-04-12T11:04:49.999Z</time></trkpt><trkpt lat="50.35163063159624" lon="3.538560898138602"><ele>34.6</ele><time>2026-04-12T11:04:51.999Z</time></trkpt><trkpt lat="50.35157868428908" lon="3.538682205135923"><ele>35.0</ele><time>2026-04-12T11:04:53.999Z</time></trkpt><trkpt lat="50.3515457770791" lon="3.538798962312205"><ele>35.5</ele><time>2026-04-12T11:04:55.999Z</time></trkpt><trkpt lat="50.35151423797683" lon="3.5389063743132234"><ele>36.0</ele><time>2026-04-12T11:04:57.999Z</time></trkpt><trkpt lat="50.35132004836507" lon="3.5396025912556475"><ele>36.0</ele><time>2026-04-12T11:05:08.999Z</time></trkpt><trkpt lat="50.35129186134006" lon="3.539735572352486"><ele>36.0</ele><time>2026-04-12T11:05:10.999Z</time></trkpt><trkpt lat="50.35126747021415" lon="3.5398906527766085"><ele>36.0</ele><time>2026-04-12T11:05:12.999Z</time></trkpt><trkpt lat="50.35123536351184" lon="3.5400496876275804"><ele>36.0</ele><time>2026-04-12T11:05:14.999Z</time></trkpt><trkpt lat="50.351208669871326" lon="3.5402108634172267"><ele>36.0</ele><time>2026-04-12T11:05:16.999Z</time></trkpt><trkpt lat="50.351186106714884" lon="3.5403644295592995"><ele>36.4</ele><time>2026-04-12T11:05:18.999Z</time></trkpt><trkpt lat="50.35116027431277" lon="3.540537414044582"><ele>36.8</ele><time>2026-04-12T11:05:20.999Z</time></trkpt><trkpt lat="50.351127489305355" lon="3.5407023618114115"><ele>37.199999999999996</ele><time>2026-04-12T11:05:22.999Z</time></trkpt><trkpt lat="50.35109912067372" lon="3.5408686356046517"><ele>37.6</ele><time>2026-04-12T11:05:24.999Z</time></trkpt><trkpt lat="50.35107036623121" lon="3.5410225517800438"><ele>38.0</ele><time>2026-04-12T11:05:26.999Z</time></trkpt><trkpt lat="50.35106645753649" lon="3.5411954024526042"><ele>38.599999999999994</ele><time>2026-04-12T11:05:28.999Z</time></trkpt><trkpt lat="50.35112102651879" lon="3.5412951133746446"><ele>39.199999999999996</ele><time>2026-04-12T11:05:30.999Z</time></trkpt><trkpt lat="50.351075927740936" lon="3.5414349964279492"><ele>39.8</ele><time>2026-04-12T11:05:32.999Z</time></trkpt><trkpt lat="50.351044361817124" lon="3.5415855989365115"><ele>40.4</ele><time>2026-04-12T11:05:34.999Z</time></trkpt><trkpt lat="50.351015373560045" lon="3.5417336500508583"><ele>41.0</ele><time>2026-04-12T11:05:36.999Z</time></trkpt><trkpt lat="50.35098759112775" lon="3.541879880365044"><ele>41.0</ele><time>2026-04-12T11:05:38.999Z</time></trkpt><trkpt lat="50.350967519317294" lon="3.542020241889324"><ele>41.0</ele><time>2026-04-12T11:05:41Z</time></trkpt><trkpt lat="50.35093026507689" lon="3.54215961199966"><ele>41.0</ele><time>2026-04-12T11:05:43Z</time></trkpt><trkpt lat="50.350903125631824" lon="3.542315907902687"><ele>41.0</ele><time>2026-04-12T11:05:45Z</time></trkpt><trkpt lat="50.3508772028783" lon="3.542456817509105"><ele>41.0</ele><time>2026-04-12T11:05:47Z</time></trkpt><trkpt lat="50.350850651695204" lon="3.5426017904981917"><ele>40.83333333333333</ele><time>2026-04-12T11:05:49Z</time></trkpt><trkpt lat="50.350824130493926" lon="3.5427421381653397"><ele>40.666666666666664</ele><time>2026-04-12T11:05:51Z</time></trkpt><trkpt lat="50.350795842620876" lon="3.5428816309901214"><ele>40.5</ele><time>2026-04-12T11:05:53Z</time></trkpt><trkpt lat="50.350758086351604" lon="3.5429966842054363"><ele>40.333333333333336</ele><time>2026-04-12T11:05:55Z</time></trkpt><trkpt lat="50.35070137191583" lon="3.543046789382593"><ele>40.16666666666667</ele><time>2026-04-12T11:05:57Z</time></trkpt><trkpt lat="50.35065613601843" lon="3.543191218905547"><ele>40.0</ele><time>2026-04-12T11:05:59Z</time></trkpt><trkpt lat="50.35061333663384" lon="3.5433026956583333"><ele>40.0</ele><time>2026-04-12T11:06:01Z</time></trkpt><trkpt lat="50.35056069300325" lon="3.5434129043604834"><ele>40.0</ele><time>2026-04-12T11:06:03Z</time></trkpt><trkpt lat="50.350466422694" lon="3.5434581707062303"><ele>40.0</ele><time>2026-04-12T11:06:05Z</time></trkpt><trkpt lat="50.35040193097888" lon="3.5435052465661427"><ele>40.0</ele><time>2026-04-12T11:06:09.998Z</time></trkpt><trkpt lat="50.350334640788304" lon="3.5436045774411427"><ele>40.0</ele><time>2026-04-12T11:06:12.998Z</time></trkpt><trkpt lat="50.3502950282396" lon="3.5436976650973606"><ele>40.0</ele><time>2026-04-12T11:06:14.998Z</time></trkpt><trkpt lat="50.3502493481916" lon="3.54380487048064"><ele>40.0</ele><time>2026-04-12T11:06:16.998Z</time></trkpt><trkpt lat="50.3502039796485" lon="3.543911344757611"><ele>40.0</ele><time>2026-04-12T11:06:18.998Z</time></trkpt><trkpt lat="50.35015998184902" lon="3.5440146020686103"><ele>40.0</ele><time>2026-04-12T11:06:20.998Z</time></trkpt><trkpt lat="50.35012205490842" lon="3.5441187054336676"><ele>40.0</ele><time>2026-04-12T11:06:22.998Z</time></trkpt><trkpt lat="50.3500849653361" lon="3.544227793842908"><ele>40.0</ele><time>2026-04-12T11:06:24.998Z</time></trkpt><trkpt lat="50.3500519386368" lon="3.5443330231986074"><ele>40.0</ele><time>2026-04-12T11:06:26.999Z</time></trkpt><trkpt lat="50.35000831697356" lon="3.5444327775933195"><ele>40.0</ele><time>2026-04-12T11:06:28.999Z</time></trkpt><trkpt lat="50.349959124510534" lon="3.5445369665597903"><ele>40.0</ele><time>2026-04-12T11:06:30.999Z</time></trkpt><trkpt lat="50.349923844858104" lon="3.544647987956321"><ele>40.0</ele><time>2026-04-12T11:06:32.999Z</time></trkpt><trkpt lat="50.34986376579072" lon="3.5447480842797354"><ele>40.0</ele><time>2026-04-12T11:06:34.999Z</time></trkpt><trkpt lat="50.34982258949161" lon="3.544853947194944"><ele>40.0</ele><time>2026-04-12T11:06:36.999Z</time></trkpt><trkpt lat="50.349776027204626" lon="3.5449725152496754"><ele>40.0</ele><time>2026-04-12T11:06:38.999Z</time></trkpt><trkpt lat="50.34972520734635" lon="3.5450783584874066"><ele>40.0</ele><time>2026-04-12T11:06:40.999Z</time></trkpt><trkpt lat="50.349668478459236" lon="3.5452150461304"><ele>40.0</ele><time>2026-04-12T11:06:42.999Z</time></trkpt><trkpt lat="50.349605058369065" lon="3.5453364207213602"><ele>40.0</ele><time>2026-04-12T11:06:44.999Z</time></trkpt><trkpt lat="50.34956705005401" lon="3.5454534858411013"><ele>40.0</ele><time>2026-04-12T11:06:46.999Z</time></trkpt><trkpt lat="50.34952982683863" lon="3.5455656227182657"><ele>40.0</ele><time>2026-04-12T11:06:48.999Z</time></trkpt><trkpt lat="50.34947400296963" lon="3.5456797000795546"><ele>40.2</ele><time>2026-04-12T11:06:50.999Z</time></trkpt><trkpt lat="50.349423049943" lon="3.545805528011459"><ele>40.4</ele><time>2026-04-12T11:06:53Z</time></trkpt><trkpt lat="50.34937020822641" lon="3.545932929653438"><ele>40.599999999999994</ele><time>2026-04-12T11:06:55Z</time></trkpt><trkpt lat="50.34932615047342" lon="3.5460419119760567"><ele>40.8</ele><time>2026-04-12T11:06:57Z</time></trkpt><trkpt lat="50.34926149484575" lon="3.5461786927119596"><ele>41.0</ele><time>2026-04-12T11:06:59Z</time></trkpt><trkpt lat="50.349224707746714" lon="3.5462950449894737"><ele>41.199999999999996</ele><time>2026-04-12T11:07:01Z</time></trkpt><trkpt lat="50.349156529487765" lon="3.546421536177369"><ele>41.4</ele><time>2026-04-12T11:07:03Z</time></trkpt><trkpt lat="50.349100793723174" lon="3.5465504646463772"><ele>41.6</ele><time>2026-04-12T11:07:05Z</time></trkpt><trkpt lat="50.34904774270532" lon="3.5466605355808882"><ele>41.8</ele><time>2026-04-12T11:07:07Z</time></trkpt><trkpt lat="50.349006168425994" lon="3.5467887056148397"><ele>42.0</ele><time>2026-04-12T11:07:09Z</time></trkpt><trkpt lat="50.348951743703196" lon="3.546908494419135"><ele>42.0</ele><time>2026-04-12T11:07:11Z</time></trkpt><trkpt lat="50.34890680536877" lon="3.547027445026205"><ele>42.0</ele><time>2026-04-12T11:07:13Z</time></trkpt><trkpt lat="50.348860497669456" lon="3.547147281314265"><ele>42.0</ele><time>2026-04-12T11:07:15Z</time></trkpt><trkpt lat="50.34880405270766" lon="3.5472603967838188"><ele>42.0</ele><time>2026-04-12T11:07:17Z</time></trkpt><trkpt lat="50.34876214036362" lon="3.547383645486486"><ele>42.0</ele><time>2026-04-12T11:07:19Z</time></trkpt><trkpt lat="50.34870915195372" lon="3.54748968789077"><ele>42.0</ele><time>2026-04-12T11:07:21Z</time></trkpt><trkpt lat="50.3486502163537" lon="3.5476131100921564"><ele>42.5</ele><time>2026-04-12T11:07:23Z</time></trkpt><trkpt lat="50.348601880972" lon="3.5477254367889417"><ele>43.0</ele><time>2026-04-12T11:07:25Z</time></trkpt><trkpt lat="50.34855935151046" lon="3.547841923564541"><ele>43.5</ele><time>2026-04-12T11:07:27Z</time></trkpt><trkpt lat="50.348507463370424" lon="3.5479578424159572"><ele>44.0</ele><time>2026-04-12T11:07:29Z</time></trkpt><trkpt lat="50.348458581815585" lon="3.5480761912282452"><ele>44.5</ele><time>2026-04-12T11:07:31Z</time></trkpt><trkpt lat="50.34840841738221" lon="3.5482029545259666"><ele>45.0</ele><time>2026-04-12T11:07:33Z</time></trkpt><trkpt lat="50.34835635137467" lon="3.548315584340228"><ele>45.166666666666664</ele><time>2026-04-12T11:07:35Z</time></trkpt><trkpt lat="50.34831289742814" lon="3.548431570886426"><ele>45.333333333333336</ele><time>2026-04-12T11:07:37Z</time></trkpt><trkpt lat="50.34826377300503" lon="3.5485529570679897"><ele>45.5</ele><time>2026-04-12T11:07:39Z</time></trkpt><trkpt lat="50.348217162600584" lon="3.5486637666166283"><ele>45.66666666666667</ele><time>2026-04-12T11:07:41Z</time></trkpt><trkpt lat="50.3481794308931" lon="3.54878819648383"><ele>45.833333333333336</ele><time>2026-04-12T11:07:43Z</time></trkpt><trkpt lat="50.34813004230572" lon="3.5488929167001335"><ele>46.0</ele><time>2026-04-12T11:07:45Z</time></trkpt><trkpt lat="50.3480701866255" lon="3.549013695897581"><ele>46.0</ele><time>2026-04-12T11:07:47Z</time></trkpt><trkpt lat="50.34803234957736" lon="3.549116438174195"><ele>46.0</ele><time>2026-04-12T11:07:49Z</time></trkpt><trkpt lat="50.34797432374075" lon="3.5492372635201748"><ele>46.0</ele><time>2026-04-12T11:07:51.001Z</time></trkpt><trkpt lat="50.347919651576085" lon="3.549368577798578"><ele>46.0</ele><time>2026-04-12T11:07:53.001Z</time></trkpt><trkpt lat="50.34787135907231" lon="3.5494721408449696"><ele>46.0</ele><time>2026-04-12T11:07:55.001Z</time></trkpt><trkpt lat="50.347815057042816" lon="3.5495867647099053"><ele>46.0</ele><time>2026-04-12T11:07:57.001Z</time></trkpt><trkpt lat="50.34776345057659" lon="3.5497037435731764"><ele>45.8</ele><time>2026-04-12T11:07:59.001Z</time></trkpt><trkpt lat="50.34770748682321" lon="3.549824559138087"><ele>45.599999999999994</ele><time>2026-04-12T11:08:01.001Z</time></trkpt><trkpt lat="50.34766315969794" lon="3.549943934081491"><ele>45.4</ele><time>2026-04-12T11:08:03.001Z</time></trkpt><trkpt lat="50.34762017184868" lon="3.550064063207798"><ele>45.2</ele><time>2026-04-12T11:08:05.001Z</time></trkpt><trkpt lat="50.347578648194414" lon="3.550214590905673"><ele>45.0</ele><time>2026-04-12T11:08:07.001Z</time></trkpt><trkpt lat="50.34752248352902" lon="3.5503426346590747"><ele>45.0</ele><time>2026-04-12T11:08:09.001Z</time></trkpt><trkpt lat="50.34746357658008" lon="3.5504700753713516"><ele>45.0</ele><time>2026-04-12T11:08:11.001Z</time></trkpt><trkpt lat="50.34740533301139" lon="3.550599373022771"><ele>45.0</ele><time>2026-04-12T11:08:13.001Z</time></trkpt><trkpt lat="50.34736174561212" lon="3.550712836607648"><ele>45.0</ele><time>2026-04-12T11:08:15Z</time></trkpt><trkpt lat="50.34730463288237" lon="3.550831051941497"><ele>45.0</ele><time>2026-04-12T11:08:17Z</time></trkpt><trkpt lat="50.34725702145011" lon="3.5509547272020914"><ele>45.2</ele><time>2026-04-12T11:08:19Z</time></trkpt><trkpt lat="50.34719976102538" lon="3.551083856214848"><ele>45.4</ele><time>2026-04-12T11:08:21Z</time></trkpt><trkpt lat="50.34714814627033" lon="3.551206026386525"><ele>45.599999999999994</ele><time>2026-04-12T11:08:23Z</time></trkpt><trkpt lat="50.34709414309545" lon="3.5513301794517593"><ele>45.8</ele><time>2026-04-12T11:08:25Z</time></trkpt><trkpt lat="50.34704882148653" lon="3.5514485197351084"><ele>46.0</ele><time>2026-04-12T11:08:27Z</time></trkpt><trkpt lat="50.34699016921938" lon="3.551573753519988"><ele>46.199999999999996</ele><time>2026-04-12T11:08:29Z</time></trkpt><trkpt lat="50.346933316182366" lon="3.5516989236924217"><ele>46.4</ele><time>2026-04-12T11:08:31Z</time></trkpt><trkpt lat="50.34687869309585" lon="3.5518315953025734"><ele>46.6</ele><time>2026-04-12T11:08:33Z</time></trkpt><trkpt lat="50.346821288992324" lon="3.551962170407225"><ele>46.8</ele><time>2026-04-12T11:08:35Z</time></trkpt><trkpt lat="50.34676541700392" lon="3.5520934410591853"><ele>47.0</ele><time>2026-04-12T11:08:37Z</time></trkpt><trkpt lat="50.346707056779806" lon="3.552220070671071"><ele>47.2</ele><time>2026-04-12T11:08:39Z</time></trkpt><trkpt lat="50.3466512268275" lon="3.5523450069763576"><ele>47.400000000000006</ele><time>2026-04-12T11:08:41Z</time></trkpt><trkpt lat="50.3465931871554" lon="3.552477942207715"><ele>47.599999999999994</ele><time>2026-04-12T11:08:43Z</time></trkpt><trkpt lat="50.34653705107388" lon="3.552607142815346"><ele>47.8</ele><time>2026-04-12T11:08:45Z</time></trkpt><trkpt lat="50.34647945828817" lon="3.5527397817126416"><ele>48.0</ele><time>2026-04-12T11:08:47Z</time></trkpt><trkpt lat="50.34642267724323" lon="3.5528737462970015"><ele>48.4</ele><time>2026-04-12T11:08:49Z</time></trkpt><trkpt lat="50.34636496943944" lon="3.552993519824951"><ele>48.8</ele><time>2026-04-12T11:08:51Z</time></trkpt><trkpt lat="50.346308716040184" lon="3.553117819205641"><ele>49.2</ele><time>2026-04-12T11:08:53Z</time></trkpt><trkpt lat="50.34626464444656" lon="3.5532493774957294"><ele>49.6</ele><time>2026-04-12T11:08:55Z</time></trkpt><trkpt lat="50.34620854190326" lon="3.55337155241027"><ele>50.0</ele><time>2026-04-12T11:08:57Z</time></trkpt><trkpt lat="50.346156596384816" lon="3.553498673901508"><ele>50.0</ele><time>2026-04-12T11:08:59Z</time></trkpt><trkpt lat="50.34610204166039" lon="3.5536237054637714"><ele>50.0</ele><time>2026-04-12T11:09:01Z</time></trkpt><trkpt lat="50.34605222221563" lon="3.553740731531977"><ele>50.0</ele><time>2026-04-12T11:09:03Z</time></trkpt><trkpt lat="50.345992168473195" lon="3.553852607678538"><ele>50.0</ele><time>2026-04-12T11:09:05Z</time></trkpt><trkpt lat="50.34593268349518" lon="3.5539622221246607"><ele>50.0</ele><time>2026-04-12T11:09:07.001Z</time></trkpt><trkpt lat="50.345927186552515" lon="3.5541182678832284"><ele>49.8</ele><time>2026-04-12T11:09:09.001Z</time></trkpt><trkpt lat="50.34589228223217" lon="3.5542230695040065"><ele>49.6</ele><time>2026-04-12T11:09:11.001Z</time></trkpt><trkpt lat="50.34599170548367" lon="3.554339511111823"><ele>49.400000000000006</ele><time>2026-04-12T11:09:15.001Z</time></trkpt><trkpt lat="50.34606756429318" lon="3.5544527321055055"><ele>49.2</ele><time>2026-04-12T11:09:17.001Z</time></trkpt><trkpt lat="50.346105604731235" lon="3.554588388954601"><ele>49.0</ele><time>2026-04-12T11:09:19.001Z</time></trkpt><trkpt lat="50.34614887957522" lon="3.5546898928260164"><ele>49.400000000000006</ele><time>2026-04-12T11:09:21.001Z</time></trkpt><trkpt lat="50.34612029522149" lon="3.5547985343580883"><ele>49.8</ele><time>2026-04-12T11:09:23.001Z</time></trkpt><trkpt lat="50.34609511576709" lon="3.554928567518"><ele>50.2</ele><time>2026-04-12T11:09:25.001Z</time></trkpt><trkpt lat="50.34601415085675" lon="3.555020536747282"><ele>50.599999999999994</ele><time>2026-04-12T11:09:27.001Z</time></trkpt><trkpt lat="50.345927203869635" lon="3.555079207564686"><ele>51.0</ele><time>2026-04-12T11:09:29.001Z</time></trkpt><trkpt lat="50.345823366719316" lon="3.555112153240182"><ele>51.0</ele><time>2026-04-12T11:09:31.001Z</time></trkpt><trkpt lat="50.34574566927527" lon="3.555124008118242"><ele>51.0</ele><time>2026-04-12T11:09:33.001Z</time></trkpt><trkpt lat="50.34568098302238" lon="3.55512377617436"><ele>51.0</ele><time>2026-04-12T11:09:36.001Z</time></trkpt><trkpt lat="50.34563066975414" lon="3.5550494037465192"><ele>51.0</ele><time>2026-04-12T11:09:38.001Z</time></trkpt><trkpt lat="50.34556416846676" lon="3.5549804785301946"><ele>51.0</ele><time>2026-04-12T11:09:40.001Z</time></trkpt><trkpt lat="50.34548391771473" lon="3.5550751991824145"><ele>51.0</ele><time>2026-04-12T11:09:42.001Z</time></trkpt><trkpt lat="50.34551277292347" lon="3.555195838665269"><ele>51.0</ele><time>2026-04-12T11:09:43.001Z</time></trkpt><trkpt lat="50.34545332581265" lon="3.5552959389086283"><ele>51.0</ele><time>2026-04-12T11:09:45.001Z</time></trkpt><trkpt lat="50.345380099877275" lon="3.555382045970096"><ele>51.0</ele><time>2026-04-12T11:09:47.001Z</time></trkpt><trkpt lat="50.34532156010006" lon="3.555522264438504"><ele>51.0</ele><time>2026-04-12T11:09:49.001Z</time></trkpt><trkpt lat="50.34527908814262" lon="3.555662720854699"><ele>51.0</ele><time>2026-04-12T11:09:51.001Z</time></trkpt><trkpt lat="50.34518842673791" lon="3.5557367599938345"><ele>51.4</ele><time>2026-04-12T11:09:53.001Z</time></trkpt><trkpt lat="50.34513104337368" lon="3.555856774580539"><ele>51.8</ele><time>2026-04-12T11:09:55.001Z</time></trkpt><trkpt lat="50.345086114539164" lon="3.555978948163943"><ele>52.199999999999996</ele><time>2026-04-12T11:09:57.001Z</time></trkpt><trkpt lat="50.345030228108584" lon="3.5560903425314376"><ele>52.599999999999994</ele><time>2026-04-12T11:09:59.001Z</time></trkpt><trkpt lat="50.34497720400022" lon="3.5561967949731654"><ele>53.0</ele><time>2026-04-12T11:10:01.001Z</time></trkpt><trkpt lat="50.344925682344176" lon="3.556317822070764"><ele>53.2</ele><time>2026-04-12T11:10:03.001Z</time></trkpt><trkpt lat="50.34488089523159" lon="3.556441789263395"><ele>53.4</ele><time>2026-04-12T11:10:05.001Z</time></trkpt><trkpt lat="50.34482822472898" lon="3.5565611272679525"><ele>53.60000000000001</ele><time>2026-04-12T11:10:07.001Z</time></trkpt><trkpt lat="50.344778309888184" lon="3.5566768719876998"><ele>53.800000000000004</ele><time>2026-04-12T11:10:09.002Z</time></trkpt><trkpt lat="50.344728432217536" lon="3.5567799642352806"><ele>54.0</ele><time>2026-04-12T11:10:11.002Z</time></trkpt><trkpt lat="50.34467536439484" lon="3.5569086103981933"><ele>54.6</ele><time>2026-04-12T11:10:13.002Z</time></trkpt><trkpt lat="50.344629533714695" lon="3.5570373465087255"><ele>55.2</ele><time>2026-04-12T11:10:15.002Z</time></trkpt><trkpt lat="50.34457712345701" lon="3.5571552291934703"><ele>55.800000000000004</ele><time>2026-04-12T11:10:17.002Z</time></trkpt><trkpt lat="50.34453290585088" lon="3.557271335288702"><ele>56.400000000000006</ele><time>2026-04-12T11:10:19.002Z</time></trkpt><trkpt lat="50.344487105596535" lon="3.557389805509614"><ele>57.0</ele><time>2026-04-12T11:10:21Z</time></trkpt><trkpt lat="50.34443709175766" lon="3.557507823617396"><ele>57.0</ele><time>2026-04-12T11:10:23Z</time></trkpt><trkpt lat="50.3443864104112" lon="3.557624280341985"><ele>57.0</ele><time>2026-04-12T11:10:25Z</time></trkpt><trkpt lat="50.34434259195712" lon="3.5577459252027697"><ele>57.0</ele><time>2026-04-12T11:10:27Z</time></trkpt><trkpt lat="50.34429328741194" lon="3.55786252787589"><ele>57.0</ele><time>2026-04-12T11:10:29Z</time></trkpt><trkpt lat="50.344244977193966" lon="3.5579771421086943"><ele>57.0</ele><time>2026-04-12T11:10:31Z</time></trkpt><trkpt lat="50.34419674884181" lon="3.5580920875537565"><ele>57.0</ele><time>2026-04-12T11:10:33Z</time></trkpt><trkpt lat="50.34414732348081" lon="3.558205425280084"><ele>57.0</ele><time>2026-04-12T11:10:35Z</time></trkpt><trkpt lat="50.34409378416227" lon="3.5583218376630406"><ele>57.0</ele><time>2026-04-12T11:10:37Z</time></trkpt><trkpt lat="50.34403844781156" lon="3.5584375453633075"><ele>57.0</ele><time>2026-04-12T11:10:39Z</time></trkpt><trkpt lat="50.343990797533564" lon="3.5585513957626524"><ele>57.0</ele><time>2026-04-12T11:10:41Z</time></trkpt><trkpt lat="50.343941235004266" lon="3.5586706381263595"><ele>57.0</ele><time>2026-04-12T11:10:43Z</time></trkpt><trkpt lat="50.34389569554318" lon="3.5587871637712203"><ele>57.0</ele><time>2026-04-12T11:10:45Z</time></trkpt><trkpt lat="50.343842246864895" lon="3.5589028742601507"><ele>57.2</ele><time>2026-04-12T11:10:47Z</time></trkpt><trkpt lat="50.34379422146804" lon="3.559017105582405"><ele>57.400000000000006</ele><time>2026-04-12T11:10:49Z</time></trkpt><trkpt lat="50.34374071134737" lon="3.5591454477400717"><ele>57.599999999999994</ele><time>2026-04-12T11:10:51Z</time></trkpt><trkpt lat="50.343691366736266" lon="3.559271839079159"><ele>57.8</ele><time>2026-04-12T11:10:53.001Z</time></trkpt><trkpt lat="50.34363980643176" lon="3.5593975955315242"><ele>58.0</ele><time>2026-04-12T11:10:55.001Z</time></trkpt><trkpt lat="50.343587755072384" lon="3.5595233682964116"><ele>58.2</ele><time>2026-04-12T11:10:57.001Z</time></trkpt><trkpt lat="50.343533138286816" lon="3.559648385187732"><ele>58.4</ele><time>2026-04-12T11:10:59.001Z</time></trkpt><trkpt lat="50.343478691199415" lon="3.5597746583986996"><ele>58.60000000000001</ele><time>2026-04-12T11:11:01.001Z</time></trkpt><trkpt lat="50.34342435941604" lon="3.559908130822862"><ele>58.800000000000004</ele><time>2026-04-12T11:11:03.001Z</time></trkpt><trkpt lat="50.34336913669031" lon="3.5600391884394686"><ele>59.0</ele><time>2026-04-12T11:11:05.001Z</time></trkpt><trkpt lat="50.34331306954656" lon="3.5601718080454337"><ele>59.0</ele><time>2026-04-12T11:11:07.001Z</time></trkpt><trkpt lat="50.343256457433625" lon="3.560303062665765"><ele>59.00000000000001</ele><time>2026-04-12T11:11:09.001Z</time></trkpt><trkpt lat="50.34319679120251" lon="3.5604369218265455"><ele>59.00000000000001</ele><time>2026-04-12T11:11:11.001Z</time></trkpt><trkpt lat="50.343138210306336" lon="3.560567731320554"><ele>59.0</ele><time>2026-04-12T11:11:13.001Z</time></trkpt><trkpt lat="50.34308196340966" lon="3.5607027008137497"><ele>59.0</ele><time>2026-04-12T11:11:15.001Z</time></trkpt><trkpt lat="50.343026544227925" lon="3.5608371393061264"><ele>59.2</ele><time>2026-04-12T11:11:17.001Z</time></trkpt><trkpt lat="50.34297115328143" lon="3.5609627175679193"><ele>59.400000000000006</ele><time>2026-04-12T11:11:19.001Z</time></trkpt><trkpt lat="50.34291589213902" lon="3.5610942415722073"><ele>59.6</ele><time>2026-04-12T11:11:21.001Z</time></trkpt><trkpt lat="50.342857858592005" lon="3.5612276614334606"><ele>59.8</ele><time>2026-04-12T11:11:23.001Z</time></trkpt><trkpt lat="50.34280502639419" lon="3.561352620580898"><ele>60.0</ele><time>2026-04-12T11:11:25.001Z</time></trkpt><trkpt lat="50.34275207598697" lon="3.5614831981870685"><ele>60.2</ele><time>2026-04-12T11:11:27.001Z</time></trkpt><trkpt lat="50.34269840380009" lon="3.561609748641493"><ele>60.4</ele><time>2026-04-12T11:11:29.001Z</time></trkpt><trkpt lat="50.342642961171585" lon="3.561743675757144"><ele>60.599999999999994</ele><time>2026-04-12T11:11:31.001Z</time></trkpt><trkpt lat="50.3425859255882" lon="3.561869965306258"><ele>60.8</ele><time>2026-04-12T11:11:33.001Z</time></trkpt><trkpt lat="50.34253027949691" lon="3.5619982674604374"><ele>61.0</ele><time>2026-04-12T11:11:35.001Z</time></trkpt><trkpt lat="50.342473525176686" lon="3.5621285054148846"><ele>61.199999999999996</ele><time>2026-04-12T11:11:37.001Z</time></trkpt><trkpt lat="50.342418116025115" lon="3.562263079687952"><ele>61.39999999999999</ele><time>2026-04-12T11:11:39.001Z</time></trkpt><trkpt lat="50.34236078634603" lon="3.562401444920941"><ele>61.6</ele><time>2026-04-12T11:11:41.001Z</time></trkpt><trkpt lat="50.3423031368211" lon="3.5625403245787775"><ele>61.8</ele><time>2026-04-12T11:11:43.001Z</time></trkpt><trkpt lat="50.34224380885718" lon="3.5626732931360197"><ele>62.0</ele><time>2026-04-12T11:11:45.001Z</time></trkpt><trkpt lat="50.34218415754732" lon="3.5628073705451135"><ele>62.0</ele><time>2026-04-12T11:11:47.001Z</time></trkpt><trkpt lat="50.342129521238526" lon="3.56294389714086"><ele>62.0</ele><time>2026-04-12T11:11:49.001Z</time></trkpt><trkpt lat="50.342070249920454" lon="3.563076821322435"><ele>62.0</ele><time>2026-04-12T11:11:51.001Z</time></trkpt><trkpt lat="50.342012358657385" lon="3.563210273115504"><ele>62.0</ele><time>2026-04-12T11:11:53.001Z</time></trkpt><trkpt lat="50.341957258610954" lon="3.563345972979113"><ele>62.0</ele><time>2026-04-12T11:11:55.001Z</time></trkpt><trkpt lat="50.341903241614524" lon="3.563471383365829"><ele>62.00000000000001</ele><time>2026-04-12T11:11:57.001Z</time></trkpt><trkpt lat="50.34184292671552" lon="3.563594978096577"><ele>62.0</ele><time>2026-04-12T11:11:59.001Z</time></trkpt><trkpt lat="50.34178690752613" lon="3.563713282977899"><ele>62.0</ele><time>2026-04-12T11:12:01.001Z</time></trkpt><trkpt lat="50.3417294605971" lon="3.5638140222006722"><ele>62.0</ele><time>2026-04-12T11:12:03.001Z</time></trkpt><trkpt lat="50.341690481559404" lon="3.56390152540419"><ele>62.00000000000001</ele><time>2026-04-12T11:12:05.002Z</time></trkpt><trkpt lat="50.34163794502541" lon="3.563994577163077"><ele>62.0</ele><time>2026-04-12T11:12:15.002Z</time></trkpt><trkpt lat="50.341598350837565" lon="3.5640756642589615"><ele>62.0</ele><time>2026-04-12T11:12:17.002Z</time></trkpt><trkpt lat="50.34155219460866" lon="3.564163753499317"><ele>62.0</ele><time>2026-04-12T11:12:19.002Z</time></trkpt><trkpt lat="50.34150472413516" lon="3.564282033112833"><ele>62.0</ele><time>2026-04-12T11:12:21.002Z</time></trkpt><trkpt lat="50.341452322870246" lon="3.56440661341432"><ele>62.0</ele><time>2026-04-12T11:12:23.002Z</time></trkpt><trkpt lat="50.34140289766923" lon="3.5645366027744987"><ele>62.0</ele><time>2026-04-12T11:12:25.002Z</time></trkpt><trkpt lat="50.34134333275516" lon="3.5646795230471566"><ele>62.2</ele><time>2026-04-12T11:12:27.001Z</time></trkpt><trkpt lat="50.34129396002705" lon="3.5648173300680743"><ele>62.400000000000006</ele><time>2026-04-12T11:12:29.001Z</time></trkpt><trkpt lat="50.341248648370424" lon="3.5649579751624145"><ele>62.599999999999994</ele><time>2026-04-12T11:12:31.001Z</time></trkpt><trkpt lat="50.34119702531652" lon="3.56509885228844"><ele>62.8</ele><time>2026-04-12T11:12:33.001Z</time></trkpt><trkpt lat="50.34114422582515" lon="3.5652336991509888"><ele>63.0</ele><time>2026-04-12T11:12:35.001Z</time></trkpt><trkpt lat="50.3410883640995" lon="3.5653691496780473"><ele>63.0</ele><time>2026-04-12T11:12:37.001Z</time></trkpt><trkpt lat="50.34103482767852" lon="3.5655054299654356"><ele>63.0</ele><time>2026-04-12T11:12:39.001Z</time></trkpt><trkpt lat="50.3409729902986" lon="3.565637063653861"><ele>63.0</ele><time>2026-04-12T11:12:41.001Z</time></trkpt><trkpt lat="50.34091561540182" lon="3.5657549381091664"><ele>63.0</ele><time>2026-04-12T11:12:43.001Z</time></trkpt><trkpt lat="50.340861530177214" lon="3.5658790068877875"><ele>63.0</ele><time>2026-04-12T11:12:45.001Z</time></trkpt><trkpt lat="50.34080570759295" lon="3.5660016913187986"><ele>63.0</ele><time>2026-04-12T11:12:47.001Z</time></trkpt><trkpt lat="50.34074490484382" lon="3.5661287428591106"><ele>63.0</ele><time>2026-04-12T11:12:49.001Z</time></trkpt><trkpt lat="50.34068730968461" lon="3.5662577121963364"><ele>63.0</ele><time>2026-04-12T11:12:51.001Z</time></trkpt><trkpt lat="50.3406306945673" lon="3.5663903398980006"><ele>63.0</ele><time>2026-04-12T11:12:53.001Z</time></trkpt><trkpt lat="50.34057698668811" lon="3.5665210093674053"><ele>63.0</ele><time>2026-04-12T11:12:55.001Z</time></trkpt><trkpt lat="50.340528220711455" lon="3.566658731815945"><ele>63.599999999999994</ele><time>2026-04-12T11:12:57.001Z</time></trkpt><trkpt lat="50.340470836638964" lon="3.566764343749214"><ele>64.19999999999999</ele><time>2026-04-12T11:12:59.001Z</time></trkpt><trkpt lat="50.34041227297627" lon="3.56689477830978"><ele>64.8</ele><time>2026-04-12T11:13:01.001Z</time></trkpt><trkpt lat="50.34036058494306" lon="3.567025452086908"><ele>65.39999999999999</ele><time>2026-04-12T11:13:03.001Z</time></trkpt><trkpt lat="50.340311469109544" lon="3.5671580256889426"><ele>66.0</ele><time>2026-04-12T11:13:05.001Z</time></trkpt><trkpt lat="50.34025463700399" lon="3.5672881009095274"><ele>66.0</ele><time>2026-04-12T11:13:07.001Z</time></trkpt><trkpt lat="50.34019605867053" lon="3.567414726783873"><ele>66.0</ele><time>2026-04-12T11:13:09.001Z</time></trkpt><trkpt lat="50.340143952942945" lon="3.5675353861091965"><ele>66.0</ele><time>2026-04-12T11:13:11.001Z</time></trkpt><trkpt lat="50.340091232724994" lon="3.5676721889222405"><ele>66.0</ele><time>2026-04-12T11:13:13.001Z</time></trkpt><trkpt lat="50.34003782711037" lon="3.567796502905327"><ele>66.0</ele><time>2026-04-12T11:13:15.001Z</time></trkpt><trkpt lat="50.339982786407354" lon="3.567924329615134"><ele>66.2</ele><time>2026-04-12T11:13:17.001Z</time></trkpt><trkpt lat="50.339926026586134" lon="3.56805434280914"><ele>66.39999999999999</ele><time>2026-04-12T11:13:19.001Z</time></trkpt><trkpt lat="50.33987195751439" lon="3.568178320660916"><ele>66.6</ele><time>2026-04-12T11:13:21.001Z</time></trkpt><trkpt lat="50.33981440611521" lon="3.5683072989324898"><ele>66.8</ele><time>2026-04-12T11:13:23.001Z</time></trkpt><trkpt lat="50.33975761185881" lon="3.5684410513417806"><ele>67.0</ele><time>2026-04-12T11:13:25.001Z</time></trkpt><trkpt lat="50.33970156449942" lon="3.568571288659707"><ele>67.4</ele><time>2026-04-12T11:13:27.001Z</time></trkpt><trkpt lat="50.33964855214589" lon="3.5686902367681337"><ele>67.80000000000001</ele><time>2026-04-12T11:13:29.001Z</time></trkpt><trkpt lat="50.33958946058603" lon="3.568832308170628"><ele>68.2</ele><time>2026-04-12T11:13:31.001Z</time></trkpt><trkpt lat="50.33953391875157" lon="3.568953452586481"><ele>68.60000000000001</ele><time>2026-04-12T11:13:33.001Z</time></trkpt><trkpt lat="50.33948536417142" lon="3.5690673013503575"><ele>69.0</ele><time>2026-04-12T11:13:35.001Z</time></trkpt><trkpt lat="50.339426017582404" lon="3.5692023387742573"><ele>69.0</ele><time>2026-04-12T11:13:37.001Z</time></trkpt><trkpt lat="50.33937398534575" lon="3.5693281255877447"><ele>69.0</ele><time>2026-04-12T11:13:39.001Z</time></trkpt><trkpt lat="50.339321378579285" lon="3.56944467264529"><ele>69.0</ele><time>2026-04-12T11:13:41.001Z</time></trkpt><trkpt lat="50.33926670593113" lon="3.569577380703467"><ele>69.0</ele><time>2026-04-12T11:13:43.001Z</time></trkpt><trkpt lat="50.33921181979049" lon="3.569704045089558"><ele>69.0</ele><time>2026-04-12T11:13:45.001Z</time></trkpt><trkpt lat="50.33915828968307" lon="3.569823081286585"><ele>68.8</ele><time>2026-04-12T11:13:47.001Z</time></trkpt><trkpt lat="50.33910548398017" lon="3.5699442030334962"><ele>68.60000000000001</ele><time>2026-04-12T11:13:49.001Z</time></trkpt><trkpt lat="50.33905665121026" lon="3.570068410499461"><ele>68.4</ele><time>2026-04-12T11:13:51.001Z</time></trkpt><trkpt lat="50.338999256708924" lon="3.5701897576170443"><ele>68.2</ele><time>2026-04-12T11:13:53.001Z</time></trkpt><trkpt lat="50.33894933862469" lon="3.5703110427840405"><ele>68.0</ele><time>2026-04-12T11:13:55.001Z</time></trkpt><trkpt lat="50.33889601941213" lon="3.5704363053685397"><ele>68.4</ele><time>2026-04-12T11:13:57.001Z</time></trkpt><trkpt lat="50.338840296438455" lon="3.570564087300394"><ele>68.8</ele><time>2026-04-12T11:13:59.001Z</time></trkpt><trkpt lat="50.338784920194996" lon="3.570692849698269"><ele>69.2</ele><time>2026-04-12T11:14:01.001Z</time></trkpt><trkpt lat="50.33873213158524" lon="3.5708253045034244"><ele>69.6</ele><time>2026-04-12T11:14:03.001Z</time></trkpt><trkpt lat="50.33867820431496" lon="3.570952453773386"><ele>70.0</ele><time>2026-04-12T11:14:05.001Z</time></trkpt><trkpt lat="50.33861997612383" lon="3.5710750022156854"><ele>69.8</ele><time>2026-04-12T11:14:07.001Z</time></trkpt><trkpt lat="50.338571183297404" lon="3.5712124566347323"><ele>69.6</ele><time>2026-04-12T11:14:09.001Z</time></trkpt><trkpt lat="50.33850878310689" lon="3.5713367298041354"><ele>69.4</ele><time>2026-04-12T11:14:11.001Z</time></trkpt><trkpt lat="50.33844645921585" lon="3.571460579398621"><ele>69.2</ele><time>2026-04-12T11:14:13.001Z</time></trkpt><trkpt lat="50.33837972675026" lon="3.5715820781499374"><ele>69.0</ele><time>2026-04-12T11:14:15.002Z</time></trkpt><trkpt lat="50.33831336360255" lon="3.5716966467411133"><ele>69.0</ele><time>2026-04-12T11:14:17.002Z</time></trkpt><trkpt lat="50.338237673737524" lon="3.5718133035098565"><ele>69.0</ele><time>2026-04-12T11:14:19.002Z</time></trkpt><trkpt lat="50.338161950446235" lon="3.5719249373831716"><ele>69.0</ele><time>2026-04-12T11:14:21.002Z</time></trkpt><trkpt lat="50.33807817561827" lon="3.572039559488571"><ele>69.0</ele><time>2026-04-12T11:14:23.002Z</time></trkpt><trkpt lat="50.33800365872893" lon="3.5721383935732676"><ele>69.0</ele><time>2026-04-12T11:14:25.002Z</time></trkpt><trkpt lat="50.33792590613225" lon="3.5722494587984825"><ele>69.4</ele><time>2026-04-12T11:14:27.002Z</time></trkpt><trkpt lat="50.33784790752212" lon="3.5723519766511562"><ele>69.80000000000001</ele><time>2026-04-12T11:14:29.002Z</time></trkpt><trkpt lat="50.33778057785557" lon="3.5724618871663583"><ele>70.19999999999999</ele><time>2026-04-12T11:14:31.002Z</time></trkpt><trkpt lat="50.337698860349704" lon="3.5725695320236115"><ele>70.6</ele><time>2026-04-12T11:14:33.001Z</time></trkpt><trkpt lat="50.337611575796146" lon="3.572678984404503"><ele>71.0</ele><time>2026-04-12T11:14:35.001Z</time></trkpt><trkpt lat="50.33753741065531" lon="3.572795507034325"><ele>70.8</ele><time>2026-04-12T11:14:37.001Z</time></trkpt><trkpt lat="50.33744952621333" lon="3.572893338866108"><ele>70.6</ele><time>2026-04-12T11:14:39.001Z</time></trkpt><trkpt lat="50.337366533592245" lon="3.5730060821322094"><ele>70.4</ele><time>2026-04-12T11:14:41.001Z</time></trkpt><trkpt lat="50.33728751037656" lon="3.5731047925733974"><ele>70.2</ele><time>2026-04-12T11:14:43.001Z</time></trkpt><trkpt lat="50.33722164657702" lon="3.573179589407879"><ele>70.0</ele><time>2026-04-12T11:14:45.001Z</time></trkpt><trkpt lat="50.3371526143192" lon="3.5732995678891126"><ele>70.4</ele><time>2026-04-12T11:14:47.001Z</time></trkpt><trkpt lat="50.337060699137524" lon="3.573397943224481"><ele>70.8</ele><time>2026-04-12T11:14:49.001Z</time></trkpt><trkpt lat="50.33698042805404" lon="3.5735091969974775"><ele>71.2</ele><time>2026-04-12T11:14:51.001Z</time></trkpt><trkpt lat="50.33689246333849" lon="3.5736122860925343"><ele>71.6</ele><time>2026-04-12T11:14:53.001Z</time></trkpt><trkpt lat="50.336811158604135" lon="3.5737140202539543"><ele>72.0</ele><time>2026-04-12T11:14:55.001Z</time></trkpt><trkpt lat="50.336725104997114" lon="3.573825652254078"><ele>72.0</ele><time>2026-04-12T11:14:57.001Z</time></trkpt><trkpt lat="50.33665428922582" lon="3.5739274483525834"><ele>72.0</ele><time>2026-04-12T11:14:59.001Z</time></trkpt><trkpt lat="50.33658541452163" lon="3.574043854483036"><ele>72.0</ele><time>2026-04-12T11:15:01.001Z</time></trkpt><trkpt lat="50.33651270787967" lon="3.5741550296222107"><ele>72.0</ele><time>2026-04-12T11:15:03.001Z</time></trkpt><trkpt lat="50.33642618171956" lon="3.574231756291927"><ele>72.0</ele><time>2026-04-12T11:15:05.001Z</time></trkpt><trkpt lat="50.3363182336829" lon="3.5742646804910647"><ele>72.6</ele><time>2026-04-12T11:15:07.001Z</time></trkpt><trkpt lat="50.33622402352481" lon="3.5743385553706073"><ele>73.2</ele><time>2026-04-12T11:15:09.001Z</time></trkpt><trkpt lat="50.33612611629083" lon="3.5743821005405882"><ele>73.8</ele><time>2026-04-12T11:15:11.001Z</time></trkpt><trkpt lat="50.33601963015945" lon="3.5743804155802885"><ele>74.4</ele><time>2026-04-12T11:15:13.001Z</time></trkpt><trkpt lat="50.33590322216014" lon="3.5743862874766723"><ele>75.0</ele><time>2026-04-12T11:15:15.001Z</time></trkpt><trkpt lat="50.33580784822545" lon="3.574410255957242"><ele>75.0</ele><time>2026-04-12T11:15:17.001Z</time></trkpt><trkpt lat="50.33570628819109" lon="3.574412877590846"><ele>75.0</ele><time>2026-04-12T11:15:19.001Z</time></trkpt><trkpt lat="50.33561102992014" lon="3.574424509154067"><ele>75.0</ele><time>2026-04-12T11:15:21.001Z</time></trkpt><trkpt lat="50.33551130502835" lon="3.574446697488456"><ele>75.0</ele><time>2026-04-12T11:15:23.001Z</time></trkpt><trkpt lat="50.3354123512048" lon="3.5744479854363784"><ele>75.0</ele><time>2026-04-12T11:15:25.001Z</time></trkpt><trkpt lat="50.33532412068917" lon="3.5744568825907663"><ele>75.0</ele><time>2026-04-12T11:15:27.001Z</time></trkpt><trkpt lat="50.33523781968657" lon="3.574464579373045"><ele>75.0</ele><time>2026-04-12T11:15:29.001Z</time></trkpt><trkpt lat="50.33513480973135" lon="3.574478608191542"><ele>75.0</ele><time>2026-04-12T11:15:31.001Z</time></trkpt><trkpt lat="50.335036509921416" lon="3.5744767965249054"><ele>75.0</ele><time>2026-04-12T11:15:33.001Z</time></trkpt><trkpt lat="50.3349464980646" lon="3.5744891204876192"><ele>75.0</ele><time>2026-04-12T11:15:35.001Z</time></trkpt><trkpt lat="50.334846604422054" lon="3.5744773203888913"><ele>75.0</ele><time>2026-04-12T11:15:37.001Z</time></trkpt><trkpt lat="50.3347529050467" lon="3.574469430481626"><ele>75.0</ele><time>2026-04-12T11:15:39.001Z</time></trkpt><trkpt lat="50.33465675627703" lon="3.574476031601043"><ele>75.0</ele><time>2026-04-12T11:15:41.001Z</time></trkpt><trkpt lat="50.334559615793204" lon="3.574484537767751"><ele>75.0</ele><time>2026-04-12T11:15:43.001Z</time></trkpt><trkpt lat="50.334472403094274" lon="3.574508534712966"><ele>75.0</ele><time>2026-04-12T11:15:45.001Z</time></trkpt><trkpt lat="50.334380800692834" lon="3.5745492316914587"><ele>75.0</ele><time>2026-04-12T11:15:47.001Z</time></trkpt><trkpt lat="50.334297339895095" lon="3.574592940489761"><ele>75.0</ele><time>2026-04-12T11:15:49.001Z</time></trkpt><trkpt lat="50.33420928789391" lon="3.5746271485580445"><ele>75.0</ele><time>2026-04-12T11:15:51.001Z</time></trkpt><trkpt lat="50.334121631644194" lon="3.574666012637079"><ele>75.0</ele><time>2026-04-12T11:15:53.001Z</time></trkpt><trkpt lat="50.3340412975858" lon="3.57470801863633"><ele>75.0</ele><time>2026-04-12T11:15:55.001Z</time></trkpt><trkpt lat="50.33395332872033" lon="3.5747450061013444"><ele>75.0</ele><time>2026-04-12T11:15:57.001Z</time></trkpt><trkpt lat="50.333860777416824" lon="3.5747787065660614"><ele>75.0</ele><time>2026-04-12T11:15:59.001Z</time></trkpt><trkpt lat="50.33376448391536" lon="3.5748481946695922"><ele>75.0</ele><time>2026-04-12T11:16:01.001Z</time></trkpt><trkpt lat="50.33369520845925" lon="3.57486033026209"><ele>75.0</ele><time>2026-04-12T11:16:03.001Z</time></trkpt><trkpt lat="50.333633430242514" lon="3.5748820330218734"><ele>75.0</ele><time>2026-04-12T11:16:05.001Z</time></trkpt><trkpt lat="50.33354506114839" lon="3.5749018082644097"><ele>75.0</ele><time>2026-04-12T11:16:07.001Z</time></trkpt><trkpt lat="50.33346574010721" lon="3.5749263376725144"><ele>75.0</ele><time>2026-04-12T11:16:09.001Z</time></trkpt><trkpt lat="50.333381485169284" lon="3.5749319446297037"><ele>75.0</ele><time>2026-04-12T11:16:11.001Z</time></trkpt><trkpt lat="50.3333037693836" lon="3.5749579183320432"><ele>75.0</ele><time>2026-04-12T11:16:13.001Z</time></trkpt><trkpt lat="50.333232390353245" lon="3.5749722908372603"><ele>75.0</ele><time>2026-04-12T11:16:15.001Z</time></trkpt><trkpt lat="50.333147845728384" lon="3.574982706985656"><ele>75.0</ele><time>2026-04-12T11:16:17.001Z</time></trkpt><trkpt lat="50.33307652443266" lon="3.5750057081032773"><ele>75.0</ele><time>2026-04-12T11:16:19.001Z</time></trkpt><trkpt lat="50.33301414438161" lon="3.575029321791564"><ele>75.0</ele><time>2026-04-12T11:16:21.001Z</time></trkpt><trkpt lat="50.33293715608221" lon="3.575026827175701"><ele>75.33333333333333</ele><time>2026-04-12T11:16:23.001Z</time></trkpt><trkpt lat="50.33285353049604" lon="3.575043547940054"><ele>75.66666666666667</ele><time>2026-04-12T11:16:25.001Z</time></trkpt><trkpt lat="50.33277100061764" lon="3.575058466017426"><ele>76.0</ele><time>2026-04-12T11:16:27.001Z</time></trkpt><trkpt lat="50.33269331575928" lon="3.5750831423925384"><ele>76.33333333333334</ele><time>2026-04-12T11:16:29.001Z</time></trkpt><trkpt lat="50.3326086714113" lon="3.575103886881716"><ele>76.66666666666667</ele><time>2026-04-12T11:16:31.001Z</time></trkpt><trkpt lat="50.332516743445595" lon="3.575123608270633"><ele>77.0</ele><time>2026-04-12T11:16:33.001Z</time></trkpt><trkpt lat="50.33242540307377" lon="3.5751452174987413"><ele>77.0</ele><time>2026-04-12T11:16:35.001Z</time></trkpt><trkpt lat="50.33232726900056" lon="3.5751609705230587"><ele>77.0</ele><time>2026-04-12T11:16:37.001Z</time></trkpt><trkpt lat="50.33222956050714" lon="3.575168922882103"><ele>77.0</ele><time>2026-04-12T11:16:39Z</time></trkpt><trkpt lat="50.33212599191261" lon="3.575182182241697"><ele>77.0</ele><time>2026-04-12T11:16:41Z</time></trkpt><trkpt lat="50.33202175911262" lon="3.5751874901867957"><ele>77.0</ele><time>2026-04-12T11:16:43Z</time></trkpt><trkpt lat="50.33192585715949" lon="3.57518657082385"><ele>77.8</ele><time>2026-04-12T11:16:45Z</time></trkpt><trkpt lat="50.33182669620032" lon="3.575189792508447"><ele>78.6</ele><time>2026-04-12T11:16:47Z</time></trkpt><trkpt lat="50.331726369899" lon="3.5751881990645122"><ele>79.39999999999999</ele><time>2026-04-12T11:16:49Z</time></trkpt><trkpt lat="50.33163100304739" lon="3.5751732522854396"><ele>80.2</ele><time>2026-04-12T11:16:51Z</time></trkpt><trkpt lat="50.33154226293566" lon="3.5751621600448997"><ele>81.0</ele><time>2026-04-12T11:16:53Z</time></trkpt><trkpt lat="50.33146488144632" lon="3.575161447305367"><ele>81.0</ele><time>2026-04-12T11:16:55Z</time></trkpt><trkpt lat="50.33138576953295" lon="3.57516616028114"><ele>81.0</ele><time>2026-04-12T11:16:56Z</time></trkpt><trkpt lat="50.331275478406454" lon="3.57515243323446"><ele>81.0</ele><time>2026-04-12T11:16:58Z</time></trkpt><trkpt lat="50.33118165567593" lon="3.5751463259557794"><ele>81.0</ele><time>2026-04-12T11:17:00Z</time></trkpt><trkpt lat="50.33109278596854" lon="3.5751379134927554"><ele>81.0</ele><time>2026-04-12T11:17:02Z</time></trkpt><trkpt lat="50.33099943526215" lon="3.575129978463826"><ele>81.0</ele><time>2026-04-12T11:17:04Z</time></trkpt><trkpt lat="50.330910311676604" lon="3.57511947115559"><ele>81.0</ele><time>2026-04-12T11:17:06Z</time></trkpt><trkpt lat="50.33082417492692" lon="3.575112060704902"><ele>81.0</ele><time>2026-04-12T11:17:08Z</time></trkpt><trkpt lat="50.330741960605536" lon="3.5751062175273876"><ele>81.0</ele><time>2026-04-12T11:17:10Z</time></trkpt><trkpt lat="50.330662904374336" lon="3.575102127114095"><ele>81.0</ele><time>2026-04-12T11:17:12Z</time></trkpt><trkpt lat="50.33058596240136" lon="3.575098169484289"><ele>81.0</ele><time>2026-04-12T11:17:14Z</time></trkpt><trkpt lat="50.33051075427578" lon="3.57509889817372"><ele>81.0</ele><time>2026-04-12T11:17:16Z</time></trkpt><trkpt lat="50.33043581292115" lon="3.575088521242368"><ele>81.0</ele><time>2026-04-12T11:17:18Z</time></trkpt><trkpt lat="50.330361202304985" lon="3.5750815889786685"><ele>81.0</ele><time>2026-04-12T11:17:20Z</time></trkpt><trkpt lat="50.33029047811411" lon="3.575072674674976"><ele>81.0</ele><time>2026-04-12T11:17:22Z</time></trkpt><trkpt lat="50.330216454270925" lon="3.5750641708948474"><ele>81.0</ele><time>2026-04-12T11:17:24Z</time></trkpt><trkpt lat="50.33014181091628" lon="3.5750596277632547"><ele>81.0</ele><time>2026-04-12T11:17:26Z</time></trkpt><trkpt lat="50.330066699490665" lon="3.575057438931285"><ele>81.0</ele><time>2026-04-12T11:17:28Z</time></trkpt><trkpt lat="50.329990969484186" lon="3.5750462264421716"><ele>81.0</ele><time>2026-04-12T11:17:30Z</time></trkpt><trkpt lat="50.32991481118476" lon="3.575042880070092"><ele>81.0</ele><time>2026-04-12T11:17:32Z</time></trkpt><trkpt lat="50.32983643559059" lon="3.5750465285798225"><ele>81.0</ele><time>2026-04-12T11:17:34Z</time></trkpt><trkpt lat="50.329758183948684" lon="3.57504462223024"><ele>81.0</ele><time>2026-04-12T11:17:36Z</time></trkpt><trkpt lat="50.329683176771326" lon="3.5750466447625677"><ele>81.0</ele><time>2026-04-12T11:17:38Z</time></trkpt><trkpt lat="50.32960444883192" lon="3.5750530370400737"><ele>81.0</ele><time>2026-04-12T11:17:40Z</time></trkpt><trkpt lat="50.32952067138075" lon="3.575053289704317"><ele>81.0</ele><time>2026-04-12T11:17:42Z</time></trkpt><trkpt lat="50.329431247254504" lon="3.575054902413094"><ele>81.0</ele><time>2026-04-12T11:17:44Z</time></trkpt><trkpt lat="50.32935010102198" lon="3.5750661453785213"><ele>81.0</ele><time>2026-04-12T11:17:46Z</time></trkpt><trkpt lat="50.329267765202346" lon="3.575076986413851"><ele>81.0</ele><time>2026-04-12T11:17:48Z</time></trkpt><trkpt lat="50.32918499484486" lon="3.5750938326844373"><ele>81.0</ele><time>2026-04-12T11:17:50Z</time></trkpt><trkpt lat="50.32910025954761" lon="3.575106097615069"><ele>81.0</ele><time>2026-04-12T11:17:52Z</time></trkpt><trkpt lat="50.329015702496996" lon="3.5751257381392856"><ele>81.0</ele><time>2026-04-12T11:17:54.001Z</time></trkpt><trkpt lat="50.32893103932683" lon="3.575146411028088"><ele>81.0</ele><time>2026-04-12T11:17:56.001Z</time></trkpt><trkpt lat="50.328842409884594" lon="3.575165002358062"><ele>81.0</ele><time>2026-04-12T11:17:58.001Z</time></trkpt><trkpt lat="50.32875409348793" lon="3.5751900135233416"><ele>81.0</ele><time>2026-04-12T11:18:00.001Z</time></trkpt><trkpt lat="50.328664537242545" lon="3.575207861362704"><ele>81.0</ele><time>2026-04-12T11:18:02.001Z</time></trkpt><trkpt lat="50.32857367737072" lon="3.5752261832675534"><ele>81.0</ele><time>2026-04-12T11:18:04.001Z</time></trkpt><trkpt lat="50.32848381675483" lon="3.5752553135850595"><ele>81.0</ele><time>2026-04-12T11:18:06.001Z</time></trkpt><trkpt lat="50.32839549137981" lon="3.575283612959161"><ele>81.0</ele><time>2026-04-12T11:18:08.001Z</time></trkpt><trkpt lat="50.32830937833736" lon="3.575318070994385"><ele>81.0</ele><time>2026-04-12T11:18:10.001Z</time></trkpt><trkpt lat="50.32821797697962" lon="3.5753479180777066"><ele>81.0</ele><time>2026-04-12T11:18:12.001Z</time></trkpt><trkpt lat="50.328134503620866" lon="3.575390640526029"><ele>81.0</ele><time>2026-04-12T11:18:14.001Z</time></trkpt><trkpt lat="50.32804578602433" lon="3.5754089136219487"><ele>81.16666666666667</ele><time>2026-04-12T11:18:16.001Z</time></trkpt><trkpt lat="50.32795962934747" lon="3.5754333299583774"><ele>81.33333333333333</ele><time>2026-04-12T11:18:18.001Z</time></trkpt><trkpt lat="50.3278687776815" lon="3.5754300635786933"><ele>81.5</ele><time>2026-04-12T11:18:20.001Z</time></trkpt><trkpt lat="50.327780457643044" lon="3.5754001175543944"><ele>81.66666666666666</ele><time>2026-04-12T11:18:22.001Z</time></trkpt><trkpt lat="50.32769699609946" lon="3.575368224912131"><ele>81.83333333333333</ele><time>2026-04-12T11:18:24.001Z</time></trkpt><trkpt lat="50.327607628733396" lon="3.5753301752213527"><ele>82.0</ele><time>2026-04-12T11:18:26.001Z</time></trkpt><trkpt lat="50.32752645256726" lon="3.575290521633541"><ele>82.0</ele><time>2026-04-12T11:18:28.001Z</time></trkpt><trkpt lat="50.32744204700138" lon="3.57526018199639"><ele>82.0</ele><time>2026-04-12T11:18:30.001Z</time></trkpt><trkpt lat="50.32735730584181" lon="3.5752211741524262"><ele>82.0</ele><time>2026-04-12T11:18:32.001Z</time></trkpt><trkpt lat="50.32726717373323" lon="3.5751910915177536"><ele>82.0</ele><time>2026-04-12T11:18:34.001Z</time></trkpt><trkpt lat="50.32717574748258" lon="3.575152613325714"><ele>82.0</ele><time>2026-04-12T11:18:36.001Z</time></trkpt><trkpt lat="50.32708753130764" lon="3.575118382220331"><ele>82.0</ele><time>2026-04-12T11:18:38.001Z</time></trkpt><trkpt lat="50.32699424917017" lon="3.5750789090227704"><ele>82.0</ele><time>2026-04-12T11:18:40.001Z</time></trkpt><trkpt lat="50.32690609652336" lon="3.5750279162730343"><ele>82.0</ele><time>2026-04-12T11:18:42.001Z</time></trkpt><trkpt lat="50.326813158564995" lon="3.5749510582523785"><ele>82.0</ele><time>2026-04-12T11:18:44.001Z</time></trkpt><trkpt lat="50.32673075258093" lon="3.574873168740946"><ele>82.0</ele><time>2026-04-12T11:18:45.999Z</time></trkpt><trkpt lat="50.32664965620869" lon="3.5747800037647313"><ele>82.0</ele><time>2026-04-12T11:18:47.999Z</time></trkpt><trkpt lat="50.326567152007954" lon="3.574697044275925"><ele>82.0</ele><time>2026-04-12T11:18:49.999Z</time></trkpt><trkpt lat="50.326476364185154" lon="3.5746221529074225"><ele>82.0</ele><time>2026-04-12T11:18:51.999Z</time></trkpt><trkpt lat="50.326378855236385" lon="3.5745682092945033"><ele>82.0</ele><time>2026-04-12T11:18:53.999Z</time></trkpt><trkpt lat="50.32628057476113" lon="3.5745383717903274"><ele>82.0</ele><time>2026-04-12T11:18:55.999Z</time></trkpt><trkpt lat="50.32617785540068" lon="3.5745301649035937"><ele>82.0</ele><time>2026-04-12T11:18:57.999Z</time></trkpt><trkpt lat="50.3260778970303" lon="3.57453043958116"><ele>82.0</ele><time>2026-04-12T11:18:59.999Z</time></trkpt><trkpt lat="50.325973262299456" lon="3.5745319796151094"><ele>82.0</ele><time>2026-04-12T11:19:01.999Z</time></trkpt><trkpt lat="50.32587003364524" lon="3.57453057191835"><ele>82.0</ele><time>2026-04-12T11:19:03.999Z</time></trkpt><trkpt lat="50.32576577071736" lon="3.5745335132224296"><ele>82.0</ele><time>2026-04-12T11:19:06Z</time></trkpt><trkpt lat="50.32566234203252" lon="3.5745408490796424"><ele>82.0</ele><time>2026-04-12T11:19:08Z</time></trkpt><trkpt lat="50.32555533770075" lon="3.574544908070251"><ele>82.0</ele><time>2026-04-12T11:19:10Z</time></trkpt><trkpt lat="50.3254509414253" lon="3.5745530795551734"><ele>82.0</ele><time>2026-04-12T11:19:12Z</time></trkpt><trkpt lat="50.32534650391502" lon="3.574557777826191"><ele>82.0</ele><time>2026-04-12T11:19:14Z</time></trkpt><trkpt lat="50.32524008367749" lon="3.574565160965689"><ele>82.0</ele><time>2026-04-12T11:19:16Z</time></trkpt><trkpt lat="50.3251350733644" lon="3.574573606336507"><ele>82.0</ele><time>2026-04-12T11:19:18Z</time></trkpt><trkpt lat="50.325033942256844" lon="3.574587863541404"><ele>82.0</ele><time>2026-04-12T11:19:20Z</time></trkpt><trkpt lat="50.324932811779995" lon="3.574608154886899"><ele>82.0</ele><time>2026-04-12T11:19:22Z</time></trkpt><trkpt lat="50.32483095052773" lon="3.5746270294531137"><ele>82.0</ele><time>2026-04-12T11:19:24Z</time></trkpt><trkpt lat="50.32473293530361" lon="3.5746451111843385"><ele>82.0</ele><time>2026-04-12T11:19:26Z</time></trkpt><trkpt lat="50.32462917837533" lon="3.5746722729759965"><ele>82.0</ele><time>2026-04-12T11:19:28Z</time></trkpt><trkpt lat="50.32452872157038" lon="3.5746983764887106"><ele>82.0</ele><time>2026-04-12T11:19:30Z</time></trkpt><trkpt lat="50.324430261906585" lon="3.5747307056659157"><ele>82.0</ele><time>2026-04-12T11:19:32Z</time></trkpt><trkpt lat="50.32432976213489" lon="3.574754846501692"><ele>82.0</ele><time>2026-04-12T11:19:34Z</time></trkpt><trkpt lat="50.32423267588842" lon="3.5747753272816887"><ele>82.0</ele><time>2026-04-12T11:19:36Z</time></trkpt><trkpt lat="50.32413820085621" lon="3.574805096606434"><ele>82.0</ele><time>2026-04-12T11:19:38Z</time></trkpt><trkpt lat="50.32404370766886" lon="3.574829644273473"><ele>82.0</ele><time>2026-04-12T11:19:40Z</time></trkpt><trkpt lat="50.32394465652242" lon="3.574850383903261"><ele>82.0</ele><time>2026-04-12T11:19:42Z</time></trkpt><trkpt lat="50.323846386412356" lon="3.5748716594952774"><ele>82.0</ele><time>2026-04-12T11:19:44Z</time></trkpt><trkpt lat="50.323749431533386" lon="3.574892609955029"><ele>82.0</ele><time>2026-04-12T11:19:46Z</time></trkpt><trkpt lat="50.32365648462409" lon="3.5749130150896633"><ele>82.0</ele><time>2026-04-12T11:19:48Z</time></trkpt><trkpt lat="50.3235643434153" lon="3.5749331872321704"><ele>82.0</ele><time>2026-04-12T11:19:50Z</time></trkpt><trkpt lat="50.323472714137125" lon="3.5749458844272834"><ele>82.0</ele><time>2026-04-12T11:19:52Z</time></trkpt><trkpt lat="50.32337743790681" lon="3.5749620870463388"><ele>82.0</ele><time>2026-04-12T11:19:54Z</time></trkpt><trkpt lat="50.323281545332435" lon="3.574976727057041"><ele>82.0</ele><time>2026-04-12T11:19:56Z</time></trkpt><trkpt lat="50.323188928431044" lon="3.5749870928412846"><ele>82.0</ele><time>2026-04-12T11:19:58Z</time></trkpt><trkpt lat="50.32309651574128" lon="3.574999509112498"><ele>82.0</ele><time>2026-04-12T11:20:00Z</time></trkpt><trkpt lat="50.3230054091591" lon="3.5750153766230564"><ele>82.0</ele><time>2026-04-12T11:20:02Z</time></trkpt><trkpt lat="50.3229126383215" lon="3.5750256548805517"><ele>82.0</ele><time>2026-04-12T11:20:04Z</time></trkpt><trkpt lat="50.32282161360229" lon="3.5750317229504995"><ele>82.0</ele><time>2026-04-12T11:20:06Z</time></trkpt><trkpt lat="50.32273290905743" lon="3.575038034549359"><ele>81.83333333333333</ele><time>2026-04-12T11:20:08Z</time></trkpt><trkpt lat="50.322646741642544" lon="3.5750425280307185"><ele>81.66666666666666</ele><time>2026-04-12T11:20:10Z</time></trkpt><trkpt lat="50.3225616688402" lon="3.5750511786921493"><ele>81.5</ele><time>2026-04-12T11:20:12Z</time></trkpt><trkpt lat="50.322476679833755" lon="3.5750509784165705"><ele>81.33333333333333</ele><time>2026-04-12T11:20:14Z</time></trkpt><trkpt lat="50.32239596372236" lon="3.57505497228945"><ele>81.16666666666667</ele><time>2026-04-12T11:20:16.001Z</time></trkpt><trkpt lat="50.32231527758606" lon="3.575058303457139"><ele>81.0</ele><time>2026-04-12T11:20:18.001Z</time></trkpt><trkpt lat="50.322232191058305" lon="3.575059658977152"><ele>81.66666666666667</ele><time>2026-04-12T11:20:20.001Z</time></trkpt><trkpt lat="50.322146610818464" lon="3.575057289977229"><ele>82.33333333333333</ele><time>2026-04-12T11:20:22.001Z</time></trkpt><trkpt lat="50.322066780884136" lon="3.5750590206320276"><ele>83.0</ele><time>2026-04-12T11:20:24.001Z</time></trkpt><trkpt lat="50.321980322980004" lon="3.575059403710339"><ele>83.66666666666666</ele><time>2026-04-12T11:20:26.001Z</time></trkpt><trkpt lat="50.321899866062395" lon="3.57505916263136"><ele>84.33333333333333</ele><time>2026-04-12T11:20:28.001Z</time></trkpt><trkpt lat="50.32181879845638" lon="3.5750567128662953"><ele>85.0</ele><time>2026-04-12T11:20:30.001Z</time></trkpt><trkpt lat="50.32173627249448" lon="3.5750537448768034"><ele>85.0</ele><time>2026-04-12T11:20:32.001Z</time></trkpt><trkpt lat="50.321654659412424" lon="3.5750477631779294"><ele>85.0</ele><time>2026-04-12T11:20:34.001Z</time></trkpt><trkpt lat="50.321573123176925" lon="3.575035156026867"><ele>85.0</ele><time>2026-04-12T11:20:36.001Z</time></trkpt><trkpt lat="50.321490180763924" lon="3.575024176575295"><ele>85.0</ele><time>2026-04-12T11:20:38.001Z</time></trkpt><trkpt lat="50.321411072475634" lon="3.575006787196304"><ele>85.0</ele><time>2026-04-12T11:20:40.001Z</time></trkpt><trkpt lat="50.321332600441835" lon="3.574981466825299"><ele>85.0</ele><time>2026-04-12T11:20:42.001Z</time></trkpt><trkpt lat="50.321256910735855" lon="3.5749500005902144"><ele>85.66666666666666</ele><time>2026-04-12T11:20:44.001Z</time></trkpt><trkpt lat="50.321185157923786" lon="3.5749181100678165"><ele>86.33333333333333</ele><time>2026-04-12T11:20:46.001Z</time></trkpt><trkpt lat="50.32110910756543" lon="3.574871222834213"><ele>87.0</ele><time>2026-04-12T11:20:48.001Z</time></trkpt><trkpt lat="50.32104053966545" lon="3.574812168959524"><ele>87.66666666666667</ele><time>2026-04-12T11:20:50.001Z</time></trkpt><trkpt lat="50.32098247515755" lon="3.5747499624087875"><ele>88.33333333333334</ele><time>2026-04-12T11:20:51.999Z</time></trkpt><trkpt lat="50.32091295752193" lon="3.574703495172672"><ele>89.0</ele><time>2026-04-12T11:20:53.999Z</time></trkpt><trkpt lat="50.32084717249618" lon="3.574644274491422"><ele>89.0</ele><time>2026-04-12T11:20:55.999Z</time></trkpt><trkpt lat="50.32077347783807" lon="3.5745906141910657"><ele>89.0</ele><time>2026-04-12T11:20:57.999Z</time></trkpt><trkpt lat="50.320710456232" lon="3.574555141560722"><ele>89.0</ele><time>2026-04-12T11:21:00Z</time></trkpt><trkpt lat="50.32063791096247" lon="3.574519595582309"><ele>89.0</ele><time>2026-04-12T11:21:02Z</time></trkpt><trkpt lat="50.3205625418827" lon="3.5744906988169896"><ele>89.0</ele><time>2026-04-12T11:21:04Z</time></trkpt><trkpt lat="50.32048968254209" lon="3.5744708145352906"><ele>89.0</ele><time>2026-04-12T11:21:06Z</time></trkpt><trkpt lat="50.320414671250944" lon="3.5744591557070535"><ele>89.28571428571428</ele><time>2026-04-12T11:21:08Z</time></trkpt><trkpt lat="50.32034050535413" lon="3.5744522459247516"><ele>89.57142857142857</ele><time>2026-04-12T11:21:10Z</time></trkpt><trkpt lat="50.32026670359338" lon="3.574452867327767"><ele>89.85714285714286</ele><time>2026-04-12T11:21:12Z</time></trkpt><trkpt lat="50.320191154546656" lon="3.5744563957834434"><ele>90.14285714285714</ele><time>2026-04-12T11:21:14Z</time></trkpt><trkpt lat="50.32011562076512" lon="3.57446547895288"><ele>90.42857142857143</ele><time>2026-04-12T11:21:16Z</time></trkpt><trkpt lat="50.32003883219" lon="3.5744784108543017"><ele>90.71428571428571</ele><time>2026-04-12T11:21:18Z</time></trkpt><trkpt lat="50.31996681402725" lon="3.5744875884155185"><ele>91.0</ele><time>2026-04-12T11:21:20Z</time></trkpt><trkpt lat="50.319894099382346" lon="3.5744972131654755"><ele>91.0</ele><time>2026-04-12T11:21:22Z</time></trkpt><trkpt lat="50.319822344489964" lon="3.574514342555472"><ele>91.0</ele><time>2026-04-12T11:21:24Z</time></trkpt><trkpt lat="50.31975123107513" lon="3.574533040990092"><ele>91.0</ele><time>2026-04-12T11:21:26Z</time></trkpt><trkpt lat="50.31968124830024" lon="3.5745520906478947"><ele>91.0</ele><time>2026-04-12T11:21:28Z</time></trkpt><trkpt lat="50.3196042566903" lon="3.574573090799911"><ele>91.0</ele><time>2026-04-12T11:21:30Z</time></trkpt><trkpt lat="50.31951582181229" lon="3.57460114143532"><ele>91.0</ele><time>2026-04-12T11:21:32Z</time></trkpt><trkpt lat="50.31944431887094" lon="3.5746245609355882"><ele>91.19999999999999</ele><time>2026-04-12T11:21:34Z</time></trkpt><trkpt lat="50.319357481926914" lon="3.574660703973579"><ele>91.39999999999999</ele><time>2026-04-12T11:21:36Z</time></trkpt><trkpt lat="50.31926806446694" lon="3.5747029828714716"><ele>91.6</ele><time>2026-04-12T11:21:38Z</time></trkpt><trkpt lat="50.31917783168595" lon="3.574753088233764"><ele>91.8</ele><time>2026-04-12T11:21:40Z</time></trkpt><trkpt lat="50.319079571100104" lon="3.5747912254845304"><ele>92.0</ele><time>2026-04-12T11:21:42Z</time></trkpt><trkpt lat="50.31897446503329" lon="3.574840611584915"><ele>91.66666666666667</ele><time>2026-04-12T11:21:44Z</time></trkpt><trkpt lat="50.31886101872484" lon="3.5748843351400503"><ele>91.33333333333334</ele><time>2026-04-12T11:21:46Z</time></trkpt><trkpt lat="50.318742981086814" lon="3.5749186272503963"><ele>91.0</ele><time>2026-04-12T11:21:48Z</time></trkpt><trkpt lat="50.31867370894008" lon="3.5749237843453505"><ele>90.66666666666667</ele><time>2026-04-12T11:21:49Z</time></trkpt><trkpt lat="50.31860286649265" lon="3.5749187476039817"><ele>90.33333333333333</ele><time>2026-04-12T11:21:50Z</time></trkpt><trkpt lat="50.31853401298835" lon="3.574918028842063"><ele>90.0</ele><time>2026-04-12T11:21:51Z</time></trkpt><trkpt lat="50.31846055942945" lon="3.5749039923165054"><ele>90.0</ele><time>2026-04-12T11:21:52Z</time></trkpt><trkpt lat="50.31838765222632" lon="3.574895439756829"><ele>90.0</ele><time>2026-04-12T11:21:53Z</time></trkpt><trkpt lat="50.318309976519686" lon="3.5748825965997386"><ele>90.0</ele><time>2026-04-12T11:21:54Z</time></trkpt><trkpt lat="50.31823873558118" lon="3.5748596189783757"><ele>90.0</ele><time>2026-04-12T11:21:55Z</time></trkpt><trkpt lat="50.318162253796146" lon="3.574842899917398"><ele>90.0</ele><time>2026-04-12T11:21:56Z</time></trkpt><trkpt lat="50.3180835741178" lon="3.5748232609489605"><ele>90.0</ele><time>2026-04-12T11:21:57Z</time></trkpt><trkpt lat="50.31800398564556" lon="3.5748055565840855"><ele>89.33333333333333</ele><time>2026-04-12T11:21:58.001Z</time></trkpt><trkpt lat="50.317919623920794" lon="3.5747877923686167"><ele>88.66666666666667</ele><time>2026-04-12T11:21:59.001Z</time></trkpt><trkpt lat="50.317839597437256" lon="3.5747634881169463"><ele>88.0</ele><time>2026-04-12T11:22:00.001Z</time></trkpt><trkpt lat="50.317758549754785" lon="3.574747183576661"><ele>87.33333333333334</ele><time>2026-04-12T11:22:01.001Z</time></trkpt><trkpt lat="50.317678417197065" lon="3.574727894233176"><ele>86.66666666666667</ele><time>2026-04-12T11:22:02.001Z</time></trkpt><trkpt lat="50.31759740837941" lon="3.5747062455631986"><ele>86.0</ele><time>2026-04-12T11:22:03.001Z</time></trkpt><trkpt lat="50.317516100607435" lon="3.5746871361826704"><ele>86.0</ele><time>2026-04-12T11:22:04.001Z</time></trkpt><trkpt lat="50.317434217603804" lon="3.5746648567411263"><ele>86.0</ele><time>2026-04-12T11:22:05.001Z</time></trkpt><trkpt lat="50.31735180144425" lon="3.574647773869729"><ele>86.0</ele><time>2026-04-12T11:22:06.001Z</time></trkpt><trkpt lat="50.31727132071013" lon="3.574619972463729"><ele>86.0</ele><time>2026-04-12T11:22:07.001Z</time></trkpt><trkpt lat="50.31719323570954" lon="3.5745912796228985"><ele>86.0</ele><time>2026-04-12T11:22:08.001Z</time></trkpt><trkpt lat="50.317112101203456" lon="3.574571662290314"><ele>86.0</ele><time>2026-04-12T11:22:09.001Z</time></trkpt><trkpt lat="50.31703330110642" lon="3.5745553400266523"><ele>85.33333333333334</ele><time>2026-04-12T11:22:10.001Z</time></trkpt><trkpt lat="50.31695070363132" lon="3.5745503071512186"><ele>84.66666666666667</ele><time>2026-04-12T11:22:11.001Z</time></trkpt><trkpt lat="50.316869496860924" lon="3.574556866958556"><ele>84.0</ele><time>2026-04-12T11:22:12.001Z</time></trkpt><trkpt lat="50.31678882348884" lon="3.5745689656328263"><ele>83.33333333333333</ele><time>2026-04-12T11:22:13.001Z</time></trkpt><trkpt lat="50.31671328923072" lon="3.57458261956926"><ele>82.66666666666666</ele><time>2026-04-12T11:22:14.001Z</time></trkpt><trkpt lat="50.31663805057082" lon="3.5746022247157128"><ele>82.0</ele><time>2026-04-12T11:22:15.001Z</time></trkpt><trkpt lat="50.31656519815001" lon="3.574614352192526"><ele>81.99999999999999</ele><time>2026-04-12T11:22:16.001Z</time></trkpt><trkpt lat="50.31649027903791" lon="3.5746333700502855"><ele>82.0</ele><time>2026-04-12T11:22:17.001Z</time></trkpt><trkpt lat="50.316417418587676" lon="3.574650772586221"><ele>82.0</ele><time>2026-04-12T11:22:18.001Z</time></trkpt><trkpt lat="50.31634430979622" lon="3.57466414340448"><ele>82.0</ele><time>2026-04-12T11:22:19.001Z</time></trkpt><trkpt lat="50.31627136467532" lon="3.574680512161459"><ele>82.0</ele><time>2026-04-12T11:22:20.001Z</time></trkpt><trkpt lat="50.316200234376886" lon="3.574695389586973"><ele>81.99999999999999</ele><time>2026-04-12T11:22:21.001Z</time></trkpt><trkpt lat="50.31613212643809" lon="3.574712263271732"><ele>82.0</ele><time>2026-04-12T11:22:22.001Z</time></trkpt><trkpt lat="50.316060251659046" lon="3.574725591619913"><ele>81.33333333333333</ele><time>2026-04-12T11:22:23.001Z</time></trkpt><trkpt lat="50.31599144113122" lon="3.5747376304857448"><ele>80.66666666666666</ele><time>2026-04-12T11:22:24.001Z</time></trkpt><trkpt lat="50.315918132241514" lon="3.5747538020737486"><ele>80.0</ele><time>2026-04-12T11:22:25.001Z</time></trkpt><trkpt lat="50.31584849152216" lon="3.574769942333377"><ele>79.33333333333333</ele><time>2026-04-12T11:22:26.001Z</time></trkpt><trkpt lat="50.31578350350279" lon="3.574782594993687"><ele>78.66666666666667</ele><time>2026-04-12T11:22:27.001Z</time></trkpt><trkpt lat="50.31571800685866" lon="3.5747978511860694"><ele>78.0</ele><time>2026-04-12T11:22:28.001Z</time></trkpt><trkpt lat="50.315590841764646" lon="3.574832159427417"><ele>78.0</ele><time>2026-04-12T11:22:30.001Z</time></trkpt><trkpt lat="50.3154753577174" lon="3.574814982758979"><ele>78.0</ele><time>2026-04-12T11:22:32.001Z</time></trkpt><trkpt lat="50.31541337706076" lon="3.5747733179438086"><ele>78.0</ele><time>2026-04-12T11:22:33.001Z</time></trkpt><trkpt lat="50.315309267026855" lon="3.5746674240396565"><ele>78.0</ele><time>2026-04-12T11:22:35.001Z</time></trkpt><trkpt lat="50.31521392479669" lon="3.5745589874767183"><ele>78.0</ele><time>2026-04-12T11:22:37.001Z</time></trkpt><trkpt lat="50.31511057872894" lon="3.5744671928101925"><ele>78.0</ele><time>2026-04-12T11:22:39.001Z</time></trkpt><trkpt lat="50.315002774757126" lon="3.574390771480569"><ele>78.0</ele><time>2026-04-12T11:22:41.001Z</time></trkpt><trkpt lat="50.31489183539106" lon="3.5743394839840414"><ele>78.0</ele><time>2026-04-12T11:22:43.001Z</time></trkpt><trkpt lat="50.31478300386212" lon="3.5743270133707763"><ele>78.0</ele><time>2026-04-12T11:22:45.001Z</time></trkpt><trkpt lat="50.314675497867015" lon="3.5743215065612834"><ele>78.0</ele><time>2026-04-12T11:22:47.001Z</time></trkpt><trkpt lat="50.31457840175022" lon="3.574301661587996"><ele>78.0</ele><time>2026-04-12T11:22:49.001Z</time></trkpt><trkpt lat="50.31447950442015" lon="3.5742892005229536"><ele>78.0</ele><time>2026-04-12T11:22:51.001Z</time></trkpt><trkpt lat="50.31440318690035" lon="3.574265694802479"><ele>78.0</ele><time>2026-04-12T11:22:54.001Z</time></trkpt><trkpt lat="50.3143116397936" lon="3.5741832484360976"><ele>78.0</ele><time>2026-04-12T11:22:58.001Z</time></trkpt><trkpt lat="50.31423104887399" lon="3.574281958863753"><ele>78.0</ele><time>2026-04-12T11:23:00.001Z</time></trkpt><trkpt lat="50.31417128693747" lon="3.574391483525315"><ele>78.0</ele><time>2026-04-12T11:23:02.001Z</time></trkpt><trkpt lat="50.31410218503353" lon="3.574492168043465"><ele>78.0</ele><time>2026-04-12T11:23:04.001Z</time></trkpt><trkpt lat="50.31403132284516" lon="3.5746082322001347"><ele>78.0</ele><time>2026-04-12T11:23:06.001Z</time></trkpt><trkpt lat="50.313962591676706" lon="3.574712758207714"><ele>78.0</ele><time>2026-04-12T11:23:08.001Z</time></trkpt><trkpt lat="50.313900654810894" lon="3.5748126214757954"><ele>78.4</ele><time>2026-04-12T11:23:10.001Z</time></trkpt><trkpt lat="50.31383595698994" lon="3.5749046318824544"><ele>78.8</ele><time>2026-04-12T11:23:12.001Z</time></trkpt><trkpt lat="50.31376749538888" lon="3.5749866202783913"><ele>79.2</ele><time>2026-04-12T11:23:14.001Z</time></trkpt><trkpt lat="50.313692541956286" lon="3.5750650293155366"><ele>79.6</ele><time>2026-04-12T11:23:16.001Z</time></trkpt><trkpt lat="50.313610546931116" lon="3.575136725095107"><ele>80.0</ele><time>2026-04-12T11:23:18.001Z</time></trkpt><trkpt lat="50.313529377028715" lon="3.5752053608114656"><ele>80.0</ele><time>2026-04-12T11:23:20.001Z</time></trkpt><trkpt lat="50.31344833672206" lon="3.5752624062208938"><ele>80.0</ele><time>2026-04-12T11:23:22.001Z</time></trkpt><trkpt lat="50.31337055855086" lon="3.575327400412841"><ele>80.0</ele><time>2026-04-12T11:23:24.001Z</time></trkpt><trkpt lat="50.31329701849825" lon="3.5753938209804286"><ele>80.0</ele><time>2026-04-12T11:23:26.001Z</time></trkpt><trkpt lat="50.313219305240814" lon="3.5754536790921643"><ele>80.0</ele><time>2026-04-12T11:23:28.001Z</time></trkpt><trkpt lat="50.31314168679727" lon="3.5755093560929403"><ele>80.0</ele><time>2026-04-12T11:23:30.001Z</time></trkpt><trkpt lat="50.31306490846264" lon="3.5755669887518855"><ele>80.0</ele><time>2026-04-12T11:23:32.001Z</time></trkpt><trkpt lat="50.31298600624333" lon="3.575629890061793"><ele>80.0</ele><time>2026-04-12T11:23:34.001Z</time></trkpt><trkpt lat="50.312902706441946" lon="3.575696607730715"><ele>80.0</ele><time>2026-04-12T11:23:36.001Z</time></trkpt><trkpt lat="50.31282068117389" lon="3.5757594118027534"><ele>80.0</ele><time>2026-04-12T11:23:38.001Z</time></trkpt><trkpt lat="50.312729458103604" lon="3.5758275471264978"><ele>80.0</ele><time>2026-04-12T11:23:40.001Z</time></trkpt><trkpt lat="50.31263637241448" lon="3.57590022396376"><ele>80.0</ele><time>2026-04-12T11:23:42.001Z</time></trkpt><trkpt lat="50.312538839880304" lon="3.575970103518388"><ele>80.0</ele><time>2026-04-12T11:23:44.001Z</time></trkpt><trkpt lat="50.31244272305253" lon="3.5760369514768477"><ele>80.0</ele><time>2026-04-12T11:23:46.001Z</time></trkpt><trkpt lat="50.31234475472544" lon="3.5761088292985863"><ele>80.0</ele><time>2026-04-12T11:23:48.001Z</time></trkpt><trkpt lat="50.31225597542809" lon="3.576183303814203"><ele>80.0</ele><time>2026-04-12T11:23:50.001Z</time></trkpt><trkpt lat="50.31217897575686" lon="3.5762669858722878"><ele>79.8</ele><time>2026-04-12T11:23:52.001Z</time></trkpt><trkpt lat="50.31211645519726" lon="3.576379203189243"><ele>79.6</ele><time>2026-04-12T11:23:54.001Z</time></trkpt><trkpt lat="50.31204252565658" lon="3.5764825833510954"><ele>79.4</ele><time>2026-04-12T11:23:56.001Z</time></trkpt><trkpt lat="50.31197138494978" lon="3.5765956120083855"><ele>79.2</ele><time>2026-04-12T11:23:58.001Z</time></trkpt><trkpt lat="50.31189755754963" lon="3.5767180379610752"><ele>79.0</ele><time>2026-04-12T11:24:00.001Z</time></trkpt><trkpt lat="50.31182525665353" lon="3.576845664934006"><ele>79.0</ele><time>2026-04-12T11:24:02.001Z</time></trkpt><trkpt lat="50.3117516012277" lon="3.5769775089056406"><ele>79.0</ele><time>2026-04-12T11:24:04.001Z</time></trkpt><trkpt lat="50.31167363759845" lon="3.577098971138715"><ele>79.0</ele><time>2026-04-12T11:24:06.001Z</time></trkpt><trkpt lat="50.31159429509308" lon="3.5772189767170115"><ele>79.0</ele><time>2026-04-12T11:24:08.001Z</time></trkpt><trkpt lat="50.3115183489173" lon="3.577340452057161"><ele>79.0</ele><time>2026-04-12T11:24:10.001Z</time></trkpt><trkpt lat="50.31143183478251" lon="3.5774602027946885"><ele>78.75</ele><time>2026-04-12T11:24:12.001Z</time></trkpt><trkpt lat="50.31134911737145" lon="3.5775840505753367"><ele>78.5</ele><time>2026-04-12T11:24:14.001Z</time></trkpt><trkpt lat="50.31125979857812" lon="3.577697775269379"><ele>78.25</ele><time>2026-04-12T11:24:16.001Z</time></trkpt><trkpt lat="50.311167943577814" lon="3.5778125521280804"><ele>78.0</ele><time>2026-04-12T11:24:18.001Z</time></trkpt><trkpt lat="50.31108565639672" lon="3.577946254637947"><ele>78.0</ele><time>2026-04-12T11:24:20.001Z</time></trkpt><trkpt lat="50.31100131786151" lon="3.578075710052983"><ele>78.0</ele><time>2026-04-12T11:24:22.001Z</time></trkpt><trkpt lat="50.31092336163542" lon="3.578190722144489"><ele>78.0</ele><time>2026-04-12T11:24:24.001Z</time></trkpt><trkpt lat="50.31082658037051" lon="3.5782560046399183"><ele>78.0</ele><time>2026-04-12T11:24:26.001Z</time></trkpt><trkpt lat="50.31074645528491" lon="3.578336426455844"><ele>78.0</ele><time>2026-04-12T11:24:28.001Z</time></trkpt><trkpt lat="50.31069796360872" lon="3.578400237379101"><ele>78.0</ele><time>2026-04-12T11:24:29.001Z</time></trkpt><trkpt lat="50.310613797342924" lon="3.57848900724442"><ele>78.0</ele><time>2026-04-12T11:24:31.001Z</time></trkpt><trkpt lat="50.31052131417901" lon="3.5785676078139494"><ele>78.0</ele><time>2026-04-12T11:24:33.001Z</time></trkpt><trkpt lat="50.310431811260806" lon="3.5786553004398183"><ele>78.0</ele><time>2026-04-12T11:24:35.001Z</time></trkpt><trkpt lat="50.31034024143934" lon="3.578730701040524"><ele>78.0</ele><time>2026-04-12T11:24:37.001Z</time></trkpt><trkpt lat="50.31025987318713" lon="3.5788019487264098"><ele>78.2</ele><time>2026-04-12T11:24:39.001Z</time></trkpt><trkpt lat="50.31017309928564" lon="3.5788696160882334"><ele>78.4</ele><time>2026-04-12T11:24:41.001Z</time></trkpt><trkpt lat="50.310094342910766" lon="3.5789412719558964"><ele>78.60000000000001</ele><time>2026-04-12T11:24:43.001Z</time></trkpt><trkpt lat="50.31001109720153" lon="3.579015709310649"><ele>78.8</ele><time>2026-04-12T11:24:45.001Z</time></trkpt><trkpt lat="50.30993444551146" lon="3.579092151889045"><ele>79.0</ele><time>2026-04-12T11:24:47.001Z</time></trkpt><trkpt lat="50.30986090699256" lon="3.5791645552176017"><ele>79.0</ele><time>2026-04-12T11:24:49.001Z</time></trkpt><trkpt lat="50.3097739595509" lon="3.5792440760179236"><ele>79.0</ele><time>2026-04-12T11:24:51.001Z</time></trkpt><trkpt lat="50.30969388626839" lon="3.5793097069932873"><ele>79.0</ele><time>2026-04-12T11:24:53.001Z</time></trkpt><trkpt lat="50.309610079475696" lon="3.579381423864345"><ele>79.0</ele><time>2026-04-12T11:24:55.002Z</time></trkpt><trkpt lat="50.30953143080777" lon="3.579453919897299"><ele>79.0</ele><time>2026-04-12T11:24:57.002Z</time></trkpt><trkpt lat="50.3094475844921" lon="3.5795270481817223"><ele>79.66666666666666</ele><time>2026-04-12T11:24:59.002Z</time></trkpt><trkpt lat="50.30936935382103" lon="3.5795999478423037"><ele>80.33333333333333</ele><time>2026-04-12T11:25:01.002Z</time></trkpt><trkpt lat="50.3092827947781" lon="3.5796737543283115"><ele>81.0</ele><time>2026-04-12T11:25:03.002Z</time></trkpt><trkpt lat="50.30920449687704" lon="3.579737606091627"><ele>81.66666666666667</ele><time>2026-04-12T11:25:05.002Z</time></trkpt><trkpt lat="50.309129515861635" lon="3.579798440479367"><ele>82.33333333333334</ele><time>2026-04-12T11:25:07.002Z</time></trkpt><trkpt lat="50.30905413327478" lon="3.5798564429343487"><ele>83.0</ele><time>2026-04-12T11:25:09.001Z</time></trkpt><trkpt lat="50.30897967622848" lon="3.5799095661921383"><ele>83.0</ele><time>2026-04-12T11:25:11.001Z</time></trkpt><trkpt lat="50.30891169629956" lon="3.579966731063443"><ele>83.0</ele><time>2026-04-12T11:25:13.001Z</time></trkpt><trkpt lat="50.308842262139144" lon="3.580017773757608"><ele>83.0</ele><time>2026-04-12T11:25:15.001Z</time></trkpt><trkpt lat="50.30877009880303" lon="3.58007528893452"><ele>83.0</ele><time>2026-04-12T11:25:17.001Z</time></trkpt><trkpt lat="50.30870121122667" lon="3.5801265527412953"><ele>83.0</ele><time>2026-04-12T11:25:19.001Z</time></trkpt><trkpt lat="50.30863202516717" lon="3.580177982833694"><ele>83.0</ele><time>2026-04-12T11:25:21.001Z</time></trkpt><trkpt lat="50.30856569756543" lon="3.5802288153028594"><ele>83.28571428571428</ele><time>2026-04-12T11:25:23.001Z</time></trkpt><trkpt lat="50.30849612382788" lon="3.580278642632196"><ele>83.57142857142858</ele><time>2026-04-12T11:25:25.001Z</time></trkpt><trkpt lat="50.30842503102283" lon="3.5803278451566016"><ele>83.85714285714286</ele><time>2026-04-12T11:25:27.001Z</time></trkpt><trkpt lat="50.30836065283871" lon="3.580380953782321"><ele>84.14285714285714</ele><time>2026-04-12T11:25:29.001Z</time></trkpt><trkpt lat="50.308293928597216" lon="3.580430031079318"><ele>84.42857142857142</ele><time>2026-04-12T11:25:31.001Z</time></trkpt><trkpt lat="50.30823166296495" lon="3.5804813224943537"><ele>84.71428571428572</ele><time>2026-04-12T11:25:33.001Z</time></trkpt><trkpt lat="50.30816844648192" lon="3.5805308820734933"><ele>85.0</ele><time>2026-04-12T11:25:35.001Z</time></trkpt><trkpt lat="50.308108168113364" lon="3.5805836146515704"><ele>85.42857142857143</ele><time>2026-04-12T11:25:37.001Z</time></trkpt><trkpt lat="50.30804318514304" lon="3.5806144799294595"><ele>85.85714285714285</ele><time>2026-04-12T11:25:39.001Z</time></trkpt><trkpt lat="50.307981513807626" lon="3.580662410532915"><ele>86.28571428571428</ele><time>2026-04-12T11:25:41.001Z</time></trkpt><trkpt lat="50.30792524466776" lon="3.5807284496723057"><ele>86.71428571428572</ele><time>2026-04-12T11:25:43.001Z</time></trkpt><trkpt lat="50.30786852285826" lon="3.5807988219363702"><ele>87.14285714285714</ele><time>2026-04-12T11:25:45.001Z</time></trkpt><trkpt lat="50.30780925961034" lon="3.580867434472913"><ele>87.57142857142857</ele><time>2026-04-12T11:25:47.001Z</time></trkpt><trkpt lat="50.30774697764321" lon="3.5809342710563143"><ele>88.0</ele><time>2026-04-12T11:25:49.001Z</time></trkpt><trkpt lat="50.30769188688484" lon="3.581008644308425"><ele>88.0</ele><time>2026-04-12T11:25:51.001Z</time></trkpt><trkpt lat="50.30763747378336" lon="3.5810832677772226"><ele>88.0</ele><time>2026-04-12T11:25:53.001Z</time></trkpt><trkpt lat="50.30758642934271" lon="3.5811634157311105"><ele>88.0</ele><time>2026-04-12T11:25:55.001Z</time></trkpt><trkpt lat="50.307538003374404" lon="3.5812416716274247"><ele>88.0</ele><time>2026-04-12T11:25:57.001Z</time></trkpt><trkpt lat="50.30749098347284" lon="3.5813234385496866"><ele>88.0</ele><time>2026-04-12T11:25:59.001Z</time></trkpt><trkpt lat="50.30744555437209" lon="3.581408386009262"><ele>88.0</ele><time>2026-04-12T11:26:01.001Z</time></trkpt><trkpt lat="50.307399972471345" lon="3.5814879531789656"><ele>88.0</ele><time>2026-04-12T11:26:03.001Z</time></trkpt><trkpt lat="50.3073557439779" lon="3.581569560998209"><ele>88.0</ele><time>2026-04-12T11:26:05.001Z</time></trkpt><trkpt lat="50.3073171193923" lon="3.58165357394803"><ele>88.0</ele><time>2026-04-12T11:26:07.001Z</time></trkpt><trkpt lat="50.307274685156116" lon="3.5817353511897774"><ele>88.0</ele><time>2026-04-12T11:26:09.001Z</time></trkpt><trkpt lat="50.30722940233572" lon="3.581817412097662"><ele>88.0</ele><time>2026-04-12T11:26:11.001Z</time></trkpt><trkpt lat="50.30718498544946" lon="3.581902871196605"><ele>88.0</ele><time>2026-04-12T11:26:13.001Z</time></trkpt><trkpt lat="50.30713866623448" lon="3.5819883140552853"><ele>88.0</ele><time>2026-04-12T11:26:15.001Z</time></trkpt><trkpt lat="50.30709465294616" lon="3.582076991151026"><ele>88.0</ele><time>2026-04-12T11:26:17.001Z</time></trkpt><trkpt lat="50.30704833702996" lon="3.5821572203874785"><ele>88.28571428571429</ele><time>2026-04-12T11:26:19.001Z</time></trkpt><trkpt lat="50.306999554007746" lon="3.582239378639231"><ele>88.57142857142857</ele><time>2026-04-12T11:26:21.001Z</time></trkpt><trkpt lat="50.30695189688306" lon="3.582325748737408"><ele>88.85714285714286</ele><time>2026-04-12T11:26:23.001Z</time></trkpt><trkpt lat="50.30691119779529" lon="3.582411539921298"><ele>89.14285714285714</ele><time>2026-04-12T11:26:25.001Z</time></trkpt><trkpt lat="50.3068662551018" lon="3.582498408075537"><ele>89.42857142857143</ele><time>2026-04-12T11:26:27.001Z</time></trkpt><trkpt lat="50.306819353930614" lon="3.58258412978994"><ele>89.71428571428571</ele><time>2026-04-12T11:26:29.001Z</time></trkpt><trkpt lat="50.30677588780768" lon="3.582670925987474"><ele>90.0</ele><time>2026-04-12T11:26:31.001Z</time></trkpt><trkpt lat="50.3067268610851" lon="3.582753946956817"><ele>90.0</ele><time>2026-04-12T11:26:33.001Z</time></trkpt><trkpt lat="50.30668268812868" lon="3.5828453087507293"><ele>90.0</ele><time>2026-04-12T11:26:35.001Z</time></trkpt><trkpt lat="50.30664101752032" lon="3.5829302092629174"><ele>90.0</ele><time>2026-04-12T11:26:37.001Z</time></trkpt><trkpt lat="50.30659461083861" lon="3.5830136701026714"><ele>90.0</ele><time>2026-04-12T11:26:39.001Z</time></trkpt><trkpt lat="50.306550368875925" lon="3.5831004435400424"><ele>90.0</ele><time>2026-04-12T11:26:41.001Z</time></trkpt><trkpt lat="50.30650388789594" lon="3.5831926843598483"><ele>90.0</ele><time>2026-04-12T11:26:43.001Z</time></trkpt><trkpt lat="50.30645932905355" lon="3.5832867254908716"><ele>90.0</ele><time>2026-04-12T11:26:45.001Z</time></trkpt><trkpt lat="50.306407849076905" lon="3.583374023104832"><ele>90.16666666666667</ele><time>2026-04-12T11:26:47.001Z</time></trkpt><trkpt lat="50.306360084953766" lon="3.58347124267061"><ele>90.33333333333333</ele><time>2026-04-12T11:26:49.001Z</time></trkpt><trkpt lat="50.30630844186735" lon="3.5835627052899843"><ele>90.5</ele><time>2026-04-12T11:26:51.002Z</time></trkpt><trkpt lat="50.306258875535626" lon="3.583657835611467"><ele>90.66666666666666</ele><time>2026-04-12T11:26:53.002Z</time></trkpt><trkpt lat="50.30621105857704" lon="3.583749463052759"><ele>90.83333333333333</ele><time>2026-04-12T11:26:55.002Z</time></trkpt><trkpt lat="50.30616307079497" lon="3.5838420345546163"><ele>91.0</ele><time>2026-04-12T11:26:57.002Z</time></trkpt><trkpt lat="50.306113731386134" lon="3.583937073240652"><ele>91.0</ele><time>2026-04-12T11:26:59.002Z</time></trkpt><trkpt lat="50.30606237767573" lon="3.5840336598845846"><ele>91.0</ele><time>2026-04-12T11:27:01.002Z</time></trkpt><trkpt lat="50.30601453092993" lon="3.584134598171154"><ele>91.0</ele><time>2026-04-12T11:27:03.002Z</time></trkpt><trkpt lat="50.30596336961916" lon="3.584227544955495"><ele>91.0</ele><time>2026-04-12T11:27:05.002Z</time></trkpt><trkpt lat="50.305908068430995" lon="3.5843243911540656"><ele>91.0</ele><time>2026-04-12T11:27:07.002Z</time></trkpt><trkpt lat="50.30585534667619" lon="3.5844218999213378"><ele>91.0</ele><time>2026-04-12T11:27:09.002Z</time></trkpt><trkpt lat="50.30579790421961" lon="3.58451657684063"><ele>91.0</ele><time>2026-04-12T11:27:11.002Z</time></trkpt><trkpt lat="50.30574159693699" lon="3.5846022956030743"><ele>91.0</ele><time>2026-04-12T11:27:13.001Z</time></trkpt><trkpt lat="50.30568609490909" lon="3.5846900987760306"><ele>91.0</ele><time>2026-04-12T11:27:15.001Z</time></trkpt><trkpt lat="50.3056294245616" lon="3.5847712829165466"><ele>91.0</ele><time>2026-04-12T11:27:17.001Z</time></trkpt><trkpt lat="50.30557054158225" lon="3.5848578600986354"><ele>91.0</ele><time>2026-04-12T11:27:19.001Z</time></trkpt><trkpt lat="50.30551205048939" lon="3.584940850520651"><ele>91.0</ele><time>2026-04-12T11:27:21.001Z</time></trkpt><trkpt lat="50.305454332861274" lon="3.585020224109765"><ele>91.16666666666666</ele><time>2026-04-12T11:27:23.001Z</time></trkpt><trkpt lat="50.305401421806806" lon="3.5851037210002783"><ele>91.33333333333333</ele><time>2026-04-12T11:27:25.001Z</time></trkpt><trkpt lat="50.30534914494189" lon="3.5851854007199924"><ele>91.5</ele><time>2026-04-12T11:27:27.001Z</time></trkpt><trkpt lat="50.305299107128505" lon="3.5852658694449095"><ele>91.66666666666667</ele><time>2026-04-12T11:27:29.001Z</time></trkpt><trkpt lat="50.30524587028109" lon="3.5853512756528194"><ele>91.83333333333334</ele><time>2026-04-12T11:27:31.001Z</time></trkpt><trkpt lat="50.30519167524579" lon="3.585437439246322"><ele>92.0</ele><time>2026-04-12T11:27:33.001Z</time></trkpt><trkpt lat="50.30513640468074" lon="3.585523342824997"><ele>92.0</ele><time>2026-04-12T11:27:35.001Z</time></trkpt><trkpt lat="50.30508257675414" lon="3.5856150405524154"><ele>92.0</ele><time>2026-04-12T11:27:37.001Z</time></trkpt><trkpt lat="50.3050290890213" lon="3.5857100562902535"><ele>92.0</ele><time>2026-04-12T11:27:39.001Z</time></trkpt><trkpt lat="50.304977300279184" lon="3.5858026360414956"><ele>92.0</ele><time>2026-04-12T11:27:41.001Z</time></trkpt><trkpt lat="50.30492534483546" lon="3.5858937038775345"><ele>92.0</ele><time>2026-04-12T11:27:43.001Z</time></trkpt><trkpt lat="50.30487517960125" lon="3.585984009557302"><ele>92.0</ele><time>2026-04-12T11:27:45.001Z</time></trkpt><trkpt lat="50.304821276893755" lon="3.5860708210578487"><ele>92.0</ele><time>2026-04-12T11:27:47.001Z</time></trkpt><trkpt lat="50.304770113440156" lon="3.586159840521596"><ele>92.0</ele><time>2026-04-12T11:27:49.001Z</time></trkpt><trkpt lat="50.304718546812296" lon="3.5862530486517503"><ele>92.0</ele><time>2026-04-12T11:27:51.001Z</time></trkpt><trkpt lat="50.3046652212844" lon="3.586339549728531"><ele>92.0</ele><time>2026-04-12T11:27:53.001Z</time></trkpt><trkpt lat="50.30461362552832" lon="3.586430970714057"><ele>92.0</ele><time>2026-04-12T11:27:55.001Z</time></trkpt><trkpt lat="50.30456443313945" lon="3.586526071741447"><ele>92.0</ele><time>2026-04-12T11:27:57.001Z</time></trkpt><trkpt lat="50.304510606950615" lon="3.5866199644532393"><ele>92.16666666666667</ele><time>2026-04-12T11:27:59.001Z</time></trkpt><trkpt lat="50.30445814192551" lon="3.5867175198401355"><ele>92.33333333333334</ele><time>2026-04-12T11:28:01.001Z</time></trkpt><trkpt lat="50.30440700722233" lon="3.586814869784296"><ele>92.5</ele><time>2026-04-12T11:28:03.001Z</time></trkpt><trkpt lat="50.30435321385455" lon="3.5869127322402843"><ele>92.66666666666667</ele><time>2026-04-12T11:28:05.001Z</time></trkpt><trkpt lat="50.30430141656966" lon="3.5870256400103515"><ele>92.83333333333333</ele><time>2026-04-12T11:28:07.001Z</time></trkpt><trkpt lat="50.30424765817525" lon="3.5871314265133236"><ele>93.0</ele><time>2026-04-12T11:28:09.001Z</time></trkpt><trkpt lat="50.3041941985614" lon="3.587235976698284"><ele>93.16666666666667</ele><time>2026-04-12T11:28:11.001Z</time></trkpt><trkpt lat="50.30414125559077" lon="3.587338667895283"><ele>93.33333333333333</ele><time>2026-04-12T11:28:13.001Z</time></trkpt><trkpt lat="50.30408813064675" lon="3.5874447834945293"><ele>93.5</ele><time>2026-04-12T11:28:15.001Z</time></trkpt><trkpt lat="50.30403546980928" lon="3.587556645730559"><ele>93.66666666666666</ele><time>2026-04-12T11:28:17.001Z</time></trkpt><trkpt lat="50.30397777631194" lon="3.5876714447234397"><ele>93.83333333333333</ele><time>2026-04-12T11:28:19.001Z</time></trkpt><trkpt lat="50.30392025146612" lon="3.587785004666169"><ele>94.0</ele><time>2026-04-12T11:28:21.001Z</time></trkpt><trkpt lat="50.30386069634485" lon="3.5879008763995106"><ele>94.0</ele><time>2026-04-12T11:28:23.001Z</time></trkpt><trkpt lat="50.30380266578419" lon="3.588019164156748"><ele>94.0</ele><time>2026-04-12T11:28:25.001Z</time></trkpt><trkpt lat="50.30374274122062" lon="3.5881471779593257"><ele>94.0</ele><time>2026-04-12T11:28:27.001Z</time></trkpt><trkpt lat="50.303682572603655" lon="3.588274803525944"><ele>94.0</ele><time>2026-04-12T11:28:29.001Z</time></trkpt><trkpt lat="50.30361942675456" lon="3.5884062763665017"><ele>94.0</ele><time>2026-04-12T11:28:31.001Z</time></trkpt><trkpt lat="50.303556404724276" lon="3.588536885295617"><ele>94.0</ele><time>2026-04-12T11:28:33.001Z</time></trkpt><trkpt lat="50.303494352052404" lon="3.5886723702751797"><ele>94.0</ele><time>2026-04-12T11:28:35.001Z</time></trkpt><trkpt lat="50.30344028165919" lon="3.5888137832431775"><ele>94.0</ele><time>2026-04-12T11:28:37.001Z</time></trkpt><trkpt lat="50.30339460676996" lon="3.588962827653529"><ele>94.0</ele><time>2026-04-12T11:28:39.001Z</time></trkpt><trkpt lat="50.30334325102941" lon="3.589107419015268"><ele>94.0</ele><time>2026-04-12T11:28:41.001Z</time></trkpt><trkpt lat="50.303295335024615" lon="3.5892490457028634"><ele>94.2</ele><time>2026-04-12T11:28:43.001Z</time></trkpt><trkpt lat="50.30324817649265" lon="3.5893898018156016"><ele>94.4</ele><time>2026-04-12T11:28:45.001Z</time></trkpt><trkpt lat="50.303200905029804" lon="3.5895249248419727"><ele>94.6</ele><time>2026-04-12T11:28:47.001Z</time></trkpt><trkpt lat="50.30315619761943" lon="3.5896641814699364"><ele>94.8</ele><time>2026-04-12T11:28:49.001Z</time></trkpt><trkpt lat="50.3031085528272" lon="3.5898020635799397"><ele>95.0</ele><time>2026-04-12T11:28:51.001Z</time></trkpt><trkpt lat="50.303059609084265" lon="3.589943512873047"><ele>95.4</ele><time>2026-04-12T11:28:53.001Z</time></trkpt><trkpt lat="50.30301242628124" lon="3.5900779441192996"><ele>95.8</ele><time>2026-04-12T11:28:55.001Z</time></trkpt><trkpt lat="50.30296941028973" lon="3.5902099254040762"><ele>96.19999999999999</ele><time>2026-04-12T11:28:57.001Z</time></trkpt><trkpt lat="50.302916002646576" lon="3.590339939307758"><ele>96.6</ele><time>2026-04-12T11:28:59.001Z</time></trkpt><trkpt lat="50.3028684008355" lon="3.5904748501159687"><ele>97.0</ele><time>2026-04-12T11:29:01.001Z</time></trkpt><trkpt lat="50.302821494000405" lon="3.590606590109298"><ele>97.0</ele><time>2026-04-12T11:29:03.001Z</time></trkpt><trkpt lat="50.30277679235927" lon="3.5907365924262833"><ele>97.0</ele><time>2026-04-12T11:29:05.001Z</time></trkpt><trkpt lat="50.30272918408626" lon="3.590864846339853"><ele>97.0</ele><time>2026-04-12T11:29:07.001Z</time></trkpt><trkpt lat="50.30268599213348" lon="3.590992277385617"><ele>97.0</ele><time>2026-04-12T11:29:09.001Z</time></trkpt><trkpt lat="50.30263985417782" lon="3.591120630245105"><ele>97.0</ele><time>2026-04-12T11:29:11.001Z</time></trkpt><trkpt lat="50.30259299013944" lon="3.5912451809217862"><ele>96.8</ele><time>2026-04-12T11:29:13.001Z</time></trkpt><trkpt lat="50.30254623599002" lon="3.5913728190324687"><ele>96.6</ele><time>2026-04-12T11:29:15.001Z</time></trkpt><trkpt lat="50.30249765925385" lon="3.5914987559103717"><ele>96.39999999999999</ele><time>2026-04-12T11:29:17.001Z</time></trkpt><trkpt lat="50.30245133759081" lon="3.591626067517396"><ele>96.19999999999999</ele><time>2026-04-12T11:29:19.001Z</time></trkpt><trkpt lat="50.30240131466028" lon="3.591750797019584"><ele>96.0</ele><time>2026-04-12T11:29:21.001Z</time></trkpt><trkpt lat="50.30235090343041" lon="3.5918774792755586"><ele>96.0</ele><time>2026-04-12T11:29:23.001Z</time></trkpt><trkpt lat="50.30229901857969" lon="3.592002178427092"><ele>96.0</ele><time>2026-04-12T11:29:25.001Z</time></trkpt><trkpt lat="50.30224276671639" lon="3.592126680118649"><ele>96.0</ele><time>2026-04-12T11:29:27.001Z</time></trkpt><trkpt lat="50.302186184766526" lon="3.592249283746091"><ele>96.0</ele><time>2026-04-12T11:29:29.001Z</time></trkpt><trkpt lat="50.30212971031361" lon="3.5923746987904353"><ele>96.0</ele><time>2026-04-12T11:29:31.001Z</time></trkpt><trkpt lat="50.30207067342495" lon="3.5924960183790127"><ele>96.0</ele><time>2026-04-12T11:29:33.001Z</time></trkpt><trkpt lat="50.30201150683625" lon="3.592614562539973"><ele>96.0</ele><time>2026-04-12T11:29:35.001Z</time></trkpt><trkpt lat="50.3019493939734" lon="3.592731694160683"><ele>96.0</ele><time>2026-04-12T11:29:37.001Z</time></trkpt><trkpt lat="50.301888400398084" lon="3.5928497522789766"><ele>96.0</ele><time>2026-04-12T11:29:39.001Z</time></trkpt><trkpt lat="50.30182642179671" lon="3.5929670430827643"><ele>96.0</ele><time>2026-04-12T11:29:41Z</time></trkpt><trkpt lat="50.301763227695076" lon="3.5930849990524236"><ele>95.8</ele><time>2026-04-12T11:29:43Z</time></trkpt><trkpt lat="50.301700220238686" lon="3.5931985556468593"><ele>95.6</ele><time>2026-04-12T11:29:45Z</time></trkpt><trkpt lat="50.301638814033765" lon="3.593314236381276"><ele>95.4</ele><time>2026-04-12T11:29:47Z</time></trkpt><trkpt lat="50.30157734810414" lon="3.5934293084640543"><ele>95.2</ele><time>2026-04-12T11:29:49Z</time></trkpt><trkpt lat="50.30151640021794" lon="3.5935409464694077"><ele>95.0</ele><time>2026-04-12T11:29:51Z</time></trkpt><trkpt lat="50.30119256427972" lon="3.594131050356778"><ele>95.0</ele><time>2026-04-12T11:30:02Z</time></trkpt><trkpt lat="50.30113291861295" lon="3.5942319963384155"><ele>95.0</ele><time>2026-04-12T11:30:04Z</time></trkpt><trkpt lat="50.30107741295843" lon="3.5943356908014987"><ele>95.0</ele><time>2026-04-12T11:30:06Z</time></trkpt><trkpt lat="50.301018715163636" lon="3.5944345364540107"><ele>95.0</ele><time>2026-04-12T11:30:08Z</time></trkpt><trkpt lat="50.30095757517045" lon="3.594535417149576"><ele>95.0</ele><time>2026-04-12T11:30:10Z</time></trkpt><trkpt lat="50.3008976173486" lon="3.5946327978789445"><ele>95.0</ele><time>2026-04-12T11:30:12Z</time></trkpt><trkpt lat="50.3008380872456" lon="3.594729939244166"><ele>95.16666666666667</ele><time>2026-04-12T11:30:14Z</time></trkpt><trkpt lat="50.30077950512724" lon="3.5948216578092516"><ele>95.33333333333334</ele><time>2026-04-12T11:30:16Z</time></trkpt><trkpt lat="50.30072033565955" lon="3.594916370998913"><ele>95.5</ele><time>2026-04-12T11:30:18Z</time></trkpt><trkpt lat="50.30066419036957" lon="3.595011904674284"><ele>95.66666666666667</ele><time>2026-04-12T11:30:20Z</time></trkpt><trkpt lat="50.3006033824908" lon="3.595102038550662"><ele>95.83333333333333</ele><time>2026-04-12T11:30:22Z</time></trkpt><trkpt lat="50.300543879854516" lon="3.5951941618276244"><ele>96.0</ele><time>2026-04-12T11:30:24Z</time></trkpt><trkpt lat="50.30048457439019" lon="3.595284186650025"><ele>96.16666666666667</ele><time>2026-04-12T11:30:26Z</time></trkpt><trkpt lat="50.300426383376745" lon="3.595373220273526"><ele>96.33333333333334</ele><time>2026-04-12T11:30:28Z</time></trkpt><trkpt lat="50.30036425674665" lon="3.5954605212606006"><ele>96.5</ele><time>2026-04-12T11:30:30Z</time></trkpt><trkpt lat="50.30030179695661" lon="3.5955507030848937"><ele>96.66666666666667</ele><time>2026-04-12T11:30:32Z</time></trkpt><trkpt lat="50.30024234645103" lon="3.5956416821881394"><ele>96.83333333333334</ele><time>2026-04-12T11:30:34Z</time></trkpt><trkpt lat="50.30017807572027" lon="3.5957267455841073"><ele>97.0</ele><time>2026-04-12T11:30:36Z</time></trkpt><trkpt lat="50.300115253871326" lon="3.5958131175585906"><ele>97.00000000000001</ele><time>2026-04-12T11:30:38Z</time></trkpt><trkpt lat="50.30005463337296" lon="3.5958982296901043"><ele>97.0</ele><time>2026-04-12T11:30:40Z</time></trkpt><trkpt lat="50.29999117518709" lon="3.5959852000335886"><ele>97.0</ele><time>2026-04-12T11:30:42Z</time></trkpt><trkpt lat="50.29992568564281" lon="3.596068543129043"><ele>97.0</ele><time>2026-04-12T11:30:44Z</time></trkpt><trkpt lat="50.29986596669708" lon="3.5961524247128627"><ele>97.00000000000001</ele><time>2026-04-12T11:30:46Z</time></trkpt><trkpt lat="50.29980656837064" lon="3.596233984199783"><ele>97.0</ele><time>2026-04-12T11:30:48Z</time></trkpt><trkpt lat="50.29974620555836" lon="3.5963132570629512"><ele>97.33333333333334</ele><time>2026-04-12T11:30:50Z</time></trkpt><trkpt lat="50.29968713922703" lon="3.5963910138070596"><ele>97.66666666666667</ele><time>2026-04-12T11:30:52Z</time></trkpt><trkpt lat="50.2996276724929" lon="3.596469880948904"><ele>98.0</ele><time>2026-04-12T11:30:54Z</time></trkpt><trkpt lat="50.29956931847728" lon="3.5965443176952845"><ele>98.33333333333334</ele><time>2026-04-12T11:30:56Z</time></trkpt><trkpt lat="50.29951344836259" lon="3.59661990098308"><ele>98.66666666666667</ele><time>2026-04-12T11:30:58Z</time></trkpt><trkpt lat="50.299454868414614" lon="3.5966963441885555"><ele>99.0</ele><time>2026-04-12T11:31:00Z</time></trkpt><trkpt lat="50.29939741864424" lon="3.5967711975020813"><ele>99.0</ele><time>2026-04-12T11:31:02Z</time></trkpt><trkpt lat="50.29933497785293" lon="3.5968517198658043"><ele>99.0</ele><time>2026-04-12T11:31:04Z</time></trkpt><trkpt lat="50.299275293353816" lon="3.5969348229317415"><ele>99.0</ele><time>2026-04-12T11:31:06Z</time></trkpt><trkpt lat="50.29921431334953" lon="3.597012581088968"><ele>99.0</ele><time>2026-04-12T11:31:08Z</time></trkpt><trkpt lat="50.2991552180071" lon="3.5970909068154624"><ele>99.0</ele><time>2026-04-12T11:31:10Z</time></trkpt><trkpt lat="50.299094822025964" lon="3.597167014089116"><ele>99.0</ele><time>2026-04-12T11:31:12Z</time></trkpt><trkpt lat="50.29903512593695" lon="3.5972477814339126"><ele>99.16666666666667</ele><time>2026-04-12T11:31:14Z</time></trkpt><trkpt lat="50.298976396785015" lon="3.59732891116261"><ele>99.33333333333334</ele><time>2026-04-12T11:31:16.001Z</time></trkpt><trkpt lat="50.298917436834685" lon="3.5974042767560785"><ele>99.5</ele><time>2026-04-12T11:31:18.001Z</time></trkpt><trkpt lat="50.29885976238048" lon="3.5974761824105213"><ele>99.66666666666667</ele><time>2026-04-12T11:31:20.001Z</time></trkpt><trkpt lat="50.2988006896706" lon="3.597555882550207"><ele>99.83333333333334</ele><time>2026-04-12T11:31:22Z</time></trkpt><trkpt lat="50.29873994236185" lon="3.597638077693753"><ele>100.0</ele><time>2026-04-12T11:31:24Z</time></trkpt><trkpt lat="50.29867910892917" lon="3.5977233138735696"><ele>100.16666666666667</ele><time>2026-04-12T11:31:26Z</time></trkpt><trkpt lat="50.29861969881233" lon="3.597802302458864"><ele>100.33333333333334</ele><time>2026-04-12T11:31:28Z</time></trkpt><trkpt lat="50.29855590712704" lon="3.5978797457275657"><ele>100.5</ele><time>2026-04-12T11:31:30Z</time></trkpt><trkpt lat="50.29849540758485" lon="3.5979651225727274"><ele>100.66666666666666</ele><time>2026-04-12T11:31:32Z</time></trkpt><trkpt lat="50.298428716159506" lon="3.59805021509051"><ele>100.83333333333333</ele><time>2026-04-12T11:31:34Z</time></trkpt><trkpt lat="50.298362208521105" lon="3.5981422401186895"><ele>101.0</ele><time>2026-04-12T11:31:36Z</time></trkpt><trkpt lat="50.29829448419719" lon="3.598232356031575"><ele>100.99999999999999</ele><time>2026-04-12T11:31:38Z</time></trkpt><trkpt lat="50.298227812642025" lon="3.598320090974268"><ele>101.0</ele><time>2026-04-12T11:31:40Z</time></trkpt><trkpt lat="50.29816163343886" lon="3.5984087822803317"><ele>101.0</ele><time>2026-04-12T11:31:42Z</time></trkpt><trkpt lat="50.29809800825554" lon="3.5984996821095314"><ele>101.0</ele><time>2026-04-12T11:31:44Z</time></trkpt><trkpt lat="50.29802859610651" lon="3.598580039464751"><ele>100.99999999999999</ele><time>2026-04-12T11:31:46Z</time></trkpt><trkpt lat="50.29796492933454" lon="3.5986692473421242"><ele>101.0</ele><time>2026-04-12T11:31:48Z</time></trkpt><trkpt lat="50.297897336242386" lon="3.5987575797729523"><ele>100.99999999999999</ele><time>2026-04-12T11:31:50Z</time></trkpt><trkpt lat="50.29782905111128" lon="3.5988501923729475"><ele>101.0</ele><time>2026-04-12T11:31:52Z</time></trkpt><trkpt lat="50.29776312497738" lon="3.598939175218676"><ele>101.0</ele><time>2026-04-12T11:31:54Z</time></trkpt><trkpt lat="50.29769457918919" lon="3.5990258067022567"><ele>101.0</ele><time>2026-04-12T11:31:56Z</time></trkpt><trkpt lat="50.297626943149" lon="3.5991171607995427"><ele>100.99999999999999</ele><time>2026-04-12T11:31:58Z</time></trkpt><trkpt lat="50.29755733393022" lon="3.5992110817824976"><ele>101.0</ele><time>2026-04-12T11:32:00Z</time></trkpt><trkpt lat="50.29748676684444" lon="3.599314145328975"><ele>101.0</ele><time>2026-04-12T11:32:02Z</time></trkpt><trkpt lat="50.29740977922868" lon="3.5994172896793586"><ele>101.0</ele><time>2026-04-12T11:32:04Z</time></trkpt><trkpt lat="50.29733644746775" lon="3.599514871552464"><ele>101.0</ele><time>2026-04-12T11:32:06Z</time></trkpt><trkpt lat="50.29726366905444" lon="3.599612436450711"><ele>101.0</ele><time>2026-04-12T11:32:08Z</time></trkpt><trkpt lat="50.29718927068552" lon="3.599717353059342"><ele>101.0</ele><time>2026-04-12T11:32:10Z</time></trkpt><trkpt lat="50.297115862868424" lon="3.599829521180963"><ele>100.6</ele><time>2026-04-12T11:32:12Z</time></trkpt><trkpt lat="50.297043644047626" lon="3.59993748687315"><ele>100.19999999999999</ele><time>2026-04-12T11:32:14Z</time></trkpt><trkpt lat="50.296969331853546" lon="3.6000488197603415"><ele>99.80000000000001</ele><time>2026-04-12T11:32:16Z</time></trkpt><trkpt lat="50.29689681909579" lon="3.6001599127110446"><ele>99.4</ele><time>2026-04-12T11:32:18Z</time></trkpt><trkpt lat="50.29682017521659" lon="3.600272845704443"><ele>99.0</ele><time>2026-04-12T11:32:20Z</time></trkpt><trkpt lat="50.29674499815362" lon="3.6003877669995985"><ele>98.80000000000001</ele><time>2026-04-12T11:32:22Z</time></trkpt><trkpt lat="50.29667713515872" lon="3.600500693352728"><ele>98.60000000000001</ele><time>2026-04-12T11:32:24Z</time></trkpt><trkpt lat="50.2966055934072" lon="3.6006115130631393"><ele>98.4</ele><time>2026-04-12T11:32:26Z</time></trkpt><trkpt lat="50.296536669484496" lon="3.6007182556600856"><ele>98.2</ele><time>2026-04-12T11:32:28Z</time></trkpt><trkpt lat="50.29646892179119" lon="3.6008331122523316"><ele>98.0</ele><time>2026-04-12T11:32:30Z</time></trkpt><trkpt lat="50.29640103447122" lon="3.600951918477319"><ele>97.80000000000001</ele><time>2026-04-12T11:32:32Z</time></trkpt><trkpt lat="50.296328690483094" lon="3.6010681490291376"><ele>97.6</ele><time>2026-04-12T11:32:34Z</time></trkpt><trkpt lat="50.29626062124727" lon="3.601184712908441"><ele>97.4</ele><time>2026-04-12T11:32:36Z</time></trkpt><trkpt lat="50.29618748658623" lon="3.6013045537369863"><ele>97.19999999999999</ele><time>2026-04-12T11:32:38Z</time></trkpt><trkpt lat="50.29611675258064" lon="3.601424199245452"><ele>97.0</ele><time>2026-04-12T11:32:40Z</time></trkpt><trkpt lat="50.296046257526655" lon="3.6015450611068824"><ele>97.0</ele><time>2026-04-12T11:32:42Z</time></trkpt><trkpt lat="50.29597207681482" lon="3.601670722583612"><ele>97.0</ele><time>2026-04-12T11:32:44Z</time></trkpt><trkpt lat="50.29589544354729" lon="3.6017955073676586"><ele>97.0</ele><time>2026-04-12T11:32:46Z</time></trkpt><trkpt lat="50.295822643079326" lon="3.6019161463154994"><ele>97.0</ele><time>2026-04-12T11:32:48Z</time></trkpt><trkpt lat="50.295746394778206" lon="3.60204370807346"><ele>97.0</ele><time>2026-04-12T11:32:50Z</time></trkpt><trkpt lat="50.29567072291026" lon="3.6021710274804577"><ele>97.19999999999999</ele><time>2026-04-12T11:32:52Z</time></trkpt><trkpt lat="50.29559556762437" lon="3.6022962771318503"><ele>97.4</ele><time>2026-04-12T11:32:54Z</time></trkpt><trkpt lat="50.29551994511346" lon="3.602417152798031"><ele>97.6</ele><time>2026-04-12T11:32:56Z</time></trkpt><trkpt lat="50.295448637051585" lon="3.6025389185055094"><ele>97.80000000000001</ele><time>2026-04-12T11:32:58Z</time></trkpt><trkpt lat="50.295374586697534" lon="3.602657708330758"><ele>98.0</ele><time>2026-04-12T11:33:00Z</time></trkpt><trkpt lat="50.29530228426985" lon="3.6027793272876694"><ele>97.80000000000001</ele><time>2026-04-12T11:33:02Z</time></trkpt><trkpt lat="50.29522752798791" lon="3.6028985180494377"><ele>97.6</ele><time>2026-04-12T11:33:04Z</time></trkpt><trkpt lat="50.2951583911768" lon="3.6030186023572774"><ele>97.4</ele><time>2026-04-12T11:33:06Z</time></trkpt><trkpt lat="50.29508971047692" lon="3.603134312690207"><ele>97.19999999999999</ele><time>2026-04-12T11:33:08Z</time></trkpt><trkpt lat="50.29502638001036" lon="3.6032493236460965"><ele>97.0</ele><time>2026-04-12T11:33:10Z</time></trkpt><trkpt lat="50.294955882729184" lon="3.6033599888186263"><ele>97.0</ele><time>2026-04-12T11:33:12Z</time></trkpt><trkpt lat="50.29488627969701" lon="3.6034739938538647"><ele>97.0</ele><time>2026-04-12T11:33:14Z</time></trkpt><trkpt lat="50.29482249208389" lon="3.6035848909265598"><ele>97.0</ele><time>2026-04-12T11:33:16Z</time></trkpt><trkpt lat="50.29475696723748" lon="3.6036969507520205"><ele>97.0</ele><time>2026-04-12T11:33:18Z</time></trkpt><trkpt lat="50.29469032294119" lon="3.603810634699762"><ele>97.0</ele><time>2026-04-12T11:33:20Z</time></trkpt><trkpt lat="50.294621759265894" lon="3.603918702536556"><ele>97.0</ele><time>2026-04-12T11:33:22Z</time></trkpt><trkpt lat="50.29455603843163" lon="3.6040308993094787"><ele>97.0</ele><time>2026-04-12T11:33:24Z</time></trkpt><trkpt lat="50.29448764954692" lon="3.6041438795251404"><ele>97.0</ele><time>2026-04-12T11:33:26Z</time></trkpt><trkpt lat="50.29442132451362" lon="3.6042553262471944"><ele>97.0</ele><time>2026-04-12T11:33:28Z</time></trkpt><trkpt lat="50.294353430469315" lon="3.6043693256656684"><ele>97.0</ele><time>2026-04-12T11:33:30Z</time></trkpt><trkpt lat="50.29428293986385" lon="3.604488196183901"><ele>97.19999999999999</ele><time>2026-04-12T11:33:32Z</time></trkpt><trkpt lat="50.29421837859624" lon="3.604606351563378"><ele>97.4</ele><time>2026-04-12T11:33:34Z</time></trkpt><trkpt lat="50.29414880858528" lon="3.6047195236528733"><ele>97.6</ele><time>2026-04-12T11:33:36Z</time></trkpt><trkpt lat="50.2940812177928" lon="3.604830467912715"><ele>97.80000000000001</ele><time>2026-04-12T11:33:38Z</time></trkpt><trkpt lat="50.29401353430662" lon="3.6049379824748953"><ele>98.0</ele><time>2026-04-12T11:33:40Z</time></trkpt><trkpt lat="50.29394569004387" lon="3.6050485906709717"><ele>98.0</ele><time>2026-04-12T11:33:42Z</time></trkpt><trkpt lat="50.293875766741984" lon="3.605158298847881"><ele>98.0</ele><time>2026-04-12T11:33:44Z</time></trkpt><trkpt lat="50.293807306778774" lon="3.605267137162879"><ele>98.0</ele><time>2026-04-12T11:33:46Z</time></trkpt><trkpt lat="50.29373635889224" lon="3.605368174723345"><ele>98.0</ele><time>2026-04-12T11:33:48Z</time></trkpt><trkpt lat="50.29366675361587" lon="3.605471127683167"><ele>98.0</ele><time>2026-04-12T11:33:50Z</time></trkpt><trkpt lat="50.293591761491236" lon="3.6055740843533224"><ele>98.4</ele><time>2026-04-12T11:33:52Z</time></trkpt><trkpt lat="50.29352168718957" lon="3.605669969606945"><ele>98.80000000000001</ele><time>2026-04-12T11:33:54Z</time></trkpt><trkpt lat="50.29344444186282" lon="3.605776922644551"><ele>99.2</ele><time>2026-04-12T11:33:56Z</time></trkpt><trkpt lat="50.29337327374732" lon="3.605874296611584"><ele>99.6</ele><time>2026-04-12T11:33:58Z</time></trkpt><trkpt lat="50.29329989651445" lon="3.605974492956389"><ele>100.0</ele><time>2026-04-12T11:34:00Z</time></trkpt><trkpt lat="50.29323013265125" lon="3.606071121890709"><ele>100.2</ele><time>2026-04-12T11:34:02Z</time></trkpt><trkpt lat="50.29315616408629" lon="3.606169556672757"><ele>100.4</ele><time>2026-04-12T11:34:04Z</time></trkpt><trkpt lat="50.293086605189025" lon="3.606268559636386"><ele>100.6</ele><time>2026-04-12T11:34:06Z</time></trkpt><trkpt lat="50.29301949087455" lon="3.60636720236507"><ele>100.8</ele><time>2026-04-12T11:34:08Z</time></trkpt><trkpt lat="50.29294913159351" lon="3.6064650809089165"><ele>101.0</ele><time>2026-04-12T11:34:10Z</time></trkpt><trkpt lat="50.292885611157544" lon="3.6065653591360025"><ele>101.16666666666666</ele><time>2026-04-12T11:34:12Z</time></trkpt><trkpt lat="50.29282348832845" lon="3.6066639033234438"><ele>101.33333333333333</ele><time>2026-04-12T11:34:14Z</time></trkpt><trkpt lat="50.29276034074704" lon="3.606757952175401"><ele>101.5</ele><time>2026-04-12T11:34:16Z</time></trkpt><trkpt lat="50.29269764569489" lon="3.6068569470286374"><ele>101.66666666666666</ele><time>2026-04-12T11:34:18Z</time></trkpt><trkpt lat="50.29263697299835" lon="3.6069558444133243"><ele>101.83333333333333</ele><time>2026-04-12T11:34:20Z</time></trkpt><trkpt lat="50.2925766782641" lon="3.607059969067194"><ele>102.0</ele><time>2026-04-12T11:34:22Z</time></trkpt><trkpt lat="50.29251722431782" lon="3.6071602226063457"><ele>102.0</ele><time>2026-04-12T11:34:24Z</time></trkpt><trkpt lat="50.292459571179634" lon="3.607265695309606"><ele>102.0</ele><time>2026-04-12T11:34:26Z</time></trkpt><trkpt lat="50.29240199909721" lon="3.6073748492458866"><ele>102.0</ele><time>2026-04-12T11:34:28Z</time></trkpt><trkpt lat="50.292351921118495" lon="3.6074926864792576"><ele>102.0</ele><time>2026-04-12T11:34:30Z</time></trkpt><trkpt lat="50.292300051128414" lon="3.607619604024769"><ele>102.0</ele><time>2026-04-12T11:34:32Z</time></trkpt><trkpt lat="50.29224949230027" lon="3.607739253098868"><ele>102.19999999999999</ele><time>2026-04-12T11:34:34Z</time></trkpt><trkpt lat="50.29220242238765" lon="3.607865445692201"><ele>102.4</ele><time>2026-04-12T11:34:36Z</time></trkpt><trkpt lat="50.29215943163179" lon="3.6079856127998764"><ele>102.6</ele><time>2026-04-12T11:34:38Z</time></trkpt><trkpt lat="50.292109637180495" lon="3.608112443772948"><ele>102.80000000000001</ele><time>2026-04-12T11:34:40Z</time></trkpt><trkpt lat="50.29206450798262" lon="3.6082366817332856"><ele>103.0</ele><time>2026-04-12T11:34:42Z</time></trkpt><trkpt lat="50.29202275539139" lon="3.608350275853477"><ele>103.00000000000001</ele><time>2026-04-12T11:34:44Z</time></trkpt><trkpt lat="50.29197971118363" lon="3.60846222655359"><ele>103.0</ele><time>2026-04-12T11:34:46Z</time></trkpt><trkpt lat="50.29192848394941" lon="3.6085708098940303"><ele>103.0</ele><time>2026-04-12T11:34:48Z</time></trkpt><trkpt lat="50.291881081561044" lon="3.608681301626209"><ele>103.0</ele><time>2026-04-12T11:34:50Z</time></trkpt><trkpt lat="50.29182903085546" lon="3.6087788703138877"><ele>103.00000000000001</ele><time>2026-04-12T11:34:52Z</time></trkpt><trkpt lat="50.29178094859064" lon="3.6088777979628066"><ele>103.0</ele><time>2026-04-12T11:34:54Z</time></trkpt><trkpt lat="50.29173243143826" lon="3.608972529511672"><ele>103.00000000000001</ele><time>2026-04-12T11:34:56Z</time></trkpt><trkpt lat="50.29168310258058" lon="3.609065222144672"><ele>103.0</ele><time>2026-04-12T11:34:58Z</time></trkpt><trkpt lat="50.29163216502924" lon="3.6091558371297876"><ele>103.0</ele><time>2026-04-12T11:35:00Z</time></trkpt><trkpt lat="50.291581366460676" lon="3.609251318064849"><ele>103.0</ele><time>2026-04-12T11:35:02Z</time></trkpt><trkpt lat="50.291531519508744" lon="3.6093480265488767"><ele>103.00000000000001</ele><time>2026-04-12T11:35:04Z</time></trkpt><trkpt lat="50.291477950196594" lon="3.609441730205901"><ele>103.0</ele><time>2026-04-12T11:35:06Z</time></trkpt><trkpt lat="50.29142491742795" lon="3.609538013431709"><ele>103.33333333333334</ele><time>2026-04-12T11:35:08Z</time></trkpt><trkpt lat="50.29136995228084" lon="3.609638707125821"><ele>103.66666666666667</ele><time>2026-04-12T11:35:10Z</time></trkpt><trkpt lat="50.291314469630485" lon="3.6097413066283837"><ele>104.0</ele><time>2026-04-12T11:35:12Z</time></trkpt><trkpt lat="50.291257127756445" lon="3.6098465232725188"><ele>104.33333333333334</ele><time>2026-04-12T11:35:14Z</time></trkpt><trkpt lat="50.291204336372545" lon="3.60994741484357"><ele>104.66666666666667</ele><time>2026-04-12T11:35:16Z</time></trkpt><trkpt lat="50.291154118327334" lon="3.61004385402681"><ele>105.0</ele><time>2026-04-12T11:35:18Z</time></trkpt><trkpt lat="50.29109982300906" lon="3.6101424390745342"><ele>105.0</ele><time>2026-04-12T11:35:20Z</time></trkpt><trkpt lat="50.29104685862462" lon="3.6102388612720513"><ele>105.0</ele><time>2026-04-12T11:35:22Z</time></trkpt><trkpt lat="50.29099000368282" lon="3.610334513302124"><ele>105.0</ele><time>2026-04-12T11:35:24Z</time></trkpt><trkpt lat="50.29093935177128" lon="3.6104291464981366"><ele>105.0</ele><time>2026-04-12T11:35:26Z</time></trkpt><trkpt lat="50.290891644053495" lon="3.6105277803801035"><ele>105.0</ele><time>2026-04-12T11:35:28Z</time></trkpt><trkpt lat="50.29083597637603" lon="3.6106212910953133"><ele>105.0</ele><time>2026-04-12T11:35:30Z</time></trkpt><trkpt lat="50.29078170273393" lon="3.610720611835145"><ele>105.0</ele><time>2026-04-12T11:35:32Z</time></trkpt><trkpt lat="50.29072569684182" lon="3.6108172387639006"><ele>105.0</ele><time>2026-04-12T11:35:34Z</time></trkpt><trkpt lat="50.29067506462553" lon="3.610909331066894"><ele>105.0</ele><time>2026-04-12T11:35:36Z</time></trkpt><trkpt lat="50.29062400014613" lon="3.6110091287932296"><ele>105.0</ele><time>2026-04-12T11:35:38Z</time></trkpt><trkpt lat="50.29056716968563" lon="3.611115450338501"><ele>105.0</ele><time>2026-04-12T11:35:40Z</time></trkpt><trkpt lat="50.290509936469775" lon="3.6112333327197343"><ele>105.0</ele><time>2026-04-12T11:35:42Z</time></trkpt><trkpt lat="50.290445317840245" lon="3.6113460311162195"><ele>105.0</ele><time>2026-04-12T11:35:44Z</time></trkpt><trkpt lat="50.290378110614995" lon="3.6114743367031346"><ele>105.0</ele><time>2026-04-12T11:35:46Z</time></trkpt><trkpt lat="50.29030769628752" lon="3.6116165599750105"><ele>105.0</ele><time>2026-04-12T11:35:48Z</time></trkpt><trkpt lat="50.29022645328944" lon="3.6117567279533853"><ele>105.0</ele><time>2026-04-12T11:35:50Z</time></trkpt><trkpt lat="50.290188520873905" lon="3.6118386817109127"><ele>105.0</ele><time>2026-04-12T11:35:51Z</time></trkpt><trkpt lat="50.29014377092602" lon="3.611918436314308"><ele>105.14285714285714</ele><time>2026-04-12T11:35:52Z</time></trkpt><trkpt lat="50.29009862039099" lon="3.6119982008310827"><ele>105.28571428571428</ele><time>2026-04-12T11:35:53Z</time></trkpt><trkpt lat="50.29005648810045" lon="3.6120768138558157"><ele>105.42857142857143</ele><time>2026-04-12T11:35:54Z</time></trkpt><trkpt lat="50.29001319605676" lon="3.612155875331362"><ele>105.57142857142857</ele><time>2026-04-12T11:35:55Z</time></trkpt><trkpt lat="50.2899667447538" lon="3.612239362944671"><ele>105.71428571428571</ele><time>2026-04-12T11:35:56Z</time></trkpt><trkpt lat="50.28991822303222" lon="3.6123234790026824"><ele>105.85714285714286</ele><time>2026-04-12T11:35:57Z</time></trkpt><trkpt lat="50.28987260942122" lon="3.6124125254912594"><ele>106.0</ele><time>2026-04-12T11:35:58Z</time></trkpt><trkpt lat="50.289829269989056" lon="3.6124938385781395"><ele>106.0</ele><time>2026-04-12T11:35:59Z</time></trkpt><trkpt lat="50.28978338345233" lon="3.6125790530084836"><ele>106.0</ele><time>2026-04-12T11:36:00Z</time></trkpt><trkpt lat="50.28974036320822" lon="3.612658487702381"><ele>106.0</ele><time>2026-04-12T11:36:01Z</time></trkpt><trkpt lat="50.289694953424835" lon="3.612739954797716"><ele>106.0</ele><time>2026-04-12T11:36:02Z</time></trkpt><trkpt lat="50.28965020471103" lon="3.6128200798670047"><ele>106.0</ele><time>2026-04-12T11:36:03Z</time></trkpt><trkpt lat="50.289604518927206" lon="3.6129028394624165"><ele>106.0</ele><time>2026-04-12T11:36:04Z</time></trkpt><trkpt lat="50.28956184863483" lon="3.6129860289423434"><ele>106.0</ele><time>2026-04-12T11:36:05Z</time></trkpt><trkpt lat="50.28951575394496" lon="3.61306651155464"><ele>105.57142857142857</ele><time>2026-04-12T11:36:06Z</time></trkpt><trkpt lat="50.28947049465396" lon="3.6131457967275873"><ele>105.14285714285714</ele><time>2026-04-12T11:36:07Z</time></trkpt><trkpt lat="50.289427080171215" lon="3.61322354978282"><ele>104.71428571428571</ele><time>2026-04-12T11:36:08Z</time></trkpt><trkpt lat="50.28938577870284" lon="3.6133039165036576"><ele>104.28571428571428</ele><time>2026-04-12T11:36:09Z</time></trkpt><trkpt lat="50.28934125766713" lon="3.613383379308533"><ele>103.85714285714286</ele><time>2026-04-12T11:36:10Z</time></trkpt><trkpt lat="50.2892996374146" lon="3.613460934495014"><ele>103.42857142857142</ele><time>2026-04-12T11:36:11Z</time></trkpt><trkpt lat="50.28925572974733" lon="3.6135386087915955"><ele>103.0</ele><time>2026-04-12T11:36:12Z</time></trkpt><trkpt lat="50.28921346739475" lon="3.613618353464268"><ele>103.14285714285714</ele><time>2026-04-12T11:36:13Z</time></trkpt><trkpt lat="50.28917158448093" lon="3.613695772753625"><ele>103.28571428571428</ele><time>2026-04-12T11:36:14Z</time></trkpt><trkpt lat="50.28912887994006" lon="3.613773683470809"><ele>103.42857142857142</ele><time>2026-04-12T11:36:15Z</time></trkpt><trkpt lat="50.28908343110788" lon="3.613850239926071"><ele>103.57142857142857</ele><time>2026-04-12T11:36:16Z</time></trkpt><trkpt lat="50.28904598169635" lon="3.613929594364"><ele>103.71428571428572</ele><time>2026-04-12T11:36:17Z</time></trkpt><trkpt lat="50.2890059983619" lon="3.61401042510867"><ele>103.85714285714285</ele><time>2026-04-12T11:36:18Z</time></trkpt><trkpt lat="50.28896321145097" lon="3.61408663032498"><ele>104.0</ele><time>2026-04-12T11:36:19Z</time></trkpt><trkpt lat="50.28891937373453" lon="3.6141576221198943"><ele>103.83333333333333</ele><time>2026-04-12T11:36:20Z</time></trkpt><trkpt lat="50.28887498879017" lon="3.614234109486865"><ele>103.66666666666666</ele><time>2026-04-12T11:36:21Z</time></trkpt><trkpt lat="50.28883405541196" lon="3.614309518118597"><ele>103.5</ele><time>2026-04-12T11:36:22Z</time></trkpt><trkpt lat="50.2887579712146" lon="3.614459814281678"><ele>103.33333333333334</ele><time>2026-04-12T11:36:24Z</time></trkpt><trkpt lat="50.28871422841231" lon="3.6145317510830273"><ele>103.16666666666667</ele><time>2026-04-12T11:36:25Z</time></trkpt><trkpt lat="50.28866954150537" lon="3.6146078772783907"><ele>103.0</ele><time>2026-04-12T11:36:26Z</time></trkpt><trkpt lat="50.28858659283922" lon="3.6147632935462353"><ele>103.0</ele><time>2026-04-12T11:36:28Z</time></trkpt><trkpt lat="50.28854645085446" lon="3.614844036430065"><ele>103.0</ele><time>2026-04-12T11:36:29Z</time></trkpt><trkpt lat="50.288467972972725" lon="3.614992818528046"><ele>103.0</ele><time>2026-04-12T11:36:31Z</time></trkpt><trkpt lat="50.28842807323798" lon="3.6150700362653954"><ele>103.0</ele><time>2026-04-12T11:36:32Z</time></trkpt><trkpt lat="50.28835236692716" lon="3.6152092192815832"><ele>103.0</ele><time>2026-04-12T11:36:34Z</time></trkpt><trkpt lat="50.288280215637926" lon="3.6153403421418213"><ele>103.2</ele><time>2026-04-12T11:36:36Z</time></trkpt><trkpt lat="50.28820651154022" lon="3.615461606272003"><ele>103.4</ele><time>2026-04-12T11:36:38Z</time></trkpt><trkpt lat="50.288133893974496" lon="3.615572243960842"><ele>103.60000000000001</ele><time>2026-04-12T11:36:40Z</time></trkpt><trkpt lat="50.28805993304292" lon="3.6156754872593733"><ele>103.80000000000001</ele><time>2026-04-12T11:36:42Z</time></trkpt><trkpt lat="50.28798396397435" lon="3.615774451707527"><ele>104.0</ele><time>2026-04-12T11:36:44Z</time></trkpt><trkpt lat="50.28789861411714" lon="3.6158597057922885"><ele>103.4</ele><time>2026-04-12T11:36:46Z</time></trkpt><trkpt lat="50.28782694142297" lon="3.6159466604757737"><ele>102.80000000000001</ele><time>2026-04-12T11:36:48Z</time></trkpt><trkpt lat="50.28773230903512" lon="3.6160204323249925"><ele>102.19999999999999</ele><time>2026-04-12T11:36:50Z</time></trkpt><trkpt lat="50.28763428797999" lon="3.616092633670663"><ele>101.6</ele><time>2026-04-12T11:36:52Z</time></trkpt><trkpt lat="50.28753405116865" lon="3.6161624515657778"><ele>101.0</ele><time>2026-04-12T11:36:54Z</time></trkpt><trkpt lat="50.28743615383475" lon="3.616227550701889"><ele>101.0</ele><time>2026-04-12T11:36:56Z</time></trkpt><trkpt lat="50.2873342556716" lon="3.616297585824097"><ele>101.0</ele><time>2026-04-12T11:36:58Z</time></trkpt><trkpt lat="50.28722929733351" lon="3.6163702813977006"><ele>101.0</ele><time>2026-04-12T11:37:00Z</time></trkpt><trkpt lat="50.287119901740425" lon="3.616445726051419"><ele>101.0</ele><time>2026-04-12T11:37:02Z</time></trkpt><trkpt lat="50.287018177443514" lon="3.6165209765784976"><ele>100.42857142857143</ele><time>2026-04-12T11:37:04Z</time></trkpt><trkpt lat="50.286950429567185" lon="3.6165664868478515"><ele>99.85714285714286</ele><time>2026-04-12T11:37:05Z</time></trkpt><trkpt lat="50.28689169962574" lon="3.616602452934147"><ele>99.28571428571428</ele><time>2026-04-12T11:37:06Z</time></trkpt><trkpt lat="50.28683223204818" lon="3.616640547608322"><ele>98.71428571428572</ele><time>2026-04-12T11:37:07Z</time></trkpt><trkpt lat="50.28677033345575" lon="3.6166865929040966"><ele>98.14285714285715</ele><time>2026-04-12T11:37:08Z</time></trkpt><trkpt lat="50.28670354210639" lon="3.6167305249086907"><ele>97.57142857142857</ele><time>2026-04-12T11:37:09Z</time></trkpt><trkpt lat="50.28664295032333" lon="3.616772005703364"><ele>97.0</ele><time>2026-04-12T11:37:10Z</time></trkpt><trkpt lat="50.28657747454613" lon="3.6168106310782866"><ele>97.0</ele><time>2026-04-12T11:37:11Z</time></trkpt><trkpt lat="50.28651543910548" lon="3.61685442205494"><ele>97.0</ele><time>2026-04-12T11:37:12Z</time></trkpt><trkpt lat="50.286403312786796" lon="3.6169317444523963"><ele>97.0</ele><time>2026-04-12T11:37:14Z</time></trkpt><trkpt lat="50.2862906164179" lon="3.6170082845610847"><ele>97.0</ele><time>2026-04-12T11:37:16Z</time></trkpt><trkpt lat="50.28618193743459" lon="3.617091694565507"><ele>97.0</ele><time>2026-04-12T11:37:18Z</time></trkpt><trkpt lat="50.286125257767345" lon="3.617134800086629"><ele>97.00000000000001</ele><time>2026-04-12T11:37:19Z</time></trkpt><trkpt lat="50.286017528785884" lon="3.6172328795795363"><ele>97.0</ele><time>2026-04-12T11:37:21Z</time></trkpt><trkpt lat="50.28596252419082" lon="3.6172826371276203"><ele>97.0</ele><time>2026-04-12T11:37:22Z</time></trkpt><trkpt lat="50.2858505804604" lon="3.6173793237158405"><ele>97.0</ele><time>2026-04-12T11:37:24Z</time></trkpt><trkpt lat="50.28579768638292" lon="3.6174334614415513"><ele>97.00000000000001</ele><time>2026-04-12T11:37:25Z</time></trkpt><trkpt lat="50.28574277233707" lon="3.617487151935355"><ele>97.0</ele><time>2026-04-12T11:37:26Z</time></trkpt><trkpt lat="50.2856887311958" lon="3.6175386310266098"><ele>96.5</ele><time>2026-04-12T11:37:27Z</time></trkpt><trkpt lat="50.28558588667137" lon="3.617638112282036"><ele>96.0</ele><time>2026-04-12T11:37:29Z</time></trkpt><trkpt lat="50.28547852322979" lon="3.6177404646210674"><ele>95.5</ele><time>2026-04-12T11:37:31Z</time></trkpt><trkpt lat="50.28537629943412" lon="3.6178446654914307"><ele>95.0</ele><time>2026-04-12T11:37:33Z</time></trkpt><trkpt lat="50.28527401003415" lon="3.617941614615958"><ele>94.75</ele><time>2026-04-12T11:37:35Z</time></trkpt><trkpt lat="50.28517722680091" lon="3.6180343434470634"><ele>94.5</ele><time>2026-04-12T11:37:37Z</time></trkpt><trkpt lat="50.285078541722996" lon="3.618133059450501"><ele>94.25</ele><time>2026-04-12T11:37:39Z</time></trkpt><trkpt lat="50.28496938712413" lon="3.6182315980218402"><ele>94.0</ele><time>2026-04-12T11:37:41Z</time></trkpt><trkpt lat="50.28486432501739" lon="3.6183331767351974"><ele>94.0</ele><time>2026-04-12T11:37:43Z</time></trkpt><trkpt lat="50.284810396098024" lon="3.6183845329068167"><ele>94.0</ele><time>2026-04-12T11:37:44Z</time></trkpt><trkpt lat="50.2847524306882" lon="3.618435892833485"><ele>94.0</ele><time>2026-04-12T11:37:45Z</time></trkpt><trkpt lat="50.28465080585013" lon="3.61852377425844"><ele>94.0</ele><time>2026-04-12T11:37:47Z</time></trkpt><trkpt lat="50.28455679302075" lon="3.6185999330358283"><ele>94.0</ele><time>2026-04-12T11:37:49Z</time></trkpt><trkpt lat="50.28445191335857" lon="3.618648067540981"><ele>94.5</ele><time>2026-04-12T11:37:51Z</time></trkpt><trkpt lat="50.284340974672716" lon="3.6186973825940467"><ele>95.0</ele><time>2026-04-12T11:37:53Z</time></trkpt><trkpt lat="50.28423500818275" lon="3.6187502498054362"><ele>95.5</ele><time>2026-04-12T11:37:55Z</time></trkpt><trkpt lat="50.284120888762644" lon="3.618800661049826"><ele>96.0</ele><time>2026-04-12T11:37:57Z</time></trkpt><trkpt lat="50.28399350684675" lon="3.6188557717478274"><ele>96.0</ele><time>2026-04-12T11:37:59Z</time></trkpt><trkpt lat="50.28393013308427" lon="3.618890545375747"><ele>96.0</ele><time>2026-04-12T11:38:00Z</time></trkpt><trkpt lat="50.28382826215723" lon="3.618957721157656"><ele>96.0</ele><time>2026-04-12T11:38:02Z</time></trkpt><trkpt lat="50.28376363817666" lon="3.6189832667725144"><ele>96.0</ele><time>2026-04-12T11:38:04Z</time></trkpt><trkpt lat="50.283697926657204" lon="3.618994219373396"><ele>96.0</ele><time>2026-04-12T11:38:06Z</time></trkpt><trkpt lat="50.283616165903595" lon="3.619042115360631"><ele>96.0</ele><time>2026-04-12T11:38:08Z</time></trkpt><trkpt lat="50.28352732546779" lon="3.619092189030384"><ele>95.4</ele><time>2026-04-12T11:38:10Z</time></trkpt><trkpt lat="50.28343939606865" lon="3.6191464709905476"><ele>94.8</ele><time>2026-04-12T11:38:12Z</time></trkpt><trkpt lat="50.28334409141566" lon="3.6191835881763446"><ele>94.2</ele><time>2026-04-12T11:38:14Z</time></trkpt><trkpt lat="50.28324805246279" lon="3.6192397933569573"><ele>93.60000000000001</ele><time>2026-04-12T11:38:16Z</time></trkpt><trkpt lat="50.28315558778326" lon="3.6192856781729015"><ele>93.0</ele><time>2026-04-12T11:38:18Z</time></trkpt><trkpt lat="50.28305705500722" lon="3.61934171455427"><ele>92.4</ele><time>2026-04-12T11:38:20Z</time></trkpt><trkpt lat="50.282964131826326" lon="3.6193989331223584"><ele>91.80000000000001</ele><time>2026-04-12T11:38:22Z</time></trkpt><trkpt lat="50.28286881177977" lon="3.6194535915043047"><ele>91.2</ele><time>2026-04-12T11:38:24Z</time></trkpt><trkpt lat="50.28277155670639" lon="3.619513126199697"><ele>90.6</ele><time>2026-04-12T11:38:26Z</time></trkpt><trkpt lat="50.28267052021696" lon="3.619558068771852"><ele>90.0</ele><time>2026-04-12T11:38:28Z</time></trkpt><trkpt lat="50.28257403960609" lon="3.61961096503745"><ele>90.0</ele><time>2026-04-12T11:38:30Z</time></trkpt><trkpt lat="50.28247163065752" lon="3.6196756542278963"><ele>90.0</ele><time>2026-04-12T11:38:32Z</time></trkpt><trkpt lat="50.28237422957014" lon="3.619735193386235"><ele>90.0</ele><time>2026-04-12T11:38:34Z</time></trkpt><trkpt lat="50.282281546429665" lon="3.619806360836823"><ele>90.0</ele><time>2026-04-12T11:38:36Z</time></trkpt><trkpt lat="50.282188072509896" lon="3.6198962858377506"><ele>90.0</ele><time>2026-04-12T11:38:38Z</time></trkpt><trkpt lat="50.2820905146366" lon="3.619993877798125"><ele>89.8</ele><time>2026-04-12T11:38:40Z</time></trkpt><trkpt lat="50.2819990978437" lon="3.6200883471853897"><ele>89.6</ele><time>2026-04-12T11:38:42Z</time></trkpt><trkpt lat="50.281913039129094" lon="3.620199860427679"><ele>89.4</ele><time>2026-04-12T11:38:44Z</time></trkpt><trkpt lat="50.28182990102373" lon="3.6203177339092987"><ele>89.2</ele><time>2026-04-12T11:38:46Z</time></trkpt><trkpt lat="50.28174492301506" lon="3.6204294883643895"><ele>89.0</ele><time>2026-04-12T11:38:48Z</time></trkpt><trkpt lat="50.28166483077071" lon="3.620544174650531"><ele>89.0</ele><time>2026-04-12T11:38:50Z</time></trkpt><trkpt lat="50.281586508234405" lon="3.62065397193601"><ele>89.0</ele><time>2026-04-12T11:38:52Z</time></trkpt><trkpt lat="50.28151089458318" lon="3.6207532778125517"><ele>89.0</ele><time>2026-04-12T11:38:54Z</time></trkpt><trkpt lat="50.281434412632294" lon="3.620851134616486"><ele>89.0</ele><time>2026-04-12T11:38:56Z</time></trkpt><trkpt lat="50.28136062462323" lon="3.62095229998874"><ele>89.0</ele><time>2026-04-12T11:38:58Z</time></trkpt><trkpt lat="50.28128754328079" lon="3.621054909158703"><ele>89.2</ele><time>2026-04-12T11:39:00Z</time></trkpt><trkpt lat="50.28121146797155" lon="3.621152471993746"><ele>89.4</ele><time>2026-04-12T11:39:02Z</time></trkpt><trkpt lat="50.281137802417895" lon="3.6212568253843256"><ele>89.6</ele><time>2026-04-12T11:39:04Z</time></trkpt><trkpt lat="50.28106214749271" lon="3.621367509800068"><ele>89.8</ele><time>2026-04-12T11:39:06Z</time></trkpt><trkpt lat="50.280984202990474" lon="3.621474915492693"><ele>90.0</ele><time>2026-04-12T11:39:08Z</time></trkpt><trkpt lat="50.280906702540186" lon="3.621584682596225"><ele>90.0</ele><time>2026-04-12T11:39:10Z</time></trkpt><trkpt lat="50.28083503888094" lon="3.621702931657313"><ele>90.0</ele><time>2026-04-12T11:39:12Z</time></trkpt><trkpt lat="50.28076745118343" lon="3.6218277904000167"><ele>90.0</ele><time>2026-04-12T11:39:14Z</time></trkpt><trkpt lat="50.280703040532096" lon="3.621945488795955"><ele>90.0</ele><time>2026-04-12T11:39:16Z</time></trkpt><trkpt lat="50.28063858514603" lon="3.622059722644982"><ele>90.0</ele><time>2026-04-12T11:39:18Z</time></trkpt><trkpt lat="50.28058283025394" lon="3.622173977042908"><ele>89.6</ele><time>2026-04-12T11:39:20Z</time></trkpt><trkpt lat="50.28051767594429" lon="3.62228428299096"><ele>89.2</ele><time>2026-04-12T11:39:22Z</time></trkpt><trkpt lat="50.28044480233332" lon="3.6223705692061583"><ele>88.80000000000001</ele><time>2026-04-12T11:39:24Z</time></trkpt><trkpt lat="50.28036639360268" lon="3.6224313621957154"><ele>88.4</ele><time>2026-04-12T11:39:26Z</time></trkpt><trkpt lat="50.28028854308314" lon="3.622486103488552"><ele>88.0</ele><time>2026-04-12T11:39:28Z</time></trkpt><trkpt lat="50.28020558129597" lon="3.6225546982786674"><ele>88.0</ele><time>2026-04-12T11:39:30Z</time></trkpt><trkpt lat="50.28012001230924" lon="3.6226239209016553"><ele>88.0</ele><time>2026-04-12T11:39:32Z</time></trkpt><trkpt lat="50.2800349612311" lon="3.622701353348316"><ele>88.0</ele><time>2026-04-12T11:39:34Z</time></trkpt><trkpt lat="50.27995209305244" lon="3.622785537022357"><ele>88.0</ele><time>2026-04-12T11:39:36Z</time></trkpt><trkpt lat="50.27986994964841" lon="3.62288238241277"><ele>88.0</ele><time>2026-04-12T11:39:38Z</time></trkpt><trkpt lat="50.27978482478554" lon="3.6229828334045697"><ele>87.0</ele><time>2026-04-12T11:39:40Z</time></trkpt><trkpt lat="50.279705068962954" lon="3.623086678165829"><ele>86.0</ele><time>2026-04-12T11:39:42Z</time></trkpt><trkpt lat="50.27961338841492" lon="3.6232050814995844"><ele>85.0</ele><time>2026-04-12T11:39:44Z</time></trkpt><trkpt lat="50.279519494562166" lon="3.6233472560265927"><ele>84.0</ele><time>2026-04-12T11:39:46Z</time></trkpt><trkpt lat="50.27947028591432" lon="3.623421271638181"><ele>83.0</ele><time>2026-04-12T11:39:47Z</time></trkpt><trkpt lat="50.279420160061974" lon="3.6234959171379013"><ele>83.0</ele><time>2026-04-12T11:39:48Z</time></trkpt><trkpt lat="50.279369579821314" lon="3.6235685520021503"><ele>83.0</ele><time>2026-04-12T11:39:49Z</time></trkpt><trkpt lat="50.27932034760399" lon="3.623641976129544"><ele>83.0</ele><time>2026-04-12T11:39:50Z</time></trkpt><trkpt lat="50.279270441573594" lon="3.6237156211061166"><ele>83.0</ele><time>2026-04-12T11:39:51Z</time></trkpt><trkpt lat="50.27922029946799" lon="3.623788647115842"><ele>83.0</ele><time>2026-04-12T11:39:52Z</time></trkpt><trkpt lat="50.27917318199719" lon="3.6238547822020175"><ele>83.0</ele><time>2026-04-12T11:39:53Z</time></trkpt><trkpt lat="50.27912453574031" lon="3.6239254125725378"><ele>83.0</ele><time>2026-04-12T11:39:54Z</time></trkpt><trkpt lat="50.27903532861666" lon="3.6240577302883707"><ele>83.2</ele><time>2026-04-12T11:39:56Z</time></trkpt><trkpt lat="50.27895805725812" lon="3.624173463389277"><ele>83.4</ele><time>2026-04-12T11:39:58Z</time></trkpt><trkpt lat="50.278886035654814" lon="3.624277558231306"><ele>83.60000000000001</ele><time>2026-04-12T11:40:00Z</time></trkpt><trkpt lat="50.27881816210355" lon="3.6243776664941847"><ele>83.80000000000001</ele><time>2026-04-12T11:40:02Z</time></trkpt><trkpt lat="50.27874933034534" lon="3.62446899941656"><ele>84.0</ele><time>2026-04-12T11:40:04Z</time></trkpt><trkpt lat="50.27868294066928" lon="3.624567840368084"><ele>84.83333333333333</ele><time>2026-04-12T11:40:06Z</time></trkpt><trkpt lat="50.27861651804875" lon="3.624664863301818"><ele>85.66666666666667</ele><time>2026-04-12T11:40:08Z</time></trkpt><trkpt lat="50.27854768804155" lon="3.624755130731803"><ele>86.5</ele><time>2026-04-12T11:40:10Z</time></trkpt><trkpt lat="50.27848309896345" lon="3.6248406572360294"><ele>87.33333333333334</ele><time>2026-04-12T11:40:12Z</time></trkpt><trkpt lat="50.27841634559711" lon="3.6249166667632875"><ele>88.16666666666667</ele><time>2026-04-12T11:40:14Z</time></trkpt><trkpt lat="50.27834933190033" lon="3.6249946386185727"><ele>89.0</ele><time>2026-04-12T11:40:16Z</time></trkpt><trkpt lat="50.278285825565995" lon="3.6250739804933434"><ele>89.0</ele><time>2026-04-12T11:40:18Z</time></trkpt><trkpt lat="50.278224600664615" lon="3.625150945929016"><ele>89.0</ele><time>2026-04-12T11:40:20Z</time></trkpt><trkpt lat="50.27816405307493" lon="3.62522308882622"><ele>89.0</ele><time>2026-04-12T11:40:22Z</time></trkpt><trkpt lat="50.27810192913434" lon="3.625300062088481"><ele>89.0</ele><time>2026-04-12T11:40:24Z</time></trkpt><trkpt lat="50.27804482516163" lon="3.625380754540646"><ele>89.0</ele><time>2026-04-12T11:40:26Z</time></trkpt><trkpt lat="50.27798963985549" lon="3.6254627818622676"><ele>89.0</ele><time>2026-04-12T11:40:28Z</time></trkpt><trkpt lat="50.277929178711005" lon="3.6255468623081635"><ele>89.33333333333334</ele><time>2026-04-12T11:40:30Z</time></trkpt><trkpt lat="50.27785862136591" lon="3.6256185448717417"><ele>89.66666666666667</ele><time>2026-04-12T11:40:32Z</time></trkpt><trkpt lat="50.277811433213365" lon="3.625699567399026"><ele>90.0</ele><time>2026-04-12T11:40:34Z</time></trkpt><trkpt lat="50.27776697552531" lon="3.625805285962344"><ele>90.33333333333333</ele><time>2026-04-12T11:40:36Z</time></trkpt><trkpt lat="50.27772103348289" lon="3.6259132859091165"><ele>90.66666666666666</ele><time>2026-04-12T11:40:38Z</time></trkpt><trkpt lat="50.27761683470565" lon="3.625882532557351"><ele>91.0</ele><time>2026-04-12T11:40:39Z</time></trkpt><trkpt lat="50.27755520640925" lon="3.625970751104751"><ele>91.0</ele><time>2026-04-12T11:40:41Z</time></trkpt><trkpt lat="50.27749580521942" lon="3.6260557960056734"><ele>91.0</ele><time>2026-04-12T11:40:43Z</time></trkpt><trkpt lat="50.2774284029318" lon="3.626138116611643"><ele>91.0</ele><time>2026-04-12T11:40:45Z</time></trkpt><trkpt lat="50.27736212544694" lon="3.626219296366323"><ele>91.0</ele><time>2026-04-12T11:40:47Z</time></trkpt><trkpt lat="50.277295759618056" lon="3.6263074092298018"><ele>91.0</ele><time>2026-04-12T11:40:49Z</time></trkpt><trkpt lat="50.277235950750914" lon="3.6263947470549702"><ele>91.0</ele><time>2026-04-12T11:40:51Z</time></trkpt><trkpt lat="50.27716971563066" lon="3.626487015155969"><ele>90.6</ele><time>2026-04-12T11:40:53Z</time></trkpt><trkpt lat="50.277099859686" lon="3.62656330466706"><ele>90.19999999999999</ele><time>2026-04-12T11:40:55Z</time></trkpt><trkpt lat="50.277030811827245" lon="3.626654053867745"><ele>89.80000000000001</ele><time>2026-04-12T11:40:57Z</time></trkpt><trkpt lat="50.276956552669795" lon="3.626740520505259"><ele>89.4</ele><time>2026-04-12T11:40:59Z</time></trkpt><trkpt lat="50.2768887294382" lon="3.6268371011705662"><ele>89.0</ele><time>2026-04-12T11:41:01Z</time></trkpt><trkpt lat="50.27680571621146" lon="3.626925515984449"><ele>89.6</ele><time>2026-04-12T11:41:03Z</time></trkpt><trkpt lat="50.27674123190421" lon="3.6270216210429007"><ele>90.2</ele><time>2026-04-12T11:41:05Z</time></trkpt><trkpt lat="50.27666826879785" lon="3.6271032438564115"><ele>90.8</ele><time>2026-04-12T11:41:07Z</time></trkpt><trkpt lat="50.27658906501587" lon="3.6271986539923127"><ele>91.39999999999999</ele><time>2026-04-12T11:41:09Z</time></trkpt><trkpt lat="50.27652088078111" lon="3.6272996272583162"><ele>92.0</ele><time>2026-04-12T11:41:11Z</time></trkpt><trkpt lat="50.276444642055054" lon="3.6274048498347597"><ele>91.19999999999999</ele><time>2026-04-12T11:41:13Z</time></trkpt><trkpt lat="50.27636451446031" lon="3.627491501715313"><ele>90.4</ele><time>2026-04-12T11:41:15Z</time></trkpt><trkpt lat="50.27628651197833" lon="3.627586731696372"><ele>89.6</ele><time>2026-04-12T11:41:17Z</time></trkpt><trkpt lat="50.27620274196542" lon="3.6277019791505025"><ele>88.80000000000001</ele><time>2026-04-12T11:41:19Z</time></trkpt><trkpt lat="50.27610844684546" lon="3.627809321051732"><ele>88.0</ele><time>2026-04-12T11:41:21Z</time></trkpt><trkpt lat="50.276027429797686" lon="3.6279357449244247"><ele>88.0</ele><time>2026-04-12T11:41:23Z</time></trkpt><trkpt lat="50.27593926937996" lon="3.6280517607366254"><ele>88.0</ele><time>2026-04-12T11:41:25Z</time></trkpt><trkpt lat="50.27585012879321" lon="3.6281716172904037"><ele>88.0</ele><time>2026-04-12T11:41:27Z</time></trkpt><trkpt lat="50.27576736866972" lon="3.628302570848203"><ele>88.0</ele><time>2026-04-12T11:41:29Z</time></trkpt><trkpt lat="50.275679768185014" lon="3.628433456315208"><ele>88.0</ele><time>2026-04-12T11:41:31Z</time></trkpt><trkpt lat="50.27560406368794" lon="3.628567502244863"><ele>88.0</ele><time>2026-04-12T11:41:33Z</time></trkpt><trkpt lat="50.27552232105896" lon="3.6287117353421925"><ele>88.0</ele><time>2026-04-12T11:41:35Z</time></trkpt><trkpt lat="50.2754405950099" lon="3.6288522530534975"><ele>88.0</ele><time>2026-04-12T11:41:37Z</time></trkpt><trkpt lat="50.27535983399121" lon="3.6289846256782323"><ele>88.2</ele><time>2026-04-12T11:41:39Z</time></trkpt><trkpt lat="50.27528105728128" lon="3.629114040904826"><ele>88.4</ele><time>2026-04-12T11:41:41Z</time></trkpt><trkpt lat="50.275223822519074" lon="3.6292389889712515"><ele>88.60000000000001</ele><time>2026-04-12T11:41:43Z</time></trkpt><trkpt lat="50.2751734204591" lon="3.629357686625472"><ele>88.80000000000001</ele><time>2026-04-12T11:41:45Z</time></trkpt><trkpt lat="50.27513141942403" lon="3.62947479548603"><ele>89.0</ele><time>2026-04-12T11:41:47Z</time></trkpt><trkpt lat="50.27509410136768" lon="3.6295912412094196"><ele>89.0</ele><time>2026-04-12T11:41:49Z</time></trkpt><trkpt lat="50.27508275182479" lon="3.629698511486089"><ele>89.0</ele><time>2026-04-12T11:41:51Z</time></trkpt><trkpt lat="50.27505703283105" lon="3.6297914039332904"><ele>89.0</ele><time>2026-04-12T11:41:55Z</time></trkpt><trkpt lat="50.27502532478709" lon="3.6299358371697963"><ele>89.0</ele><time>2026-04-12T11:42:01Z</time></trkpt><trkpt lat="50.275006980049575" lon="3.630046128724763"><ele>89.0</ele><time>2026-04-12T11:42:03Z</time></trkpt><trkpt lat="50.275000987412" lon="3.6301524661883153"><ele>89.0</ele><time>2026-04-12T11:42:05Z</time></trkpt><trkpt lat="50.27497378507769" lon="3.6302873534478275"><ele>89.5</ele><time>2026-04-12T11:42:08Z</time></trkpt><trkpt lat="50.27491409236429" lon="3.6303753679319"><ele>90.0</ele><time>2026-04-12T11:42:10Z</time></trkpt><trkpt lat="50.27486007320695" lon="3.630473833859077"><ele>90.5</ele><time>2026-04-12T11:42:12Z</time></trkpt><trkpt lat="50.274791699811395" lon="3.6305391597806813"><ele>91.0</ele><time>2026-04-12T11:42:14Z</time></trkpt><trkpt lat="50.274726899672736" lon="3.630597935573774"><ele>91.5</ele><time>2026-04-12T11:42:16Z</time></trkpt><trkpt lat="50.27466205579016" lon="3.6306633427294335"><ele>92.0</ele><time>2026-04-12T11:42:18Z</time></trkpt><trkpt lat="50.27459742733393" lon="3.6307282392718765"><ele>91.83333333333334</ele><time>2026-04-12T11:42:20Z</time></trkpt><trkpt lat="50.27453202745971" lon="3.6307969413091117"><ele>91.66666666666667</ele><time>2026-04-12T11:42:22Z</time></trkpt><trkpt lat="50.27446771423022" lon="3.630877837533017"><ele>91.5</ele><time>2026-04-12T11:42:24Z</time></trkpt><trkpt lat="50.27441511290946" lon="3.630973009803815"><ele>91.33333333333333</ele><time>2026-04-12T11:42:26Z</time></trkpt><trkpt lat="50.27436738362857" lon="3.631075920997275"><ele>91.16666666666666</ele><time>2026-04-12T11:42:28Z</time></trkpt><trkpt lat="50.27432411033055" lon="3.631200855798114"><ele>91.0</ele><time>2026-04-12T11:42:30Z</time></trkpt><trkpt lat="50.2742737200415" lon="3.631305264929767"><ele>91.0</ele><time>2026-04-12T11:42:32Z</time></trkpt><trkpt lat="50.27423207247149" lon="3.6314258160858084"><ele>91.0</ele><time>2026-04-12T11:42:34Z</time></trkpt><trkpt lat="50.27418467738789" lon="3.63154770814793"><ele>91.0</ele><time>2026-04-12T11:42:36Z</time></trkpt><trkpt lat="50.27413892637339" lon="3.631666080437044"><ele>91.0</ele><time>2026-04-12T11:42:38Z</time></trkpt><trkpt lat="50.27409997765154" lon="3.6317928021346004"><ele>91.0</ele><time>2026-04-12T11:42:40Z</time></trkpt><trkpt lat="50.27404729048088" lon="3.631907300687476"><ele>91.0</ele><time>2026-04-12T11:42:42Z</time></trkpt><trkpt lat="50.27400330455725" lon="3.6320332294882545"><ele>91.66666666666666</ele><time>2026-04-12T11:42:44Z</time></trkpt><trkpt lat="50.27395853389483" lon="3.632158935729055"><ele>92.33333333333333</ele><time>2026-04-12T11:42:46Z</time></trkpt><trkpt lat="50.27391355825696" lon="3.632280470259389"><ele>93.0</ele><time>2026-04-12T11:42:48Z</time></trkpt><trkpt lat="50.27386714198417" lon="3.6323965484162426"><ele>93.66666666666667</ele><time>2026-04-12T11:42:50Z</time></trkpt><trkpt lat="50.273816826399134" lon="3.6325067457525986"><ele>94.33333333333334</ele><time>2026-04-12T11:42:52Z</time></trkpt><trkpt lat="50.27377637313615" lon="3.632619073180671"><ele>95.0</ele><time>2026-04-12T11:42:54Z</time></trkpt><trkpt lat="50.27373751789746" lon="3.632726544822819"><ele>94.5</ele><time>2026-04-12T11:42:56Z</time></trkpt><trkpt lat="50.2736960545977" lon="3.632842875462733"><ele>94.0</ele><time>2026-04-12T11:42:58Z</time></trkpt><trkpt lat="50.27365118444184" lon="3.6329531946891884"><ele>93.5</ele><time>2026-04-12T11:43:00Z</time></trkpt><trkpt lat="50.27361021771457" lon="3.6330634698286435"><ele>93.0</ele><time>2026-04-12T11:43:02Z</time></trkpt><trkpt lat="50.2735681968507" lon="3.6331767491109166"><ele>92.5</ele><time>2026-04-12T11:43:04Z</time></trkpt><trkpt lat="50.273521713023584" lon="3.633290723143678"><ele>92.0</ele><time>2026-04-12T11:43:06Z</time></trkpt><trkpt lat="50.27347812679857" lon="3.63340830774805"><ele>92.0</ele><time>2026-04-12T11:43:08Z</time></trkpt><trkpt lat="50.27343611725948" lon="3.6335238259939007"><ele>92.0</ele><time>2026-04-12T11:43:10Z</time></trkpt><trkpt lat="50.27339151537618" lon="3.6336410228086105"><ele>92.0</ele><time>2026-04-12T11:43:12Z</time></trkpt><trkpt lat="50.273348387951586" lon="3.6337577528040677"><ele>92.0</ele><time>2026-04-12T11:43:14Z</time></trkpt><trkpt lat="50.27330443718114" lon="3.633875516063388"><ele>92.0</ele><time>2026-04-12T11:43:16Z</time></trkpt><trkpt lat="50.27325920800459" lon="3.6339923970038717"><ele>92.0</ele><time>2026-04-12T11:43:18Z</time></trkpt><trkpt lat="50.273220226513615" lon="3.634101858311607"><ele>91.66666666666667</ele><time>2026-04-12T11:43:20Z</time></trkpt><trkpt lat="50.273182048184545" lon="3.6342023790642592"><ele>91.33333333333334</ele><time>2026-04-12T11:43:22Z</time></trkpt><trkpt lat="50.27314881274632" lon="3.6342968428330638"><ele>91.0</ele><time>2026-04-12T11:43:24Z</time></trkpt><trkpt lat="50.2731141235977" lon="3.634384436903067"><ele>90.66666666666667</ele><time>2026-04-12T11:43:26Z</time></trkpt><trkpt lat="50.273076042733685" lon="3.6344879071895795"><ele>90.33333333333333</ele><time>2026-04-12T11:43:28Z</time></trkpt><trkpt lat="50.27303406349394" lon="3.634595017348283"><ele>90.0</ele><time>2026-04-12T11:43:30Z</time></trkpt><trkpt lat="50.27298627253456" lon="3.6347150257088088"><ele>90.0</ele><time>2026-04-12T11:43:32Z</time></trkpt><trkpt lat="50.27294058160723" lon="3.634841386778014"><ele>90.0</ele><time>2026-04-12T11:43:34Z</time></trkpt><trkpt lat="50.27289322299033" lon="3.6349696779565224"><ele>90.0</ele><time>2026-04-12T11:43:36Z</time></trkpt><trkpt lat="50.272842037935554" lon="3.6350962086636796"><ele>90.0</ele><time>2026-04-12T11:43:38Z</time></trkpt><trkpt lat="50.27278990112685" lon="3.6352196811126243"><ele>90.0</ele><time>2026-04-12T11:43:40Z</time></trkpt><trkpt lat="50.27274236369399" lon="3.6353502107891966"><ele>90.6</ele><time>2026-04-12T11:43:42Z</time></trkpt><trkpt lat="50.27269052108369" lon="3.6354853327773275"><ele>91.2</ele><time>2026-04-12T11:43:44Z</time></trkpt><trkpt lat="50.272639973036824" lon="3.6356239019614316"><ele>91.80000000000001</ele><time>2026-04-12T11:43:46Z</time></trkpt><trkpt lat="50.27258867837661" lon="3.6357666120803116"><ele>92.4</ele><time>2026-04-12T11:43:48Z</time></trkpt><trkpt lat="50.27253325658343" lon="3.63590575436412"><ele>93.0</ele><time>2026-04-12T11:43:50Z</time></trkpt><trkpt lat="50.272477003682255" lon="3.6360472336666416"><ele>93.60000000000001</ele><time>2026-04-12T11:43:52Z</time></trkpt><trkpt lat="50.272421886298176" lon="3.6361855961182017"><ele>94.2</ele><time>2026-04-12T11:43:54Z</time></trkpt><trkpt lat="50.272377278673574" lon="3.63632075073485"><ele>94.8</ele><time>2026-04-12T11:43:56Z</time></trkpt><trkpt lat="50.27232468827972" lon="3.6364377448662273"><ele>95.4</ele><time>2026-04-12T11:43:58Z</time></trkpt><trkpt lat="50.27228095352517" lon="3.6365530168332807"><ele>96.0</ele><time>2026-04-12T11:44:00Z</time></trkpt><trkpt lat="50.27222298445137" lon="3.6366675111979996"><ele>95.6</ele><time>2026-04-12T11:44:02Z</time></trkpt><trkpt lat="50.27216352370095" lon="3.636787313620396"><ele>95.19999999999999</ele><time>2026-04-12T11:44:04Z</time></trkpt><trkpt lat="50.27208809749744" lon="3.636897034420703"><ele>94.80000000000001</ele><time>2026-04-12T11:44:06Z</time></trkpt><trkpt lat="50.272000685461464" lon="3.6369839890993974"><ele>94.4</ele><time>2026-04-12T11:44:08Z</time></trkpt><trkpt lat="50.271893287638356" lon="3.637039928352922"><ele>94.0</ele><time>2026-04-12T11:44:10Z</time></trkpt><trkpt lat="50.2717834029411" lon="3.6370928881443403"><ele>94.0</ele><time>2026-04-12T11:44:12Z</time></trkpt><trkpt lat="50.27166181436414" lon="3.637137626604609"><ele>94.0</ele><time>2026-04-12T11:44:14Z</time></trkpt><trkpt lat="50.27153765067698" lon="3.6371875916102088"><ele>94.0</ele><time>2026-04-12T11:44:16Z</time></trkpt><trkpt lat="50.27147538025984" lon="3.637220579945417"><ele>94.0</ele><time>2026-04-12T11:44:17Z</time></trkpt><trkpt lat="50.2714119716825" lon="3.6372568618824457"><ele>94.0</ele><time>2026-04-12T11:44:18Z</time></trkpt><trkpt lat="50.27134898995668" lon="3.6373104970313053"><ele>93.14285714285714</ele><time>2026-04-12T11:44:19Z</time></trkpt><trkpt lat="50.27129360318555" lon="3.637374301117645"><ele>92.28571428571428</ele><time>2026-04-12T11:44:20Z</time></trkpt><trkpt lat="50.271232486631376" lon="3.6374378050914187"><ele>91.42857142857143</ele><time>2026-04-12T11:44:21Z</time></trkpt><trkpt lat="50.271178338036336" lon="3.6375128399902894"><ele>90.57142857142857</ele><time>2026-04-12T11:44:22Z</time></trkpt><trkpt lat="50.27112695757724" lon="3.6376065336470824"><ele>89.71428571428571</ele><time>2026-04-12T11:44:23Z</time></trkpt><trkpt lat="50.27108753945368" lon="3.637709133935205"><ele>88.85714285714286</ele><time>2026-04-12T11:44:24Z</time></trkpt><trkpt lat="50.27105372191323" lon="3.637820694567596"><ele>88.0</ele><time>2026-04-12T11:44:25Z</time></trkpt><trkpt lat="50.271022340670214" lon="3.6379312579019265"><ele>88.0</ele><time>2026-04-12T11:44:26Z</time></trkpt><trkpt lat="50.270985628129644" lon="3.638046124721627"><ele>88.0</ele><time>2026-04-12T11:44:27Z</time></trkpt><trkpt lat="50.270967497995315" lon="3.638170470048887"><ele>88.0</ele><time>2026-04-12T11:44:28Z</time></trkpt><trkpt lat="50.27095154731429" lon="3.638306409663757"><ele>88.0</ele><time>2026-04-12T11:44:29Z</time></trkpt><trkpt lat="50.27094609342896" lon="3.6384227441773174"><ele>88.0</ele><time>2026-04-12T11:44:30Z</time></trkpt><trkpt lat="50.27093872106245" lon="3.638544838065562"><ele>88.0</ele><time>2026-04-12T11:44:31Z</time></trkpt><trkpt lat="50.27092274600638" lon="3.638666280675463"><ele>88.0</ele><time>2026-04-12T11:44:32Z</time></trkpt><trkpt lat="50.27091003403053" lon="3.6387848014735398"><ele>88.0</ele><time>2026-04-12T11:44:33Z</time></trkpt><trkpt lat="50.270892067181265" lon="3.6388910757056907"><ele>88.0</ele><time>2026-04-12T11:44:34Z</time></trkpt><trkpt lat="50.27087142947222" lon="3.638997351450601"><ele>88.0</ele><time>2026-04-12T11:44:35Z</time></trkpt><trkpt lat="50.27084265225087" lon="3.639100257726301"><ele>88.0</ele><time>2026-04-12T11:44:36Z</time></trkpt><trkpt lat="50.27081188240905" lon="3.6391994986818283"><ele>88.0</ele><time>2026-04-12T11:44:37Z</time></trkpt><trkpt lat="50.27078659194484" lon="3.6392960417302613"><ele>88.0</ele><time>2026-04-12T11:44:38Z</time></trkpt><trkpt lat="50.270755556301324" lon="3.639393888822409"><ele>88.2</ele><time>2026-04-12T11:44:39Z</time></trkpt><trkpt lat="50.270727042894386" lon="3.6394824858817914"><ele>88.4</ele><time>2026-04-12T11:44:40Z</time></trkpt><trkpt lat="50.27066764193106" lon="3.6396534942867698"><ele>88.60000000000001</ele><time>2026-04-12T11:44:42Z</time></trkpt><trkpt lat="50.27061555409647" lon="3.6398131241515617"><ele>88.80000000000001</ele><time>2026-04-12T11:44:44Z</time></trkpt><trkpt lat="50.270564429899316" lon="3.6399627869759947"><ele>89.0</ele><time>2026-04-12T11:44:46Z</time></trkpt><trkpt lat="50.270522680860836" lon="3.6400964230930826"><ele>89.0</ele><time>2026-04-12T11:44:48Z</time></trkpt><trkpt lat="50.270485354046734" lon="3.6402006543002057"><ele>89.0</ele><time>2026-04-12T11:44:50Z</time></trkpt><trkpt lat="50.270443655447146" lon="3.6403228709624034"><ele>89.0</ele><time>2026-04-12T11:44:52Z</time></trkpt><trkpt lat="50.27040520695752" lon="3.6404407217003905"><ele>89.0</ele><time>2026-04-12T11:44:54Z</time></trkpt><trkpt lat="50.27036563829044" lon="3.640555374731274"><ele>89.0</ele><time>2026-04-12T11:44:56Z</time></trkpt><trkpt lat="50.27033140153124" lon="3.640668980998053"><ele>89.0</ele><time>2026-04-12T11:44:58Z</time></trkpt><trkpt lat="50.27029925853617" lon="3.6407784535232195"><ele>89.99999999999999</ele><time>2026-04-12T11:45:00Z</time></trkpt><trkpt lat="50.27026751193462" lon="3.64088753888337"><ele>91.0</ele><time>2026-04-12T11:45:02Z</time></trkpt><trkpt lat="50.270236500325574" lon="3.6409870685953636"><ele>92.0</ele><time>2026-04-12T11:45:04Z</time></trkpt><trkpt lat="50.27021056870057" lon="3.6410853045851073"><ele>93.0</ele><time>2026-04-12T11:45:06Z</time></trkpt><trkpt lat="50.27018647467938" lon="3.6411818021851805"><ele>94.0</ele><time>2026-04-12T11:45:08Z</time></trkpt><trkpt lat="50.27016061387945" lon="3.641282836379069"><ele>94.99999999999999</ele><time>2026-04-12T11:45:10Z</time></trkpt><trkpt lat="50.27013303803095" lon="3.6413756777413533"><ele>96.0</ele><time>2026-04-12T11:45:12Z</time></trkpt><trkpt lat="50.27010515962748" lon="3.6414739926031814"><ele>96.16666666666667</ele><time>2026-04-12T11:45:14Z</time></trkpt><trkpt lat="50.270071460351545" lon="3.641615136480662"><ele>96.33333333333334</ele><time>2026-04-12T11:45:17Z</time></trkpt><trkpt lat="50.27004369433039" lon="3.6417129669458093"><ele>96.5</ele><time>2026-04-12T11:45:19Z</time></trkpt><trkpt lat="50.27001807374521" lon="3.64181038571326"><ele>96.66666666666667</ele><time>2026-04-12T11:45:21Z</time></trkpt><trkpt lat="50.26999641320849" lon="3.6419060922792874"><ele>96.83333333333334</ele><time>2026-04-12T11:45:23Z</time></trkpt><trkpt lat="50.26996446189081" lon="3.6420428967267817"><ele>97.0</ele><time>2026-04-12T11:45:26Z</time></trkpt><trkpt lat="50.269940676576375" lon="3.6421343531165107"><ele>97.33333333333334</ele><time>2026-04-12T11:45:28Z</time></trkpt><trkpt lat="50.269917999540546" lon="3.642232254719303"><ele>97.66666666666667</ele><time>2026-04-12T11:45:30Z</time></trkpt><trkpt lat="50.26988481259866" lon="3.6423647268879535"><ele>98.0</ele><time>2026-04-12T11:45:33Z</time></trkpt><trkpt lat="50.269859815338464" lon="3.642456519549528"><ele>98.33333333333334</ele><time>2026-04-12T11:45:35Z</time></trkpt><trkpt lat="50.2698297910665" lon="3.6425883092048292"><ele>98.66666666666667</ele><time>2026-04-12T11:45:38Z</time></trkpt><trkpt lat="50.26979903080013" lon="3.6427200216471345"><ele>99.0</ele><time>2026-04-12T11:45:41Z</time></trkpt><trkpt lat="50.26976855571163" lon="3.642849822589283"><ele>99.5</ele><time>2026-04-12T11:45:44Z</time></trkpt><trkpt lat="50.26972949530736" lon="3.6429747911554458"><ele>100.0</ele><time>2026-04-12T11:45:47Z</time></trkpt><trkpt lat="50.26968662883449" lon="3.6431051572960245"><ele>100.5</ele><time>2026-04-12T11:45:50Z</time></trkpt><trkpt lat="50.26964365462257" lon="3.6432307552741325"><ele>101.0</ele><time>2026-04-12T11:45:53Z</time></trkpt><trkpt lat="50.26961031037884" lon="3.6433170356416693"><ele>101.5</ele><time>2026-04-12T11:45:55Z</time></trkpt><trkpt lat="50.26957720093059" lon="3.643404455855701"><ele>102.0</ele><time>2026-04-12T11:45:57Z</time></trkpt><trkpt lat="50.26953793798482" lon="3.643498984283517"><ele>102.0</ele><time>2026-04-12T11:45:59Z</time></trkpt><trkpt lat="50.269501191165105" lon="3.6435957810603683"><ele>102.0</ele><time>2026-04-12T11:46:01Z</time></trkpt><trkpt lat="50.269464174303664" lon="3.6436917139223564"><ele>102.0</ele><time>2026-04-12T11:46:03Z</time></trkpt><trkpt lat="50.2694265610676" lon="3.6437846840585744"><ele>102.0</ele><time>2026-04-12T11:46:05Z</time></trkpt><trkpt lat="50.26938876152925" lon="3.6438757641007755"><ele>102.0</ele><time>2026-04-12T11:46:07Z</time></trkpt><trkpt lat="50.26935344917356" lon="3.6439640824316064"><ele>102.0</ele><time>2026-04-12T11:46:09Z</time></trkpt><trkpt lat="50.269318397088625" lon="3.6440507703046823"><ele>102.0</ele><time>2026-04-12T11:46:11Z</time></trkpt><trkpt lat="50.26928281200915" lon="3.6441407203345624"><ele>102.14285714285714</ele><time>2026-04-12T11:46:13Z</time></trkpt><trkpt lat="50.26924732381407" lon="3.644232747276417"><ele>102.28571428571429</ele><time>2026-04-12T11:46:15Z</time></trkpt><trkpt lat="50.26921095957375" lon="3.6443229517555285"><ele>102.42857142857142</ele><time>2026-04-12T11:46:17Z</time></trkpt><trkpt lat="50.26917331884365" lon="3.644414077128431"><ele>102.57142857142857</ele><time>2026-04-12T11:46:19Z</time></trkpt><trkpt lat="50.269137777591304" lon="3.6445085744323724"><ele>102.71428571428571</ele><time>2026-04-12T11:46:21Z</time></trkpt><trkpt lat="50.26910345985898" lon="3.6446006564105904"><ele>102.85714285714285</ele><time>2026-04-12T11:46:23Z</time></trkpt><trkpt lat="50.26906547913975" lon="3.644690891936093"><ele>103.0</ele><time>2026-04-12T11:46:25Z</time></trkpt><trkpt lat="50.269032925170706" lon="3.6447821657425155"><ele>103.28571428571428</ele><time>2026-04-12T11:46:27Z</time></trkpt><trkpt lat="50.26899692659499" lon="3.6448683814706344"><ele>103.57142857142857</ele><time>2026-04-12T11:46:29Z</time></trkpt><trkpt lat="50.26896220028229" lon="3.644955240014163"><ele>103.85714285714286</ele><time>2026-04-12T11:46:31Z</time></trkpt><trkpt lat="50.2689261742958" lon="3.6450468072782054"><ele>104.14285714285714</ele><time>2026-04-12T11:46:33Z</time></trkpt><trkpt lat="50.26889770877248" lon="3.6451361163150944"><ele>104.42857142857143</ele><time>2026-04-12T11:46:35Z</time></trkpt><trkpt lat="50.2688564799501" lon="3.645217304241315"><ele>104.71428571428571</ele><time>2026-04-12T11:46:37Z</time></trkpt><trkpt lat="50.268823929035996" lon="3.645304291405097"><ele>105.0</ele><time>2026-04-12T11:46:39Z</time></trkpt><trkpt lat="50.26879069262378" lon="3.6453901590000055"><ele>105.0</ele><time>2026-04-12T11:46:41Z</time></trkpt><trkpt lat="50.26875264451688" lon="3.645477833933879"><ele>105.0</ele><time>2026-04-12T11:46:43Z</time></trkpt><trkpt lat="50.26871504824215" lon="3.645565734795373"><ele>105.0</ele><time>2026-04-12T11:46:45Z</time></trkpt><trkpt lat="50.26867281338764" lon="3.64565520958109"><ele>105.0</ele><time>2026-04-12T11:46:47Z</time></trkpt><trkpt lat="50.26862921815686" lon="3.6457462303829358"><ele>105.0</ele><time>2026-04-12T11:46:49Z</time></trkpt><trkpt lat="50.268580720158944" lon="3.6458365620100315"><ele>105.0</ele><time>2026-04-12T11:46:51Z</time></trkpt><trkpt lat="50.26853091090393" lon="3.6459223650873684"><ele>105.0</ele><time>2026-04-12T11:46:53Z</time></trkpt><trkpt lat="50.26847837721712" lon="3.646006861723215"><ele>105.0</ele><time>2026-04-12T11:46:55Z</time></trkpt><trkpt lat="50.26842316306495" lon="3.646089113866984"><ele>105.0</ele><time>2026-04-12T11:46:57Z</time></trkpt><trkpt lat="50.26836849233823" lon="3.646172408537083"><ele>105.0</ele><time>2026-04-12T11:46:59Z</time></trkpt><trkpt lat="50.26831336475556" lon="3.646246309393064"><ele>105.0</ele><time>2026-04-12T11:47:01Z</time></trkpt><trkpt lat="50.26825929760752" lon="3.646325421309259"><ele>105.0</ele><time>2026-04-12T11:47:03Z</time></trkpt><trkpt lat="50.26820078459108" lon="3.646395461870003"><ele>105.0</ele><time>2026-04-12T11:47:05Z</time></trkpt><trkpt lat="50.26814351990752" lon="3.6464684435321066"><ele>105.0</ele><time>2026-04-12T11:47:07Z</time></trkpt><trkpt lat="50.2680856997103" lon="3.6465336596006748"><ele>105.28571428571429</ele><time>2026-04-12T11:47:09Z</time></trkpt><trkpt lat="50.268023091456236" lon="3.64659528675138"><ele>105.57142857142857</ele><time>2026-04-12T11:47:11Z</time></trkpt><trkpt lat="50.26796398334847" lon="3.646655298554285"><ele>105.85714285714286</ele><time>2026-04-12T11:47:13Z</time></trkpt><trkpt lat="50.267905057902446" lon="3.6467124685305414"><ele>106.14285714285714</ele><time>2026-04-12T11:47:15Z</time></trkpt><trkpt lat="50.267837191903396" lon="3.646769157280046"><ele>106.42857142857143</ele><time>2026-04-12T11:47:17Z</time></trkpt><trkpt lat="50.26777010324009" lon="3.6468276671525435"><ele>106.71428571428572</ele><time>2026-04-12T11:47:19Z</time></trkpt><trkpt lat="50.26770374359552" lon="3.646880297088826"><ele>107.0</ele><time>2026-04-12T11:47:21Z</time></trkpt><trkpt lat="50.267639211113604" lon="3.646933905099283"><ele>107.16666666666666</ele><time>2026-04-12T11:47:23Z</time></trkpt><trkpt lat="50.26757355660051" lon="3.6469877155699355"><ele>107.33333333333333</ele><time>2026-04-12T11:47:25Z</time></trkpt><trkpt lat="50.26750841584825" lon="3.6470434131436074"><ele>107.5</ele><time>2026-04-12T11:47:27Z</time></trkpt><trkpt lat="50.26744197549633" lon="3.6470962382925842"><ele>107.66666666666666</ele><time>2026-04-12T11:47:29Z</time></trkpt><trkpt lat="50.26737249111571" lon="3.6471535303001907"><ele>107.83333333333333</ele><time>2026-04-12T11:47:31Z</time></trkpt><trkpt lat="50.26730651378477" lon="3.647210704517696"><ele>108.0</ele><time>2026-04-12T11:47:33Z</time></trkpt><trkpt lat="50.26723762090687" lon="3.647270261376325"><ele>108.0</ele><time>2026-04-12T11:47:35Z</time></trkpt><trkpt lat="50.26716811693923" lon="3.64733006418383"><ele>108.0</ele><time>2026-04-12T11:47:37Z</time></trkpt><trkpt lat="50.26709955586331" lon="3.6473920730961744"><ele>108.0</ele><time>2026-04-12T11:47:39Z</time></trkpt><trkpt lat="50.267031905716415" lon="3.6474569162987267"><ele>108.0</ele><time>2026-04-12T11:47:41Z</time></trkpt><trkpt lat="50.26696614335523" lon="3.647521402685427"><ele>108.0</ele><time>2026-04-12T11:47:43Z</time></trkpt><trkpt lat="50.26690668883149" lon="3.647592195218715"><ele>108.0</ele><time>2026-04-12T11:47:45Z</time></trkpt><trkpt lat="50.26684362283502" lon="3.647668641194933"><ele>108.0</ele><time>2026-04-12T11:47:47Z</time></trkpt><trkpt lat="50.266781015009464" lon="3.64774950842499"><ele>108.0</ele><time>2026-04-12T11:47:49Z</time></trkpt><trkpt lat="50.266722701570195" lon="3.6478330375622448"><ele>108.0</ele><time>2026-04-12T11:47:51Z</time></trkpt><trkpt lat="50.266665896678624" lon="3.647915051083314"><ele>108.0</ele><time>2026-04-12T11:47:53Z</time></trkpt><trkpt lat="50.266605913942065" lon="3.648000099056177"><ele>108.0</ele><time>2026-04-12T11:47:55Z</time></trkpt><trkpt lat="50.26655515595287" lon="3.648094136088321"><ele>108.0</ele><time>2026-04-12T11:47:57Z</time></trkpt><trkpt lat="50.266498459124634" lon="3.6481817008217465"><ele>108.0</ele><time>2026-04-12T11:47:59Z</time></trkpt><trkpt lat="50.26644818189356" lon="3.64828403876217"><ele>108.0</ele><time>2026-04-12T11:48:01Z</time></trkpt><trkpt lat="50.26640013159639" lon="3.6483818919155406"><ele>108.0</ele><time>2026-04-12T11:48:03Z</time></trkpt><trkpt lat="50.26634878673381" lon="3.6484760070886875"><ele>108.0</ele><time>2026-04-12T11:48:05Z</time></trkpt><trkpt lat="50.26630328006359" lon="3.6485758224978575"><ele>108.0</ele><time>2026-04-12T11:48:07Z</time></trkpt><trkpt lat="50.266257000676745" lon="3.648668970324581"><ele>108.0</ele><time>2026-04-12T11:48:09Z</time></trkpt><trkpt lat="50.26621448438831" lon="3.6487603610165458"><ele>108.5</ele><time>2026-04-12T11:48:11Z</time></trkpt><trkpt lat="50.26617525445599" lon="3.6488570883737066"><ele>109.0</ele><time>2026-04-12T11:48:13Z</time></trkpt><trkpt lat="50.26613024135204" lon="3.648953352209581"><ele>109.5</ele><time>2026-04-12T11:48:15Z</time></trkpt><trkpt lat="50.266087783763446" lon="3.649054604263186"><ele>110.0</ele><time>2026-04-12T11:48:17Z</time></trkpt><trkpt lat="50.26604211297104" lon="3.649157167031501"><ele>110.5</ele><time>2026-04-12T11:48:19Z</time></trkpt><trkpt lat="50.265996973680195" lon="3.649262040947687"><ele>111.0</ele><time>2026-04-12T11:48:21Z</time></trkpt><trkpt lat="50.265947891630276" lon="3.649371399571781"><ele>111.0</ele><time>2026-04-12T11:48:23Z</time></trkpt><trkpt lat="50.26590087006925" lon="3.6494843573202536"><ele>111.0</ele><time>2026-04-12T11:48:25Z</time></trkpt><trkpt lat="50.26585573996948" lon="3.649582725622817"><ele>111.0</ele><time>2026-04-12T11:48:27Z</time></trkpt><trkpt lat="50.26580666184648" lon="3.64969575341657"><ele>111.0</ele><time>2026-04-12T11:48:29Z</time></trkpt><trkpt lat="50.26575940218964" lon="3.649806842460292"><ele>111.0</ele><time>2026-04-12T11:48:31Z</time></trkpt><trkpt lat="50.265709761519574" lon="3.6499230797962037"><ele>111.0</ele><time>2026-04-12T11:48:33Z</time></trkpt><trkpt lat="50.26566358755881" lon="3.650035126690188"><ele>111.0</ele><time>2026-04-12T11:48:35Z</time></trkpt><trkpt lat="50.265616645587905" lon="3.6501441524614044"><ele>111.0</ele><time>2026-04-12T11:48:37Z</time></trkpt><trkpt lat="50.26556982115611" lon="3.6502564822962884"><ele>111.0</ele><time>2026-04-12T11:48:39Z</time></trkpt><trkpt lat="50.265520094559164" lon="3.6503711049202874"><ele>111.0</ele><time>2026-04-12T11:48:41Z</time></trkpt><trkpt lat="50.26547454363769" lon="3.6504735163274744"><ele>111.0</ele><time>2026-04-12T11:48:43Z</time></trkpt><trkpt lat="50.265429810328015" lon="3.6505816800593327"><ele>111.0</ele><time>2026-04-12T11:48:45Z</time></trkpt><trkpt lat="50.26538139561971" lon="3.6506923823593667"><ele>111.0</ele><time>2026-04-12T11:48:47Z</time></trkpt><trkpt lat="50.26533261139213" lon="3.6508010049830437"><ele>111.0</ele><time>2026-04-12T11:48:49Z</time></trkpt><trkpt lat="50.265284747001296" lon="3.650908610614273"><ele>111.0</ele><time>2026-04-12T11:48:51Z</time></trkpt><trkpt lat="50.26523987985898" lon="3.6510143728999687"><ele>111.0</ele><time>2026-04-12T11:48:53Z</time></trkpt><trkpt lat="50.265191804150675" lon="3.651124597883827"><ele>111.0</ele><time>2026-04-12T11:48:55Z</time></trkpt><trkpt lat="50.26514209174837" lon="3.651228060386747"><ele>111.0</ele><time>2026-04-12T11:48:57Z</time></trkpt><trkpt lat="50.265104247915566" lon="3.6513287101713203"><ele>111.5</ele><time>2026-04-12T11:48:59Z</time></trkpt><trkpt lat="50.26505810310574" lon="3.6514239541174116"><ele>112.0</ele><time>2026-04-12T11:49:01Z</time></trkpt><trkpt lat="50.26501473571613" lon="3.6515239129831274"><ele>112.5</ele><time>2026-04-12T11:49:03Z</time></trkpt><trkpt lat="50.264970191851404" lon="3.6516224761718075"><ele>113.0</ele><time>2026-04-12T11:49:05Z</time></trkpt><trkpt lat="50.2649284836379" lon="3.651711376597897"><ele>113.5</ele><time>2026-04-12T11:49:07Z</time></trkpt><trkpt lat="50.264879973439534" lon="3.651798048024944"><ele>114.0</ele><time>2026-04-12T11:49:09Z</time></trkpt><trkpt lat="50.26483012854909" lon="3.6518945921063044"><ele>114.0</ele><time>2026-04-12T11:49:11Z</time></trkpt><trkpt lat="50.264779996484044" lon="3.6519907623746475"><ele>114.0</ele><time>2026-04-12T11:49:13Z</time></trkpt><trkpt lat="50.26472730205318" lon="3.652084320260639"><ele>114.0</ele><time>2026-04-12T11:49:15Z</time></trkpt><trkpt lat="50.26467769696972" lon="3.652182833631862"><ele>114.0</ele><time>2026-04-12T11:49:17Z</time></trkpt><trkpt lat="50.26462641643815" lon="3.6522779171433903"><ele>114.0</ele><time>2026-04-12T11:49:19Z</time></trkpt><trkpt lat="50.2645771358812" lon="3.6523698459743907"><ele>114.0</ele><time>2026-04-12T11:49:21Z</time></trkpt><trkpt lat="50.264525577092144" lon="3.6524612583117504"><ele>114.0</ele><time>2026-04-12T11:49:23Z</time></trkpt><trkpt lat="50.264475419317" lon="3.6525586826259526"><ele>114.0</ele><time>2026-04-12T11:49:25Z</time></trkpt><trkpt lat="50.26442557415415" lon="3.652653708130247"><ele>114.0</ele><time>2026-04-12T11:49:27Z</time></trkpt><trkpt lat="50.26437930140849" lon="3.6527447165849813"><ele>114.0</ele><time>2026-04-12T11:49:29Z</time></trkpt><trkpt lat="50.26432776861327" lon="3.6528305106454084"><ele>114.0</ele><time>2026-04-12T11:49:31Z</time></trkpt><trkpt lat="50.26428284196988" lon="3.652929152831534"><ele>114.0</ele><time>2026-04-12T11:49:33Z</time></trkpt><trkpt lat="50.26422930473973" lon="3.65302328340148"><ele>114.0</ele><time>2026-04-12T11:49:35Z</time></trkpt><trkpt lat="50.264169884087025" lon="3.653111707537073"><ele>114.0</ele><time>2026-04-12T11:49:37Z</time></trkpt><trkpt lat="50.264114717292124" lon="3.6532091554721196"><ele>114.0</ele><time>2026-04-12T11:49:39Z</time></trkpt><trkpt lat="50.26405658894652" lon="3.653301212047502"><ele>114.0</ele><time>2026-04-12T11:49:41Z</time></trkpt><trkpt lat="50.263997789429055" lon="3.6533992461807725"><ele>114.0</ele><time>2026-04-12T11:49:43Z</time></trkpt><trkpt lat="50.26393783892088" lon="3.6534992465539493"><ele>114.0</ele><time>2026-04-12T11:49:45Z</time></trkpt><trkpt lat="50.263876023019385" lon="3.6535996031321982"><ele>114.33333333333333</ele><time>2026-04-12T11:49:47Z</time></trkpt><trkpt lat="50.26381472197616" lon="3.65369896141202"><ele>114.66666666666666</ele><time>2026-04-12T11:49:49Z</time></trkpt><trkpt lat="50.26375244064149" lon="3.6537930290467457"><ele>115.0</ele><time>2026-04-12T11:49:51Z</time></trkpt><trkpt lat="50.26369321273017" lon="3.6538944095593275"><ele>115.33333333333333</ele><time>2026-04-12T11:49:53Z</time></trkpt><trkpt lat="50.26362868057616" lon="3.6539953467059005"><ele>115.66666666666666</ele><time>2026-04-12T11:49:55Z</time></trkpt><trkpt lat="50.2635668220324" lon="3.654098255173875"><ele>116.0</ele><time>2026-04-12T11:49:57Z</time></trkpt><trkpt lat="50.26350452261297" lon="3.6542036863373046"><ele>116.0</ele><time>2026-04-12T11:49:59Z</time></trkpt><trkpt lat="50.26344269120894" lon="3.6543109964320633"><ele>116.0</ele><time>2026-04-12T11:50:01Z</time></trkpt><trkpt lat="50.26338217244672" lon="3.6544177665009783"><ele>116.0</ele><time>2026-04-12T11:50:03Z</time></trkpt><trkpt lat="50.263316363112295" lon="3.654527589659713"><ele>116.0</ele><time>2026-04-12T11:50:05Z</time></trkpt><trkpt lat="50.26324583257595" lon="3.654635570141385"><ele>116.0</ele><time>2026-04-12T11:50:07Z</time></trkpt><trkpt lat="50.263175542261614" lon="3.654757756180355"><ele>115.8</ele><time>2026-04-12T11:50:09Z</time></trkpt><trkpt lat="50.2631073183443" lon="3.6548637563226687"><ele>115.6</ele><time>2026-04-12T11:50:11Z</time></trkpt><trkpt lat="50.26304306379646" lon="3.6549720106504826"><ele>115.4</ele><time>2026-04-12T11:50:13Z</time></trkpt><trkpt lat="50.26297887354896" lon="3.6550947946051795"><ele>115.2</ele><time>2026-04-12T11:50:15Z</time></trkpt><trkpt lat="50.26290779909628" lon="3.655206316146135"><ele>115.0</ele><time>2026-04-12T11:50:17Z</time></trkpt><trkpt lat="50.26283877107139" lon="3.6553207336905786"><ele>115.0</ele><time>2026-04-12T11:50:19Z</time></trkpt><trkpt lat="50.262765836770704" lon="3.6554314848889238"><ele>115.0</ele><time>2026-04-12T11:50:21Z</time></trkpt><trkpt lat="50.26269369396171" lon="3.6555459601561915"><ele>115.0</ele><time>2026-04-12T11:50:23Z</time></trkpt><trkpt lat="50.2626154115252" lon="3.6556570325627726"><ele>115.0</ele><time>2026-04-12T11:50:25Z</time></trkpt><trkpt lat="50.26253399513575" lon="3.655766687319201"><ele>115.0</ele><time>2026-04-12T11:50:27Z</time></trkpt><trkpt lat="50.262452435577075" lon="3.6558695578054015"><ele>115.0</ele><time>2026-04-12T11:50:29Z</time></trkpt><trkpt lat="50.262370286008206" lon="3.6559673272258157"><ele>115.0</ele><time>2026-04-12T11:50:31Z</time></trkpt><trkpt lat="50.26229024941068" lon="3.656064787611698"><ele>115.0</ele><time>2026-04-12T11:50:33Z</time></trkpt><trkpt lat="50.26220587375126" lon="3.6561548340688987"><ele>115.0</ele><time>2026-04-12T11:50:35Z</time></trkpt><trkpt lat="50.262124061030846" lon="3.6562410270433707"><ele>115.0</ele><time>2026-04-12T11:50:37Z</time></trkpt><trkpt lat="50.26204438004955" lon="3.6563242711907056"><ele>115.0</ele><time>2026-04-12T11:50:39Z</time></trkpt><trkpt lat="50.26196208306858" lon="3.65640807329288"><ele>115.0</ele><time>2026-04-12T11:50:41Z</time></trkpt><trkpt lat="50.26187902579477" lon="3.6564940685418237"><ele>115.0</ele><time>2026-04-12T11:50:43Z</time></trkpt><trkpt lat="50.261795729530846" lon="3.656582038715946"><ele>115.0</ele><time>2026-04-12T11:50:45Z</time></trkpt><trkpt lat="50.2617166002093" lon="3.656662792094784"><ele>115.0</ele><time>2026-04-12T11:50:47Z</time></trkpt><trkpt lat="50.26163966436998" lon="3.6567440675318403"><ele>115.0</ele><time>2026-04-12T11:50:49Z</time></trkpt><trkpt lat="50.261561925891975" lon="3.6568203151223515"><ele>115.0</ele><time>2026-04-12T11:50:51Z</time></trkpt><trkpt lat="50.26148484775333" lon="3.656900492891858"><ele>115.0</ele><time>2026-04-12T11:50:53Z</time></trkpt><trkpt lat="50.26140763638373" lon="3.656980423619061"><ele>115.0</ele><time>2026-04-12T11:50:55Z</time></trkpt><trkpt lat="50.26132930180869" lon="3.657061177840972"><ele>115.0</ele><time>2026-04-12T11:50:57Z</time></trkpt><trkpt lat="50.26124968719372" lon="3.6571397834618384"><ele>115.4</ele><time>2026-04-12T11:50:59Z</time></trkpt><trkpt lat="50.261169242653594" lon="3.6572165603494"><ele>115.8</ele><time>2026-04-12T11:51:01Z</time></trkpt><trkpt lat="50.26108983419725" lon="3.657288959635199"><ele>116.19999999999999</ele><time>2026-04-12T11:51:03Z</time></trkpt><trkpt lat="50.26101212990353" lon="3.6573569052689088"><ele>116.6</ele><time>2026-04-12T11:51:05Z</time></trkpt><trkpt lat="50.26092692045583" lon="3.657425268363001"><ele>117.0</ele><time>2026-04-12T11:51:07Z</time></trkpt><trkpt lat="50.260842436756604" lon="3.657475749788249"><ele>117.0</ele><time>2026-04-12T11:51:09Z</time></trkpt><trkpt lat="50.26075651685226" lon="3.6575211525703186"><ele>117.0</ele><time>2026-04-12T11:51:11Z</time></trkpt><trkpt lat="50.26067063703583" lon="3.65756165261343"><ele>117.0</ele><time>2026-04-12T11:51:13Z</time></trkpt><trkpt lat="50.26058407707615" lon="3.6575990322979206"><ele>117.0</ele><time>2026-04-12T11:51:15Z</time></trkpt><trkpt lat="50.260499667602154" lon="3.657640512251854"><ele>117.0</ele><time>2026-04-12T11:51:17Z</time></trkpt><trkpt lat="50.26041330112967" lon="3.6576788685723027"><ele>117.0</ele><time>2026-04-12T11:51:19Z</time></trkpt><trkpt lat="50.26032983868391" lon="3.657723978887567"><ele>117.16666666666667</ele><time>2026-04-12T11:51:21Z</time></trkpt><trkpt lat="50.260247734590614" lon="3.6577721639127896"><ele>117.33333333333334</ele><time>2026-04-12T11:51:23Z</time></trkpt><trkpt lat="50.260167818161904" lon="3.657833467627484"><ele>117.5</ele><time>2026-04-12T11:51:25Z</time></trkpt><trkpt lat="50.26008900319632" lon="3.657897419412515"><ele>117.66666666666667</ele><time>2026-04-12T11:51:27Z</time></trkpt><trkpt lat="50.26001939347565" lon="3.6579751064216093"><ele>117.83333333333334</ele><time>2026-04-12T11:51:29Z</time></trkpt><trkpt lat="50.25995423395971" lon="3.658049505457255"><ele>118.0</ele><time>2026-04-12T11:51:31Z</time></trkpt><trkpt lat="50.25989588287612" lon="3.658145458655533"><ele>118.00000000000001</ele><time>2026-04-12T11:51:33Z</time></trkpt><trkpt lat="50.259841924207734" lon="3.6582356617995138"><ele>118.0</ele><time>2026-04-12T11:51:35Z</time></trkpt><trkpt lat="50.259790920172954" lon="3.658331573906312"><ele>118.0</ele><time>2026-04-12T11:51:37Z</time></trkpt><trkpt lat="50.259738236062674" lon="3.658440004470185"><ele>118.0</ele><time>2026-04-12T11:51:39Z</time></trkpt><trkpt lat="50.25968820660249" lon="3.6585350177627274"><ele>118.00000000000001</ele><time>2026-04-12T11:51:41Z</time></trkpt><trkpt lat="50.259637677458706" lon="3.6586192253393692"><ele>118.0</ele><time>2026-04-12T11:51:43Z</time></trkpt><trkpt lat="50.25958863902373" lon="3.658703940129914"><ele>118.00000000000001</ele><time>2026-04-12T11:51:45Z</time></trkpt><trkpt lat="50.25952615546835" lon="3.658794393828856"><ele>118.0</ele><time>2026-04-12T11:51:47Z</time></trkpt><trkpt lat="50.25945432901602" lon="3.658877617704816"><ele>118.0</ele><time>2026-04-12T11:51:49Z</time></trkpt><trkpt lat="50.25938452682539" lon="3.658950932477044"><ele>118.0</ele><time>2026-04-12T11:51:51Z</time></trkpt><trkpt lat="50.25930564945076" lon="3.6589828889831257"><ele>118.00000000000001</ele><time>2026-04-12T11:51:53Z</time></trkpt><trkpt lat="50.25922554384308" lon="3.6589769925557065"><ele>118.0</ele><time>2026-04-12T11:51:55Z</time></trkpt><trkpt lat="50.25914282902051" lon="3.6589983124091647"><ele>118.00000000000001</ele><time>2026-04-12T11:51:57Z</time></trkpt><trkpt lat="50.25907158401746" lon="3.6590617213701155"><ele>118.0</ele><time>2026-04-12T11:51:59Z</time></trkpt><trkpt lat="50.25902817714823" lon="3.6591683571923586"><ele>118.0</ele><time>2026-04-12T11:52:01Z</time></trkpt><trkpt lat="50.259028891565855" lon="3.6593010616045514"><ele>118.0</ele><time>2026-04-12T11:52:03Z</time></trkpt><trkpt lat="50.259056650322044" lon="3.659429337305971"><ele>118.00000000000001</ele><time>2026-04-12T11:52:05Z</time></trkpt><trkpt lat="50.25911014949496" lon="3.659529072207626"><ele>118.0</ele><time>2026-04-12T11:52:07Z</time></trkpt><trkpt lat="50.25909748182177" lon="3.659690169050092"><ele>118.0</ele><time>2026-04-12T11:52:09Z</time></trkpt><trkpt lat="50.25905804991124" lon="3.6598294168853314"><ele>118.00000000000001</ele><time>2026-04-12T11:52:11Z</time></trkpt><trkpt lat="50.259010066854906" lon="3.659956144062096"><ele>118.00000000000001</ele><time>2026-04-12T11:52:13Z</time></trkpt><trkpt lat="50.25895458303301" lon="3.6600807075915838"><ele>118.0</ele><time>2026-04-12T11:52:15Z</time></trkpt><trkpt lat="50.2589073752377" lon="3.6601996886725137"><ele>118.0</ele><time>2026-04-12T11:52:17Z</time></trkpt><trkpt lat="50.258860086691" lon="3.6603167692381215"><ele>118.16666666666667</ele><time>2026-04-12T11:52:19Z</time></trkpt><trkpt lat="50.25881207102316" lon="3.6604368085979515"><ele>118.33333333333334</ele><time>2026-04-12T11:52:21Z</time></trkpt><trkpt lat="50.258768113470225" lon="3.6605483537660026"><ele>118.5</ele><time>2026-04-12T11:52:23Z</time></trkpt><trkpt lat="50.25871965318287" lon="3.6606632554322345"><ele>118.66666666666666</ele><time>2026-04-12T11:52:25Z</time></trkpt><trkpt lat="50.25867591954578" lon="3.660781067468623"><ele>118.83333333333333</ele><time>2026-04-12T11:52:27Z</time></trkpt><trkpt lat="50.25863277743795" lon="3.6608893395545463"><ele>119.0</ele><time>2026-04-12T11:52:29Z</time></trkpt><trkpt lat="50.25859003503802" lon="3.661001734372856"><ele>118.99999999999999</ele><time>2026-04-12T11:52:31Z</time></trkpt><trkpt lat="50.25854825955161" lon="3.6611110714550446"><ele>119.0</ele><time>2026-04-12T11:52:33Z</time></trkpt><trkpt lat="50.25850215773893" lon="3.6612118113839727"><ele>119.0</ele><time>2026-04-12T11:52:35Z</time></trkpt><trkpt lat="50.25845697890243" lon="3.661314119793514"><ele>119.0</ele><time>2026-04-12T11:52:37Z</time></trkpt><trkpt lat="50.25841103550329" lon="3.66142115609031"><ele>118.99999999999999</ele><time>2026-04-12T11:52:39Z</time></trkpt><trkpt lat="50.258365317252405" lon="3.6615313033821733"><ele>119.0</ele><time>2026-04-12T11:52:41Z</time></trkpt><trkpt lat="50.25831243895527" lon="3.6616334944979996"><ele>119.0</ele><time>2026-04-12T11:52:43Z</time></trkpt><trkpt lat="50.25826864205425" lon="3.6617404232487933"><ele>119.0</ele><time>2026-04-12T11:52:45Z</time></trkpt><trkpt lat="50.258215756765686" lon="3.661866312127082"><ele>119.0</ele><time>2026-04-12T11:52:47Z</time></trkpt><trkpt lat="50.25815956838391" lon="3.6619791744881"><ele>119.0</ele><time>2026-04-12T11:52:49Z</time></trkpt><trkpt lat="50.2581057352862" lon="3.662098741012957"><ele>119.0</ele><time>2026-04-12T11:52:51Z</time></trkpt><trkpt lat="50.2580502193965" lon="3.6622213943446607"><ele>119.0</ele><time>2026-04-12T11:52:53Z</time></trkpt><trkpt lat="50.25799543444202" lon="3.662350264472564"><ele>119.0</ele><time>2026-04-12T11:52:55Z</time></trkpt><trkpt lat="50.25794478531693" lon="3.6624613009069664"><ele>119.0</ele><time>2026-04-12T11:52:57Z</time></trkpt><trkpt lat="50.25789088314878" lon="3.662584525872787"><ele>119.0</ele><time>2026-04-12T11:52:59Z</time></trkpt><trkpt lat="50.25783477256155" lon="3.6627008431784778"><ele>119.0</ele><time>2026-04-12T11:53:01Z</time></trkpt><trkpt lat="50.257791993906714" lon="3.6628113624246814"><ele>119.4</ele><time>2026-04-12T11:53:03Z</time></trkpt><trkpt lat="50.25773023257721" lon="3.662955860903851"><ele>119.80000000000001</ele><time>2026-04-12T11:53:05Z</time></trkpt><trkpt lat="50.2576745267513" lon="3.6630914153783687"><ele>120.19999999999999</ele><time>2026-04-12T11:53:07Z</time></trkpt><trkpt lat="50.25761901063509" lon="3.663234765424391"><ele>120.6</ele><time>2026-04-12T11:53:09Z</time></trkpt><trkpt lat="50.25756130474152" lon="3.6633713469284377"><ele>121.0</ele><time>2026-04-12T11:53:11Z</time></trkpt><trkpt lat="50.257522050945354" lon="3.663459173504499"><ele>121.0</ele><time>2026-04-12T11:53:12Z</time></trkpt><trkpt lat="50.25746041559617" lon="3.663608421709522"><ele>121.0</ele><time>2026-04-12T11:53:14Z</time></trkpt><trkpt lat="50.25742696556629" lon="3.663695018035289"><ele>121.0</ele><time>2026-04-12T11:53:15Z</time></trkpt><trkpt lat="50.257367895973026" lon="3.663843228858539"><ele>121.0</ele><time>2026-04-12T11:53:17Z</time></trkpt><trkpt lat="50.25733305677919" lon="3.663927173130024"><ele>121.0</ele><time>2026-04-12T11:53:18Z</time></trkpt><trkpt lat="50.25727010808557" lon="3.664072345963284"><ele>120.5</ele><time>2026-04-12T11:53:20Z</time></trkpt><trkpt lat="50.25720490245642" lon="3.664214098059026"><ele>120.0</ele><time>2026-04-12T11:53:22Z</time></trkpt><trkpt lat="50.25713940361974" lon="3.6643642381291666"><ele>119.5</ele><time>2026-04-12T11:53:24Z</time></trkpt><trkpt lat="50.2570754795165" lon="3.6645186650848984"><ele>119.0</ele><time>2026-04-12T11:53:26Z</time></trkpt><trkpt lat="50.25701813821188" lon="3.664682714003285"><ele>118.80000000000001</ele><time>2026-04-12T11:53:28Z</time></trkpt><trkpt lat="50.256953327159806" lon="3.664836557572686"><ele>118.60000000000001</ele><time>2026-04-12T11:53:30Z</time></trkpt><trkpt lat="50.256900733748026" lon="3.6649715019342373"><ele>118.4</ele><time>2026-04-12T11:53:32Z</time></trkpt><trkpt lat="50.256849761677024" lon="3.6650974287181497"><ele>118.2</ele><time>2026-04-12T11:53:34Z</time></trkpt><trkpt lat="50.25681197980719" lon="3.665208550681491"><ele>118.0</ele><time>2026-04-12T11:53:36Z</time></trkpt><trkpt lat="50.256763502164084" lon="3.6653242533457675"><ele>118.0</ele><time>2026-04-12T11:53:38Z</time></trkpt><trkpt lat="50.2567164220864" lon="3.665475375330271"><ele>118.0</ele><time>2026-04-12T11:53:40Z</time></trkpt><trkpt lat="50.25665759764954" lon="3.6656196559449943"><ele>118.0</ele><time>2026-04-12T11:53:42Z</time></trkpt><trkpt lat="50.25659173268197" lon="3.665771407190161"><ele>118.0</ele><time>2026-04-12T11:53:44Z</time></trkpt><trkpt lat="50.25652333107538" lon="3.6659389215136673"><ele>118.00000000000001</ele><time>2026-04-12T11:53:46Z</time></trkpt><trkpt lat="50.256485208284346" lon="3.666030673975422"><ele>118.0</ele><time>2026-04-12T11:53:47Z</time></trkpt><trkpt lat="50.25645232258333" lon="3.666119914329743"><ele>118.0</ele><time>2026-04-12T11:53:48Z</time></trkpt><trkpt lat="50.25641990099936" lon="3.666205723153584"><ele>118.0</ele><time>2026-04-12T11:53:49Z</time></trkpt><trkpt lat="50.256381639399855" lon="3.666287500081996"><ele>118.00000000000001</ele><time>2026-04-12T11:53:50Z</time></trkpt><trkpt lat="50.25631158582943" lon="3.6664452575938298"><ele>118.0</ele><time>2026-04-12T11:53:52Z</time></trkpt><trkpt lat="50.25627654298741" lon="3.666528331440834"><ele>117.4</ele><time>2026-04-12T11:53:53Z</time></trkpt><trkpt lat="50.25621987642522" lon="3.666679562747982"><ele>116.80000000000001</ele><time>2026-04-12T11:53:55Z</time></trkpt><trkpt lat="50.256185385418874" lon="3.6667642587686973"><ele>116.2</ele><time>2026-04-12T11:53:56Z</time></trkpt><trkpt lat="50.25612541191355" lon="3.666915570523189"><ele>115.6</ele><time>2026-04-12T11:53:58Z</time></trkpt><trkpt lat="50.25606970873158" lon="3.667064928673951"><ele>115.0</ele><time>2026-04-12T11:54:00Z</time></trkpt><trkpt lat="50.25600995299153" lon="3.6672107014713813"><ele>114.8</ele><time>2026-04-12T11:54:02Z</time></trkpt><trkpt lat="50.25594525848117" lon="3.667358620210285"><ele>114.6</ele><time>2026-04-12T11:54:04Z</time></trkpt><trkpt lat="50.25587964433847" lon="3.66749651995646"><ele>114.4</ele><time>2026-04-12T11:54:06Z</time></trkpt><trkpt lat="50.25580913135737" lon="3.667632761937747"><ele>114.2</ele><time>2026-04-12T11:54:08Z</time></trkpt><trkpt lat="50.25573431551268" lon="3.667754945928037"><ele>114.0</ele><time>2026-04-12T11:54:10Z</time></trkpt><trkpt lat="50.255667015130456" lon="3.667879326306349"><ele>114.80000000000001</ele><time>2026-04-12T11:54:12Z</time></trkpt><trkpt lat="50.25559118759336" lon="3.66798168113692"><ele>115.60000000000001</ele><time>2026-04-12T11:54:14Z</time></trkpt><trkpt lat="50.25551610793391" lon="3.668080196813726"><ele>116.4</ele><time>2026-04-12T11:54:16Z</time></trkpt><trkpt lat="50.25544481706546" lon="3.6681699589807732"><ele>117.2</ele><time>2026-04-12T11:54:18Z</time></trkpt><trkpt lat="50.255370591676595" lon="3.668254959432978"><ele>118.0</ele><time>2026-04-12T11:54:20Z</time></trkpt><trkpt lat="50.25529832801032" lon="3.6683344755827885"><ele>118.00000000000001</ele><time>2026-04-12T11:54:22Z</time></trkpt><trkpt lat="50.25522831514276" lon="3.668404164773439"><ele>118.0</ele><time>2026-04-12T11:54:24Z</time></trkpt><trkpt lat="50.2551598684962" lon="3.668480347129489"><ele>118.0</ele><time>2026-04-12T11:54:26Z</time></trkpt><trkpt lat="50.255094634773876" lon="3.6685557146392545"><ele>118.0</ele><time>2026-04-12T11:54:28Z</time></trkpt><trkpt lat="50.25502854650798" lon="3.6686269926298407"><ele>118.00000000000001</ele><time>2026-04-12T11:54:30Z</time></trkpt><trkpt lat="50.254965214641516" lon="3.6686947133198102"><ele>118.0</ele><time>2026-04-12T11:54:32Z</time></trkpt><trkpt lat="50.25490261447361" lon="3.668767183152939"><ele>118.28571428571428</ele><time>2026-04-12T11:54:34Z</time></trkpt><trkpt lat="50.25484383399499" lon="3.6688327359673716"><ele>118.57142857142858</ele><time>2026-04-12T11:54:36Z</time></trkpt><trkpt lat="50.25478029612322" lon="3.668894724746333"><ele>118.85714285714286</ele><time>2026-04-12T11:54:38Z</time></trkpt><trkpt lat="50.25471832991789" lon="3.6689578238084346"><ele>119.14285714285714</ele><time>2026-04-12T11:54:40Z</time></trkpt><trkpt lat="50.25465608052775" lon="3.6690230805976176"><ele>119.42857142857142</ele><time>2026-04-12T11:54:42Z</time></trkpt><trkpt lat="50.254595286023914" lon="3.6690820596265343"><ele>119.71428571428572</ele><time>2026-04-12T11:54:44Z</time></trkpt><trkpt lat="50.25452516440128" lon="3.6691359921187363"><ele>120.0</ele><time>2026-04-12T11:54:46Z</time></trkpt><trkpt lat="50.25446830904902" lon="3.6692024694215384"><ele>120.0</ele><time>2026-04-12T11:54:48Z</time></trkpt><trkpt lat="50.254407639464326" lon="3.669267163381493"><ele>120.0</ele><time>2026-04-12T11:54:50Z</time></trkpt><trkpt lat="50.25434406631561" lon="3.669329425989607"><ele>120.0</ele><time>2026-04-12T11:54:52Z</time></trkpt><trkpt lat="50.25428586514189" lon="3.6693910890327923"><ele>120.0</ele><time>2026-04-12T11:54:54Z</time></trkpt><trkpt lat="50.2542175581702" lon="3.669457044750332"><ele>120.0</ele><time>2026-04-12T11:54:56Z</time></trkpt><trkpt lat="50.25415306158607" lon="3.6695247084560565"><ele>120.0</ele><time>2026-04-12T11:54:58Z</time></trkpt><trkpt lat="50.254093249446406" lon="3.6695908635481804"><ele>120.28571428571429</ele><time>2026-04-12T11:55:00Z</time></trkpt><trkpt lat="50.254031817687846" lon="3.6696558597672793"><ele>120.57142857142856</ele><time>2026-04-12T11:55:02Z</time></trkpt><trkpt lat="50.2539737678245" lon="3.669720815325266"><ele>120.85714285714285</ele><time>2026-04-12T11:55:04Z</time></trkpt><trkpt lat="50.253915891083906" lon="3.6697833459063647"><ele>121.14285714285714</ele><time>2026-04-12T11:55:06Z</time></trkpt><trkpt lat="50.25385897398464" lon="3.6698431760092864"><ele>121.42857142857142</ele><time>2026-04-12T11:55:08Z</time></trkpt><trkpt lat="50.25380740143621" lon="3.6699056504807146"><ele>121.7142857142857</ele><time>2026-04-12T11:55:10Z</time></trkpt><trkpt lat="50.253733334970235" lon="3.670000223331492"><ele>121.99999999999999</ele><time>2026-04-12T11:55:13Z</time></trkpt><trkpt lat="50.253683529799716" lon="3.6700748945903143"><ele>122.33333333333333</ele><time>2026-04-12T11:55:15Z</time></trkpt><trkpt lat="50.25361503991751" lon="3.670171860652261"><ele>122.66666666666666</ele><time>2026-04-12T11:55:18Z</time></trkpt><trkpt lat="50.253566146648055" lon="3.670244310170986"><ele>123.0</ele><time>2026-04-12T11:55:20Z</time></trkpt><trkpt lat="50.25352047078162" lon="3.6703260078874447"><ele>123.33333333333334</ele><time>2026-04-12T11:55:22Z</time></trkpt><trkpt lat="50.25346558114095" lon="3.6704078734702446"><ele>123.66666666666667</ele><time>2026-04-12T11:55:24Z</time></trkpt><trkpt lat="50.25340793947742" lon="3.6705281013280064"><ele>124.0</ele><time>2026-04-12T11:55:27Z</time></trkpt><trkpt lat="50.253362639263464" lon="3.670607640459826"><ele>124.0</ele><time>2026-04-12T11:55:29Z</time></trkpt><trkpt lat="50.25332322135956" lon="3.670692601280722"><ele>124.00000000000001</ele><time>2026-04-12T11:55:31Z</time></trkpt><trkpt lat="50.25327943640182" lon="3.670770692096215"><ele>124.0</ele><time>2026-04-12T11:55:33Z</time></trkpt><trkpt lat="50.253222339299974" lon="3.670881969497621"><ele>124.0</ele><time>2026-04-12T11:55:36Z</time></trkpt><trkpt lat="50.25317608338866" lon="3.670954127459145"><ele>124.00000000000001</ele><time>2026-04-12T11:55:38Z</time></trkpt><trkpt lat="50.25312892738476" lon="3.6710341886582687"><ele>124.0</ele><time>2026-04-12T11:55:40Z</time></trkpt><trkpt lat="50.253084542203254" lon="3.671106986011426"><ele>124.0</ele><time>2026-04-12T11:55:42Z</time></trkpt><trkpt lat="50.25303361107645" lon="3.6711880876846488"><ele>124.42857142857143</ele><time>2026-04-12T11:55:44Z</time></trkpt><trkpt lat="50.25298304947236" lon="3.6712684256189125"><ele>124.85714285714286</ele><time>2026-04-12T11:55:46Z</time></trkpt><trkpt lat="50.25292774712746" lon="3.6713415147261137"><ele>125.28571428571429</ele><time>2026-04-12T11:55:48Z</time></trkpt><trkpt lat="50.25287981401964" lon="3.6714161040725815"><ele>125.71428571428572</ele><time>2026-04-12T11:55:50Z</time></trkpt><trkpt lat="50.25282347149884" lon="3.671485479992038"><ele>126.14285714285714</ele><time>2026-04-12T11:55:52Z</time></trkpt><trkpt lat="50.25277694007735" lon="3.6715607469989178"><ele>126.57142857142858</ele><time>2026-04-12T11:55:54Z</time></trkpt><trkpt lat="50.252710273420384" lon="3.671631374595253"><ele>127.0</ele><time>2026-04-12T11:55:56Z</time></trkpt><trkpt lat="50.25264731779346" lon="3.6717032419916142"><ele>127.0</ele><time>2026-04-12T11:55:58Z</time></trkpt><trkpt lat="50.25258828943185" lon="3.6717746138202516"><ele>127.0</ele><time>2026-04-12T11:56:00Z</time></trkpt><trkpt lat="50.25252581925499" lon="3.671841482837976"><ele>127.0</ele><time>2026-04-12T11:56:02Z</time></trkpt><trkpt lat="50.25246958950505" lon="3.671906524085486"><ele>127.0</ele><time>2026-04-12T11:56:04Z</time></trkpt><trkpt lat="50.25240766541297" lon="3.671975514006966"><ele>127.0</ele><time>2026-04-12T11:56:06Z</time></trkpt><trkpt lat="50.25234572415574" lon="3.6720487965394732"><ele>127.0</ele><time>2026-04-12T11:56:08Z</time></trkpt><trkpt lat="50.252284524073985" lon="3.6721159838105084"><ele>127.0</ele><time>2026-04-12T11:56:10Z</time></trkpt><trkpt lat="50.25222559872853" lon="3.672181834765824"><ele>127.28571428571429</ele><time>2026-04-12T11:56:12Z</time></trkpt><trkpt lat="50.25216853981091" lon="3.672248471437284"><ele>127.57142857142856</ele><time>2026-04-12T11:56:14Z</time></trkpt><trkpt lat="50.2521096960611" lon="3.6723117854759955"><ele>127.85714285714285</ele><time>2026-04-12T11:56:16Z</time></trkpt><trkpt lat="50.25204966044978" lon="3.6723724645641878"><ele>128.14285714285714</ele><time>2026-04-12T11:56:18Z</time></trkpt><trkpt lat="50.25199033607755" lon="3.672441065812436"><ele>128.42857142857142</ele><time>2026-04-12T11:56:20Z</time></trkpt><trkpt lat="50.251934917746226" lon="3.6724996032768527"><ele>128.7142857142857</ele><time>2026-04-12T11:56:22Z</time></trkpt><trkpt lat="50.251878414900844" lon="3.672561015192519"><ele>129.0</ele><time>2026-04-12T11:56:24Z</time></trkpt><trkpt lat="50.2518214473865" lon="3.672628136361741"><ele>129.0</ele><time>2026-04-12T11:56:26Z</time></trkpt><trkpt lat="50.251745965992825" lon="3.672715041064015"><ele>129.0</ele><time>2026-04-12T11:56:29Z</time></trkpt><trkpt lat="50.251667862680335" lon="3.672800818846655"><ele>129.0</ele><time>2026-04-12T11:56:32Z</time></trkpt><trkpt lat="50.25159263218769" lon="3.672878529154952"><ele>129.0</ele><time>2026-04-12T11:56:35Z</time></trkpt><trkpt lat="50.251514787542845" lon="3.67296745899812"><ele>129.0</ele><time>2026-04-12T11:56:38Z</time></trkpt><trkpt lat="50.25146143193723" lon="3.6730285845725623"><ele>129.0</ele><time>2026-04-12T11:56:40Z</time></trkpt><trkpt lat="50.2514013665011" lon="3.6730890618199172"><ele>129.16666666666666</ele><time>2026-04-12T11:56:42Z</time></trkpt><trkpt lat="50.25134401389166" lon="3.6731583550123643"><ele>129.33333333333334</ele><time>2026-04-12T11:56:44Z</time></trkpt><trkpt lat="50.25128260185295" lon="3.673223200564117"><ele>129.5</ele><time>2026-04-12T11:56:46Z</time></trkpt><trkpt lat="50.25121675897532" lon="3.6733031926160136"><ele>129.66666666666669</ele><time>2026-04-12T11:56:48Z</time></trkpt><trkpt lat="50.2511510441507" lon="3.6733787231405604"><ele>129.83333333333334</ele><time>2026-04-12T11:56:50Z</time></trkpt><trkpt lat="50.25108563619696" lon="3.673453855080853"><ele>130.0</ele><time>2026-04-12T11:56:52Z</time></trkpt><trkpt lat="50.251023761839505" lon="3.67352298660786"><ele>130.0</ele><time>2026-04-12T11:56:54Z</time></trkpt><trkpt lat="50.25096753703773" lon="3.673584916475444"><ele>130.0</ele><time>2026-04-12T11:56:56Z</time></trkpt><trkpt lat="50.25090867056416" lon="3.6736474304713895"><ele>130.0</ele><time>2026-04-12T11:56:58Z</time></trkpt><trkpt lat="50.25084533903578" lon="3.6737181642234296"><ele>130.0</ele><time>2026-04-12T11:57:00Z</time></trkpt><trkpt lat="50.25077804426884" lon="3.6738012238600466"><ele>130.0</ele><time>2026-04-12T11:57:02Z</time></trkpt><trkpt lat="50.25070974438914" lon="3.67387525461714"><ele>130.0</ele><time>2026-04-12T11:57:04Z</time></trkpt><trkpt lat="50.25064011922411" lon="3.6739576955765902"><ele>130.0</ele><time>2026-04-12T11:57:06Z</time></trkpt><trkpt lat="50.25056935914159" lon="3.6740373009089633"><ele>130.0</ele><time>2026-04-12T11:57:08Z</time></trkpt><trkpt lat="50.25050001784324" lon="3.674114356302228"><ele>130.0</ele><time>2026-04-12T11:57:10Z</time></trkpt><trkpt lat="50.25043020681768" lon="3.674200973431263"><ele>130.0</ele><time>2026-04-12T11:57:12Z</time></trkpt><trkpt lat="50.25036134399057" lon="3.6742871963416723"><ele>130.0</ele><time>2026-04-12T11:57:14Z</time></trkpt><trkpt lat="50.250290638429654" lon="3.6743767808159653"><ele>130.0</ele><time>2026-04-12T11:57:16Z</time></trkpt><trkpt lat="50.250223839548326" lon="3.67447572984348"><ele>129.8</ele><time>2026-04-12T11:57:18Z</time></trkpt><trkpt lat="50.250159317197586" lon="3.674578327513632"><ele>129.6</ele><time>2026-04-12T11:57:20Z</time></trkpt><trkpt lat="50.25010156435382" lon="3.674682870907546"><ele>129.4</ele><time>2026-04-12T11:57:22Z</time></trkpt><trkpt lat="50.25004613145118" lon="3.6747977822667237"><ele>129.2</ele><time>2026-04-12T11:57:24Z</time></trkpt><trkpt lat="50.249996866507956" lon="3.67491660998824"><ele>129.0</ele><time>2026-04-12T11:57:26Z</time></trkpt><trkpt lat="50.249952896309686" lon="3.6750376576339403"><ele>129.0</ele><time>2026-04-12T11:57:28Z</time></trkpt><trkpt lat="50.24990955565781" lon="3.6751545377959034"><ele>129.0</ele><time>2026-04-12T11:57:30Z</time></trkpt><trkpt lat="50.249870994741585" lon="3.67527845298467"><ele>129.0</ele><time>2026-04-12T11:57:32Z</time></trkpt><trkpt lat="50.249831305753595" lon="3.6754006510592108"><ele>129.0</ele><time>2026-04-12T11:57:34Z</time></trkpt><trkpt lat="50.249794274236585" lon="3.6755288444014518"><ele>129.0</ele><time>2026-04-12T11:57:36Z</time></trkpt><trkpt lat="50.249755288035395" lon="3.675656976761883"><ele>129.0</ele><time>2026-04-12T11:57:38Z</time></trkpt><trkpt lat="50.249714947071276" lon="3.6757833780493487"><ele>129.0</ele><time>2026-04-12T11:57:40Z</time></trkpt><trkpt lat="50.24967621478257" lon="3.675909523340298"><ele>129.0</ele><time>2026-04-12T11:57:42Z</time></trkpt><trkpt lat="50.24964167118142" lon="3.6760348675157783"><ele>129.0</ele><time>2026-04-12T11:57:44Z</time></trkpt><trkpt lat="50.24960418946618" lon="3.676158362541701"><ele>129.0</ele><time>2026-04-12T11:57:46Z</time></trkpt><trkpt lat="50.249568812186254" lon="3.676282462462106"><ele>129.0</ele><time>2026-04-12T11:57:48Z</time></trkpt><trkpt lat="50.24953224373743" lon="3.6764101575883914"><ele>129.0</ele><time>2026-04-12T11:57:50Z</time></trkpt><trkpt lat="50.24949557522275" lon="3.6765376512978563"><ele>129.0</ele><time>2026-04-12T11:57:52Z</time></trkpt><trkpt lat="50.24946169735573" lon="3.676666629253828"><ele>129.0</ele><time>2026-04-12T11:57:54Z</time></trkpt><trkpt lat="50.249428498403645" lon="3.676793945439431"><ele>129.0</ele><time>2026-04-12T11:57:56Z</time></trkpt><trkpt lat="50.24939676891969" lon="3.6769216509729987"><ele>129.0</ele><time>2026-04-12T11:57:58Z</time></trkpt><trkpt lat="50.24936514703672" lon="3.6770467343219404"><ele>129.0</ele><time>2026-04-12T11:58:00Z</time></trkpt><trkpt lat="50.24933688492122" lon="3.6771751976675224"><ele>129.0</ele><time>2026-04-12T11:58:02Z</time></trkpt><trkpt lat="50.24930997611073" lon="3.6773053114566676"><ele>129.33333333333334</ele><time>2026-04-12T11:58:04Z</time></trkpt><trkpt lat="50.249285283776246" lon="3.6774382042807434"><ele>129.66666666666666</ele><time>2026-04-12T11:58:06Z</time></trkpt><trkpt lat="50.24926565591024" lon="3.6775687575496954"><ele>130.0</ele><time>2026-04-12T11:58:08Z</time></trkpt><trkpt lat="50.24924013337194" lon="3.677697721473533"><ele>130.33333333333331</ele><time>2026-04-12T11:58:10Z</time></trkpt><trkpt lat="50.24922106899516" lon="3.6778197098028693"><ele>130.66666666666666</ele><time>2026-04-12T11:58:12Z</time></trkpt><trkpt lat="50.249203391055254" lon="3.677943326491473"><ele>131.0</ele><time>2026-04-12T11:58:14Z</time></trkpt><trkpt lat="50.24918330068832" lon="3.678069753830748"><ele>131.33333333333331</ele><time>2026-04-12T11:58:16Z</time></trkpt><trkpt lat="50.2491621543861" lon="3.6781978252229592"><ele>131.66666666666666</ele><time>2026-04-12T11:58:18Z</time></trkpt><trkpt lat="50.24914169070238" lon="3.678331636862521"><ele>132.0</ele><time>2026-04-12T11:58:20Z</time></trkpt><trkpt lat="50.24912189919255" lon="3.6784683936301468"><ele>132.33333333333334</ele><time>2026-04-12T11:58:22Z</time></trkpt><trkpt lat="50.249102312462355" lon="3.6786006397086974"><ele>132.66666666666669</ele><time>2026-04-12T11:58:24Z</time></trkpt><trkpt lat="50.24908441742317" lon="3.678740963292687"><ele>133.0</ele><time>2026-04-12T11:58:26Z</time></trkpt><trkpt lat="50.24905939872698" lon="3.6788726973420953"><ele>133.20000000000002</ele><time>2026-04-12T11:58:28Z</time></trkpt><trkpt lat="50.24903972123151" lon="3.6790181962461213"><ele>133.4</ele><time>2026-04-12T11:58:30Z</time></trkpt><trkpt lat="50.24901334590178" lon="3.6791631618613594"><ele>133.60000000000002</ele><time>2026-04-12T11:58:32Z</time></trkpt><trkpt lat="50.24898805198405" lon="3.6793045159540534"><ele>133.8</ele><time>2026-04-12T11:58:34Z</time></trkpt><trkpt lat="50.24895799701493" lon="3.6794452745364548"><ele>134.0</ele><time>2026-04-12T11:58:36Z</time></trkpt><trkpt lat="50.24892925023051" lon="3.6795785213611802"><ele>134.16666666666666</ele><time>2026-04-12T11:58:38Z</time></trkpt><trkpt lat="50.248895240912866" lon="3.679702664613879"><ele>134.33333333333331</ele><time>2026-04-12T11:58:40Z</time></trkpt><trkpt lat="50.24885429685404" lon="3.6798233885308327"><ele>134.5</ele><time>2026-04-12T11:58:42Z</time></trkpt><trkpt lat="50.24880818487125" lon="3.679937805620728"><ele>134.66666666666666</ele><time>2026-04-12T11:58:44Z</time></trkpt><trkpt lat="50.24875675328967" lon="3.6800601138528988"><ele>134.83333333333334</ele><time>2026-04-12T11:58:46Z</time></trkpt><trkpt lat="50.24871033379697" lon="3.680182466458611"><ele>135.0</ele><time>2026-04-12T11:58:48Z</time></trkpt><trkpt lat="50.248678495154735" lon="3.680314095313114"><ele>135.0</ele><time>2026-04-12T11:58:50Z</time></trkpt><trkpt lat="50.24866370864064" lon="3.680453066263544"><ele>135.0</ele><time>2026-04-12T11:58:52Z</time></trkpt><trkpt lat="50.248657772496294" lon="3.6806046971021495"><ele>135.0</ele><time>2026-04-12T11:58:54Z</time></trkpt><trkpt lat="50.2486583555045" lon="3.680766952631762"><ele>135.0</ele><time>2026-04-12T11:58:56Z</time></trkpt><trkpt lat="50.24864054285205" lon="3.6809388326282138"><ele>135.0</ele><time>2026-04-12T11:58:58Z</time></trkpt><trkpt lat="50.24862165577658" lon="3.681106015158258"><ele>134.8</ele><time>2026-04-12T11:59:00Z</time></trkpt><trkpt lat="50.248592325586685" lon="3.6812700330777246"><ele>134.6</ele><time>2026-04-12T11:59:02Z</time></trkpt><trkpt lat="50.24856613958907" lon="3.6814215954405367"><ele>134.4</ele><time>2026-04-12T11:59:04Z</time></trkpt><trkpt lat="50.248538148781506" lon="3.6815794343980084"><ele>134.2</ele><time>2026-04-12T11:59:06Z</time></trkpt><trkpt lat="50.24851062518071" lon="3.681734114212245"><ele>134.0</ele><time>2026-04-12T11:59:08Z</time></trkpt><trkpt lat="50.24847855197448" lon="3.6818873670666323"><ele>134.2</ele><time>2026-04-12T11:59:10Z</time></trkpt><trkpt lat="50.24845097679977" lon="3.682037579268998"><ele>134.4</ele><time>2026-04-12T11:59:12Z</time></trkpt><trkpt lat="50.24842213875549" lon="3.6821815452386155"><ele>134.6</ele><time>2026-04-12T11:59:14Z</time></trkpt><trkpt lat="50.24839817209013" lon="3.6823261584801696"><ele>134.8</ele><time>2026-04-12T11:59:16Z</time></trkpt><trkpt lat="50.24837733213988" lon="3.6824622171256234"><ele>135.0</ele><time>2026-04-12T11:59:18Z</time></trkpt><trkpt lat="50.24834978869395" lon="3.6826080205987575"><ele>135.0</ele><time>2026-04-12T11:59:20Z</time></trkpt><trkpt lat="50.248326703830934" lon="3.682763213828603"><ele>135.0</ele><time>2026-04-12T11:59:22Z</time></trkpt><trkpt lat="50.24830245652058" lon="3.6829056105755984"><ele>135.0</ele><time>2026-04-12T11:59:24Z</time></trkpt><trkpt lat="50.24827672070548" lon="3.683061261709053"><ele>135.0</ele><time>2026-04-12T11:59:26Z</time></trkpt><trkpt lat="50.248254093989594" lon="3.683211981268523"><ele>135.0</ele><time>2026-04-12T11:59:28Z</time></trkpt><trkpt lat="50.2482292001954" lon="3.683364888919919"><ele>135.0</ele><time>2026-04-12T11:59:30Z</time></trkpt><trkpt lat="50.24819822219966" lon="3.6835073086507"><ele>135.0</ele><time>2026-04-12T11:59:32Z</time></trkpt><trkpt lat="50.248173310934206" lon="3.683650444090527"><ele>135.0</ele><time>2026-04-12T11:59:34Z</time></trkpt><trkpt lat="50.24814804179061" lon="3.683797812452156"><ele>135.0</ele><time>2026-04-12T11:59:36Z</time></trkpt><trkpt lat="50.24811763039979" lon="3.6839363813249255"><ele>135.0</ele><time>2026-04-12T11:59:38Z</time></trkpt><trkpt lat="50.24809174773703" lon="3.6840763404600927"><ele>135.0</ele><time>2026-04-12T11:59:40Z</time></trkpt><trkpt lat="50.24805698832565" lon="3.684227747470898"><ele>135.0</ele><time>2026-04-12T11:59:42Z</time></trkpt><trkpt lat="50.24803510079431" lon="3.6843558194524073"><ele>135.0</ele><time>2026-04-12T11:59:44Z</time></trkpt><trkpt lat="50.24800581579429" lon="3.6844889219921573"><ele>135.0</ele><time>2026-04-12T11:59:46Z</time></trkpt><trkpt lat="50.24797860580286" lon="3.684618110877647"><ele>135.0</ele><time>2026-04-12T11:59:48Z</time></trkpt><trkpt lat="50.24794727764456" lon="3.684754245302545"><ele>135.4</ele><time>2026-04-12T11:59:50Z</time></trkpt><trkpt lat="50.24791865320334" lon="3.6848882365315325"><ele>135.8</ele><time>2026-04-12T11:59:52Z</time></trkpt><trkpt lat="50.247888421787536" lon="3.685029230623246"><ele>136.2</ele><time>2026-04-12T11:59:54Z</time></trkpt><trkpt lat="50.24785844184533" lon="3.6851659295730452"><ele>136.6</ele><time>2026-04-12T11:59:56Z</time></trkpt><trkpt lat="50.24782299583754" lon="3.685301698337608"><ele>137.0</ele><time>2026-04-12T11:59:58Z</time></trkpt><trkpt lat="50.24778930348314" lon="3.685435418887713"><ele>137.0</ele><time>2026-04-12T12:00:00Z</time></trkpt><trkpt lat="50.24775723563166" lon="3.6855684836970126"><ele>137.0</ele><time>2026-04-12T12:00:02Z</time></trkpt><trkpt lat="50.24772573122451" lon="3.685712113517171"><ele>137.0</ele><time>2026-04-12T12:00:04Z</time></trkpt><trkpt lat="50.247692338610555" lon="3.6858559210547512"><ele>137.0</ele><time>2026-04-12T12:00:06Z</time></trkpt><trkpt lat="50.2476547261625" lon="3.6859784756480645"><ele>137.0</ele><time>2026-04-12T12:00:08Z</time></trkpt><trkpt lat="50.24762586927224" lon="3.686103828964363"><ele>137.33333333333331</ele><time>2026-04-12T12:00:10Z</time></trkpt><trkpt lat="50.247586401378804" lon="3.6862312032834574"><ele>137.66666666666666</ele><time>2026-04-12T12:00:12Z</time></trkpt><trkpt lat="50.24754715199093" lon="3.6863568328974057"><ele>138.0</ele><time>2026-04-12T12:00:14Z</time></trkpt><trkpt lat="50.24750752347475" lon="3.6864842166640694"><ele>138.33333333333334</ele><time>2026-04-12T12:00:16Z</time></trkpt><trkpt lat="50.24746392776801" lon="3.6866017398073416"><ele>138.66666666666669</ele><time>2026-04-12T12:00:18Z</time></trkpt><trkpt lat="50.24742061692304" lon="3.6867168963873866"><ele>139.0</ele><time>2026-04-12T12:00:20Z</time></trkpt><trkpt lat="50.247372763157756" lon="3.6868253130416546"><ele>139.16666666666669</ele><time>2026-04-12T12:00:22Z</time></trkpt><trkpt lat="50.247326962803" lon="3.6869391546266486"><ele>139.33333333333334</ele><time>2026-04-12T12:00:24Z</time></trkpt><trkpt lat="50.247274169920445" lon="3.6870532366933575"><ele>139.5</ele><time>2026-04-12T12:00:26Z</time></trkpt><trkpt lat="50.24722709549074" lon="3.68716201671338"><ele>139.66666666666666</ele><time>2026-04-12T12:00:28Z</time></trkpt><trkpt lat="50.24717882280191" lon="3.6872787776578866"><ele>139.83333333333331</ele><time>2026-04-12T12:00:30Z</time></trkpt><trkpt lat="50.247130411054286" lon="3.687393725090141"><ele>140.0</ele><time>2026-04-12T12:00:32Z</time></trkpt><trkpt lat="50.24708325439694" lon="3.6875081336072935"><ele>140.16666666666666</ele><time>2026-04-12T12:00:34Z</time></trkpt><trkpt lat="50.24704192206752" lon="3.6876206441677395"><ele>140.33333333333331</ele><time>2026-04-12T12:00:36Z</time></trkpt><trkpt lat="50.24700147402747" lon="3.687732664857069"><ele>140.5</ele><time>2026-04-12T12:00:38Z</time></trkpt><trkpt lat="50.24696169044335" lon="3.6878411057910663"><ele>140.66666666666666</ele><time>2026-04-12T12:00:40Z</time></trkpt><trkpt lat="50.246936835792575" lon="3.6879426744516155"><ele>140.83333333333334</ele><time>2026-04-12T12:00:42Z</time></trkpt><trkpt lat="50.246906915726576" lon="3.6880394363908016"><ele>141.0</ele><time>2026-04-12T12:00:44Z</time></trkpt><trkpt lat="50.246881018484146" lon="3.6881478160947863"><ele>141.0</ele><time>2026-04-12T12:00:46Z</time></trkpt><trkpt lat="50.24685729666234" lon="3.6882575192473257"><ele>141.0</ele><time>2026-04-12T12:00:48Z</time></trkpt><trkpt lat="50.24684348967752" lon="3.68836602418799"><ele>141.0</ele><time>2026-04-12T12:00:50Z</time></trkpt><trkpt lat="50.2468263300548" lon="3.6884810116590927"><ele>141.0</ele><time>2026-04-12T12:00:52Z</time></trkpt><trkpt lat="50.246810803133094" lon="3.6885960010032717"><ele>141.0</ele><time>2026-04-12T12:00:54Z</time></trkpt><trkpt lat="50.24680001183952" lon="3.6887172588712467"><ele>141.0</ele><time>2026-04-12T12:00:56Z</time></trkpt><trkpt lat="50.2467890987583" lon="3.688845420634072"><ele>141.0</ele><time>2026-04-12T12:00:58Z</time></trkpt><trkpt lat="50.246784167156" lon="3.6889805299889735"><ele>141.0</ele><time>2026-04-12T12:01:00Z</time></trkpt><trkpt lat="50.24678183403488" lon="3.689117143692799"><ele>141.0</ele><time>2026-04-12T12:01:02Z</time></trkpt><trkpt lat="50.24677960940038" lon="3.6892577995810303"><ele>141.0</ele><time>2026-04-12T12:01:04Z</time></trkpt><trkpt lat="50.2467762458417" lon="3.6893995416356016"><ele>141.0</ele><time>2026-04-12T12:01:06Z</time></trkpt><trkpt lat="50.24677514024537" lon="3.689531205221136"><ele>141.0</ele><time>2026-04-12T12:01:08Z</time></trkpt><trkpt lat="50.2467711615145" lon="3.689654114961632"><ele>141.0</ele><time>2026-04-12T12:01:10Z</time></trkpt><trkpt lat="50.246768487115155" lon="3.6897789524038447"><ele>141.0</ele><time>2026-04-12T12:01:12Z</time></trkpt><trkpt lat="50.24676101553379" lon="3.689910614291843"><ele>141.0</ele><time>2026-04-12T12:01:14Z</time></trkpt><trkpt lat="50.246763314376956" lon="3.6900427428772424"><ele>141.0</ele><time>2026-04-12T12:01:16Z</time></trkpt><trkpt lat="50.24675418900927" lon="3.6901768667000012"><ele>141.0</ele><time>2026-04-12T12:01:18Z</time></trkpt><trkpt lat="50.246750629157134" lon="3.690323639489542"><ele>141.0</ele><time>2026-04-12T12:01:20Z</time></trkpt><trkpt lat="50.246743639783624" lon="3.6904754195241756"><ele>141.2</ele><time>2026-04-12T12:01:22Z</time></trkpt><trkpt lat="50.24673339833727" lon="3.6906369870536238"><ele>141.39999999999998</ele><time>2026-04-12T12:01:24Z</time></trkpt><trkpt lat="50.24672763778341" lon="3.690787893877092"><ele>141.6</ele><time>2026-04-12T12:01:26Z</time></trkpt><trkpt lat="50.24671747132102" lon="3.690951313724594"><ele>141.79999999999998</ele><time>2026-04-12T12:01:28Z</time></trkpt><trkpt lat="50.246707114538886" lon="3.691097061706205"><ele>142.0</ele><time>2026-04-12T12:01:30Z</time></trkpt><trkpt lat="50.246706618996626" lon="3.6912482538048"><ele>142.0</ele><time>2026-04-12T12:01:32Z</time></trkpt><trkpt lat="50.24669797108923" lon="3.6913940112654844"><ele>142.0</ele><time>2026-04-12T12:01:34Z</time></trkpt><trkpt lat="50.246686669665344" lon="3.691533089641121"><ele>142.0</ele><time>2026-04-12T12:01:36Z</time></trkpt><trkpt lat="50.24668741730359" lon="3.691674331220733"><ele>142.0</ele><time>2026-04-12T12:01:38Z</time></trkpt><trkpt lat="50.246678359607955" lon="3.6918309055454204"><ele>142.0</ele><time>2026-04-12T12:01:40Z</time></trkpt><trkpt lat="50.246664819832716" lon="3.6919905455400004"><ele>142.0</ele><time>2026-04-12T12:01:42Z</time></trkpt><trkpt lat="50.24665799540952" lon="3.692151185811291"><ele>142.0</ele><time>2026-04-12T12:01:44Z</time></trkpt><trkpt lat="50.246643990314155" lon="3.6923126728340185"><ele>142.0</ele><time>2026-04-12T12:01:46Z</time></trkpt><trkpt lat="50.24662167625946" lon="3.692496860513931"><ele>142.0</ele><time>2026-04-12T12:01:48Z</time></trkpt><trkpt lat="50.2465997539527" lon="3.6926816315485103"><ele>142.0</ele><time>2026-04-12T12:01:50Z</time></trkpt><trkpt lat="50.246572482599774" lon="3.6928535580570494"><ele>142.0</ele><time>2026-04-12T12:01:52Z</time></trkpt><trkpt lat="50.246554505019084" lon="3.6930166205470596"><ele>142.0</ele><time>2026-04-12T12:01:54Z</time></trkpt><trkpt lat="50.246523390392895" lon="3.693180455368431"><ele>142.0</ele><time>2026-04-12T12:01:56Z</time></trkpt><trkpt lat="50.24650078525607" lon="3.6933385087021073"><ele>142.0</ele><time>2026-04-12T12:01:58Z</time></trkpt><trkpt lat="50.24647834241499" lon="3.6934879832159244"><ele>142.0</ele><time>2026-04-12T12:02:00Z</time></trkpt><trkpt lat="50.24645110346417" lon="3.6936560993333325"><ele>141.4</ele><time>2026-04-12T12:02:02Z</time></trkpt><trkpt lat="50.246425216495076" lon="3.6938246346932804"><ele>140.79999999999998</ele><time>2026-04-12T12:02:04Z</time></trkpt><trkpt lat="50.24639885394677" lon="3.6940023798967063"><ele>140.2</ele><time>2026-04-12T12:02:06Z</time></trkpt><trkpt lat="50.246369248448715" lon="3.6941825257978613"><ele>139.6</ele><time>2026-04-12T12:02:08Z</time></trkpt><trkpt lat="50.24635523109139" lon="3.6942785125810444"><ele>139.0</ele><time>2026-04-12T12:02:09Z</time></trkpt><trkpt lat="50.24632508861921" lon="3.6944632159582733"><ele>138.5</ele><time>2026-04-12T12:02:11Z</time></trkpt><trkpt lat="50.246304311162206" lon="3.694651463624152"><ele>138.0</ele><time>2026-04-12T12:02:13Z</time></trkpt><trkpt lat="50.24628635208864" lon="3.694832706073637"><ele>137.5</ele><time>2026-04-12T12:02:15Z</time></trkpt><trkpt lat="50.246254349519766" lon="3.6950124161235958"><ele>137.0</ele><time>2026-04-12T12:02:17Z</time></trkpt><trkpt lat="50.24623599684048" lon="3.6951914139991717"><ele>136.6</ele><time>2026-04-12T12:02:19Z</time></trkpt><trkpt lat="50.24622473755384" lon="3.6952920288258535"><ele>136.2</ele><time>2026-04-12T12:02:20Z</time></trkpt><trkpt lat="50.24621068587901" lon="3.6954809046156343"><ele>135.8</ele><time>2026-04-12T12:02:22Z</time></trkpt><trkpt lat="50.24619735925861" lon="3.695645388213267"><ele>135.4</ele><time>2026-04-12T12:02:24Z</time></trkpt><trkpt lat="50.24618412331645" lon="3.6958230229190283"><ele>135.0</ele><time>2026-04-12T12:02:26Z</time></trkpt><trkpt lat="50.24617014255478" lon="3.696002047712103"><ele>135.0</ele><time>2026-04-12T12:02:28Z</time></trkpt><trkpt lat="50.24615564336122" lon="3.696185215514772"><ele>135.0</ele><time>2026-04-12T12:02:30Z</time></trkpt><trkpt lat="50.24614777370255" lon="3.696358923887496"><ele>135.0</ele><time>2026-04-12T12:02:32Z</time></trkpt><trkpt lat="50.24613645071629" lon="3.696519946847252"><ele>135.0</ele><time>2026-04-12T12:02:34Z</time></trkpt><trkpt lat="50.246126731210374" lon="3.6967077770976893"><ele>135.0</ele><time>2026-04-12T12:02:36Z</time></trkpt><trkpt lat="50.246120240059355" lon="3.696867782241414"><ele>135.0</ele><time>2026-04-12T12:02:38Z</time></trkpt><trkpt lat="50.24610000122624" lon="3.697016972232614"><ele>135.0</ele><time>2026-04-12T12:02:40Z</time></trkpt><trkpt lat="50.24604754364138" lon="3.697180263792688"><ele>135.0</ele><time>2026-04-12T12:02:42Z</time></trkpt><trkpt lat="50.24602073435982" lon="3.697326803643888"><ele>135.0</ele><time>2026-04-12T12:02:44Z</time></trkpt><trkpt lat="50.24598302376207" lon="3.6974950887222358"><ele>135.2</ele><time>2026-04-12T12:02:46Z</time></trkpt><trkpt lat="50.24595216965105" lon="3.697669679981585"><ele>135.4</ele><time>2026-04-12T12:02:48Z</time></trkpt><trkpt lat="50.24591540508465" lon="3.697830038997064"><ele>135.6</ele><time>2026-04-12T12:02:50Z</time></trkpt><trkpt lat="50.24588159657343" lon="3.697984472772751"><ele>135.8</ele><time>2026-04-12T12:02:52Z</time></trkpt><trkpt lat="50.24584737060228" lon="3.6981377923259955"><ele>136.0</ele><time>2026-04-12T12:02:54Z</time></trkpt><trkpt lat="50.24581561624224" lon="3.698286857896666"><ele>136.4</ele><time>2026-04-12T12:02:56Z</time></trkpt><trkpt lat="50.24578158427979" lon="3.698419157567684"><ele>136.8</ele><time>2026-04-12T12:02:58Z</time></trkpt><trkpt lat="50.245750900657306" lon="3.6985634070281885"><ele>137.20000000000002</ele><time>2026-04-12T12:03:00Z</time></trkpt><trkpt lat="50.24571710111098" lon="3.698694797180798"><ele>137.6</ele><time>2026-04-12T12:03:02Z</time></trkpt><trkpt lat="50.245691109306506" lon="3.6988283716754595"><ele>138.0</ele><time>2026-04-12T12:03:04Z</time></trkpt><trkpt lat="50.24566419107292" lon="3.6989701838335987"><ele>138.0</ele><time>2026-04-12T12:03:06Z</time></trkpt><trkpt lat="50.24562933533267" lon="3.6991073882343426"><ele>138.0</ele><time>2026-04-12T12:03:08Z</time></trkpt><trkpt lat="50.245602057478614" lon="3.699243962593739"><ele>138.0</ele><time>2026-04-12T12:03:10Z</time></trkpt><trkpt lat="50.24557269320525" lon="3.699381815600289"><ele>138.0</ele><time>2026-04-12T12:03:12Z</time></trkpt><trkpt lat="50.24554002259297" lon="3.699516269764873"><ele>138.0</ele><time>2026-04-12T12:03:14Z</time></trkpt><trkpt lat="50.24550313955325" lon="3.6996528172173258"><ele>138.0</ele><time>2026-04-12T12:03:16Z</time></trkpt><trkpt lat="50.24546632138869" lon="3.6997897104734263"><ele>138.0</ele><time>2026-04-12T12:03:18Z</time></trkpt><trkpt lat="50.245429569150595" lon="3.6999231001223354"><ele>138.0</ele><time>2026-04-12T12:03:20Z</time></trkpt><trkpt lat="50.24539682114215" lon="3.7000558297002466"><ele>138.0</ele><time>2026-04-12T12:03:22Z</time></trkpt><trkpt lat="50.24536105458535" lon="3.700188497789764"><ele>138.0</ele><time>2026-04-12T12:03:24Z</time></trkpt><trkpt lat="50.245323711435" lon="3.700305750488565"><ele>138.33333333333334</ele><time>2026-04-12T12:03:26Z</time></trkpt><trkpt lat="50.24528136321128" lon="3.7004281526416793"><ele>138.66666666666666</ele><time>2026-04-12T12:03:28Z</time></trkpt><trkpt lat="50.245241745706146" lon="3.700550883745032"><ele>139.0</ele><time>2026-04-12T12:03:30Z</time></trkpt><trkpt lat="50.2451945161558" lon="3.7006710502239244"><ele>139.33333333333331</ele><time>2026-04-12T12:03:32Z</time></trkpt><trkpt lat="50.24515005876592" lon="3.7007851280449975"><ele>139.66666666666666</ele><time>2026-04-12T12:03:34Z</time></trkpt><trkpt lat="50.24510272676327" lon="3.7009006369517414"><ele>140.0</ele><time>2026-04-12T12:03:36Z</time></trkpt><trkpt lat="50.245051756882354" lon="3.7010259374934904"><ele>139.6</ele><time>2026-04-12T12:03:38Z</time></trkpt><trkpt lat="50.24499370679841" lon="3.7011554728926157"><ele>139.2</ele><time>2026-04-12T12:03:40Z</time></trkpt><trkpt lat="50.24493534508173" lon="3.7013026205963144"><ele>138.8</ele><time>2026-04-12T12:03:42Z</time></trkpt><trkpt lat="50.244874720135336" lon="3.7014554704656972"><ele>138.4</ele><time>2026-04-12T12:03:44Z</time></trkpt><trkpt lat="50.24481382606057" lon="3.701610495115305"><ele>138.0</ele><time>2026-04-12T12:03:46Z</time></trkpt><trkpt lat="50.24475984269643" lon="3.701764960104333"><ele>137.8</ele><time>2026-04-12T12:03:48Z</time></trkpt><trkpt lat="50.24470949602347" lon="3.7019160124121546"><ele>137.60000000000002</ele><time>2026-04-12T12:03:50Z</time></trkpt><trkpt lat="50.24466416621781" lon="3.702071864997329"><ele>137.39999999999998</ele><time>2026-04-12T12:03:52Z</time></trkpt><trkpt lat="50.24462321872283" lon="3.7022275567346505"><ele>137.2</ele><time>2026-04-12T12:03:54Z</time></trkpt><trkpt lat="50.244577929912" lon="3.702376757043454"><ele>137.0</ele><time>2026-04-12T12:03:56Z</time></trkpt><trkpt lat="50.244531018673754" lon="3.7025254770032308"><ele>137.0</ele><time>2026-04-12T12:03:58Z</time></trkpt><trkpt lat="50.24448642132082" lon="3.702669483522025"><ele>137.0</ele><time>2026-04-12T12:04:00Z</time></trkpt><trkpt lat="50.24444436352911" lon="3.7028095563280554"><ele>137.0</ele><time>2026-04-12T12:04:02Z</time></trkpt><trkpt lat="50.24440479043193" lon="3.7029432159195874"><ele>137.0</ele><time>2026-04-12T12:04:04Z</time></trkpt><trkpt lat="50.244367358188725" lon="3.7030735327615916"><ele>137.0</ele><time>2026-04-12T12:04:06Z</time></trkpt><trkpt lat="50.244333149330366" lon="3.7031997858002805"><ele>137.33333333333331</ele><time>2026-04-12T12:04:08Z</time></trkpt><trkpt lat="50.244298131898645" lon="3.703321810682511"><ele>137.66666666666666</ele><time>2026-04-12T12:04:10Z</time></trkpt><trkpt lat="50.244265335612816" lon="3.703442377660893"><ele>138.0</ele><time>2026-04-12T12:04:12Z</time></trkpt><trkpt lat="50.244233444404735" lon="3.7035599620406567"><ele>138.33333333333334</ele><time>2026-04-12T12:04:14Z</time></trkpt><trkpt lat="50.24419004171428" lon="3.703676010850203"><ele>138.66666666666669</ele><time>2026-04-12T12:04:16Z</time></trkpt><trkpt lat="50.244150716082295" lon="3.703784883013265"><ele>139.0</ele><time>2026-04-12T12:04:18Z</time></trkpt><trkpt lat="50.24410918497677" lon="3.7038847025966133"><ele>139.0</ele><time>2026-04-12T12:04:20Z</time></trkpt><trkpt lat="50.244069104684655" lon="3.7039981414120327"><ele>139.0</ele><time>2026-04-12T12:04:22Z</time></trkpt><trkpt lat="50.24402669989507" lon="3.7041064956086154"><ele>139.0</ele><time>2026-04-12T12:04:24Z</time></trkpt><trkpt lat="50.24398400250976" lon="3.704204872064355"><ele>139.0</ele><time>2026-04-12T12:04:26Z</time></trkpt><trkpt lat="50.243939275491954" lon="3.704313939355117"><ele>139.0</ele><time>2026-04-12T12:04:28Z</time></trkpt><trkpt lat="50.24389559460149" lon="3.7044249346522724"><ele>139.0</ele><time>2026-04-12T12:04:30Z</time></trkpt><trkpt lat="50.24385374145416" lon="3.7045305430359754"><ele>139.33333333333334</ele><time>2026-04-12T12:04:32Z</time></trkpt><trkpt lat="50.24381066728941" lon="3.704640679867312"><ele>139.66666666666669</ele><time>2026-04-12T12:04:34Z</time></trkpt><trkpt lat="50.24376488654484" lon="3.7047518878296795"><ele>140.0</ele><time>2026-04-12T12:04:36Z</time></trkpt><trkpt lat="50.24371773917797" lon="3.7048669221165964"><ele>140.33333333333334</ele><time>2026-04-12T12:04:38Z</time></trkpt><trkpt lat="50.24367192686041" lon="3.70497479474286"><ele>140.66666666666666</ele><time>2026-04-12T12:04:40Z</time></trkpt><trkpt lat="50.24362460936588" lon="3.705085040889496"><ele>141.0</ele><time>2026-04-12T12:04:42Z</time></trkpt><trkpt lat="50.243579233816085" lon="3.705193188737514"><ele>141.33333333333334</ele><time>2026-04-12T12:04:44Z</time></trkpt><trkpt lat="50.24352542728811" lon="3.7053057266552076"><ele>141.66666666666666</ele><time>2026-04-12T12:04:46Z</time></trkpt><trkpt lat="50.24348354498676" lon="3.705424774677506"><ele>142.0</ele><time>2026-04-12T12:04:48Z</time></trkpt><trkpt lat="50.24344158532119" lon="3.705522999571992"><ele>142.33333333333331</ele><time>2026-04-12T12:04:50Z</time></trkpt><trkpt lat="50.243393860214134" lon="3.705641854578898"><ele>142.66666666666666</ele><time>2026-04-12T12:04:52Z</time></trkpt><trkpt lat="50.243343413512775" lon="3.7057621726469723"><ele>143.0</ele><time>2026-04-12T12:04:54Z</time></trkpt><trkpt lat="50.24329952711395" lon="3.7058754677723154"><ele>143.0</ele><time>2026-04-12T12:04:56Z</time></trkpt><trkpt lat="50.243258407153746" lon="3.705990908192172"><ele>143.0</ele><time>2026-04-12T12:04:58Z</time></trkpt><trkpt lat="50.24321172854337" lon="3.706110756416336"><ele>143.0</ele><time>2026-04-12T12:05:00Z</time></trkpt><trkpt lat="50.24316748453783" lon="3.7062310556895746"><ele>143.0</ele><time>2026-04-12T12:05:02Z</time></trkpt><trkpt lat="50.24312426544398" lon="3.7063582967280784"><ele>143.0</ele><time>2026-04-12T12:05:04Z</time></trkpt><trkpt lat="50.243080362315645" lon="3.7064763083041474"><ele>143.0</ele><time>2026-04-12T12:05:06Z</time></trkpt><trkpt lat="50.24303604772337" lon="3.7066043804293898"><ele>143.0</ele><time>2026-04-12T12:05:08Z</time></trkpt><trkpt lat="50.242992712198564" lon="3.706734423835426"><ele>143.0</ele><time>2026-04-12T12:05:10Z</time></trkpt><trkpt lat="50.24295085579652" lon="3.7068642580631135"><ele>143.0</ele><time>2026-04-12T12:05:12Z</time></trkpt><trkpt lat="50.242902570981215" lon="3.706983272147547"><ele>143.0</ele><time>2026-04-12T12:05:14Z</time></trkpt><trkpt lat="50.24285265606996" lon="3.7071046583294125"><ele>143.0</ele><time>2026-04-12T12:05:16Z</time></trkpt><trkpt lat="50.24281737762283" lon="3.7072322291933184"><ele>143.0</ele><time>2026-04-12T12:05:18Z</time></trkpt><trkpt lat="50.24277805465397" lon="3.7073562783295864"><ele>143.0</ele><time>2026-04-12T12:05:20Z</time></trkpt><trkpt lat="50.242746030772466" lon="3.7074802875959985"><ele>143.0</ele><time>2026-04-12T12:05:22Z</time></trkpt><trkpt lat="50.242716143730554" lon="3.70760968903188"><ele>143.0</ele><time>2026-04-12T12:05:24Z</time></trkpt><trkpt lat="50.24268241559238" lon="3.707748094028157"><ele>143.0</ele><time>2026-04-12T12:05:26Z</time></trkpt><trkpt lat="50.24265190975519" lon="3.7078864452471842"><ele>143.0</ele><time>2026-04-12T12:05:28Z</time></trkpt><trkpt lat="50.242637815443494" lon="3.7080210414857793"><ele>143.0</ele><time>2026-04-12T12:05:30Z</time></trkpt><trkpt lat="50.242610094279684" lon="3.7081562182227112"><ele>143.0</ele><time>2026-04-12T12:05:32Z</time></trkpt><trkpt lat="50.242585671066024" lon="3.7082909988702846"><ele>143.0</ele><time>2026-04-12T12:05:34Z</time></trkpt><trkpt lat="50.2425647434189" lon="3.7084247483665447"><ele>143.0</ele><time>2026-04-12T12:05:36Z</time></trkpt><trkpt lat="50.24253858576097" lon="3.708557284240429"><ele>143.0</ele><time>2026-04-12T12:05:38Z</time></trkpt><trkpt lat="50.2425133677269" lon="3.708691198212662"><ele>142.83333333333331</ele><time>2026-04-12T12:05:40Z</time></trkpt><trkpt lat="50.242484815249405" lon="3.70882191290901"><ele>142.66666666666666</ele><time>2026-04-12T12:05:42Z</time></trkpt><trkpt lat="50.24245552646897" lon="3.708947633563458"><ele>142.5</ele><time>2026-04-12T12:05:44Z</time></trkpt><trkpt lat="50.24241254162851" lon="3.7090736516083838"><ele>142.33333333333334</ele><time>2026-04-12T12:05:46Z</time></trkpt><trkpt lat="50.24237773954777" lon="3.709197434637336"><ele>142.16666666666669</ele><time>2026-04-12T12:05:48Z</time></trkpt><trkpt lat="50.24233812895603" lon="3.7093185922739913"><ele>142.0</ele><time>2026-04-12T12:05:50Z</time></trkpt><trkpt lat="50.24228896208413" lon="3.70943882313458"><ele>142.0</ele><time>2026-04-12T12:05:52Z</time></trkpt><trkpt lat="50.24224002319017" lon="3.7095602762646793"><ele>142.0</ele><time>2026-04-12T12:05:54Z</time></trkpt><trkpt lat="50.242183370404575" lon="3.709673233827908"><ele>142.0</ele><time>2026-04-12T12:05:56Z</time></trkpt><trkpt lat="50.242127652534" lon="3.7097906155472686"><ele>142.0</ele><time>2026-04-12T12:05:58Z</time></trkpt><trkpt lat="50.242067916204704" lon="3.709907224495879"><ele>142.0</ele><time>2026-04-12T12:06:00Z</time></trkpt><trkpt lat="50.24200392493327" lon="3.710027133518639"><ele>142.0</ele><time>2026-04-12T12:06:02Z</time></trkpt><trkpt lat="50.24194227310919" lon="3.710154778023835"><ele>142.0</ele><time>2026-04-12T12:06:04Z</time></trkpt><trkpt lat="50.241885782431126" lon="3.71027406747575"><ele>142.0</ele><time>2026-04-12T12:06:06Z</time></trkpt><trkpt lat="50.24182967297749" lon="3.7103938381371324"><ele>142.0</ele><time>2026-04-12T12:06:08Z</time></trkpt><trkpt lat="50.24177237145527" lon="3.710500223422616"><ele>142.0</ele><time>2026-04-12T12:06:10Z</time></trkpt><trkpt lat="50.24171752268811" lon="3.710607879423881"><ele>142.16666666666669</ele><time>2026-04-12T12:06:12Z</time></trkpt><trkpt lat="50.24166624009301" lon="3.7107134011882263"><ele>142.33333333333334</ele><time>2026-04-12T12:06:14Z</time></trkpt><trkpt lat="50.241610659414235" lon="3.7108150766910777"><ele>142.5</ele><time>2026-04-12T12:06:16Z</time></trkpt><trkpt lat="50.24155318279499" lon="3.710923809567813"><ele>142.66666666666666</ele><time>2026-04-12T12:06:18Z</time></trkpt><trkpt lat="50.24149000886936" lon="3.7110269602688266"><ele>142.83333333333331</ele><time>2026-04-12T12:06:20Z</time></trkpt><trkpt lat="50.24143026833071" lon="3.711125281211298"><ele>143.0</ele><time>2026-04-12T12:06:22Z</time></trkpt><trkpt lat="50.241358530117" lon="3.7112278912799885"><ele>142.6</ele><time>2026-04-12T12:06:24Z</time></trkpt><trkpt lat="50.24127952406693" lon="3.711322003099817"><ele>142.20000000000002</ele><time>2026-04-12T12:06:26Z</time></trkpt><trkpt lat="50.241194824702596" lon="3.711411261968942"><ele>141.8</ele><time>2026-04-12T12:06:28Z</time></trkpt><trkpt lat="50.24111296567656" lon="3.7115150243358546"><ele>141.4</ele><time>2026-04-12T12:06:30Z</time></trkpt><trkpt lat="50.24105411146845" lon="3.7116382491453574"><ele>141.0</ele><time>2026-04-12T12:06:32Z</time></trkpt><trkpt lat="50.24100318791349" lon="3.711762736528847"><ele>141.0</ele><time>2026-04-12T12:06:34Z</time></trkpt><trkpt lat="50.240964836579195" lon="3.71186382195962"><ele>141.0</ele><time>2026-04-12T12:06:36Z</time></trkpt><trkpt lat="50.24091096411224" lon="3.7119824836754"><ele>141.0</ele><time>2026-04-12T12:06:39Z</time></trkpt><trkpt lat="50.2408521249856" lon="3.7120500161805814"><ele>141.0</ele><time>2026-04-12T12:06:41Z</time></trkpt><trkpt lat="50.240814204811095" lon="3.7121518959529483"><ele>141.0</ele><time>2026-04-12T12:06:43Z</time></trkpt><trkpt lat="50.240839422083404" lon="3.7122672600214743"><ele>141.0</ele><time>2026-04-12T12:06:45Z</time></trkpt><trkpt lat="50.24078780993774" lon="3.7123707610703707"><ele>144.0</ele><time>2026-04-12T12:06:47Z</time></trkpt></trkseg><trkseg><trkpt lat="50.24072433794316" lon="3.7126721078850453"><ele>144.16666666666666</ele><time>2026-04-12T12:18:19.001Z</time></trkpt><trkpt lat="50.24070196908492" lon="3.71280214004658"><ele>144.33333333333334</ele><time>2026-04-12T12:18:22.001Z</time></trkpt><trkpt lat="50.24068252612785" lon="3.7129103254362477"><ele>144.5</ele><time>2026-04-12T12:18:24.001Z</time></trkpt><trkpt lat="50.24066158557308" lon="3.7130237766980283"><ele>144.66666666666669</ele><time>2026-04-12T12:18:26.001Z</time></trkpt><trkpt lat="50.24064758255393" lon="3.713146317082999"><ele>144.83333333333334</ele><time>2026-04-12T12:18:28.001Z</time></trkpt><trkpt lat="50.240625247943626" lon="3.713268179002957"><ele>145.0</ele><time>2026-04-12T12:18:30.001Z</time></trkpt><trkpt lat="50.2406031932971" lon="3.7134002424203096"><ele>145.0</ele><time>2026-04-12T12:18:32.001Z</time></trkpt><trkpt lat="50.240582556138136" lon="3.713547528969798"><ele>145.0</ele><time>2026-04-12T12:18:34.001Z</time></trkpt><trkpt lat="50.24055830357565" lon="3.7137026712115606"><ele>145.0</ele><time>2026-04-12T12:18:36.001Z</time></trkpt><trkpt lat="50.24052570624704" lon="3.7138612436846854"><ele>145.0</ele><time>2026-04-12T12:18:38.001Z</time></trkpt><trkpt lat="50.240494307542555" lon="3.714021694699704"><ele>145.0</ele><time>2026-04-12T12:18:40.001Z</time></trkpt><trkpt lat="50.24046511919972" lon="3.714193360781821"><ele>146.0</ele><time>2026-04-12T12:18:42.001Z</time></trkpt><trkpt lat="50.240440627466256" lon="3.71435968525924"><ele>147.0</ele><time>2026-04-12T12:18:44.001Z</time></trkpt><trkpt lat="50.24040920808266" lon="3.714519112996046"><ele>148.0</ele><time>2026-04-12T12:18:46.001Z</time></trkpt><trkpt lat="50.24037645584261" lon="3.7146882863329123"><ele>149.0</ele><time>2026-04-12T12:18:48.001Z</time></trkpt><trkpt lat="50.24034261258381" lon="3.7148453537497157"><ele>150.0</ele><time>2026-04-12T12:18:50.001Z</time></trkpt><trkpt lat="50.240320165299465" lon="3.71500308528942"><ele>151.2</ele><time>2026-04-12T12:18:52.001Z</time></trkpt><trkpt lat="50.24029774985761" lon="3.715150126123736"><ele>152.4</ele><time>2026-04-12T12:18:54.001Z</time></trkpt><trkpt lat="50.2402709664146" lon="3.715298836656853"><ele>153.6</ele><time>2026-04-12T12:18:56.001Z</time></trkpt><trkpt lat="50.24024342014858" lon="3.7154527749520128"><ele>154.8</ele><time>2026-04-12T12:18:58Z</time></trkpt><trkpt lat="50.240219876131" lon="3.715601459112118"><ele>156.0</ele><time>2026-04-12T12:19:00Z</time></trkpt><trkpt lat="50.24019187300227" lon="3.715747850792658"><ele>156.33333333333334</ele><time>2026-04-12T12:19:02Z</time></trkpt><trkpt lat="50.24016875601574" lon="3.7158916756579936"><ele>156.66666666666666</ele><time>2026-04-12T12:19:04Z</time></trkpt><trkpt lat="50.240140396430185" lon="3.716029418323683"><ele>157.0</ele><time>2026-04-12T12:19:06Z</time></trkpt><trkpt lat="50.240120929311814" lon="3.7161586536826667"><ele>157.33333333333331</ele><time>2026-04-12T12:19:08Z</time></trkpt><trkpt lat="50.2400989779049" lon="3.716286077909513"><ele>157.66666666666666</ele><time>2026-04-12T12:19:10Z</time></trkpt><trkpt lat="50.2400820730604" lon="3.716410468519019"><ele>158.0</ele><time>2026-04-12T12:19:12Z</time></trkpt><trkpt lat="50.24005717917448" lon="3.7165336738952943"><ele>158.0</ele><time>2026-04-12T12:19:14Z</time></trkpt><trkpt lat="50.240034087049985" lon="3.7166609126370798"><ele>158.0</ele><time>2026-04-12T12:19:16Z</time></trkpt><trkpt lat="50.24002181210218" lon="3.7167832435830475"><ele>158.0</ele><time>2026-04-12T12:19:18Z</time></trkpt><trkpt lat="50.239988519179036" lon="3.716911046633812"><ele>158.0</ele><time>2026-04-12T12:19:20Z</time></trkpt><trkpt lat="50.23997191331464" lon="3.7170351821917724"><ele>158.0</ele><time>2026-04-12T12:19:22Z</time></trkpt><trkpt lat="50.2399512294662" lon="3.7171486242362333"><ele>158.0</ele><time>2026-04-12T12:19:24Z</time></trkpt><trkpt lat="50.23993098632837" lon="3.7172670248047766"><ele>158.16666666666666</ele><time>2026-04-12T12:19:26Z</time></trkpt><trkpt lat="50.239910718360484" lon="3.717386486863082"><ele>158.33333333333331</ele><time>2026-04-12T12:19:28Z</time></trkpt><trkpt lat="50.23989273313146" lon="3.717503509321183"><ele>158.5</ele><time>2026-04-12T12:19:30Z</time></trkpt><trkpt lat="50.239872901747" lon="3.7176234294692123"><ele>158.66666666666666</ele><time>2026-04-12T12:19:32Z</time></trkpt><trkpt lat="50.23984827403164" lon="3.7177520376066524"><ele>158.83333333333334</ele><time>2026-04-12T12:19:34Z</time></trkpt><trkpt lat="50.23983224918396" lon="3.717874261699502"><ele>159.0</ele><time>2026-04-12T12:19:36Z</time></trkpt><trkpt lat="50.23980414784295" lon="3.7179976917994133"><ele>159.5</ele><time>2026-04-12T12:19:38Z</time></trkpt><trkpt lat="50.23979500451219" lon="3.7181094821708824"><ele>160.0</ele><time>2026-04-12T12:19:40Z</time></trkpt><trkpt lat="50.23976810103096" lon="3.718229163276475"><ele>160.5</ele><time>2026-04-12T12:19:42.001Z</time></trkpt><trkpt lat="50.2397502921144" lon="3.7183443655934365"><ele>161.0</ele><time>2026-04-12T12:19:44.001Z</time></trkpt><trkpt lat="50.23973095727964" lon="3.7184545928363906"><ele>161.5</ele><time>2026-04-12T12:19:46.001Z</time></trkpt><trkpt lat="50.23970714528233" lon="3.718580933726785"><ele>162.0</ele><time>2026-04-12T12:19:48.001Z</time></trkpt><trkpt lat="50.239687984052615" lon="3.7187022174685262"><ele>162.0</ele><time>2026-04-12T12:19:50.001Z</time></trkpt><trkpt lat="50.23966742300749" lon="3.7188307946283654"><ele>162.0</ele><time>2026-04-12T12:19:52.001Z</time></trkpt><trkpt lat="50.2396447783249" lon="3.71895539524646"><ele>162.0</ele><time>2026-04-12T12:19:54.001Z</time></trkpt><trkpt lat="50.23962594015689" lon="3.7190735850698062"><ele>162.0</ele><time>2026-04-12T12:19:56.001Z</time></trkpt><trkpt lat="50.23960403474643" lon="3.7191963929847414"><ele>162.0</ele><time>2026-04-12T12:19:58.001Z</time></trkpt><trkpt lat="50.23958013157912" lon="3.7193164373558436"><ele>162.0</ele><time>2026-04-12T12:20:00.001Z</time></trkpt><trkpt lat="50.23956545235594" lon="3.719436832491015"><ele>162.0</ele><time>2026-04-12T12:20:02.001Z</time></trkpt><trkpt lat="50.23953844706008" lon="3.7195666968388115"><ele>162.0</ele><time>2026-04-12T12:20:04.001Z</time></trkpt><trkpt lat="50.23952849749672" lon="3.719683534884948"><ele>162.0</ele><time>2026-04-12T12:20:06.001Z</time></trkpt><trkpt lat="50.23949944923041" lon="3.7198110192838105"><ele>162.0</ele><time>2026-04-12T12:20:08.001Z</time></trkpt><trkpt lat="50.23947707800663" lon="3.7199446613778"><ele>162.0</ele><time>2026-04-12T12:20:10.001Z</time></trkpt><trkpt lat="50.239448736244086" lon="3.7200948457095393"><ele>162.0</ele><time>2026-04-12T12:20:12.001Z</time></trkpt><trkpt lat="50.23942363193471" lon="3.7202492900254014"><ele>161.6</ele><time>2026-04-12T12:20:14.001Z</time></trkpt><trkpt lat="50.23939241409978" lon="3.7204052796526357"><ele>161.2</ele><time>2026-04-12T12:20:16.001Z</time></trkpt><trkpt lat="50.2393623107743" lon="3.7205714584447227"><ele>160.8</ele><time>2026-04-12T12:20:18.001Z</time></trkpt><trkpt lat="50.239335441888805" lon="3.7207288448948965"><ele>160.4</ele><time>2026-04-12T12:20:20.001Z</time></trkpt><trkpt lat="50.23930322137281" lon="3.7208986632337013"><ele>160.0</ele><time>2026-04-12T12:20:22.001Z</time></trkpt><trkpt lat="50.2392752304435" lon="3.7210653894745636"><ele>159.6</ele><time>2026-04-12T12:20:24.001Z</time></trkpt><trkpt lat="50.23925693677014" lon="3.7211604034203005"><ele>159.2</ele><time>2026-04-12T12:20:25.001Z</time></trkpt><trkpt lat="50.23922734278446" lon="3.7213379237549136"><ele>158.8</ele><time>2026-04-12T12:20:27.001Z</time></trkpt><trkpt lat="50.2391968518406" lon="3.7215163858895566"><ele>158.4</ele><time>2026-04-12T12:20:29.001Z</time></trkpt><trkpt lat="50.239166271604766" lon="3.7216795436577446"><ele>158.0</ele><time>2026-04-12T12:20:31.001Z</time></trkpt><trkpt lat="50.239141032021266" lon="3.7218542665660963"><ele>157.8</ele><time>2026-04-12T12:20:33.001Z</time></trkpt><trkpt lat="50.239107495881676" lon="3.7220193585797685"><ele>157.60000000000002</ele><time>2026-04-12T12:20:35.001Z</time></trkpt><trkpt lat="50.23908198688062" lon="3.7221778525590246"><ele>157.39999999999998</ele><time>2026-04-12T12:20:37.001Z</time></trkpt><trkpt lat="50.23906023628802" lon="3.722342337087688"><ele>157.2</ele><time>2026-04-12T12:20:39.001Z</time></trkpt><trkpt lat="50.23903236857099" lon="3.722498578136389"><ele>157.0</ele><time>2026-04-12T12:20:41.001Z</time></trkpt><trkpt lat="50.239008149791566" lon="3.7226655644028868"><ele>157.2</ele><time>2026-04-12T12:20:43.001Z</time></trkpt><trkpt lat="50.238981417162364" lon="3.7228257350695926"><ele>157.39999999999998</ele><time>2026-04-12T12:20:45.001Z</time></trkpt><trkpt lat="50.238951593235825" lon="3.7229956195675564"><ele>157.60000000000002</ele><time>2026-04-12T12:20:47.001Z</time></trkpt><trkpt lat="50.23892354174133" lon="3.7231649865851995"><ele>157.8</ele><time>2026-04-12T12:20:49.001Z</time></trkpt><trkpt lat="50.23889223868724" lon="3.7233404653236497"><ele>158.0</ele><time>2026-04-12T12:20:51.001Z</time></trkpt><trkpt lat="50.23886288310982" lon="3.723513283179142"><ele>157.5</ele><time>2026-04-12T12:20:53.001Z</time></trkpt><trkpt lat="50.23883654849736" lon="3.7236852102816624"><ele>157.0</ele><time>2026-04-12T12:20:55.001Z</time></trkpt><trkpt lat="50.23880225345556" lon="3.723855982375363"><ele>156.5</ele><time>2026-04-12T12:20:57.001Z</time></trkpt><trkpt lat="50.23876648005118" lon="3.7240246047156247"><ele>156.0</ele><time>2026-04-12T12:20:59.001Z</time></trkpt><trkpt lat="50.238723294873886" lon="3.7241875104505744"><ele>156.0</ele><time>2026-04-12T12:21:01.001Z</time></trkpt><trkpt lat="50.2386834299709" lon="3.724361220762065"><ele>156.0</ele><time>2026-04-12T12:21:03.001Z</time></trkpt><trkpt lat="50.23862924662226" lon="3.7245296958046086"><ele>156.0</ele><time>2026-04-12T12:21:05Z</time></trkpt><trkpt lat="50.23860036322177" lon="3.7246226805880984"><ele>156.0</ele><time>2026-04-12T12:21:06Z</time></trkpt><trkpt lat="50.23857332687998" lon="3.724712078221771"><ele>156.0</ele><time>2026-04-12T12:21:07Z</time></trkpt><trkpt lat="50.23851634092647" lon="3.724883654129381"><ele>156.0</ele><time>2026-04-12T12:21:09Z</time></trkpt><trkpt lat="50.23845310595209" lon="3.7250591317682766"><ele>156.0</ele><time>2026-04-12T12:21:11Z</time></trkpt><trkpt lat="50.23838902162959" lon="3.725214931921038"><ele>156.0</ele><time>2026-04-12T12:21:13Z</time></trkpt><trkpt lat="50.23833234264763" lon="3.7253793637943575"><ele>156.0</ele><time>2026-04-12T12:21:15Z</time></trkpt><trkpt lat="50.238271106354624" lon="3.725537435893369"><ele>156.0</ele><time>2026-04-12T12:21:17Z</time></trkpt><trkpt lat="50.238206584624216" lon="3.725696508956248"><ele>156.0</ele><time>2026-04-12T12:21:19Z</time></trkpt><trkpt lat="50.238146043927685" lon="3.7258567853204876"><ele>156.0</ele><time>2026-04-12T12:21:21Z</time></trkpt><trkpt lat="50.238085551951556" lon="3.7260096728505756"><ele>156.0</ele><time>2026-04-12T12:21:23Z</time></trkpt><trkpt lat="50.238020925621505" lon="3.726168771787719"><ele>155.8</ele><time>2026-04-12T12:21:25Z</time></trkpt><trkpt lat="50.23799429996221" lon="3.7262632815404264"><ele>155.6</ele><time>2026-04-12T12:21:26Z</time></trkpt><trkpt lat="50.237929385434114" lon="3.7264088860558986"><ele>155.4</ele><time>2026-04-12T12:21:28Z</time></trkpt><trkpt lat="50.23787272083413" lon="3.726568823400154"><ele>155.2</ele><time>2026-04-12T12:21:30Z</time></trkpt><trkpt lat="50.23781158136753" lon="3.726741178275687"><ele>155.0</ele><time>2026-04-12T12:21:32Z</time></trkpt><trkpt lat="50.237749678158536" lon="3.726890812595551"><ele>154.75</ele><time>2026-04-12T12:21:34Z</time></trkpt><trkpt lat="50.23768314914383" lon="3.727043908730839"><ele>154.5</ele><time>2026-04-12T12:21:36Z</time></trkpt><trkpt lat="50.237626105355886" lon="3.7272059167364153"><ele>154.25</ele><time>2026-04-12T12:21:38Z</time></trkpt><trkpt lat="50.2375673221944" lon="3.727354090425677"><ele>154.0</ele><time>2026-04-12T12:21:40Z</time></trkpt><trkpt lat="50.237510130137444" lon="3.7275197123555985"><ele>154.0</ele><time>2026-04-12T12:21:42Z</time></trkpt><trkpt lat="50.23744832112477" lon="3.7276732657060894"><ele>154.0</ele><time>2026-04-12T12:21:44Z</time></trkpt><trkpt lat="50.23738744360461" lon="3.727835793571146"><ele>154.0</ele><time>2026-04-12T12:21:46Z</time></trkpt><trkpt lat="50.23732701229843" lon="3.7279866582987404"><ele>154.0</ele><time>2026-04-12T12:21:48Z</time></trkpt><trkpt lat="50.23726421888657" lon="3.72814729971143"><ele>153.75</ele><time>2026-04-12T12:21:50Z</time></trkpt><trkpt lat="50.23720768723933" lon="3.7283069179254418"><ele>153.5</ele><time>2026-04-12T12:21:52Z</time></trkpt><trkpt lat="50.2371473934387" lon="3.7284608993514095"><ele>153.25</ele><time>2026-04-12T12:21:54Z</time></trkpt><trkpt lat="50.23709352587326" lon="3.7286141330110496"><ele>153.0</ele><time>2026-04-12T12:21:56Z</time></trkpt><trkpt lat="50.237034112669505" lon="3.728769506115033"><ele>152.75</ele><time>2026-04-12T12:21:58Z</time></trkpt><trkpt lat="50.236974145919426" lon="3.72892972280872"><ele>152.5</ele><time>2026-04-12T12:22:00Z</time></trkpt><trkpt lat="50.23691542214405" lon="3.7290848487288866"><ele>152.25</ele><time>2026-04-12T12:22:02.001Z</time></trkpt><trkpt lat="50.23685316323298" lon="3.729246243823954"><ele>152.0</ele><time>2026-04-12T12:22:04.001Z</time></trkpt><trkpt lat="50.236791312482445" lon="3.729406320013239"><ele>152.0</ele><time>2026-04-12T12:22:06.001Z</time></trkpt><trkpt lat="50.23672881575485" lon="3.7295613449040976"><ele>152.0</ele><time>2026-04-12T12:22:08.001Z</time></trkpt><trkpt lat="50.236703545988604" lon="3.7296533616543366"><ele>152.0</ele><time>2026-04-12T12:22:09.001Z</time></trkpt><trkpt lat="50.23663767905518" lon="3.7298151209601627"><ele>152.0</ele><time>2026-04-12T12:22:11.001Z</time></trkpt><trkpt lat="50.23657569143336" lon="3.7299788731853933"><ele>152.0</ele><time>2026-04-12T12:22:13.001Z</time></trkpt><trkpt lat="50.2365433423744" lon="3.730067337172136"><ele>152.0</ele><time>2026-04-12T12:22:14.001Z</time></trkpt><trkpt lat="50.236504957300546" lon="3.7301620311255195"><ele>152.0</ele><time>2026-04-12T12:22:15.001Z</time></trkpt><trkpt lat="50.23643767615634" lon="3.730319695272004"><ele>152.0</ele><time>2026-04-12T12:22:17.001Z</time></trkpt><trkpt lat="50.23640180477353" lon="3.7304092292913715"><ele>152.0</ele><time>2026-04-12T12:22:18.001Z</time></trkpt><trkpt lat="50.23636687718369" lon="3.7304983898238357"><ele>152.0</ele><time>2026-04-12T12:22:19.001Z</time></trkpt><trkpt lat="50.23633379375106" lon="3.730582684039872"><ele>152.0</ele><time>2026-04-12T12:22:20.001Z</time></trkpt><trkpt lat="50.236299891676246" lon="3.7306777388825734"><ele>152.0</ele><time>2026-04-12T12:22:21.001Z</time></trkpt><trkpt lat="50.23623620323403" lon="3.7308447119408084"><ele>152.0</ele><time>2026-04-12T12:22:23.001Z</time></trkpt><trkpt lat="50.23620505823087" lon="3.730931637112972"><ele>152.0</ele><time>2026-04-12T12:22:24.001Z</time></trkpt><trkpt lat="50.236166831618085" lon="3.7310228527399296"><ele>152.0</ele><time>2026-04-12T12:22:25.001Z</time></trkpt><trkpt lat="50.236130506761405" lon="3.7311133178417206"><ele>152.0</ele><time>2026-04-12T12:22:26.001Z</time></trkpt><trkpt lat="50.236094453959524" lon="3.7312054264977257"><ele>152.0</ele><time>2026-04-12T12:22:27.001Z</time></trkpt><trkpt lat="50.23606228824347" lon="3.7312987400848265"><ele>152.0</ele><time>2026-04-12T12:22:28.001Z</time></trkpt><trkpt lat="50.23602535880611" lon="3.731389056909528"><ele>152.0</ele><time>2026-04-12T12:22:29.001Z</time></trkpt><trkpt lat="50.23598765163827" lon="3.731480175269307"><ele>152.0</ele><time>2026-04-12T12:22:30.001Z</time></trkpt><trkpt lat="50.23595188356604" lon="3.7315782540391726"><ele>152.0</ele><time>2026-04-12T12:22:31.001Z</time></trkpt><trkpt lat="50.23592162177636" lon="3.7316675651518563"><ele>152.0</ele><time>2026-04-12T12:22:32.001Z</time></trkpt><trkpt lat="50.23588010515677" lon="3.731752893799131"><ele>152.0</ele><time>2026-04-12T12:22:33.001Z</time></trkpt><trkpt lat="50.23584704101745" lon="3.73184676639637"><ele>152.0</ele><time>2026-04-12T12:22:34.001Z</time></trkpt><trkpt lat="50.23581525426181" lon="3.7319385002057532"><ele>151.4</ele><time>2026-04-12T12:22:35.001Z</time></trkpt><trkpt lat="50.235780819965775" lon="3.7320256560962886"><ele>150.79999999999998</ele><time>2026-04-12T12:22:36.001Z</time></trkpt><trkpt lat="50.23574322723753" lon="3.7321201513300246"><ele>150.2</ele><time>2026-04-12T12:22:37.001Z</time></trkpt><trkpt lat="50.23568314232716" lon="3.7322882544936244"><ele>149.6</ele><time>2026-04-12T12:22:39.001Z</time></trkpt><trkpt lat="50.235613691869325" lon="3.7324514559620945"><ele>149.0</ele><time>2026-04-12T12:22:41.001Z</time></trkpt><trkpt lat="50.23555616285846" lon="3.7326167171665436"><ele>149.8</ele><time>2026-04-12T12:22:43.001Z</time></trkpt><trkpt lat="50.23548451529932" lon="3.7327727786558453"><ele>150.60000000000002</ele><time>2026-04-12T12:22:45.001Z</time></trkpt><trkpt lat="50.23544232653727" lon="3.732849241171109"><ele>151.4</ele><time>2026-04-12T12:22:46.001Z</time></trkpt><trkpt lat="50.235370727654065" lon="3.7329906648466964"><ele>152.20000000000002</ele><time>2026-04-12T12:22:48.001Z</time></trkpt><trkpt lat="50.235287378686195" lon="3.733127642002331"><ele>153.0</ele><time>2026-04-12T12:22:50.001Z</time></trkpt><trkpt lat="50.23519723360759" lon="3.7332486432285976"><ele>153.0</ele><time>2026-04-12T12:22:52.001Z</time></trkpt><trkpt lat="50.23510271804235" lon="3.7333614215882633"><ele>153.0</ele><time>2026-04-12T12:22:54.001Z</time></trkpt><trkpt lat="50.235013928231545" lon="3.733470197064702"><ele>153.0</ele><time>2026-04-12T12:22:56.001Z</time></trkpt><trkpt lat="50.234932115292175" lon="3.7335700235042726"><ele>153.0</ele><time>2026-04-12T12:22:58.001Z</time></trkpt><trkpt lat="50.234840579694925" lon="3.73367503742958"><ele>153.0</ele><time>2026-04-12T12:23:00.001Z</time></trkpt><trkpt lat="50.234759957342845" lon="3.733783966444552"><ele>153.8</ele><time>2026-04-12T12:23:02.001Z</time></trkpt><trkpt lat="50.23467100658145" lon="3.7338754701936487"><ele>154.60000000000002</ele><time>2026-04-12T12:23:04.001Z</time></trkpt><trkpt lat="50.23458810421382" lon="3.733974322503731"><ele>155.39999999999998</ele><time>2026-04-12T12:23:06.001Z</time></trkpt><trkpt lat="50.23451255154754" lon="3.7340806544272738"><ele>156.2</ele><time>2026-04-12T12:23:08.001Z</time></trkpt><trkpt lat="50.234424411973016" lon="3.734166885959396"><ele>157.0</ele><time>2026-04-12T12:23:10.001Z</time></trkpt><trkpt lat="50.234347568794625" lon="3.734255804855424"><ele>157.0</ele><time>2026-04-12T12:23:12.001Z</time></trkpt><trkpt lat="50.23427849570713" lon="3.7343466298881642"><ele>157.0</ele><time>2026-04-12T12:23:14.001Z</time></trkpt><trkpt lat="50.2341973318935" lon="3.7344352257529057"><ele>157.0</ele><time>2026-04-12T12:23:16.001Z</time></trkpt><trkpt lat="50.234134676172516" lon="3.7345026158282244"><ele>157.0</ele><time>2026-04-12T12:23:18.001Z</time></trkpt><trkpt lat="50.23407648879493" lon="3.7345796253965884"><ele>157.0</ele><time>2026-04-12T12:23:20.001Z</time></trkpt><trkpt lat="50.23400680815258" lon="3.7346628472863967"><ele>157.0</ele><time>2026-04-12T12:23:22.001Z</time></trkpt><trkpt lat="50.23393066712305" lon="3.7347283633160853"><ele>157.66666666666669</ele><time>2026-04-12T12:23:24.001Z</time></trkpt><trkpt lat="50.23387501529953" lon="3.7348295684937227"><ele>158.33333333333334</ele><time>2026-04-12T12:23:26.001Z</time></trkpt><trkpt lat="50.23381145723519" lon="3.7349054823011927"><ele>159.0</ele><time>2026-04-12T12:23:28.001Z</time></trkpt><trkpt lat="50.2337469821849" lon="3.734973598031033"><ele>159.66666666666666</ele><time>2026-04-12T12:23:30.001Z</time></trkpt><trkpt lat="50.233688727359336" lon="3.735036556738797"><ele>160.33333333333331</ele><time>2026-04-12T12:23:32.001Z</time></trkpt><trkpt lat="50.23362891481727" lon="3.735104276682162"><ele>161.0</ele><time>2026-04-12T12:23:34.001Z</time></trkpt><trkpt lat="50.23356578162007" lon="3.7351687566235494"><ele>161.16666666666666</ele><time>2026-04-12T12:23:36.001Z</time></trkpt><trkpt lat="50.233504534431034" lon="3.7352390516614893"><ele>161.33333333333331</ele><time>2026-04-12T12:23:38.001Z</time></trkpt><trkpt lat="50.23345442560856" lon="3.7353055643519695"><ele>161.5</ele><time>2026-04-12T12:23:40.001Z</time></trkpt><trkpt lat="50.233391466630685" lon="3.7353739001607797"><ele>161.66666666666666</ele><time>2026-04-12T12:23:42.001Z</time></trkpt><trkpt lat="50.233329547590856" lon="3.735449640829656"><ele>161.83333333333334</ele><time>2026-04-12T12:23:44.001Z</time></trkpt><trkpt lat="50.23326768127329" lon="3.7355255656386146"><ele>162.0</ele><time>2026-04-12T12:23:46.001Z</time></trkpt><trkpt lat="50.2332031403042" lon="3.7355918401324466"><ele>162.0</ele><time>2026-04-12T12:23:48.001Z</time></trkpt><trkpt lat="50.23315152286024" lon="3.735669759417365"><ele>162.0</ele><time>2026-04-12T12:23:50.001Z</time></trkpt><trkpt lat="50.233088134148694" lon="3.735760288658197"><ele>162.0</ele><time>2026-04-12T12:23:52.001Z</time></trkpt><trkpt lat="50.23302183162233" lon="3.735841367475507"><ele>162.0</ele><time>2026-04-12T12:23:54.001Z</time></trkpt><trkpt lat="50.23296944408085" lon="3.7359329635028047"><ele>162.0</ele><time>2026-04-12T12:23:56.001Z</time></trkpt><trkpt lat="50.232910733165696" lon="3.736023329319365"><ele>162.0</ele><time>2026-04-12T12:23:58.001Z</time></trkpt><trkpt lat="50.232855169661676" lon="3.7361151615802894"><ele>162.16666666666666</ele><time>2026-04-12T12:24:00.001Z</time></trkpt><trkpt lat="50.23279768123671" lon="3.7362046489044003"><ele>162.33333333333334</ele><time>2026-04-12T12:24:02.001Z</time></trkpt><trkpt lat="50.23274348863272" lon="3.7362990071424367"><ele>162.5</ele><time>2026-04-12T12:24:04.001Z</time></trkpt><trkpt lat="50.23268790113418" lon="3.736393484362754"><ele>162.66666666666669</ele><time>2026-04-12T12:24:06.001Z</time></trkpt><trkpt lat="50.23263327765872" lon="3.736490636397126"><ele>162.83333333333334</ele><time>2026-04-12T12:24:08.001Z</time></trkpt><trkpt lat="50.23258292705529" lon="3.736586804834296"><ele>163.0</ele><time>2026-04-12T12:24:10.001Z</time></trkpt><trkpt lat="50.2325265404236" lon="3.736681359580829"><ele>163.0</ele><time>2026-04-12T12:24:12.001Z</time></trkpt><trkpt lat="50.232472297794544" lon="3.736775450727579"><ele>163.0</ele><time>2026-04-12T12:24:14.001Z</time></trkpt><trkpt lat="50.23241732833609" lon="3.7368672595062273"><ele>163.0</ele><time>2026-04-12T12:24:16.001Z</time></trkpt><trkpt lat="50.23237027707353" lon="3.7369598153091195"><ele>163.0</ele><time>2026-04-12T12:24:18.001Z</time></trkpt><trkpt lat="50.23231850702011" lon="3.7370506171088267"><ele>163.0</ele><time>2026-04-12T12:24:20.001Z</time></trkpt><trkpt lat="50.23226401239438" lon="3.7371327040008353"><ele>163.0</ele><time>2026-04-12T12:24:22.001Z</time></trkpt><trkpt lat="50.232215051060116" lon="3.737224218159798"><ele>163.0</ele><time>2026-04-12T12:24:24.001Z</time></trkpt><trkpt lat="50.232164731405966" lon="3.7373203662185293"><ele>163.0</ele><time>2026-04-12T12:24:26.001Z</time></trkpt><trkpt lat="50.232108408002865" lon="3.737416341892054"><ele>163.0</ele><time>2026-04-12T12:24:28.001Z</time></trkpt><trkpt lat="50.23205424347955" lon="3.737513951604277"><ele>163.0</ele><time>2026-04-12T12:24:30.001Z</time></trkpt><trkpt lat="50.23199793710127" lon="3.7376113291490007"><ele>163.0</ele><time>2026-04-12T12:24:32.001Z</time></trkpt><trkpt lat="50.23193525932775" lon="3.737706357745702"><ele>163.0</ele><time>2026-04-12T12:24:34.001Z</time></trkpt><trkpt lat="50.23188230911469" lon="3.737813549197419"><ele>163.0</ele><time>2026-04-12T12:24:36.001Z</time></trkpt><trkpt lat="50.23182279529493" lon="3.737905349580427"><ele>163.0</ele><time>2026-04-12T12:24:38.001Z</time></trkpt><trkpt lat="50.231764751649" lon="3.7380128306104496"><ele>163.0</ele><time>2026-04-12T12:24:40.001Z</time></trkpt><trkpt lat="50.231704360931815" lon="3.7381053868601954"><ele>163.0</ele><time>2026-04-12T12:24:42.001Z</time></trkpt><trkpt lat="50.23164765436408" lon="3.738199553862675"><ele>163.0</ele><time>2026-04-12T12:24:44.001Z</time></trkpt><trkpt lat="50.23158463907221" lon="3.7382986665659"><ele>163.0</ele><time>2026-04-12T12:24:46.001Z</time></trkpt><trkpt lat="50.2315304746722" lon="3.73840690864228"><ele>163.16666666666669</ele><time>2026-04-12T12:24:48.001Z</time></trkpt><trkpt lat="50.23146898616669" lon="3.738512141246488"><ele>163.33333333333334</ele><time>2026-04-12T12:24:50.001Z</time></trkpt><trkpt lat="50.23141077763591" lon="3.7386235484781634"><ele>163.5</ele><time>2026-04-12T12:24:52.001Z</time></trkpt><trkpt lat="50.231352655175726" lon="3.7387184511523524"><ele>163.66666666666666</ele><time>2026-04-12T12:24:54.001Z</time></trkpt><trkpt lat="50.23129173795066" lon="3.7388260202306363"><ele>163.83333333333331</ele><time>2026-04-12T12:24:56.001Z</time></trkpt><trkpt lat="50.23124268673492" lon="3.7389297585542463"><ele>164.0</ele><time>2026-04-12T12:24:58.001Z</time></trkpt><trkpt lat="50.23117722730757" lon="3.739035012192136"><ele>164.2</ele><time>2026-04-12T12:25:00.001Z</time></trkpt><trkpt lat="50.23111207499787" lon="3.73913750349548"><ele>164.39999999999998</ele><time>2026-04-12T12:25:02.001Z</time></trkpt><trkpt lat="50.23105276010238" lon="3.7392561221077405"><ele>164.6</ele><time>2026-04-12T12:25:04.001Z</time></trkpt><trkpt lat="50.2309949526084" lon="3.7393685889937807"><ele>164.8</ele><time>2026-04-12T12:25:06.001Z</time></trkpt><trkpt lat="50.23092829987279" lon="3.7394717844476992"><ele>165.0</ele><time>2026-04-12T12:25:08.001Z</time></trkpt><trkpt lat="50.230865734822345" lon="3.739580358691537"><ele>165.0</ele><time>2026-04-12T12:25:10.001Z</time></trkpt><trkpt lat="50.23080775740813" lon="3.7396880221243265"><ele>165.0</ele><time>2026-04-12T12:25:12.001Z</time></trkpt><trkpt lat="50.2307419633121" lon="3.739788834992831"><ele>165.0</ele><time>2026-04-12T12:25:14.001Z</time></trkpt><trkpt lat="50.23067938660184" lon="3.7398959747178298"><ele>165.0</ele><time>2026-04-12T12:25:16.001Z</time></trkpt><trkpt lat="50.23061785125893" lon="3.7400065048178046"><ele>165.0</ele><time>2026-04-12T12:25:18.001Z</time></trkpt><trkpt lat="50.230559295689545" lon="3.7401166176357297"><ele>164.83333333333334</ele><time>2026-04-12T12:25:20.001Z</time></trkpt><trkpt lat="50.2304968166357" lon="3.740225375770543"><ele>164.66666666666666</ele><time>2026-04-12T12:25:22.001Z</time></trkpt><trkpt lat="50.2304339946649" lon="3.740331716113859"><ele>164.5</ele><time>2026-04-12T12:25:24.001Z</time></trkpt><trkpt lat="50.230372112360705" lon="3.7404260347570815"><ele>164.33333333333331</ele><time>2026-04-12T12:25:26.001Z</time></trkpt><trkpt lat="50.23031828810972" lon="3.740524766430737"><ele>164.16666666666666</ele><time>2026-04-12T12:25:28.001Z</time></trkpt><trkpt lat="50.23026605698062" lon="3.7406163608108494"><ele>164.0</ele><time>2026-04-12T12:25:30.001Z</time></trkpt><trkpt lat="50.230213911289304" lon="3.740704456035125"><ele>164.0</ele><time>2026-04-12T12:25:32.001Z</time></trkpt><trkpt lat="50.23016464552843" lon="3.7407966181539507"><ele>164.0</ele><time>2026-04-12T12:25:34.001Z</time></trkpt><trkpt lat="50.230117690067026" lon="3.740884985338027"><ele>164.0</ele><time>2026-04-12T12:25:36.001Z</time></trkpt><trkpt lat="50.23006544491493" lon="3.7409723887551674"><ele>164.0</ele><time>2026-04-12T12:25:38.001Z</time></trkpt><trkpt lat="50.230006273608005" lon="3.7410721603752464"><ele>164.0</ele><time>2026-04-12T12:25:41.001Z</time></trkpt><trkpt lat="50.230083872288056" lon="3.7410416491673995"><ele>164.0</ele><time>2026-04-12T12:25:47.001Z</time></trkpt><trkpt lat="50.23008897486957" lon="3.7409241419970742"><ele>163.99999999999997</ele><time>2026-04-12T12:25:49.001Z</time></trkpt><trkpt lat="50.23004524692004" lon="3.7408398357863177"><ele>164.0</ele><time>2026-04-12T12:25:51.001Z</time></trkpt><trkpt lat="50.22996512654337" lon="3.740806865868081"><ele>164.0</ele><time>2026-04-12T12:25:54.001Z</time></trkpt><trkpt lat="50.229901751253216" lon="3.7408086099558693"><ele>164.0</ele><time>2026-04-12T12:25:57.001Z</time></trkpt><trkpt lat="50.22983027269996" lon="3.740779823692275"><ele>164.0</ele><time>2026-04-12T12:26:00.001Z</time></trkpt><trkpt lat="50.229754220181306" lon="3.7407705417307633"><ele>163.99999999999997</ele><time>2026-04-12T12:26:04.001Z</time></trkpt><trkpt lat="50.22967721315634" lon="3.740771870187742"><ele>164.0</ele><time>2026-04-12T12:26:08.001Z</time></trkpt><trkpt lat="50.22961196389946" lon="3.740749958199479"><ele>164.16666666666666</ele><time>2026-04-12T12:26:11.001Z</time></trkpt><trkpt lat="50.229539405713126" lon="3.740753733249394"><ele>164.33333333333331</ele><time>2026-04-12T12:26:13.001Z</time></trkpt><trkpt lat="50.22945146380216" lon="3.7407298275529106"><ele>164.5</ele><time>2026-04-12T12:26:15.001Z</time></trkpt><trkpt lat="50.22936235451716" lon="3.740728479786941"><ele>164.66666666666666</ele><time>2026-04-12T12:26:17.001Z</time></trkpt><trkpt lat="50.229272244586525" lon="3.74073339795445"><ele>164.83333333333334</ele><time>2026-04-12T12:26:19.001Z</time></trkpt><trkpt lat="50.22918341738792" lon="3.7407094797222453"><ele>165.0</ele><time>2026-04-12T12:26:21.001Z</time></trkpt><trkpt lat="50.229081175416404" lon="3.7407014632616935"><ele>165.0</ele><time>2026-04-12T12:26:23.001Z</time></trkpt><trkpt lat="50.228980861995986" lon="3.7406928077782875"><ele>165.0</ele><time>2026-04-12T12:26:25.001Z</time></trkpt><trkpt lat="50.22887297855115" lon="3.7406700305361893"><ele>165.0</ele><time>2026-04-12T12:26:27.001Z</time></trkpt><trkpt lat="50.22876501699916" lon="3.7406673989477848"><ele>165.0</ele><time>2026-04-12T12:26:29.001Z</time></trkpt><trkpt lat="50.2286486834474" lon="3.740640968490219"><ele>165.0</ele><time>2026-04-12T12:26:31.001Z</time></trkpt><trkpt lat="50.228540600317245" lon="3.7406018136773"><ele>164.83333333333334</ele><time>2026-04-12T12:26:33.001Z</time></trkpt><trkpt lat="50.228413631830634" lon="3.740591396493966"><ele>164.66666666666666</ele><time>2026-04-12T12:26:35.001Z</time></trkpt><trkpt lat="50.228349049297705" lon="3.7405839932627187"><ele>164.5</ele><time>2026-04-12T12:26:36.001Z</time></trkpt><trkpt lat="50.22828375635147" lon="3.7405765870773178"><ele>164.33333333333331</ele><time>2026-04-12T12:26:37.001Z</time></trkpt><trkpt lat="50.22821346083984" lon="3.7405650600761304"><ele>164.16666666666666</ele><time>2026-04-12T12:26:38.001Z</time></trkpt><trkpt lat="50.22814607858305" lon="3.740561684790966"><ele>164.0</ele><time>2026-04-12T12:26:39.001Z</time></trkpt><trkpt lat="50.22807921530736" lon="3.740558188445863"><ele>163.99999999999997</ele><time>2026-04-12T12:26:40.001Z</time></trkpt><trkpt lat="50.22801239121286" lon="3.740551536209015"><ele>164.0</ele><time>2026-04-12T12:26:41.001Z</time></trkpt><trkpt lat="50.227944692510945" lon="3.7405370365146178"><ele>164.0</ele><time>2026-04-12T12:26:42.001Z</time></trkpt><trkpt lat="50.227874960979506" lon="3.7405326925091904"><ele>164.0</ele><time>2026-04-12T12:26:43.001Z</time></trkpt><trkpt lat="50.2277979216631" lon="3.7405293866706844"><ele>164.0</ele><time>2026-04-12T12:26:44.001Z</time></trkpt><trkpt lat="50.227723194543294" lon="3.7405232763418996"><ele>163.99999999999997</ele><time>2026-04-12T12:26:45.001Z</time></trkpt><trkpt lat="50.2276458361753" lon="3.7405176685530157"><ele>164.0</ele><time>2026-04-12T12:26:46.001Z</time></trkpt><trkpt lat="50.22756481959041" lon="3.740504369116783"><ele>164.0</ele><time>2026-04-12T12:26:47.001Z</time></trkpt><trkpt lat="50.22748705689356" lon="3.740495611023742"><ele>164.0</ele><time>2026-04-12T12:26:48.001Z</time></trkpt><trkpt lat="50.22740540735284" lon="3.74048856037762"><ele>164.0</ele><time>2026-04-12T12:26:49.001Z</time></trkpt><trkpt lat="50.22732686130177" lon="3.740480910922246"><ele>164.0</ele><time>2026-04-12T12:26:50.001Z</time></trkpt><trkpt lat="50.22724411356284" lon="3.740476109321244"><ele>164.0</ele><time>2026-04-12T12:26:51.001Z</time></trkpt><trkpt lat="50.22716752344824" lon="3.7404624362688734"><ele>164.0</ele><time>2026-04-12T12:26:52.001Z</time></trkpt><trkpt lat="50.227095067789804" lon="3.7404526535583305"><ele>164.2</ele><time>2026-04-12T12:26:53.001Z</time></trkpt><trkpt lat="50.227031101821666" lon="3.7404459877406446"><ele>164.39999999999998</ele><time>2026-04-12T12:26:54.001Z</time></trkpt><trkpt lat="50.22695497091835" lon="3.7404343556544126"><ele>164.6</ele><time>2026-04-12T12:26:55.001Z</time></trkpt><trkpt lat="50.226885943168995" lon="3.7404327249558484"><ele>164.8</ele><time>2026-04-12T12:26:56.001Z</time></trkpt><trkpt lat="50.22676231656822" lon="3.7404253127239313"><ele>165.0</ele><time>2026-04-12T12:26:58.001Z</time></trkpt><trkpt lat="50.22664387167976" lon="3.740427878154516"><ele>165.0</ele><time>2026-04-12T12:27:00.001Z</time></trkpt><trkpt lat="50.22653328991607" lon="3.7404044024979517"><ele>165.0</ele><time>2026-04-12T12:27:02.001Z</time></trkpt><trkpt lat="50.22642786242927" lon="3.7403917145485797"><ele>165.0</ele><time>2026-04-12T12:27:04.001Z</time></trkpt><trkpt lat="50.22631970976709" lon="3.740368526615074"><ele>165.0</ele><time>2026-04-12T12:27:06.001Z</time></trkpt><trkpt lat="50.22621026078597" lon="3.7403686824072695"><ele>165.0</ele><time>2026-04-12T12:27:08.001Z</time></trkpt><trkpt lat="50.22609783526404" lon="3.740361348143399"><ele>164.75</ele><time>2026-04-12T12:27:10.001Z</time></trkpt><trkpt lat="50.22598294904986" lon="3.7403456373335215"><ele>164.5</ele><time>2026-04-12T12:27:12.001Z</time></trkpt><trkpt lat="50.22587138945187" lon="3.740307204144159"><ele>164.25</ele><time>2026-04-12T12:27:14.001Z</time></trkpt><trkpt lat="50.22575832447225" lon="3.7402970780111966"><ele>164.0</ele><time>2026-04-12T12:27:16.001Z</time></trkpt><trkpt lat="50.22564784992084" lon="3.740281908032255"><ele>164.25</ele><time>2026-04-12T12:27:18.001Z</time></trkpt><trkpt lat="50.22553095725031" lon="3.7402744664769316"><ele>164.5</ele><time>2026-04-12T12:27:20.001Z</time></trkpt><trkpt lat="50.22541582636833" lon="3.740257787109064"><ele>164.75</ele><time>2026-04-12T12:27:22.001Z</time></trkpt><trkpt lat="50.22530754506751" lon="3.7402407351774642"><ele>165.0</ele><time>2026-04-12T12:27:24.001Z</time></trkpt><trkpt lat="50.225198705033655" lon="3.7402260832847163"><ele>164.4</ele><time>2026-04-12T12:27:26.001Z</time></trkpt><trkpt lat="50.22509171034528" lon="3.740215378961979"><ele>163.8</ele><time>2026-04-12T12:27:28.001Z</time></trkpt><trkpt lat="50.224976418432185" lon="3.7401995293052432"><ele>163.2</ele><time>2026-04-12T12:27:30.001Z</time></trkpt><trkpt lat="50.2248625221948" lon="3.74019120997063"><ele>162.6</ele><time>2026-04-12T12:27:32.001Z</time></trkpt><trkpt lat="50.22479828631051" lon="3.740187486606925"><ele>162.0</ele><time>2026-04-12T12:27:33.001Z</time></trkpt><trkpt lat="50.22470011821589" lon="3.7401749169888623"><ele>162.0</ele><time>2026-04-12T12:27:35.001Z</time></trkpt><trkpt lat="50.2245920729165" lon="3.7401569336278997"><ele>162.0</ele><time>2026-04-12T12:27:37.001Z</time></trkpt><trkpt lat="50.22447800917113" lon="3.7401526159441008"><ele>162.0</ele><time>2026-04-12T12:27:39.001Z</time></trkpt><trkpt lat="50.22436837053309" lon="3.740135268578447"><ele>162.0</ele><time>2026-04-12T12:27:41.001Z</time></trkpt><trkpt lat="50.2242668426181" lon="3.7401195251202726"><ele>162.0</ele><time>2026-04-12T12:27:43.001Z</time></trkpt><trkpt lat="50.22415459078258" lon="3.74011033104792"><ele>162.0</ele><time>2026-04-12T12:27:45.001Z</time></trkpt><trkpt lat="50.2240548554306" lon="3.7401139707871582"><ele>162.0</ele><time>2026-04-12T12:27:47.001Z</time></trkpt><trkpt lat="50.22394428124836" lon="3.7400852676983933"><ele>162.0</ele><time>2026-04-12T12:27:49.001Z</time></trkpt><trkpt lat="50.22383438102285" lon="3.740071999377879"><ele>162.0</ele><time>2026-04-12T12:27:51.001Z</time></trkpt><trkpt lat="50.223731238708346" lon="3.740062677293387"><ele>162.0</ele><time>2026-04-12T12:27:53.001Z</time></trkpt><trkpt lat="50.22361869081123" lon="3.74004579091871"><ele>162.0</ele><time>2026-04-12T12:27:55.001Z</time></trkpt><trkpt lat="50.22350672327091" lon="3.7400366042607867"><ele>162.0</ele><time>2026-04-12T12:27:57.001Z</time></trkpt><trkpt lat="50.22339562462798" lon="3.740002374528513"><ele>162.0</ele><time>2026-04-12T12:27:59.001Z</time></trkpt><trkpt lat="50.22328794601063" lon="3.7399891865101935"><ele>162.0</ele><time>2026-04-12T12:28:01.001Z</time></trkpt><trkpt lat="50.22318532503306" lon="3.73998649212165"><ele>162.0</ele><time>2026-04-12T12:28:03.001Z</time></trkpt><trkpt lat="50.22308134398384" lon="3.7399743145798685"><ele>161.8</ele><time>2026-04-12T12:28:05.001Z</time></trkpt><trkpt lat="50.22297440775804" lon="3.7399639208113085"><ele>161.6</ele><time>2026-04-12T12:28:07.001Z</time></trkpt><trkpt lat="50.222876249996595" lon="3.7399493638550587"><ele>161.4</ele><time>2026-04-12T12:28:09.001Z</time></trkpt><trkpt lat="50.2227811692335" lon="3.7399371184636125"><ele>161.20000000000002</ele><time>2026-04-12T12:28:11.001Z</time></trkpt><trkpt lat="50.222691218593006" lon="3.739927722539603"><ele>161.0</ele><time>2026-04-12T12:28:13.001Z</time></trkpt><trkpt lat="50.22260420968562" lon="3.7399195042758646"><ele>161.0</ele><time>2026-04-12T12:28:15.001Z</time></trkpt><trkpt lat="50.22252378774969" lon="3.739895631504729"><ele>161.0</ele><time>2026-04-12T12:28:17.001Z</time></trkpt><trkpt lat="50.222442165465374" lon="3.7398798052507374"><ele>161.0</ele><time>2026-04-12T12:28:19.001Z</time></trkpt><trkpt lat="50.222366618621614" lon="3.739879995033993"><ele>161.0</ele><time>2026-04-12T12:28:21.001Z</time></trkpt><trkpt lat="50.22228780886585" lon="3.7398709070037133"><ele>161.0</ele><time>2026-04-12T12:28:23.001Z</time></trkpt><trkpt lat="50.22221311476418" lon="3.7398564775300147"><ele>161.0</ele><time>2026-04-12T12:28:25.001Z</time></trkpt><trkpt lat="50.222136838438715" lon="3.7398500401771257"><ele>161.14285714285714</ele><time>2026-04-12T12:28:27.001Z</time></trkpt><trkpt lat="50.22206318735134" lon="3.739839371046185"><ele>161.28571428571428</ele><time>2026-04-12T12:28:29.001Z</time></trkpt><trkpt lat="50.221991064341445" lon="3.739826819207491"><ele>161.42857142857144</ele><time>2026-04-12T12:28:31.001Z</time></trkpt><trkpt lat="50.22191403639984" lon="3.7398137793126778"><ele>161.57142857142856</ele><time>2026-04-12T12:28:33.001Z</time></trkpt><trkpt lat="50.221838352222335" lon="3.739807183900109"><ele>161.71428571428572</ele><time>2026-04-12T12:28:35.001Z</time></trkpt><trkpt lat="50.221763579583715" lon="3.739793106146957"><ele>161.85714285714286</ele><time>2026-04-12T12:28:37.001Z</time></trkpt><trkpt lat="50.22169225037005" lon="3.739784421905446"><ele>162.0</ele><time>2026-04-12T12:28:39.001Z</time></trkpt><trkpt lat="50.221617937482705" lon="3.7397708636146025"><ele>162.0</ele><time>2026-04-12T12:28:41.001Z</time></trkpt><trkpt lat="50.221542539668974" lon="3.7397610923390108"><ele>162.0</ele><time>2026-04-12T12:28:43.001Z</time></trkpt><trkpt lat="50.22146223465118" lon="3.7397437627984274"><ele>162.0</ele><time>2026-04-12T12:28:45.001Z</time></trkpt><trkpt lat="50.22138920014914" lon="3.7397389516305584"><ele>162.0</ele><time>2026-04-12T12:28:47.001Z</time></trkpt><trkpt lat="50.22131478176851" lon="3.739732320455379"><ele>162.0</ele><time>2026-04-12T12:28:49.001Z</time></trkpt><trkpt lat="50.221238496443036" lon="3.7397192191605875"><ele>162.0</ele><time>2026-04-12T12:28:51.001Z</time></trkpt><trkpt lat="50.22115651599326" lon="3.739703760926105"><ele>162.0</ele><time>2026-04-12T12:28:53.001Z</time></trkpt><trkpt lat="50.221074500121794" lon="3.739688881036494"><ele>162.0</ele><time>2026-04-12T12:28:55.001Z</time></trkpt><trkpt lat="50.22099737488483" lon="3.7396778990577246"><ele>162.0</ele><time>2026-04-12T12:28:57.001Z</time></trkpt><trkpt lat="50.220915989017136" lon="3.7396675576343164"><ele>162.0</ele><time>2026-04-12T12:28:59.001Z</time></trkpt><trkpt lat="50.22083078802198" lon="3.7396529693576217"><ele>162.0</ele><time>2026-04-12T12:29:01.001Z</time></trkpt><trkpt lat="50.22074736212152" lon="3.739648212311166"><ele>162.0</ele><time>2026-04-12T12:29:03.001Z</time></trkpt><trkpt lat="50.22066470034098" lon="3.739641459950537"><ele>162.33333333333334</ele><time>2026-04-12T12:29:05.001Z</time></trkpt><trkpt lat="50.22058216626718" lon="3.7396268917523585"><ele>162.66666666666666</ele><time>2026-04-12T12:29:07.001Z</time></trkpt><trkpt lat="50.22050434543326" lon="3.7396150183098094"><ele>163.0</ele><time>2026-04-12T12:29:09.001Z</time></trkpt><trkpt lat="50.22042747534283" lon="3.739606937196791"><ele>163.33333333333331</ele><time>2026-04-12T12:29:11.001Z</time></trkpt><trkpt lat="50.2203473652371" lon="3.7395923583546145"><ele>163.66666666666666</ele><time>2026-04-12T12:29:13.001Z</time></trkpt><trkpt lat="50.22026881016599" lon="3.739586138314775"><ele>164.0</ele><time>2026-04-12T12:29:15.001Z</time></trkpt><trkpt lat="50.2201940731038" lon="3.7395791672467764"><ele>163.99999999999997</ele><time>2026-04-12T12:29:17.001Z</time></trkpt><trkpt lat="50.22011877421725" lon="3.739567101465103"><ele>164.0</ele><time>2026-04-12T12:29:19.001Z</time></trkpt><trkpt lat="50.220040667943984" lon="3.7395636488427964"><ele>164.0</ele><time>2026-04-12T12:29:21.001Z</time></trkpt><trkpt lat="50.2199747054941" lon="3.739551352989619"><ele>164.0</ele><time>2026-04-12T12:29:23.001Z</time></trkpt><trkpt lat="50.21990147185892" lon="3.7395395274965444"><ele>164.0</ele><time>2026-04-12T12:29:25.001Z</time></trkpt><trkpt lat="50.21983251235486" lon="3.7395302180468226"><ele>163.99999999999997</ele><time>2026-04-12T12:29:27.001Z</time></trkpt><trkpt lat="50.21975768005944" lon="3.739513501202012"><ele>164.0</ele><time>2026-04-12T12:29:29.001Z</time></trkpt><trkpt lat="50.21968725685373" lon="3.7395003494863377"><ele>164.42857142857142</ele><time>2026-04-12T12:29:31.001Z</time></trkpt><trkpt lat="50.21960397980307" lon="3.7394859526447153"><ele>164.85714285714286</ele><time>2026-04-12T12:29:33.001Z</time></trkpt><trkpt lat="50.2195382101192" lon="3.7394783537419114"><ele>165.28571428571428</ele><time>2026-04-12T12:29:35.001Z</time></trkpt><trkpt lat="50.219467557079554" lon="3.7394617857009647"><ele>165.71428571428572</ele><time>2026-04-12T12:29:37.001Z</time></trkpt><trkpt lat="50.21939754629334" lon="3.7394424185132893"><ele>166.14285714285714</ele><time>2026-04-12T12:29:39.001Z</time></trkpt><trkpt lat="50.219328520635464" lon="3.739439864247157"><ele>166.57142857142856</ele><time>2026-04-12T12:29:41.001Z</time></trkpt><trkpt lat="50.21925616973481" lon="3.7394252931011684"><ele>167.0</ele><time>2026-04-12T12:29:43.001Z</time></trkpt><trkpt lat="50.21918057809703" lon="3.7394134194811977"><ele>167.0</ele><time>2026-04-12T12:29:45.001Z</time></trkpt><trkpt lat="50.219102370932305" lon="3.7394062348455006"><ele>167.0</ele><time>2026-04-12T12:29:47.001Z</time></trkpt><trkpt lat="50.21902571400709" lon="3.739396637367136"><ele>167.0</ele><time>2026-04-12T12:29:49.001Z</time></trkpt><trkpt lat="50.21894882286671" lon="3.7393845803009946"><ele>167.0</ele><time>2026-04-12T12:29:51.001Z</time></trkpt><trkpt lat="50.21887229613972" lon="3.739372085473302"><ele>167.0</ele><time>2026-04-12T12:29:53.001Z</time></trkpt><trkpt lat="50.21877636409137" lon="3.7393766000381476"><ele>167.0</ele><time>2026-04-12T12:29:56.001Z</time></trkpt><trkpt lat="50.218703502047624" lon="3.7393549783533944"><ele>166.5</ele><time>2026-04-12T12:29:58.001Z</time></trkpt><trkpt lat="50.218624258299876" lon="3.73933635355342"><ele>166.0</ele><time>2026-04-12T12:30:00.001Z</time></trkpt><trkpt lat="50.21854261258885" lon="3.7393261312289203"><ele>165.5</ele><time>2026-04-12T12:30:02.001Z</time></trkpt><trkpt lat="50.2184547848971" lon="3.7393034049029894"><ele>165.0</ele><time>2026-04-12T12:30:04.001Z</time></trkpt><trkpt lat="50.21836582019786" lon="3.7392986940547406"><ele>164.5</ele><time>2026-04-12T12:30:06.001Z</time></trkpt><trkpt lat="50.21827147444884" lon="3.739286878864387"><ele>164.0</ele><time>2026-04-12T12:30:08.001Z</time></trkpt><trkpt lat="50.21817658998632" lon="3.7392681789500277"><ele>163.83333333333331</ele><time>2026-04-12T12:30:10.001Z</time></trkpt><trkpt lat="50.21808433808841" lon="3.7392539605370225"><ele>163.66666666666666</ele><time>2026-04-12T12:30:12.001Z</time></trkpt><trkpt lat="50.21799579382533" lon="3.739243897622986"><ele>163.5</ele><time>2026-04-12T12:30:14.001Z</time></trkpt><trkpt lat="50.21791734056972" lon="3.739230869219987"><ele>163.33333333333334</ele><time>2026-04-12T12:30:16.001Z</time></trkpt><trkpt lat="50.217833745556405" lon="3.7392184386577028"><ele>163.16666666666669</ele><time>2026-04-12T12:30:18.001Z</time></trkpt><trkpt lat="50.21774456883691" lon="3.7392107643551573"><ele>163.0</ele><time>2026-04-12T12:30:20.001Z</time></trkpt><trkpt lat="50.21766597240448" lon="3.73919303618587"><ele>163.0</ele><time>2026-04-12T12:30:22.001Z</time></trkpt><trkpt lat="50.21756426562909" lon="3.7391761095345117"><ele>163.0</ele><time>2026-04-12T12:30:24.001Z</time></trkpt><trkpt lat="50.217466785421486" lon="3.7391761449794028"><ele>163.0</ele><time>2026-04-12T12:30:26.001Z</time></trkpt><trkpt lat="50.21736104206056" lon="3.7391510520414513"><ele>163.0</ele><time>2026-04-12T12:30:28.001Z</time></trkpt><trkpt lat="50.217256142985" lon="3.739120831519726"><ele>163.0</ele><time>2026-04-12T12:30:30.001Z</time></trkpt><trkpt lat="50.21714441965809" lon="3.739118633877629"><ele>163.2</ele><time>2026-04-12T12:30:32.001Z</time></trkpt><trkpt lat="50.21704297394833" lon="3.739095780088607"><ele>163.4</ele><time>2026-04-12T12:30:34.001Z</time></trkpt><trkpt lat="50.21694268590874" lon="3.739084975978924"><ele>163.6</ele><time>2026-04-12T12:30:36.001Z</time></trkpt><trkpt lat="50.21683898818048" lon="3.7390702208912647"><ele>163.79999999999998</ele><time>2026-04-12T12:30:38.001Z</time></trkpt><trkpt lat="50.21673391016207" lon="3.7390595633423427"><ele>164.0</ele><time>2026-04-12T12:30:40.001Z</time></trkpt><trkpt lat="50.21663051690359" lon="3.7390527653840606"><ele>164.0</ele><time>2026-04-12T12:30:42.001Z</time></trkpt><trkpt lat="50.21653319346803" lon="3.739032609667461"><ele>164.0</ele><time>2026-04-12T12:30:44.001Z</time></trkpt><trkpt lat="50.21643704105349" lon="3.739028297846389"><ele>164.0</ele><time>2026-04-12T12:30:46.001Z</time></trkpt><trkpt lat="50.21634517448259" lon="3.7390073557607573"><ele>164.0</ele><time>2026-04-12T12:30:48.001Z</time></trkpt><trkpt lat="50.21625841489494" lon="3.7389926026269378"><ele>164.0</ele><time>2026-04-12T12:30:50.001Z</time></trkpt><trkpt lat="50.21616744653133" lon="3.738990840230008"><ele>164.5</ele><time>2026-04-12T12:30:52.001Z</time></trkpt><trkpt lat="50.21609095286914" lon="3.738979031211086"><ele>165.0</ele><time>2026-04-12T12:30:54.001Z</time></trkpt><trkpt lat="50.216006286043196" lon="3.7389750539258126"><ele>165.5</ele><time>2026-04-12T12:30:56.001Z</time></trkpt><trkpt lat="50.21593112582402" lon="3.738959237704385"><ele>166.0</ele><time>2026-04-12T12:30:58.001Z</time></trkpt><trkpt lat="50.215841340188966" lon="3.738949200889611"><ele>166.5</ele><time>2026-04-12T12:31:00.001Z</time></trkpt><trkpt lat="50.215760852556905" lon="3.7389419807091615"><ele>167.0</ele><time>2026-04-12T12:31:02.001Z</time></trkpt><trkpt lat="50.215679585926864" lon="3.738908694254795"><ele>168.0</ele><time>2026-04-12T12:31:04.001Z</time></trkpt><trkpt lat="50.21558982228617" lon="3.738891442583789"><ele>169.0</ele><time>2026-04-12T12:31:06.001Z</time></trkpt><trkpt lat="50.215506036727874" lon="3.738881693557239"><ele>170.0</ele><time>2026-04-12T12:31:08.001Z</time></trkpt><trkpt lat="50.215426718636124" lon="3.738868321632942"><ele>171.0</ele><time>2026-04-12T12:31:10.001Z</time></trkpt><trkpt lat="50.21534264639774" lon="3.7388496480490288"><ele>172.0</ele><time>2026-04-12T12:31:12.001Z</time></trkpt><trkpt lat="50.21526280651914" lon="3.7388440427575427"><ele>173.0</ele><time>2026-04-12T12:31:14.001Z</time></trkpt><trkpt lat="50.21517836220057" lon="3.7388376483266113"><ele>173.0</ele><time>2026-04-12T12:31:16.001Z</time></trkpt><trkpt lat="50.21508827413566" lon="3.7388312539223656"><ele>173.0</ele><time>2026-04-12T12:31:18.001Z</time></trkpt><trkpt lat="50.21501051876503" lon="3.7388147020290385"><ele>173.0</ele><time>2026-04-12T12:31:20.001Z</time></trkpt><trkpt lat="50.21492373196057" lon="3.738796468741754"><ele>173.0</ele><time>2026-04-12T12:31:22.001Z</time></trkpt><trkpt lat="50.21484044299733" lon="3.7388055406601257"><ele>173.0</ele><time>2026-04-12T12:31:24.001Z</time></trkpt><trkpt lat="50.21474948496817" lon="3.7387744579124176"><ele>173.0</ele><time>2026-04-12T12:31:26.001Z</time></trkpt><trkpt lat="50.21467022841641" lon="3.7387673244519175"><ele>173.16666666666666</ele><time>2026-04-12T12:31:28.001Z</time></trkpt><trkpt lat="50.214584948899244" lon="3.7387469747816975"><ele>173.33333333333331</ele><time>2026-04-12T12:31:30.001Z</time></trkpt><trkpt lat="50.214502720974366" lon="3.7387138483428415"><ele>173.5</ele><time>2026-04-12T12:31:32.001Z</time></trkpt><trkpt lat="50.21440317058768" lon="3.7387069472060706"><ele>173.66666666666666</ele><time>2026-04-12T12:31:34.001Z</time></trkpt><trkpt lat="50.214319193736365" lon="3.738693961277133"><ele>173.83333333333334</ele><time>2026-04-12T12:31:36.001Z</time></trkpt><trkpt lat="50.214243097394906" lon="3.738674149595453"><ele>174.0</ele><time>2026-04-12T12:31:38.001Z</time></trkpt><trkpt lat="50.21415307360925" lon="3.7386593602368463"><ele>174.0</ele><time>2026-04-12T12:31:40.001Z</time></trkpt><trkpt lat="50.214061920448835" lon="3.7386490690140475"><ele>174.0</ele><time>2026-04-12T12:31:42.001Z</time></trkpt><trkpt lat="50.21397022797835" lon="3.738629858550422"><ele>174.0</ele><time>2026-04-12T12:31:44.001Z</time></trkpt><trkpt lat="50.21388092158001" lon="3.7386195273589005"><ele>174.0</ele><time>2026-04-12T12:31:46.001Z</time></trkpt><trkpt lat="50.213787150498305" lon="3.7386046088595553"><ele>174.0</ele><time>2026-04-12T12:31:48.001Z</time></trkpt><trkpt lat="50.21369253004477" lon="3.7385969862847164"><ele>174.0</ele><time>2026-04-12T12:31:50.001Z</time></trkpt><trkpt lat="50.213594290843204" lon="3.738576623317948"><ele>174.0</ele><time>2026-04-12T12:31:52.001Z</time></trkpt><trkpt lat="50.213492516805324" lon="3.7385602800121296"><ele>174.0</ele><time>2026-04-12T12:31:54.001Z</time></trkpt><trkpt lat="50.213391720295775" lon="3.738545369300115"><ele>174.0</ele><time>2026-04-12T12:31:56.001Z</time></trkpt><trkpt lat="50.21328227538849" lon="3.738527600063691"><ele>174.0</ele><time>2026-04-12T12:31:58Z</time></trkpt><trkpt lat="50.21317325815436" lon="3.7385120068868"><ele>173.2</ele><time>2026-04-12T12:32:00Z</time></trkpt><trkpt lat="50.21307736257529" lon="3.738501725752131"><ele>172.39999999999998</ele><time>2026-04-12T12:32:02Z</time></trkpt><trkpt lat="50.212975817539096" lon="3.7384814297743603"><ele>171.6</ele><time>2026-04-12T12:32:04Z</time></trkpt><trkpt lat="50.212879543017735" lon="3.73846434241323"><ele>170.8</ele><time>2026-04-12T12:32:06Z</time></trkpt><trkpt lat="50.21277930904127" lon="3.7384637937716723"><ele>170.0</ele><time>2026-04-12T12:32:08Z</time></trkpt><trkpt lat="50.21268219610638" lon="3.7384545143036503"><ele>170.0</ele><time>2026-04-12T12:32:10Z</time></trkpt><trkpt lat="50.21257294485427" lon="3.738419827387167"><ele>170.0</ele><time>2026-04-12T12:32:12Z</time></trkpt><trkpt lat="50.212467162368675" lon="3.7383997528922013"><ele>170.0</ele><time>2026-04-12T12:32:14Z</time></trkpt><trkpt lat="50.212360053425854" lon="3.7383879704186813"><ele>170.0</ele><time>2026-04-12T12:32:16Z</time></trkpt><trkpt lat="50.21225563897512" lon="3.7383641586658958"><ele>170.0</ele><time>2026-04-12T12:32:18Z</time></trkpt><trkpt lat="50.212146543751295" lon="3.7383522707351275"><ele>169.8</ele><time>2026-04-12T12:32:20Z</time></trkpt><trkpt lat="50.21204177239942" lon="3.738333808761473"><ele>169.6</ele><time>2026-04-12T12:32:22Z</time></trkpt><trkpt lat="50.21193416215948" lon="3.7383141566132156"><ele>169.39999999999998</ele><time>2026-04-12T12:32:24Z</time></trkpt><trkpt lat="50.21182624699645" lon="3.7382974685920156"><ele>169.2</ele><time>2026-04-12T12:32:26Z</time></trkpt><trkpt lat="50.21171407644721" lon="3.738281834039026"><ele>169.0</ele><time>2026-04-12T12:32:28Z</time></trkpt><trkpt lat="50.21160153832734" lon="3.738270582471834"><ele>169.0</ele><time>2026-04-12T12:32:30Z</time></trkpt><trkpt lat="50.211493032416584" lon="3.7382713966035586"><ele>169.0</ele><time>2026-04-12T12:32:32Z</time></trkpt><trkpt lat="50.21137997016925" lon="3.738242302748933"><ele>169.0</ele><time>2026-04-12T12:32:34Z</time></trkpt><trkpt lat="50.211317637586355" lon="3.738226126967897"><ele>169.0</ele><time>2026-04-12T12:32:35Z</time></trkpt><trkpt lat="50.211203449704506" lon="3.7382104285192304"><ele>169.0</ele><time>2026-04-12T12:32:37Z</time></trkpt><trkpt lat="50.21108651487447" lon="3.7381940096002304"><ele>169.0</ele><time>2026-04-12T12:32:39Z</time></trkpt><trkpt lat="50.21096810265218" lon="3.738175272676718"><ele>169.0</ele><time>2026-04-12T12:32:41Z</time></trkpt><trkpt lat="50.21084734250875" lon="3.7381535508383457"><ele>169.0</ele><time>2026-04-12T12:32:43Z</time></trkpt><trkpt lat="50.210728787248634" lon="3.738145166017694"><ele>169.0</ele><time>2026-04-12T12:32:45Z</time></trkpt><trkpt lat="50.21061148999361" lon="3.738144115155678"><ele>168.75</ele><time>2026-04-12T12:32:47Z</time></trkpt><trkpt lat="50.21049124142619" lon="3.7381059426032426"><ele>168.5</ele><time>2026-04-12T12:32:49Z</time></trkpt><trkpt lat="50.21036998604081" lon="3.738068976174271"><ele>168.25</ele><time>2026-04-12T12:32:51Z</time></trkpt><trkpt lat="50.210242691625936" lon="3.7380436937781916"><ele>168.0</ele><time>2026-04-12T12:32:53Z</time></trkpt><trkpt lat="50.210113945338726" lon="3.73802455627516"><ele>168.0</ele><time>2026-04-12T12:32:55Z</time></trkpt><trkpt lat="50.210049358576" lon="3.7380106114877583"><ele>168.0</ele><time>2026-04-12T12:32:56Z</time></trkpt><trkpt lat="50.20998247218933" lon="3.737997088892614"><ele>168.0</ele><time>2026-04-12T12:32:57Z</time></trkpt><trkpt lat="50.20991506247615" lon="3.7379877734534563"><ele>168.0</ele><time>2026-04-12T12:32:58Z</time></trkpt><trkpt lat="50.20984683050141" lon="3.737977470872538"><ele>168.0</ele><time>2026-04-12T12:32:59Z</time></trkpt><trkpt lat="50.20978112481373" lon="3.7379601623056637"><ele>168.0</ele><time>2026-04-12T12:33:00Z</time></trkpt><trkpt lat="50.20971452453787" lon="3.7379504641554244"><ele>168.0</ele><time>2026-04-12T12:33:01Z</time></trkpt><trkpt lat="50.2096470482748" lon="3.7379457552722783"><ele>168.4</ele><time>2026-04-12T12:33:02Z</time></trkpt><trkpt lat="50.20958048158796" lon="3.737939910287303"><ele>168.8</ele><time>2026-04-12T12:33:03Z</time></trkpt><trkpt lat="50.2094617115815" lon="3.7379149572866943"><ele>169.2</ele><time>2026-04-12T12:33:05Z</time></trkpt><trkpt lat="50.20934525213504" lon="3.7378996485325175"><ele>169.6</ele><time>2026-04-12T12:33:07Z</time></trkpt><trkpt lat="50.209237582352465" lon="3.737882201611773"><ele>170.0</ele><time>2026-04-12T12:33:09Z</time></trkpt><trkpt lat="50.209138004090065" lon="3.737864461438005"><ele>170.0</ele><time>2026-04-12T12:33:11Z</time></trkpt><trkpt lat="50.209034540096454" lon="3.737846048746362"><ele>170.0</ele><time>2026-04-12T12:33:13Z</time></trkpt><trkpt lat="50.20892534136958" lon="3.7378286858047343"><ele>170.0</ele><time>2026-04-12T12:33:15Z</time></trkpt><trkpt lat="50.20882220665831" lon="3.737815177909539"><ele>170.0</ele><time>2026-04-12T12:33:17Z</time></trkpt><trkpt lat="50.20871381324434" lon="3.7377982585641014"><ele>170.0</ele><time>2026-04-12T12:33:19Z</time></trkpt><trkpt lat="50.20861076582078" lon="3.7377777793903886"><ele>169.6</ele><time>2026-04-12T12:33:21Z</time></trkpt><trkpt lat="50.20850580020615" lon="3.73776070012077"><ele>169.2</ele><time>2026-04-12T12:33:23Z</time></trkpt><trkpt lat="50.20840542282541" lon="3.737741472823254"><ele>168.8</ele><time>2026-04-12T12:33:25Z</time></trkpt><trkpt lat="50.208306078671725" lon="3.7377352667251524"><ele>168.4</ele><time>2026-04-12T12:33:27Z</time></trkpt><trkpt lat="50.20821197329667" lon="3.7377369674988596"><ele>168.0</ele><time>2026-04-12T12:33:29Z</time></trkpt><trkpt lat="50.20812590272711" lon="3.737702804027117"><ele>168.0</ele><time>2026-04-12T12:33:31Z</time></trkpt><trkpt lat="50.20803625628221" lon="3.737686507105333"><ele>168.0</ele><time>2026-04-12T12:33:33Z</time></trkpt><trkpt lat="50.2079466593914" lon="3.737669054285127"><ele>168.0</ele><time>2026-04-12T12:33:35Z</time></trkpt><trkpt lat="50.20786159623528" lon="3.7376473569684086"><ele>168.0</ele><time>2026-04-12T12:33:37Z</time></trkpt><trkpt lat="50.20777247646822" lon="3.737642959423267"><ele>168.0</ele><time>2026-04-12T12:33:39Z</time></trkpt><trkpt lat="50.20768392915435" lon="3.737633938530198"><ele>168.0</ele><time>2026-04-12T12:33:41.001Z</time></trkpt><trkpt lat="50.20760289798732" lon="3.737605988061596"><ele>168.0</ele><time>2026-04-12T12:33:43.001Z</time></trkpt><trkpt lat="50.20751736000482" lon="3.737591594902817"><ele>168.0</ele><time>2026-04-12T12:33:45.001Z</time></trkpt><trkpt lat="50.207428121468965" lon="3.737574073612028"><ele>168.0</ele><time>2026-04-12T12:33:47.001Z</time></trkpt><trkpt lat="50.207349125420606" lon="3.7375550243422766"><ele>168.0</ele><time>2026-04-12T12:33:49.001Z</time></trkpt><trkpt lat="50.20725707522135" lon="3.737559257633184"><ele>168.0</ele><time>2026-04-12T12:33:51Z</time></trkpt><trkpt lat="50.2071710647948" lon="3.7375384354276253"><ele>168.0</ele><time>2026-04-12T12:33:53Z</time></trkpt><trkpt lat="50.207090730808844" lon="3.73752317479897"><ele>167.66666666666666</ele><time>2026-04-12T12:33:55Z</time></trkpt><trkpt lat="50.207006254188826" lon="3.7375093648700943"><ele>167.33333333333334</ele><time>2026-04-12T12:33:57Z</time></trkpt><trkpt lat="50.20692544915994" lon="3.7374708998662314"><ele>167.0</ele><time>2026-04-12T12:33:59Z</time></trkpt><trkpt lat="50.20684735045501" lon="3.737429379404561"><ele>166.66666666666669</ele><time>2026-04-12T12:34:01Z</time></trkpt><trkpt lat="50.206767954368466" lon="3.737393246382405"><ele>166.33333333333334</ele><time>2026-04-12T12:34:03Z</time></trkpt><trkpt lat="50.20670488143881" lon="3.7373204098305854"><ele>166.0</ele><time>2026-04-12T12:34:05Z</time></trkpt><trkpt lat="50.2066330379741" lon="3.7372653527492044"><ele>166.0</ele><time>2026-04-12T12:34:07Z</time></trkpt><trkpt lat="50.206562705118515" lon="3.7372009444216427"><ele>166.0</ele><time>2026-04-12T12:34:09Z</time></trkpt><trkpt lat="50.206500095128156" lon="3.7371479066063373"><ele>166.0</ele><time>2026-04-12T12:34:11Z</time></trkpt><trkpt lat="50.206441914525676" lon="3.737071828608202"><ele>166.0</ele><time>2026-04-12T12:34:13Z</time></trkpt><trkpt lat="50.20638214467476" lon="3.7370145621608133"><ele>166.0</ele><time>2026-04-12T12:34:15Z</time></trkpt><trkpt lat="50.20632743438993" lon="3.736957551010061"><ele>166.0</ele><time>2026-04-12T12:34:17Z</time></trkpt><trkpt lat="50.20627251782319" lon="3.736908356388385"><ele>166.0</ele><time>2026-04-12T12:34:19Z</time></trkpt><trkpt lat="50.206215905248094" lon="3.73685351055614"><ele>166.33333333333334</ele><time>2026-04-12T12:34:21Z</time></trkpt><trkpt lat="50.20613246874764" lon="3.736775659784093"><ele>166.66666666666669</ele><time>2026-04-12T12:34:24Z</time></trkpt><trkpt lat="50.20607520363953" lon="3.736723131829173"><ele>167.0</ele><time>2026-04-12T12:34:26Z</time></trkpt><trkpt lat="50.206022129031986" lon="3.736669747097315"><ele>167.33333333333334</ele><time>2026-04-12T12:34:28Z</time></trkpt><trkpt lat="50.20593895576646" lon="3.7365887959484287"><ele>167.66666666666666</ele><time>2026-04-12T12:34:31Z</time></trkpt><trkpt lat="50.205857198416" lon="3.736525277415073"><ele>168.0</ele><time>2026-04-12T12:34:34Z</time></trkpt><trkpt lat="50.205798324263895" lon="3.7364662208608945"><ele>168.0</ele><time>2026-04-12T12:34:36Z</time></trkpt><trkpt lat="50.205743814239405" lon="3.736411228155298"><ele>168.0</ele><time>2026-04-12T12:34:38Z</time></trkpt><trkpt lat="50.20568327109666" lon="3.7363811704815064"><ele>168.0</ele><time>2026-04-12T12:34:40Z</time></trkpt><trkpt lat="50.20562707465817" lon="3.7363152480279886"><ele>168.0</ele><time>2026-04-12T12:34:42Z</time></trkpt><trkpt lat="50.205549825474215" lon="3.7362335350248483"><ele>168.0</ele><time>2026-04-12T12:34:45Z</time></trkpt><trkpt lat="50.20547631251892" lon="3.7361411808747826"><ele>168.0</ele><time>2026-04-12T12:34:48Z</time></trkpt><trkpt lat="50.20542166110333" lon="3.7360853205622195"><ele>168.14285714285714</ele><time>2026-04-12T12:34:50Z</time></trkpt><trkpt lat="50.20536811966264" lon="3.7360241861976946"><ele>168.28571428571428</ele><time>2026-04-12T12:34:52Z</time></trkpt><trkpt lat="50.205312920522886" lon="3.7359679699407855"><ele>168.42857142857144</ele><time>2026-04-12T12:34:54Z</time></trkpt><trkpt lat="50.205257349673374" lon="3.7359089075389003"><ele>168.57142857142856</ele><time>2026-04-12T12:34:56Z</time></trkpt><trkpt lat="50.20519714904953" lon="3.7358451469213825"><ele>168.71428571428572</ele><time>2026-04-12T12:34:58Z</time></trkpt><trkpt lat="50.20513808122726" lon="3.73578337601707"><ele>168.85714285714286</ele><time>2026-04-12T12:35:00Z</time></trkpt><trkpt lat="50.20507484659793" lon="3.7357189727213256"><ele>169.0</ele><time>2026-04-12T12:35:02Z</time></trkpt><trkpt lat="50.2050166995677" lon="3.7356496988210837"><ele>169.0</ele><time>2026-04-12T12:35:04Z</time></trkpt><trkpt lat="50.204953687462" lon="3.735580683832518"><ele>169.0</ele><time>2026-04-12T12:35:06Z</time></trkpt><trkpt lat="50.204891305552586" lon="3.735519908890376"><ele>169.0</ele><time>2026-04-12T12:35:08Z</time></trkpt><trkpt lat="50.20482356849322" lon="3.7354534420883234"><ele>169.0</ele><time>2026-04-12T12:35:10Z</time></trkpt><trkpt lat="50.204753639998856" lon="3.7354008357374426"><ele>169.0</ele><time>2026-04-12T12:35:12Z</time></trkpt><trkpt lat="50.204691548567446" lon="3.7353381349324963"><ele>169.0</ele><time>2026-04-12T12:35:14Z</time></trkpt><trkpt lat="50.20461833010331" lon="3.735278737225838"><ele>169.33333333333334</ele><time>2026-04-12T12:35:16Z</time></trkpt><trkpt lat="50.20455981120906" lon="3.7351990124178105"><ele>169.66666666666669</ele><time>2026-04-12T12:35:18Z</time></trkpt><trkpt lat="50.204495540310745" lon="3.735121431761362"><ele>170.0</ele><time>2026-04-12T12:35:20Z</time></trkpt><trkpt lat="50.204428821462315" lon="3.735057109901042"><ele>170.33333333333334</ele><time>2026-04-12T12:35:22Z</time></trkpt><trkpt lat="50.20436114397095" lon="3.7349929108920503"><ele>170.66666666666666</ele><time>2026-04-12T12:35:24Z</time></trkpt><trkpt lat="50.204284510109936" lon="3.734934701706731"><ele>171.0</ele><time>2026-04-12T12:35:26Z</time></trkpt><trkpt lat="50.204223160609466" lon="3.734846587403433"><ele>171.0</ele><time>2026-04-12T12:35:28Z</time></trkpt><trkpt lat="50.2041361026264" lon="3.7347804628938"><ele>171.0</ele><time>2026-04-12T12:35:30Z</time></trkpt><trkpt lat="50.204064088814775" lon="3.734689627068505"><ele>171.0</ele><time>2026-04-12T12:35:32Z</time></trkpt><trkpt lat="50.203976794248035" lon="3.734609725218763"><ele>171.0</ele><time>2026-04-12T12:35:34Z</time></trkpt><trkpt lat="50.203904983210776" lon="3.7345270365364223"><ele>171.0</ele><time>2026-04-12T12:35:36Z</time></trkpt><trkpt lat="50.20382788236114" lon="3.7344482922214453"><ele>170.8</ele><time>2026-04-12T12:35:38Z</time></trkpt><trkpt lat="50.203751192211264" lon="3.734377341269664"><ele>170.60000000000002</ele><time>2026-04-12T12:35:40Z</time></trkpt><trkpt lat="50.20367765866438" lon="3.734301963061417"><ele>170.4</ele><time>2026-04-12T12:35:42Z</time></trkpt><trkpt lat="50.20360419734181" lon="3.7342236600554726"><ele>170.2</ele><time>2026-04-12T12:35:44Z</time></trkpt><trkpt lat="50.20352396677483" lon="3.734138344099418"><ele>170.0</ele><time>2026-04-12T12:35:46Z</time></trkpt><trkpt lat="50.20344162950675" lon="3.7340619530347507"><ele>170.0</ele><time>2026-04-12T12:35:48Z</time></trkpt><trkpt lat="50.20336593655606" lon="3.733979152314886"><ele>170.0</ele><time>2026-04-12T12:35:50Z</time></trkpt><trkpt lat="50.203281486969864" lon="3.7338979525246794"><ele>170.0</ele><time>2026-04-12T12:35:52Z</time></trkpt><trkpt lat="50.20320440551301" lon="3.7338151918382545"><ele>170.0</ele><time>2026-04-12T12:35:54Z</time></trkpt><trkpt lat="50.203119082702564" lon="3.733735419610357"><ele>170.0</ele><time>2026-04-12T12:35:56Z</time></trkpt><trkpt lat="50.20304385403279" lon="3.733647823415654"><ele>169.6</ele><time>2026-04-12T12:35:58Z</time></trkpt><trkpt lat="50.20296255542306" lon="3.7335618003443853"><ele>169.2</ele><time>2026-04-12T12:36:00Z</time></trkpt><trkpt lat="50.20287759167068" lon="3.7334870125866586"><ele>168.8</ele><time>2026-04-12T12:36:02Z</time></trkpt><trkpt lat="50.20279849685332" lon="3.7334048210853115"><ele>168.4</ele><time>2026-04-12T12:36:04Z</time></trkpt><trkpt lat="50.20271914883674" lon="3.7333275995359325"><ele>168.0</ele><time>2026-04-12T12:36:06Z</time></trkpt><trkpt lat="50.20263952304497" lon="3.733251834544603"><ele>168.0</ele><time>2026-04-12T12:36:08Z</time></trkpt><trkpt lat="50.2025634118375" lon="3.7331656691788373"><ele>168.0</ele><time>2026-04-12T12:36:10Z</time></trkpt><trkpt lat="50.202477861247" lon="3.733088287823659"><ele>168.0</ele><time>2026-04-12T12:36:12Z</time></trkpt><trkpt lat="50.2023919751468" lon="3.733007107796657"><ele>168.0</ele><time>2026-04-12T12:36:14Z</time></trkpt><trkpt lat="50.20230927016118" lon="3.7329237075141175"><ele>168.0</ele><time>2026-04-12T12:36:16Z</time></trkpt><trkpt lat="50.20222689221545" lon="3.732838042619625"><ele>168.2</ele><time>2026-04-12T12:36:18Z</time></trkpt><trkpt lat="50.20214612322983" lon="3.7327532027473653"><ele>168.4</ele><time>2026-04-12T12:36:20Z</time></trkpt><trkpt lat="50.202064396191126" lon="3.7326775272783146"><ele>168.6</ele><time>2026-04-12T12:36:22Z</time></trkpt><trkpt lat="50.20197936213913" lon="3.7325876284563595"><ele>168.79999999999998</ele><time>2026-04-12T12:36:24Z</time></trkpt><trkpt lat="50.20189168005885" lon="3.7324994738771866"><ele>169.0</ele><time>2026-04-12T12:36:26Z</time></trkpt><trkpt lat="50.20180515487565" lon="3.7324153181126842"><ele>169.0</ele><time>2026-04-12T12:36:28Z</time></trkpt><trkpt lat="50.20171030456646" lon="3.7323341405504986"><ele>169.0</ele><time>2026-04-12T12:36:30Z</time></trkpt><trkpt lat="50.20163227275871" lon="3.7322388183327107"><ele>169.0</ele><time>2026-04-12T12:36:32Z</time></trkpt><trkpt lat="50.20153672796442" lon="3.732155381759292"><ele>169.0</ele><time>2026-04-12T12:36:34Z</time></trkpt><trkpt lat="50.201452246392414" lon="3.732066074528238"><ele>169.0</ele><time>2026-04-12T12:36:36Z</time></trkpt><trkpt lat="50.20136247930217" lon="3.731980108995067"><ele>169.6</ele><time>2026-04-12T12:36:38Z</time></trkpt><trkpt lat="50.20127309360399" lon="3.731901633135534"><ele>170.2</ele><time>2026-04-12T12:36:40Z</time></trkpt><trkpt lat="50.201180575879995" lon="3.731831020178877"><ele>170.79999999999998</ele><time>2026-04-12T12:36:42Z</time></trkpt><trkpt lat="50.20111001510676" lon="3.731734001145449"><ele>171.39999999999998</ele><time>2026-04-12T12:36:44Z</time></trkpt><trkpt lat="50.201024854069324" lon="3.731650552061419"><ele>172.0</ele><time>2026-04-12T12:36:46Z</time></trkpt><trkpt lat="50.20094187249976" lon="3.7315649466225427"><ele>172.0</ele><time>2026-04-12T12:36:48Z</time></trkpt><trkpt lat="50.20085295947845" lon="3.7314904437896708"><ele>172.0</ele><time>2026-04-12T12:36:50Z</time></trkpt><trkpt lat="50.20077796445155" lon="3.7314220462350645"><ele>172.0</ele><time>2026-04-12T12:36:52Z</time></trkpt><trkpt lat="50.20070978504929" lon="3.731344194330888"><ele>172.0</ele><time>2026-04-12T12:36:54Z</time></trkpt><trkpt lat="50.200645880590514" lon="3.7312705169635216"><ele>172.0</ele><time>2026-04-12T12:36:56Z</time></trkpt><trkpt lat="50.20057585001939" lon="3.731202786494419"><ele>172.0</ele><time>2026-04-12T12:36:58Z</time></trkpt><trkpt lat="50.2005078024615" lon="3.7311316759482107"><ele>172.16666666666669</ele><time>2026-04-12T12:37:00Z</time></trkpt><trkpt lat="50.200441841894744" lon="3.731072204323905"><ele>172.33333333333334</ele><time>2026-04-12T12:37:02Z</time></trkpt><trkpt lat="50.20036754812412" lon="3.730997888266593"><ele>172.5</ele><time>2026-04-12T12:37:05Z</time></trkpt><trkpt lat="50.20030060255831" lon="3.7309522200992578"><ele>172.66666666666666</ele><time>2026-04-12T12:37:08Z</time></trkpt><trkpt lat="50.20023772094149" lon="3.73088805371965"><ele>172.83333333333331</ele><time>2026-04-12T12:37:11Z</time></trkpt><trkpt lat="50.20015647780014" lon="3.7308215318371776"><ele>173.0</ele><time>2026-04-12T12:37:14Z</time></trkpt><trkpt lat="50.20008760502977" lon="3.73074221527869"><ele>173.66666666666666</ele><time>2026-04-12T12:37:17Z</time></trkpt><trkpt lat="50.20001757250391" lon="3.730707752525197"><ele>174.33333333333331</ele><time>2026-04-12T12:37:20Z</time></trkpt><trkpt lat="50.19996145252704" lon="3.730662575077975"><ele>175.0</ele><time>2026-04-12T12:37:22Z</time></trkpt><trkpt lat="50.19991556136196" lon="3.730559606041642"><ele>175.66666666666666</ele><time>2026-04-12T12:37:25Z</time></trkpt><trkpt lat="50.199852821737714" lon="3.7304760987819607"><ele>176.33333333333334</ele><time>2026-04-12T12:37:27Z</time></trkpt><trkpt lat="50.19976794909751" lon="3.7304033209394496"><ele>177.0</ele><time>2026-04-12T12:37:29Z</time></trkpt><trkpt lat="50.19967715219242" lon="3.7303148215322106"><ele>177.2</ele><time>2026-04-12T12:37:31Z</time></trkpt><trkpt lat="50.19957686157013" lon="3.730213630770406"><ele>177.39999999999998</ele><time>2026-04-12T12:37:33Z</time></trkpt><trkpt lat="50.19946955076292" lon="3.7301077292057165"><ele>177.60000000000002</ele><time>2026-04-12T12:37:35Z</time></trkpt><trkpt lat="50.1994130975135" lon="3.730050253498148"><ele>177.8</ele><time>2026-04-12T12:37:36Z</time></trkpt><trkpt lat="50.19935694677623" lon="3.72999730487877"><ele>178.0</ele><time>2026-04-12T12:37:37Z</time></trkpt><trkpt lat="50.19929877379002" lon="3.7299330455123716"><ele>177.99999999999997</ele><time>2026-04-12T12:37:38Z</time></trkpt><trkpt lat="50.199239001575144" lon="3.7298718002424036"><ele>178.0</ele><time>2026-04-12T12:37:39Z</time></trkpt><trkpt lat="50.1991801279846" lon="3.7298105503270933"><ele>178.0</ele><time>2026-04-12T12:37:40Z</time></trkpt><trkpt lat="50.19911754885172" lon="3.729749304456012"><ele>178.0</ele><time>2026-04-12T12:37:41Z</time></trkpt><trkpt lat="50.1990597509639" lon="3.7296867613352016"><ele>178.0</ele><time>2026-04-12T12:37:42Z</time></trkpt><trkpt lat="50.19899753772517" lon="3.7296226103339873"><ele>177.99999999999997</ele><time>2026-04-12T12:37:43Z</time></trkpt><trkpt lat="50.19893844931214" lon="3.7295661592126157"><ele>178.0</ele><time>2026-04-12T12:37:44Z</time></trkpt><trkpt lat="50.19887583970701" lon="3.7295097726449167"><ele>177.7142857142857</ele><time>2026-04-12T12:37:45Z</time></trkpt><trkpt lat="50.19881424144928" lon="3.7294427734895215"><ele>177.42857142857142</ele><time>2026-04-12T12:37:46Z</time></trkpt><trkpt lat="50.19875156619423" lon="3.7293822147961793"><ele>177.14285714285714</ele><time>2026-04-12T12:37:47Z</time></trkpt><trkpt lat="50.19868918574494" lon="3.7293223601152627"><ele>176.85714285714283</ele><time>2026-04-12T12:37:48Z</time></trkpt><trkpt lat="50.19862772798869" lon="3.729258506930167"><ele>176.57142857142856</ele><time>2026-04-12T12:37:49Z</time></trkpt><trkpt lat="50.198560637841304" lon="3.729195951761025"><ele>176.28571428571428</ele><time>2026-04-12T12:37:50Z</time></trkpt><trkpt lat="50.19849827010879" lon="3.7291299045360375"><ele>176.0</ele><time>2026-04-12T12:37:51Z</time></trkpt><trkpt lat="50.198427612933585" lon="3.7290655906615755"><ele>175.83333333333331</ele><time>2026-04-12T12:37:52Z</time></trkpt><trkpt lat="50.19835739624021" lon="3.7289954045361378"><ele>175.66666666666666</ele><time>2026-04-12T12:37:53Z</time></trkpt><trkpt lat="50.19828110805657" lon="3.7289225665489165"><ele>175.5</ele><time>2026-04-12T12:37:54Z</time></trkpt><trkpt lat="50.19820484223963" lon="3.728846247513666"><ele>175.33333333333334</ele><time>2026-04-12T12:37:55Z</time></trkpt><trkpt lat="50.19813567958531" lon="3.7287708689457824"><ele>175.16666666666669</ele><time>2026-04-12T12:37:56Z</time></trkpt><trkpt lat="50.19806226902764" lon="3.728701464214846"><ele>175.0</ele><time>2026-04-12T12:37:57Z</time></trkpt><trkpt lat="50.19798758238672" lon="3.728628051535805"><ele>174.33333333333334</ele><time>2026-04-12T12:37:58Z</time></trkpt><trkpt lat="50.19791321464782" lon="3.728557371162289"><ele>173.66666666666669</ele><time>2026-04-12T12:37:59Z</time></trkpt><trkpt lat="50.197836787867" lon="3.7284826116305436"><ele>173.0</ele><time>2026-04-12T12:38:00Z</time></trkpt><trkpt lat="50.19776943547413" lon="3.7284134249189522"><ele>172.33333333333334</ele><time>2026-04-12T12:38:01Z</time></trkpt><trkpt lat="50.197698147015494" lon="3.728349881758447"><ele>171.66666666666666</ele><time>2026-04-12T12:38:02Z</time></trkpt><trkpt lat="50.19763677324703" lon="3.728280933211804"><ele>171.0</ele><time>2026-04-12T12:38:03Z</time></trkpt><trkpt lat="50.19757242166074" lon="3.728214904133284"><ele>170.99999999999997</ele><time>2026-04-12T12:38:04Z</time></trkpt><trkpt lat="50.19750546228408" lon="3.7281407501293495"><ele>171.0</ele><time>2026-04-12T12:38:05Z</time></trkpt><trkpt lat="50.19744117175409" lon="3.7280877194350843"><ele>171.0</ele><time>2026-04-12T12:38:06Z</time></trkpt><trkpt lat="50.19737889770158" lon="3.728029297535688"><ele>171.0</ele><time>2026-04-12T12:38:07Z</time></trkpt><trkpt lat="50.197319530274584" lon="3.7279718350997553"><ele>171.0</ele><time>2026-04-12T12:38:08Z</time></trkpt><trkpt lat="50.19725708571618" lon="3.727916816684668"><ele>170.99999999999997</ele><time>2026-04-12T12:38:09Z</time></trkpt><trkpt lat="50.19720047862958" lon="3.727858686760759"><ele>171.0</ele><time>2026-04-12T12:38:10Z</time></trkpt><trkpt lat="50.19714662521549" lon="3.7277997320110363"><ele>171.4</ele><time>2026-04-12T12:38:11Z</time></trkpt><trkpt lat="50.19708979434217" lon="3.727743632621962"><ele>171.8</ele><time>2026-04-12T12:38:12Z</time></trkpt><trkpt lat="50.19698993427802" lon="3.7276399835179954"><ele>172.20000000000002</ele><time>2026-04-12T12:38:14Z</time></trkpt><trkpt lat="50.196893780558604" lon="3.727555842495859"><ele>172.60000000000002</ele><time>2026-04-12T12:38:16Z</time></trkpt><trkpt lat="50.196808941708646" lon="3.7274734236812868"><ele>173.0</ele><time>2026-04-12T12:38:18Z</time></trkpt><trkpt lat="50.19672159304948" lon="3.7273868242099235"><ele>173.2</ele><time>2026-04-12T12:38:20Z</time></trkpt><trkpt lat="50.19662900144195" lon="3.727300701999565"><ele>173.4</ele><time>2026-04-12T12:38:22Z</time></trkpt><trkpt lat="50.19653743002459" lon="3.727209510902609"><ele>173.6</ele><time>2026-04-12T12:38:24Z</time></trkpt><trkpt lat="50.19644660570075" lon="3.7271247808345747"><ele>173.79999999999998</ele><time>2026-04-12T12:38:26Z</time></trkpt><trkpt lat="50.1963565741795" lon="3.727030037824871"><ele>174.0</ele><time>2026-04-12T12:38:28Z</time></trkpt><trkpt lat="50.19626035333251" lon="3.726930844778024"><ele>174.6</ele><time>2026-04-12T12:38:30Z</time></trkpt><trkpt lat="50.196166398815876" lon="3.726833583889368"><ele>175.2</ele><time>2026-04-12T12:38:32Z</time></trkpt><trkpt lat="50.19607888840711" lon="3.7267525510119928"><ele>175.79999999999998</ele><time>2026-04-12T12:38:34Z</time></trkpt><trkpt lat="50.19599093742061" lon="3.7266591866814065"><ele>176.39999999999998</ele><time>2026-04-12T12:38:36Z</time></trkpt><trkpt lat="50.19590527480077" lon="3.726565963942034"><ele>177.0</ele><time>2026-04-12T12:38:38Z</time></trkpt><trkpt lat="50.195821309590414" lon="3.7264896019451474"><ele>177.0</ele><time>2026-04-12T12:38:40Z</time></trkpt><trkpt lat="50.1957310352134" lon="3.7264002468211093"><ele>177.0</ele><time>2026-04-12T12:38:42Z</time></trkpt><trkpt lat="50.19565118246241" lon="3.726325046318417"><ele>177.0</ele><time>2026-04-12T12:38:44Z</time></trkpt><trkpt lat="50.195563253819536" lon="3.72624804162286"><ele>177.0</ele><time>2026-04-12T12:38:46Z</time></trkpt><trkpt lat="50.19548988330651" lon="3.726161798623763"><ele>177.0</ele><time>2026-04-12T12:38:48Z</time></trkpt><trkpt lat="50.195411677471824" lon="3.7260848076140083"><ele>177.0</ele><time>2026-04-12T12:38:50Z</time></trkpt><trkpt lat="50.195333507591656" lon="3.726009435051656"><ele>177.0</ele><time>2026-04-12T12:38:52Z</time></trkpt><trkpt lat="50.19525803099073" lon="3.7259256756671437"><ele>177.0</ele><time>2026-04-12T12:38:54Z</time></trkpt><trkpt lat="50.19517955153066" lon="3.7258546833886177"><ele>177.0</ele><time>2026-04-12T12:38:56Z</time></trkpt><trkpt lat="50.19510546979766" lon="3.7257799327667"><ele>177.0</ele><time>2026-04-12T12:38:58Z</time></trkpt><trkpt lat="50.195034043519755" lon="3.7257020640658554"><ele>177.0</ele><time>2026-04-12T12:39:00Z</time></trkpt><trkpt lat="50.19495694818323" lon="3.7256138319694863"><ele>177.0</ele><time>2026-04-12T12:39:02Z</time></trkpt><trkpt lat="50.19488097666406" lon="3.7255499105666554"><ele>177.0</ele><time>2026-04-12T12:39:04Z</time></trkpt><trkpt lat="50.19480855151541" lon="3.7254716885807193"><ele>177.0</ele><time>2026-04-12T12:39:06Z</time></trkpt><trkpt lat="50.19473172517813" lon="3.72540756398163"><ele>177.0</ele><time>2026-04-12T12:39:08Z</time></trkpt><trkpt lat="50.19466010647397" lon="3.7253437781721805"><ele>177.0</ele><time>2026-04-12T12:39:10Z</time></trkpt><trkpt lat="50.19459170356583" lon="3.7252649247174143"><ele>177.0</ele><time>2026-04-12T12:39:12Z</time></trkpt><trkpt lat="50.19452182156656" lon="3.725195567549726"><ele>177.0</ele><time>2026-04-12T12:39:14Z</time></trkpt><trkpt lat="50.19444810842466" lon="3.725121206055159"><ele>177.0</ele><time>2026-04-12T12:39:16Z</time></trkpt><trkpt lat="50.19437843520514" lon="3.725051264117115"><ele>177.0</ele><time>2026-04-12T12:39:18Z</time></trkpt><trkpt lat="50.19430848167926" lon="3.7249786938473157"><ele>177.0</ele><time>2026-04-12T12:39:20Z</time></trkpt><trkpt lat="50.19423328038793" lon="3.7249025040331314"><ele>177.0</ele><time>2026-04-12T12:39:22Z</time></trkpt><trkpt lat="50.19415865579547" lon="3.7248302009925673"><ele>177.0</ele><time>2026-04-12T12:39:24Z</time></trkpt><trkpt lat="50.194082842770406" lon="3.7247528080941534"><ele>177.0</ele><time>2026-04-12T12:39:26Z</time></trkpt><trkpt lat="50.194009114597925" lon="3.7246779643931793"><ele>177.0</ele><time>2026-04-12T12:39:28Z</time></trkpt><trkpt lat="50.193931708468575" lon="3.7246028201794013"><ele>177.0</ele><time>2026-04-12T12:39:30Z</time></trkpt><trkpt lat="50.19385661795175" lon="3.7245268693877196"><ele>177.0</ele><time>2026-04-12T12:39:32Z</time></trkpt><trkpt lat="50.19377385208807" lon="3.72444624763981"><ele>177.6</ele><time>2026-04-12T12:39:34Z</time></trkpt><trkpt lat="50.193690266667474" lon="3.7243605242634144"><ele>178.2</ele><time>2026-04-12T12:39:36Z</time></trkpt><trkpt lat="50.193606511913224" lon="3.7242748026844295"><ele>178.8</ele><time>2026-04-12T12:39:38Z</time></trkpt><trkpt lat="50.193520505292085" lon="3.7241981991376485"><ele>179.4</ele><time>2026-04-12T12:39:40Z</time></trkpt><trkpt lat="50.193440188540606" lon="3.7241146045557"><ele>180.0</ele><time>2026-04-12T12:39:42Z</time></trkpt><trkpt lat="50.193359587342925" lon="3.7240299816514826"><ele>180.0</ele><time>2026-04-12T12:39:44Z</time></trkpt><trkpt lat="50.19328049429081" lon="3.723947687017822"><ele>180.0</ele><time>2026-04-12T12:39:46Z</time></trkpt><trkpt lat="50.19320070298597" lon="3.723867454397605"><ele>180.0</ele><time>2026-04-12T12:39:48Z</time></trkpt><trkpt lat="50.19311729957397" lon="3.723790182253591"><ele>180.0</ele><time>2026-04-12T12:39:50Z</time></trkpt><trkpt lat="50.19304047090566" lon="3.723712239276215"><ele>180.0</ele><time>2026-04-12T12:39:52Z</time></trkpt><trkpt lat="50.19295979174708" lon="3.723628330878745"><ele>180.0</ele><time>2026-04-12T12:39:53.999Z</time></trkpt><trkpt lat="50.19287824791042" lon="3.723543848536979"><ele>180.0</ele><time>2026-04-12T12:39:55.999Z</time></trkpt><trkpt lat="50.19280194525995" lon="3.7234670502667444"><ele>180.0</ele><time>2026-04-12T12:39:58Z</time></trkpt><trkpt lat="50.19271907285652" lon="3.723393230408372"><ele>180.0</ele><time>2026-04-12T12:40:00Z</time></trkpt><trkpt lat="50.192636539263155" lon="3.7233082072933534"><ele>180.0</ele><time>2026-04-12T12:40:02Z</time></trkpt><trkpt lat="50.1925568535822" lon="3.723219189151975"><ele>180.0</ele><time>2026-04-12T12:40:04Z</time></trkpt><trkpt lat="50.192475882565944" lon="3.723137750280751"><ele>180.0</ele><time>2026-04-12T12:40:06Z</time></trkpt><trkpt lat="50.19239332309999" lon="3.723057224226495"><ele>180.0</ele><time>2026-04-12T12:40:08Z</time></trkpt><trkpt lat="50.19231851049699" lon="3.722983781977845"><ele>180.0</ele><time>2026-04-12T12:40:10Z</time></trkpt><trkpt lat="50.19223078153582" lon="3.722893201356225"><ele>180.0</ele><time>2026-04-12T12:40:12Z</time></trkpt><trkpt lat="50.19214449905172" lon="3.7228102435666415"><ele>179.4</ele><time>2026-04-12T12:40:14Z</time></trkpt><trkpt lat="50.19206627095775" lon="3.722722662184947"><ele>178.8</ele><time>2026-04-12T12:40:16Z</time></trkpt><trkpt lat="50.19198074405859" lon="3.7226437277881095"><ele>178.2</ele><time>2026-04-12T12:40:18Z</time></trkpt><trkpt lat="50.19189741994687" lon="3.722564418462304"><ele>177.6</ele><time>2026-04-12T12:40:20Z</time></trkpt><trkpt lat="50.19180897844589" lon="3.722471854051096"><ele>177.0</ele><time>2026-04-12T12:40:22Z</time></trkpt><trkpt lat="50.191721672701135" lon="3.7223784746215047"><ele>177.0</ele><time>2026-04-12T12:40:24Z</time></trkpt><trkpt lat="50.19163679836875" lon="3.722303528938386"><ele>177.0</ele><time>2026-04-12T12:40:26Z</time></trkpt><trkpt lat="50.19154347172261" lon="3.7222094477038046"><ele>177.0</ele><time>2026-04-12T12:40:28Z</time></trkpt><trkpt lat="50.19145749671438" lon="3.7221182886654405"><ele>177.0</ele><time>2026-04-12T12:40:30Z</time></trkpt><trkpt lat="50.19136812630837" lon="3.722038915700519"><ele>177.0</ele><time>2026-04-12T12:40:32Z</time></trkpt><trkpt lat="50.191280430537944" lon="3.721943667632572"><ele>177.6</ele><time>2026-04-12T12:40:34Z</time></trkpt><trkpt lat="50.19118759583344" lon="3.721855323467419"><ele>178.2</ele><time>2026-04-12T12:40:36Z</time></trkpt><trkpt lat="50.19109428378147" lon="3.7217632261047964"><ele>178.8</ele><time>2026-04-12T12:40:38Z</time></trkpt><trkpt lat="50.191001711480574" lon="3.7216691127734327"><ele>179.4</ele><time>2026-04-12T12:40:40Z</time></trkpt><trkpt lat="50.19090709991874" lon="3.72158109658036"><ele>180.0</ele><time>2026-04-12T12:40:42Z</time></trkpt><trkpt lat="50.19081502471775" lon="3.7214943351358793"><ele>180.0</ele><time>2026-04-12T12:40:44Z</time></trkpt><trkpt lat="50.190725816044306" lon="3.721396756463931"><ele>180.0</ele><time>2026-04-12T12:40:46Z</time></trkpt><trkpt lat="50.1906354215801" lon="3.7213126860222263"><ele>180.0</ele><time>2026-04-12T12:40:48Z</time></trkpt><trkpt lat="50.190546192303486" lon="3.7212364470415498"><ele>180.0</ele><time>2026-04-12T12:40:50Z</time></trkpt><trkpt lat="50.19046130411167" lon="3.721145473729218"><ele>180.0</ele><time>2026-04-12T12:40:52Z</time></trkpt><trkpt lat="50.19036809567509" lon="3.721069961339498"><ele>179.2</ele><time>2026-04-12T12:40:54Z</time></trkpt><trkpt lat="50.19029464516816" lon="3.7209768729640027"><ele>178.4</ele><time>2026-04-12T12:40:56Z</time></trkpt><trkpt lat="50.19021062491154" lon="3.7208970515617845"><ele>177.60000000000002</ele><time>2026-04-12T12:40:58Z</time></trkpt><trkpt lat="50.19011991204683" lon="3.72081260927229"><ele>176.8</ele><time>2026-04-12T12:41:00Z</time></trkpt><trkpt lat="50.19002602474363" lon="3.7207248616334696"><ele>176.0</ele><time>2026-04-12T12:41:02Z</time></trkpt><trkpt lat="50.18993284894014" lon="3.7206277027000763"><ele>175.20000000000002</ele><time>2026-04-12T12:41:04Z</time></trkpt><trkpt lat="50.18983928252466" lon="3.720530872131496"><ele>174.4</ele><time>2026-04-12T12:41:06Z</time></trkpt><trkpt lat="50.18974651904131" lon="3.7204435576381933"><ele>173.6</ele><time>2026-04-12T12:41:08Z</time></trkpt><trkpt lat="50.18965529017669" lon="3.7203561703569465"><ele>172.8</ele><time>2026-04-12T12:41:10Z</time></trkpt><trkpt lat="50.189572250582415" lon="3.7202518454979856"><ele>172.0</ele><time>2026-04-12T12:41:12Z</time></trkpt><trkpt lat="50.18951154733294" lon="3.7201412676509737"><ele>172.0</ele><time>2026-04-12T12:41:14Z</time></trkpt><trkpt lat="50.189475117613604" lon="3.7200283585276543"><ele>172.0</ele><time>2026-04-12T12:41:16Z</time></trkpt><trkpt lat="50.189444133396236" lon="3.719940365743115"><ele>172.0</ele><time>2026-04-12T12:41:18Z</time></trkpt><trkpt lat="50.18937859843871" lon="3.7198638235363273"><ele>172.0</ele><time>2026-04-12T12:41:28Z</time></trkpt><trkpt lat="50.18928290060725" lon="3.7198856998319725"><ele>172.0</ele><time>2026-04-12T12:41:31Z</time></trkpt><trkpt lat="50.189212701416444" lon="3.719954798204323"><ele>172.0</ele><time>2026-04-12T12:41:33Z</time></trkpt><trkpt lat="50.1891292832528" lon="3.7200216170545684"><ele>172.0</ele><time>2026-04-12T12:41:35Z</time></trkpt><trkpt lat="50.18903209166619" lon="3.7201173804942322"><ele>172.0</ele><time>2026-04-12T12:41:37Z</time></trkpt><trkpt lat="50.18897853641328" lon="3.7201741349942012"><ele>172.0</ele><time>2026-04-12T12:41:38Z</time></trkpt><trkpt lat="50.188924261720764" lon="3.7202357004303224"><ele>172.0</ele><time>2026-04-12T12:41:39Z</time></trkpt><trkpt lat="50.18886874057475" lon="3.7202990225213957"><ele>172.0</ele><time>2026-04-12T12:41:40Z</time></trkpt><trkpt lat="50.18881070201659" lon="3.7203665342464136"><ele>172.0</ele><time>2026-04-12T12:41:41Z</time></trkpt><trkpt lat="50.18875400425644" lon="3.720439691150436"><ele>171.0</ele><time>2026-04-12T12:41:42Z</time></trkpt><trkpt lat="50.188698282449124" lon="3.720513657543787"><ele>170.0</ele><time>2026-04-12T12:41:43Z</time></trkpt><trkpt lat="50.18863365280368" lon="3.720588971873122"><ele>169.0</ele><time>2026-04-12T12:41:44Z</time></trkpt><trkpt lat="50.18856800073119" lon="3.720667290832678"><ele>168.0</ele><time>2026-04-12T12:41:45Z</time></trkpt><trkpt lat="50.18850266328708" lon="3.7207447841499626"><ele>167.0</ele><time>2026-04-12T12:41:46Z</time></trkpt><trkpt lat="50.18844002232358" lon="3.7208215825484303"><ele>166.0</ele><time>2026-04-12T12:41:47Z</time></trkpt><trkpt lat="50.18837384396847" lon="3.720898108538959"><ele>166.0</ele><time>2026-04-12T12:41:48Z</time></trkpt><trkpt lat="50.18831077403873" lon="3.7209717694111792"><ele>166.0</ele><time>2026-04-12T12:41:49Z</time></trkpt><trkpt lat="50.188249282357106" lon="3.7210470904311372"><ele>166.0</ele><time>2026-04-12T12:41:50Z</time></trkpt><trkpt lat="50.18818668741602" lon="3.721119315134312"><ele>166.0</ele><time>2026-04-12T12:41:51Z</time></trkpt><trkpt lat="50.188130423001915" lon="3.721186640184966"><ele>166.0</ele><time>2026-04-12T12:41:52Z</time></trkpt><trkpt lat="50.18807181999039" lon="3.7212525163682915"><ele>166.0</ele><time>2026-04-12T12:41:53Z</time></trkpt><trkpt lat="50.18801786206587" lon="3.7213210510360994"><ele>166.0</ele><time>2026-04-12T12:41:54Z</time></trkpt><trkpt lat="50.187964372216804" lon="3.7213805557728143"><ele>166.5</ele><time>2026-04-12T12:41:55Z</time></trkpt><trkpt lat="50.18791266785204" lon="3.7214388692216382"><ele>167.0</ele><time>2026-04-12T12:41:56Z</time></trkpt><trkpt lat="50.18780798917363" lon="3.721558241424059"><ele>167.5</ele><time>2026-04-12T12:41:58Z</time></trkpt><trkpt lat="50.18775738587852" lon="3.7216178698105016"><ele>168.0</ele><time>2026-04-12T12:41:59Z</time></trkpt><trkpt lat="50.18770617481274" lon="3.721677041867288"><ele>168.5</ele><time>2026-04-12T12:42:00Z</time></trkpt><trkpt lat="50.187609274158916" lon="3.72179258598858"><ele>169.0</ele><time>2026-04-12T12:42:02Z</time></trkpt><trkpt lat="50.18751056430016" lon="3.721900704018934"><ele>169.6</ele><time>2026-04-12T12:42:04Z</time></trkpt><trkpt lat="50.18741813496645" lon="3.7220062954366937"><ele>170.2</ele><time>2026-04-12T12:42:06Z</time></trkpt><trkpt lat="50.18733089045253" lon="3.722102983687899"><ele>170.79999999999998</ele><time>2026-04-12T12:42:08Z</time></trkpt><trkpt lat="50.18724259837414" lon="3.7221971210397733"><ele>171.39999999999998</ele><time>2026-04-12T12:42:10Z</time></trkpt><trkpt lat="50.187156352746015" lon="3.7222909928972507"><ele>172.0</ele><time>2026-04-12T12:42:12Z</time></trkpt><trkpt lat="50.1870688836973" lon="3.722381917165957"><ele>172.0</ele><time>2026-04-12T12:42:14Z</time></trkpt><trkpt lat="50.18698284563257" lon="3.7224699246393342"><ele>172.0</ele><time>2026-04-12T12:42:16Z</time></trkpt><trkpt lat="50.18689888664783" lon="3.722541783171046"><ele>172.0</ele><time>2026-04-12T12:42:18Z</time></trkpt><trkpt lat="50.186819042508304" lon="3.7226174430193897"><ele>172.0</ele><time>2026-04-12T12:42:20Z</time></trkpt><trkpt lat="50.18674727043223" lon="3.7226853245442717"><ele>172.0</ele><time>2026-04-12T12:42:22Z</time></trkpt><trkpt lat="50.18667268616344" lon="3.7227540407253796"><ele>172.0</ele><time>2026-04-12T12:42:24Z</time></trkpt><trkpt lat="50.18660318583032" lon="3.7228123028257696"><ele>172.0</ele><time>2026-04-12T12:42:26Z</time></trkpt><trkpt lat="50.186532656632" lon="3.72286886747103"><ele>172.0</ele><time>2026-04-12T12:42:28Z</time></trkpt><trkpt lat="50.18646766243983" lon="3.7229252590500685"><ele>172.0</ele><time>2026-04-12T12:42:30Z</time></trkpt><trkpt lat="50.18639512992095" lon="3.722985638979234"><ele>172.0</ele><time>2026-04-12T12:42:32Z</time></trkpt><trkpt lat="50.1863245059079" lon="3.7230448066877844"><ele>172.0</ele><time>2026-04-12T12:42:34Z</time></trkpt><trkpt lat="50.186248107891174" lon="3.72310094512664"><ele>172.0</ele><time>2026-04-12T12:42:36Z</time></trkpt><trkpt lat="50.18617630317628" lon="3.7231677637308698"><ele>172.0</ele><time>2026-04-12T12:42:38Z</time></trkpt><trkpt lat="50.18610582254504" lon="3.7232321024180113"><ele>172.0</ele><time>2026-04-12T12:42:40Z</time></trkpt><trkpt lat="50.18603526313215" lon="3.72330270923788"><ele>172.0</ele><time>2026-04-12T12:42:42Z</time></trkpt><trkpt lat="50.18595952269469" lon="3.72337410785561"><ele>172.0</ele><time>2026-04-12T12:42:44Z</time></trkpt><trkpt lat="50.18587936325378" lon="3.7234545812345234"><ele>172.0</ele><time>2026-04-12T12:42:46Z</time></trkpt><trkpt lat="50.185786734178876" lon="3.7235340113197894"><ele>171.0</ele><time>2026-04-12T12:42:48Z</time></trkpt><trkpt lat="50.18568816000659" lon="3.723627462125361"><ele>170.0</ele><time>2026-04-12T12:42:50Z</time></trkpt><trkpt lat="50.185584583655846" lon="3.7237391514370017"><ele>169.0</ele><time>2026-04-12T12:42:52Z</time></trkpt><trkpt lat="50.185527255991026" lon="3.7237932329716035"><ele>168.0</ele><time>2026-04-12T12:42:53Z</time></trkpt><trkpt lat="50.18546765876145" lon="3.7238504645090056"><ele>167.0</ele><time>2026-04-12T12:42:54Z</time></trkpt><trkpt lat="50.185406899481336" lon="3.723909538983563"><ele>167.0</ele><time>2026-04-12T12:42:55Z</time></trkpt><trkpt lat="50.18534447977084" lon="3.7239729680049285"><ele>167.0</ele><time>2026-04-12T12:42:56Z</time></trkpt><trkpt lat="50.18527891128124" lon="3.724039305172656"><ele>167.0</ele><time>2026-04-12T12:42:57Z</time></trkpt><trkpt lat="50.18521304927839" lon="3.724108985666175"><ele>167.0</ele><time>2026-04-12T12:42:58Z</time></trkpt><trkpt lat="50.18514172666875" lon="3.724179960929542"><ele>167.0</ele><time>2026-04-12T12:42:59Z</time></trkpt><trkpt lat="50.18507290634509" lon="3.724247348403778"><ele>167.0</ele><time>2026-04-12T12:43:00Z</time></trkpt><trkpt lat="50.18500498647696" lon="3.724327294071981"><ele>167.33333333333331</ele><time>2026-04-12T12:43:01Z</time></trkpt><trkpt lat="50.184936361573705" lon="3.7244058042375623"><ele>167.66666666666666</ele><time>2026-04-12T12:43:02Z</time></trkpt><trkpt lat="50.18486521043857" lon="3.7244807505567112"><ele>168.0</ele><time>2026-04-12T12:43:03Z</time></trkpt><trkpt lat="50.18479429617312" lon="3.7245630873555027"><ele>168.33333333333334</ele><time>2026-04-12T12:43:04Z</time></trkpt><trkpt lat="50.184726743189856" lon="3.7246423105131394"><ele>168.66666666666669</ele><time>2026-04-12T12:43:05Z</time></trkpt><trkpt lat="50.184650624728256" lon="3.7247204461325496"><ele>169.0</ele><time>2026-04-12T12:43:06Z</time></trkpt><trkpt lat="50.1845856705528" lon="3.724800407549986"><ele>169.0</ele><time>2026-04-12T12:43:07Z</time></trkpt><trkpt lat="50.18452227368279" lon="3.724883614076586"><ele>169.0</ele><time>2026-04-12T12:43:08Z</time></trkpt><trkpt lat="50.18445235523242" lon="3.7249584335420396"><ele>169.0</ele><time>2026-04-12T12:43:09Z</time></trkpt><trkpt lat="50.18438379592451" lon="3.7250329879501343"><ele>169.0</ele><time>2026-04-12T12:43:10Z</time></trkpt><trkpt lat="50.18431644486613" lon="3.7251041057915657"><ele>169.0</ele><time>2026-04-12T12:43:11Z</time></trkpt><trkpt lat="50.18425222614999" lon="3.7251779526940907"><ele>169.0</ele><time>2026-04-12T12:43:12Z</time></trkpt><trkpt lat="50.18418997825522" lon="3.7252511725552053"><ele>169.0</ele><time>2026-04-12T12:43:13Z</time></trkpt><trkpt lat="50.184126819637726" lon="3.7253201498306274"><ele>169.0</ele><time>2026-04-12T12:43:14Z</time></trkpt><trkpt lat="50.18406059252758" lon="3.7253841778012835"><ele>169.0</ele><time>2026-04-12T12:43:15Z</time></trkpt><trkpt lat="50.18400257950712" lon="3.7254547014466945"><ele>169.0</ele><time>2026-04-12T12:43:16Z</time></trkpt><trkpt lat="50.18394466648108" lon="3.725516274577282"><ele>169.0</ele><time>2026-04-12T12:43:17Z</time></trkpt><trkpt lat="50.18388871264045" lon="3.725578079673525"><ele>169.0</ele><time>2026-04-12T12:43:18Z</time></trkpt><trkpt lat="50.18383123885329" lon="3.7256364074706805"><ele>169.0</ele><time>2026-04-12T12:43:19Z</time></trkpt><trkpt lat="50.18377617213054" lon="3.725694406802924"><ele>170.2</ele><time>2026-04-12T12:43:20Z</time></trkpt><trkpt lat="50.183724254334344" lon="3.725755639680264"><ele>171.39999999999998</ele><time>2026-04-12T12:43:21Z</time></trkpt><trkpt lat="50.18367233911208" lon="3.725813169468462"><ele>172.6</ele><time>2026-04-12T12:43:22Z</time></trkpt><trkpt lat="50.183569970290996" lon="3.7259170352788824"><ele>173.8</ele><time>2026-04-12T12:43:24Z</time></trkpt><trkpt lat="50.18347662403538" lon="3.726015205383171"><ele>175.0</ele><time>2026-04-12T12:43:26Z</time></trkpt><trkpt lat="50.18338376535951" lon="3.7261041573019384"><ele>175.0</ele><time>2026-04-12T12:43:28Z</time></trkpt><trkpt lat="50.18330718068663" lon="3.7261889532250043"><ele>175.0</ele><time>2026-04-12T12:43:30Z</time></trkpt><trkpt lat="50.183233490639225" lon="3.726261326533408"><ele>175.0</ele><time>2026-04-12T12:43:32Z</time></trkpt><trkpt lat="50.18316289905115" lon="3.7263344328998813"><ele>175.0</ele><time>2026-04-12T12:43:34Z</time></trkpt><trkpt lat="50.183092490304" lon="3.726406641754658"><ele>175.0</ele><time>2026-04-12T12:43:36Z</time></trkpt><trkpt lat="50.18302911328263" lon="3.7264712683924532"><ele>175.0</ele><time>2026-04-12T12:43:38Z</time></trkpt><trkpt lat="50.18296243955461" lon="3.726541660198711"><ele>175.85714285714286</ele><time>2026-04-12T12:43:40Z</time></trkpt><trkpt lat="50.182893830976894" lon="3.726608271392033"><ele>176.71428571428572</ele><time>2026-04-12T12:43:42Z</time></trkpt><trkpt lat="50.18283433614018" lon="3.7266737372498504"><ele>177.57142857142856</ele><time>2026-04-12T12:43:44Z</time></trkpt><trkpt lat="50.18277854350985" lon="3.7267376130805303"><ele>178.42857142857144</ele><time>2026-04-12T12:43:46Z</time></trkpt><trkpt lat="50.182715222801136" lon="3.7267945975412227"><ele>179.28571428571428</ele><time>2026-04-12T12:43:48Z</time></trkpt><trkpt lat="50.18265958814464" lon="3.7268562164945043"><ele>180.14285714285714</ele><time>2026-04-12T12:43:50Z</time></trkpt><trkpt lat="50.182604576608306" lon="3.7269103039463696"><ele>181.0</ele><time>2026-04-12T12:43:52Z</time></trkpt><trkpt lat="50.18254496728482" lon="3.726967363359645"><ele>181.0</ele><time>2026-04-12T12:43:54Z</time></trkpt><trkpt lat="50.1824904016234" lon="3.7270258099398337"><ele>181.0</ele><time>2026-04-12T12:43:56Z</time></trkpt><trkpt lat="50.18243408523841" lon="3.7270858475043456"><ele>181.0</ele><time>2026-04-12T12:43:58Z</time></trkpt><trkpt lat="50.18237803166944" lon="3.727146088203827"><ele>181.0</ele><time>2026-04-12T12:44:00Z</time></trkpt><trkpt lat="50.18231948109928" lon="3.727206247353277"><ele>181.0</ele><time>2026-04-12T12:44:02Z</time></trkpt><trkpt lat="50.18226613599909" lon="3.7272634917490888"><ele>181.0</ele><time>2026-04-12T12:44:04Z</time></trkpt><trkpt lat="50.182209548782595" lon="3.727321342213846"><ele>181.0</ele><time>2026-04-12T12:44:05.999Z</time></trkpt><trkpt lat="50.182151378053035" lon="3.7273828548780714"><ele>181.28571428571428</ele><time>2026-04-12T12:44:07.999Z</time></trkpt><trkpt lat="50.1820933358776" lon="3.7274424717005834"><ele>181.57142857142856</ele><time>2026-04-12T12:44:10Z</time></trkpt><trkpt lat="50.18202994049907" lon="3.72750406372236"><ele>181.85714285714286</ele><time>2026-04-12T12:44:12Z</time></trkpt><trkpt lat="50.18197134308413" lon="3.727567693883589"><ele>182.14285714285714</ele><time>2026-04-12T12:44:14Z</time></trkpt><trkpt lat="50.18191465637821" lon="3.7276246461636076"><ele>182.42857142857144</ele><time>2026-04-12T12:44:16Z</time></trkpt><trkpt lat="50.18185421440453" lon="3.727689896897328"><ele>182.71428571428572</ele><time>2026-04-12T12:44:18Z</time></trkpt><trkpt lat="50.18179056673183" lon="3.727748416897188"><ele>183.0</ele><time>2026-04-12T12:44:20Z</time></trkpt><trkpt lat="50.18172839743231" lon="3.727816197880307"><ele>183.0</ele><time>2026-04-12T12:44:22Z</time></trkpt><trkpt lat="50.181665406118576" lon="3.7278787550872763"><ele>183.0</ele><time>2026-04-12T12:44:24Z</time></trkpt><trkpt lat="50.1816061212146" lon="3.7279384705161323"><ele>183.0</ele><time>2026-04-12T12:44:26Z</time></trkpt><trkpt lat="50.18154830131269" lon="3.7279970125313677"><ele>183.0</ele><time>2026-04-12T12:44:28Z</time></trkpt><trkpt lat="50.18148743431435" lon="3.728058837964172"><ele>183.0</ele><time>2026-04-12T12:44:30Z</time></trkpt><trkpt lat="50.18142046209776" lon="3.728129773704447"><ele>183.0</ele><time>2026-04-12T12:44:32Z</time></trkpt><trkpt lat="50.181351405874935" lon="3.7282017943397854"><ele>183.0</ele><time>2026-04-12T12:44:34Z</time></trkpt><trkpt lat="50.18128418335081" lon="3.7282644858821827"><ele>183.0</ele><time>2026-04-12T12:44:36Z</time></trkpt><trkpt lat="50.18121896958898" lon="3.7283363237725857"><ele>183.0</ele><time>2026-04-12T12:44:38Z</time></trkpt><trkpt lat="50.18114325639373" lon="3.728404719097075"><ele>183.0</ele><time>2026-04-12T12:44:40Z</time></trkpt><trkpt lat="50.18107407904601" lon="3.7284749728448636"><ele>183.0</ele><time>2026-04-12T12:44:42Z</time></trkpt><trkpt lat="50.181007363370725" lon="3.7285502811905276"><ele>183.0</ele><time>2026-04-12T12:44:44Z</time></trkpt><trkpt lat="50.18092904573217" lon="3.7286214668585806"><ele>183.0</ele><time>2026-04-12T12:44:46Z</time></trkpt><trkpt lat="50.18084670382058" lon="3.7286923022767353"><ele>183.0</ele><time>2026-04-12T12:44:48Z</time></trkpt><trkpt lat="50.18076947566302" lon="3.7287777647936426"><ele>183.0</ele><time>2026-04-12T12:44:50Z</time></trkpt><trkpt lat="50.18068557302965" lon="3.728876204058004"><ele>183.0</ele><time>2026-04-12T12:44:52Z</time></trkpt><trkpt lat="50.1805961048838" lon="3.7289611479993496"><ele>183.0</ele><time>2026-04-12T12:44:54Z</time></trkpt><trkpt lat="50.18051448900387" lon="3.729047965537573"><ele>182.60000000000002</ele><time>2026-04-12T12:44:56Z</time></trkpt><trkpt lat="50.18043987001095" lon="3.729128432550587"><ele>182.20000000000002</ele><time>2026-04-12T12:44:58Z</time></trkpt><trkpt lat="50.180352256818786" lon="3.7292109925947954"><ele>181.8</ele><time>2026-04-12T12:45:00Z</time></trkpt><trkpt lat="50.18026557144734" lon="3.7292986633519125"><ele>181.4</ele><time>2026-04-12T12:45:02Z</time></trkpt><trkpt lat="50.18017954968782" lon="3.729387102152905"><ele>181.0</ele><time>2026-04-12T12:45:04Z</time></trkpt><trkpt lat="50.18008692710773" lon="3.7294827279817904"><ele>180.5</ele><time>2026-04-12T12:45:06Z</time></trkpt><trkpt lat="50.17999107187655" lon="3.7295758657763263"><ele>180.0</ele><time>2026-04-12T12:45:08Z</time></trkpt><trkpt lat="50.179899201354736" lon="3.729671205244709"><ele>179.5</ele><time>2026-04-12T12:45:10Z</time></trkpt><trkpt lat="50.179799567153744" lon="3.7297682770646268"><ele>179.0</ele><time>2026-04-12T12:45:12Z</time></trkpt><trkpt lat="50.17969920696277" lon="3.7298646061618688"><ele>178.6</ele><time>2026-04-12T12:45:14Z</time></trkpt><trkpt lat="50.17959727012243" lon="3.729972959688584"><ele>178.2</ele><time>2026-04-12T12:45:16Z</time></trkpt><trkpt lat="50.179495937107035" lon="3.7300746360929855"><ele>177.79999999999998</ele><time>2026-04-12T12:45:18Z</time></trkpt><trkpt lat="50.17944283436426" lon="3.7301278145537"><ele>177.39999999999998</ele><time>2026-04-12T12:45:19Z</time></trkpt><trkpt lat="50.17934314648196" lon="3.730229794094827"><ele>177.0</ele><time>2026-04-12T12:45:21Z</time></trkpt><trkpt lat="50.17924640167398" lon="3.7303369932189843"><ele>177.0</ele><time>2026-04-12T12:45:23Z</time></trkpt><trkpt lat="50.17918993584611" lon="3.7303946828590173"><ele>177.0</ele><time>2026-04-12T12:45:24Z</time></trkpt><trkpt lat="50.179137376933" lon="3.7304516569709896"><ele>177.0</ele><time>2026-04-12T12:45:25Z</time></trkpt><trkpt lat="50.17908182702146" lon="3.7305075436992365"><ele>177.0</ele><time>2026-04-12T12:45:26Z</time></trkpt><trkpt lat="50.17902770005428" lon="3.730563055691855"><ele>177.0</ele><time>2026-04-12T12:45:27Z</time></trkpt><trkpt lat="50.17897172677911" lon="3.7306236308230725"><ele>177.0</ele><time>2026-04-12T12:45:28Z</time></trkpt><trkpt lat="50.178916260481294" lon="3.7306786391954714"><ele>177.0</ele><time>2026-04-12T12:45:29Z</time></trkpt><trkpt lat="50.178857283377056" lon="3.7307373347045996"><ele>176.83333333333334</ele><time>2026-04-12T12:45:30Z</time></trkpt><trkpt lat="50.17879398622561" lon="3.7307985486153927"><ele>176.66666666666666</ele><time>2026-04-12T12:45:31Z</time></trkpt><trkpt lat="50.17873305215182" lon="3.730863078357286"><ele>176.5</ele><time>2026-04-12T12:45:32Z</time></trkpt><trkpt lat="50.178669097249816" lon="3.7309292910356215"><ele>176.33333333333331</ele><time>2026-04-12T12:45:33Z</time></trkpt><trkpt lat="50.178605278587135" lon="3.7309923351271137"><ele>176.16666666666666</ele><time>2026-04-12T12:45:34Z</time></trkpt><trkpt lat="50.178542519804886" lon="3.731059368546338"><ele>176.0</ele><time>2026-04-12T12:45:35Z</time></trkpt><trkpt lat="50.17847956370862" lon="3.731125466160052"><ele>176.0</ele><time>2026-04-12T12:45:36Z</time></trkpt><trkpt lat="50.17841546815456" lon="3.731185195153301"><ele>176.0</ele><time>2026-04-12T12:45:37Z</time></trkpt><trkpt lat="50.17835515911973" lon="3.731243389722629"><ele>176.0</ele><time>2026-04-12T12:45:38Z</time></trkpt><trkpt lat="50.17829882316731" lon="3.731301039002943"><ele>176.0</ele><time>2026-04-12T12:45:39Z</time></trkpt><trkpt lat="50.17824457773643" lon="3.7313568913150523"><ele>176.0</ele><time>2026-04-12T12:45:40Z</time></trkpt><trkpt lat="50.17819263912246" lon="3.731419094283649"><ele>176.0</ele><time>2026-04-12T12:45:41Z</time></trkpt><trkpt lat="50.17809180870919" lon="3.7315181747130093"><ele>176.20000000000002</ele><time>2026-04-12T12:45:43Z</time></trkpt><trkpt lat="50.17799327288593" lon="3.731621173097833"><ele>176.4</ele><time>2026-04-12T12:45:45Z</time></trkpt><trkpt lat="50.17790153394218" lon="3.7317199665297465"><ele>176.6</ele><time>2026-04-12T12:45:47Z</time></trkpt><trkpt lat="50.1778091361247" lon="3.7318085901492024"><ele>176.8</ele><time>2026-04-12T12:45:49Z</time></trkpt><trkpt lat="50.177722100320715" lon="3.7319011144758143"><ele>177.0</ele><time>2026-04-12T12:45:51Z</time></trkpt><trkpt lat="50.17763761092888" lon="3.731985294814084"><ele>177.0</ele><time>2026-04-12T12:45:53Z</time></trkpt><trkpt lat="50.17754565435837" lon="3.7320743118947273"><ele>177.0</ele><time>2026-04-12T12:45:55Z</time></trkpt><trkpt lat="50.17746351589565" lon="3.732175065267515"><ele>177.0</ele><time>2026-04-12T12:45:57Z</time></trkpt><trkpt lat="50.177366334196755" lon="3.732257814544015"><ele>177.0</ele><time>2026-04-12T12:45:59Z</time></trkpt><trkpt lat="50.17727784500333" lon="3.732356953791645"><ele>177.0</ele><time>2026-04-12T12:46:01Z</time></trkpt><trkpt lat="50.17718338613241" lon="3.7324486041481797"><ele>177.0</ele><time>2026-04-12T12:46:03Z</time></trkpt><trkpt lat="50.17708986816783" lon="3.7325372837895356"><ele>177.0</ele><time>2026-04-12T12:46:05Z</time></trkpt><trkpt lat="50.17700334768698" lon="3.7326304720463077"><ele>177.0</ele><time>2026-04-12T12:46:07Z</time></trkpt><trkpt lat="50.176926016681534" lon="3.7327053730588298"><ele>177.0</ele><time>2026-04-12T12:46:09Z</time></trkpt><trkpt lat="50.176837638939084" lon="3.732795503845516"><ele>177.0</ele><time>2026-04-12T12:46:10.999Z</time></trkpt><trkpt lat="50.17674922798342" lon="3.7328794891948034"><ele>177.0</ele><time>2026-04-12T12:46:12.999Z</time></trkpt><trkpt lat="50.176660327662056" lon="3.732966370538659"><ele>177.0</ele><time>2026-04-12T12:46:14.999Z</time></trkpt><trkpt lat="50.176580364650576" lon="3.733044629218553"><ele>177.0</ele><time>2026-04-12T12:46:17Z</time></trkpt><trkpt lat="50.17649664852659" lon="3.733130216567016"><ele>177.0</ele><time>2026-04-12T12:46:19Z</time></trkpt><trkpt lat="50.176415093753114" lon="3.7332098425622346"><ele>177.0</ele><time>2026-04-12T12:46:21Z</time></trkpt><trkpt lat="50.176337773432046" lon="3.7333038304967157"><ele>176.6</ele><time>2026-04-12T12:46:23Z</time></trkpt><trkpt lat="50.1762560870331" lon="3.7333815005677335"><ele>176.2</ele><time>2026-04-12T12:46:25Z</time></trkpt><trkpt lat="50.176180770375815" lon="3.7334657698153966"><ele>175.8</ele><time>2026-04-12T12:46:27Z</time></trkpt><trkpt lat="50.17609677044418" lon="3.7335520019784427"><ele>175.4</ele><time>2026-04-12T12:46:29Z</time></trkpt><trkpt lat="50.17601467082999" lon="3.7336451461681692"><ele>175.0</ele><time>2026-04-12T12:46:31Z</time></trkpt><trkpt lat="50.17592723077264" lon="3.7337389217942127"><ele>175.0</ele><time>2026-04-12T12:46:33Z</time></trkpt><trkpt lat="50.175836494867376" lon="3.7338189513533604"><ele>175.0</ele><time>2026-04-12T12:46:35Z</time></trkpt><trkpt lat="50.17574185307706" lon="3.733915258246208"><ele>175.0</ele><time>2026-04-12T12:46:37Z</time></trkpt><trkpt lat="50.17566056327576" lon="3.7340082196276985"><ele>175.0</ele><time>2026-04-12T12:46:39Z</time></trkpt><trkpt lat="50.17560303767537" lon="3.73404919224433"><ele>175.0</ele><time>2026-04-12T12:46:40Z</time></trkpt><trkpt lat="50.17551679722596" lon="3.7341410441601526"><ele>175.0</ele><time>2026-04-12T12:46:42Z</time></trkpt><trkpt lat="50.175421997836864" lon="3.7342312687510986"><ele>175.0</ele><time>2026-04-12T12:46:44Z</time></trkpt><trkpt lat="50.1753425203484" lon="3.7343227750441415"><ele>175.0</ele><time>2026-04-12T12:46:46Z</time></trkpt><trkpt lat="50.17525148530814" lon="3.734409377643161"><ele>175.0</ele><time>2026-04-12T12:46:48Z</time></trkpt><trkpt lat="50.17517016506669" lon="3.7344974790168686"><ele>175.0</ele><time>2026-04-12T12:46:50Z</time></trkpt><trkpt lat="50.17509950475077" lon="3.7345857121274153"><ele>175.0</ele><time>2026-04-12T12:46:52Z</time></trkpt><trkpt lat="50.175018348040474" lon="3.7346608540269983"><ele>175.0</ele><time>2026-04-12T12:46:54Z</time></trkpt><trkpt lat="50.17494052243821" lon="3.7347392709756493"><ele>175.0</ele><time>2026-04-12T12:46:56Z</time></trkpt><trkpt lat="50.17487534129296" lon="3.734813894442971"><ele>175.0</ele><time>2026-04-12T12:46:58Z</time></trkpt><trkpt lat="50.174807343009526" lon="3.734888178080124"><ele>175.0</ele><time>2026-04-12T12:47:00Z</time></trkpt><trkpt lat="50.174735413180485" lon="3.734954128003936"><ele>175.0</ele><time>2026-04-12T12:47:02Z</time></trkpt><trkpt lat="50.174668657561575" lon="3.7350184272000817"><ele>175.16666666666669</ele><time>2026-04-12T12:47:04Z</time></trkpt><trkpt lat="50.17460217056225" lon="3.735088667210084"><ele>175.33333333333334</ele><time>2026-04-12T12:47:06Z</time></trkpt><trkpt lat="50.17454070086512" lon="3.735155446767654"><ele>175.5</ele><time>2026-04-12T12:47:08Z</time></trkpt><trkpt lat="50.174464802348986" lon="3.73522394887805"><ele>175.66666666666666</ele><time>2026-04-12T12:47:10Z</time></trkpt><trkpt lat="50.174383557138384" lon="3.7352837087823323"><ele>175.83333333333331</ele><time>2026-04-12T12:47:12Z</time></trkpt><trkpt lat="50.17430053106191" lon="3.735339371418675"><ele>176.0</ele><time>2026-04-12T12:47:14Z</time></trkpt><trkpt lat="50.1742201817657" lon="3.7353964872547523"><ele>176.0</ele><time>2026-04-12T12:47:16Z</time></trkpt><trkpt lat="50.174131129738996" lon="3.7354435345084713"><ele>176.0</ele><time>2026-04-12T12:47:18Z</time></trkpt><trkpt lat="50.17404158686285" lon="3.735490586079581"><ele>176.0</ele><time>2026-04-12T12:47:20Z</time></trkpt><trkpt lat="50.17394028422731" lon="3.735526638598392"><ele>176.0</ele><time>2026-04-12T12:47:22Z</time></trkpt><trkpt lat="50.17384123715832" lon="3.735555561566918"><ele>176.0</ele><time>2026-04-12T12:47:24Z</time></trkpt><trkpt lat="50.17375209096246" lon="3.735587178226447"><ele>175.8</ele><time>2026-04-12T12:47:26Z</time></trkpt><trkpt lat="50.17365348608325" lon="3.735602026817926"><ele>175.60000000000002</ele><time>2026-04-12T12:47:28Z</time></trkpt><trkpt lat="50.17355985401871" lon="3.735628503329189"><ele>175.4</ele><time>2026-04-12T12:47:30Z</time></trkpt><trkpt lat="50.17347110906493" lon="3.7356499866738813"><ele>175.2</ele><time>2026-04-12T12:47:32Z</time></trkpt><trkpt lat="50.17336375271232" lon="3.7356743010405022"><ele>175.0</ele><time>2026-04-12T12:47:34Z</time></trkpt><trkpt lat="50.17324829594128" lon="3.7357063942424635"><ele>174.16666666666669</ele><time>2026-04-12T12:47:36Z</time></trkpt><trkpt lat="50.17313403770561" lon="3.7357320708717885"><ele>173.33333333333334</ele><time>2026-04-12T12:47:38Z</time></trkpt><trkpt lat="50.173018941786076" lon="3.735767284644875"><ele>172.5</ele><time>2026-04-12T12:47:40Z</time></trkpt><trkpt lat="50.17295662834743" lon="3.7357828699551083"><ele>171.66666666666666</ele><time>2026-04-12T12:47:41Z</time></trkpt><trkpt lat="50.17289150690934" lon="3.7358006286321745"><ele>170.83333333333331</ele><time>2026-04-12T12:47:42Z</time></trkpt><trkpt lat="50.17282938625501" lon="3.7358175497006245"><ele>170.0</ele><time>2026-04-12T12:47:43Z</time></trkpt><trkpt lat="50.1727623940495" lon="3.7358281289532473"><ele>170.0</ele><time>2026-04-12T12:47:44Z</time></trkpt><trkpt lat="50.17269447295007" lon="3.735842734293887"><ele>170.0</ele><time>2026-04-12T12:47:45Z</time></trkpt><trkpt lat="50.17262501586371" lon="3.735864384748393"><ele>170.0</ele><time>2026-04-12T12:47:46Z</time></trkpt><trkpt lat="50.17255162866003" lon="3.7358811472254825"><ele>170.0</ele><time>2026-04-12T12:47:47Z</time></trkpt><trkpt lat="50.172483254186936" lon="3.735901213717034"><ele>170.0</ele><time>2026-04-12T12:47:48Z</time></trkpt><trkpt lat="50.172413885110544" lon="3.7359225826970417"><ele>170.0</ele><time>2026-04-12T12:47:49Z</time></trkpt><trkpt lat="50.172346113380584" lon="3.735941016882622"><ele>170.0</ele><time>2026-04-12T12:47:50Z</time></trkpt><trkpt lat="50.17227467774466" lon="3.7359608848263792"><ele>169.57142857142858</ele><time>2026-04-12T12:47:51Z</time></trkpt><trkpt lat="50.172203173506915" lon="3.7359798491054295"><ele>169.14285714285714</ele><time>2026-04-12T12:47:52Z</time></trkpt><trkpt lat="50.17213229121141" lon="3.736000692966813"><ele>168.71428571428572</ele><time>2026-04-12T12:47:53Z</time></trkpt><trkpt lat="50.17205827840274" lon="3.7360173800841276"><ele>168.28571428571428</ele><time>2026-04-12T12:47:54Z</time></trkpt><trkpt lat="50.17199043641389" lon="3.7360382757482973"><ele>167.85714285714286</ele><time>2026-04-12T12:47:55Z</time></trkpt><trkpt lat="50.17192237146736" lon="3.7360602177233653"><ele>167.42857142857142</ele><time>2026-04-12T12:47:56Z</time></trkpt><trkpt lat="50.17185352447956" lon="3.73607683454309"><ele>167.0</ele><time>2026-04-12T12:47:57Z</time></trkpt><trkpt lat="50.17178789843749" lon="3.7360908400998607"><ele>167.0</ele><time>2026-04-12T12:47:58Z</time></trkpt><trkpt lat="50.17172440933975" lon="3.736107626706788"><ele>167.0</ele><time>2026-04-12T12:47:59Z</time></trkpt><trkpt lat="50.171660545422334" lon="3.73612539001209"><ele>167.0</ele><time>2026-04-12T12:48:00Z</time></trkpt><trkpt lat="50.1715958467997" lon="3.736140657903587"><ele>167.0</ele><time>2026-04-12T12:48:01Z</time></trkpt><trkpt lat="50.17147856301359" lon="3.736173506874909"><ele>167.0</ele><time>2026-04-12T12:48:03Z</time></trkpt><trkpt lat="50.171360053306685" lon="3.7362051310449784"><ele>167.0</ele><time>2026-04-12T12:48:05Z</time></trkpt><trkpt lat="50.171252029975506" lon="3.736243500771855"><ele>166.75</ele><time>2026-04-12T12:48:07Z</time></trkpt><trkpt lat="50.171142433871445" lon="3.736290196020786"><ele>166.5</ele><time>2026-04-12T12:48:09Z</time></trkpt><trkpt lat="50.17104048145852" lon="3.736346160639007"><ele>166.25</ele><time>2026-04-12T12:48:11Z</time></trkpt><trkpt lat="50.17093992657747" lon="3.7364261521952513"><ele>166.0</ele><time>2026-04-12T12:48:13Z</time></trkpt><trkpt lat="50.17083086787761" lon="3.7365188285573163"><ele>166.0</ele><time>2026-04-12T12:48:15Z</time></trkpt><trkpt lat="50.170773245354184" lon="3.7365778265166374"><ele>166.0</ele><time>2026-04-12T12:48:16Z</time></trkpt><trkpt lat="50.17071820276585" lon="3.7366417267804892"><ele>166.0</ele><time>2026-04-12T12:48:17Z</time></trkpt><trkpt lat="50.17066107183444" lon="3.7367065382126126"><ele>166.0</ele><time>2026-04-12T12:48:18Z</time></trkpt><trkpt lat="50.17060201576063" lon="3.7367655263745836"><ele>166.0</ele><time>2026-04-12T12:48:19Z</time></trkpt><trkpt lat="50.17053950731896" lon="3.736824378573725"><ele>166.0</ele><time>2026-04-12T12:48:20Z</time></trkpt><trkpt lat="50.17048621030853" lon="3.7368896834201335"><ele>166.0</ele><time>2026-04-12T12:48:21Z</time></trkpt><trkpt lat="50.17042789902618" lon="3.7369614683362364"><ele>166.16666666666669</ele><time>2026-04-12T12:48:22Z</time></trkpt><trkpt lat="50.1703686076492" lon="3.737031210394261"><ele>166.33333333333334</ele><time>2026-04-12T12:48:23Z</time></trkpt><trkpt lat="50.17030323939473" lon="3.7371006160440308"><ele>166.5</ele><time>2026-04-12T12:48:24Z</time></trkpt><trkpt lat="50.170244682839275" lon="3.7371593835227594"><ele>166.66666666666666</ele><time>2026-04-12T12:48:25Z</time></trkpt><trkpt lat="50.170187713365074" lon="3.7372329200681578"><ele>166.83333333333331</ele><time>2026-04-12T12:48:26Z</time></trkpt><trkpt lat="50.17011692643167" lon="3.7373122731657085"><ele>167.0</ele><time>2026-04-12T12:48:27Z</time></trkpt><trkpt lat="50.170048246070195" lon="3.7373776624429165"><ele>167.0</ele><time>2026-04-12T12:48:28Z</time></trkpt><trkpt lat="50.16998699883802" lon="3.737450614980038"><ele>167.0</ele><time>2026-04-12T12:48:29Z</time></trkpt><trkpt lat="50.16991802626953" lon="3.7375259290091973"><ele>167.0</ele><time>2026-04-12T12:48:30Z</time></trkpt><trkpt lat="50.16984907757377" lon="3.737596895447181"><ele>167.0</ele><time>2026-04-12T12:48:31Z</time></trkpt><trkpt lat="50.169779707234284" lon="3.737675315674086"><ele>167.0</ele><time>2026-04-12T12:48:32Z</time></trkpt><trkpt lat="50.16972715277849" lon="3.737744154177334"><ele>167.0</ele><time>2026-04-12T12:48:33Z</time></trkpt><trkpt lat="50.16965437506839" lon="3.7378234748840455"><ele>166.5</ele><time>2026-04-12T12:48:34Z</time></trkpt><trkpt lat="50.169584360716435" lon="3.737900453202479"><ele>166.0</ele><time>2026-04-12T12:48:35Z</time></trkpt><trkpt lat="50.16950956857842" lon="3.7379857039266926"><ele>165.5</ele><time>2026-04-12T12:48:36Z</time></trkpt><trkpt lat="50.169443947296614" lon="3.738057664456684"><ele>165.0</ele><time>2026-04-12T12:48:37Z</time></trkpt><trkpt lat="50.16937455236108" lon="3.7381294561219485"><ele>164.5</ele><time>2026-04-12T12:48:38Z</time></trkpt><trkpt lat="50.16930258987788" lon="3.7382038241268933"><ele>164.0</ele><time>2026-04-12T12:48:39Z</time></trkpt><trkpt lat="50.169219715291504" lon="3.7382960648925683"><ele>164.0</ele><time>2026-04-12T12:48:40Z</time></trkpt><trkpt lat="50.16915042795662" lon="3.738375743841718"><ele>164.0</ele><time>2026-04-12T12:48:41Z</time></trkpt><trkpt lat="50.1690784968277" lon="3.738450592872798"><ele>164.0</ele><time>2026-04-12T12:48:42Z</time></trkpt><trkpt lat="50.168998799922804" lon="3.7385331281727323"><ele>164.0</ele><time>2026-04-12T12:48:43Z</time></trkpt><trkpt lat="50.168930305738165" lon="3.738613003075715"><ele>164.0</ele><time>2026-04-12T12:48:44Z</time></trkpt><trkpt lat="50.168856676444484" lon="3.7386995674640455"><ele>164.0</ele><time>2026-04-12T12:48:45Z</time></trkpt><trkpt lat="50.1687714756257" lon="3.7387815714791874"><ele>163.0</ele><time>2026-04-12T12:48:46Z</time></trkpt><trkpt lat="50.168703033954145" lon="3.7388640180191284"><ele>162.0</ele><time>2026-04-12T12:48:47Z</time></trkpt><trkpt lat="50.16861890045236" lon="3.738960768545423"><ele>161.0</ele><time>2026-04-12T12:48:48Z</time></trkpt><trkpt lat="50.16854509324833" lon="3.7390476424120767"><ele>160.0</ele><time>2026-04-12T12:48:49Z</time></trkpt><trkpt lat="50.16847578128285" lon="3.7391255380259683"><ele>159.0</ele><time>2026-04-12T12:48:50Z</time></trkpt><trkpt lat="50.16838974855135" lon="3.7392211594232947"><ele>159.0</ele><time>2026-04-12T12:48:51Z</time></trkpt><trkpt lat="50.16830915998509" lon="3.739306921744699"><ele>159.0</ele><time>2026-04-12T12:48:52Z</time></trkpt><trkpt lat="50.16823290159972" lon="3.7393854264376567"><ele>159.0</ele><time>2026-04-12T12:48:53Z</time></trkpt><trkpt lat="50.168171834172874" lon="3.739467185873543"><ele>159.0</ele><time>2026-04-12T12:48:54Z</time></trkpt><trkpt lat="50.16809228727733" lon="3.7395533212053627"><ele>159.0</ele><time>2026-04-12T12:48:55Z</time></trkpt><trkpt lat="50.168021187367565" lon="3.7396324893951975"><ele>159.16666666666666</ele><time>2026-04-12T12:48:56Z</time></trkpt><trkpt lat="50.167942899543924" lon="3.7397104785407276"><ele>159.33333333333334</ele><time>2026-04-12T12:48:57Z</time></trkpt><trkpt lat="50.16787213210664" lon="3.739795296002359"><ele>159.5</ele><time>2026-04-12T12:48:58Z</time></trkpt><trkpt lat="50.16780020223882" lon="3.7398723477942752"><ele>159.66666666666669</ele><time>2026-04-12T12:48:59Z</time></trkpt><trkpt lat="50.16772403305494" lon="3.7399583987717993"><ele>159.83333333333334</ele><time>2026-04-12T12:49:00Z</time></trkpt><trkpt lat="50.16765349730016" lon="3.7400350581155606"><ele>160.0</ele><time>2026-04-12T12:49:01Z</time></trkpt><trkpt lat="50.167578771037185" lon="3.740106561730743"><ele>160.0</ele><time>2026-04-12T12:49:02Z</time></trkpt><trkpt lat="50.167500836073074" lon="3.740191980543787"><ele>160.0</ele><time>2026-04-12T12:49:03Z</time></trkpt><trkpt lat="50.16744044805109" lon="3.74026150575276"><ele>160.0</ele><time>2026-04-12T12:49:04Z</time></trkpt><trkpt lat="50.16737240910374" lon="3.7403435646855505"><ele>160.0</ele><time>2026-04-12T12:49:05Z</time></trkpt><trkpt lat="50.167319106812414" lon="3.7404184727615073"><ele>160.0</ele><time>2026-04-12T12:49:06Z</time></trkpt><trkpt lat="50.16723355046605" lon="3.7404939726249444"><ele>160.0</ele><time>2026-04-12T12:49:07Z</time></trkpt><trkpt lat="50.16717218443451" lon="3.7405582914386275"><ele>159.66666666666669</ele><time>2026-04-12T12:49:08Z</time></trkpt><trkpt lat="50.167107506853455" lon="3.74063475681189"><ele>159.33333333333334</ele><time>2026-04-12T12:49:09Z</time></trkpt><trkpt lat="50.16703874662019" lon="3.7407042478150627"><ele>159.0</ele><time>2026-04-12T12:49:10Z</time></trkpt><trkpt lat="50.16698330402301" lon="3.7407630328265817"><ele>158.66666666666666</ele><time>2026-04-12T12:49:11Z</time></trkpt><trkpt lat="50.166922212072215" lon="3.74082774561095"><ele>158.33333333333331</ele><time>2026-04-12T12:49:12Z</time></trkpt><trkpt lat="50.16685665103371" lon="3.740894863456852"><ele>158.0</ele><time>2026-04-12T12:49:13Z</time></trkpt><trkpt lat="50.166797765504505" lon="3.740951871030294"><ele>158.00000000000003</ele><time>2026-04-12T12:49:14Z</time></trkpt><trkpt lat="50.16673488609193" lon="3.741011487711906"><ele>158.0</ele><time>2026-04-12T12:49:15Z</time></trkpt><trkpt lat="50.16667931161896" lon="3.7410683771588786"><ele>158.0</ele><time>2026-04-12T12:49:16Z</time></trkpt><trkpt lat="50.166620049774984" lon="3.741129365262443"><ele>158.0</ele><time>2026-04-12T12:49:17Z</time></trkpt><trkpt lat="50.16656251843447" lon="3.741189548389701"><ele>158.0</ele><time>2026-04-12T12:49:18Z</time></trkpt><trkpt lat="50.166505928873846" lon="3.7412487163794688"><ele>158.00000000000003</ele><time>2026-04-12T12:49:19Z</time></trkpt><trkpt lat="50.166442689122164" lon="3.741307520063041"><ele>158.0</ele><time>2026-04-12T12:49:20Z</time></trkpt><trkpt lat="50.16638952635825" lon="3.741364584166305"><ele>158.00000000000003</ele><time>2026-04-12T12:49:21Z</time></trkpt><trkpt lat="50.16633330694748" lon="3.7414195767336973"><ele>158.0</ele><time>2026-04-12T12:49:22Z</time></trkpt><trkpt lat="50.16627563781964" lon="3.741482633686219"><ele>158.0</ele><time>2026-04-12T12:49:23Z</time></trkpt><trkpt lat="50.16621549214107" lon="3.7415426962512157"><ele>158.0</ele><time>2026-04-12T12:49:24Z</time></trkpt><trkpt lat="50.166160244669655" lon="3.7416113872163153"><ele>158.0</ele><time>2026-04-12T12:49:25Z</time></trkpt><trkpt lat="50.16610453394549" lon="3.741668311289821"><ele>158.00000000000003</ele><time>2026-04-12T12:49:26Z</time></trkpt><trkpt lat="50.16604295893281" lon="3.741731049764837"><ele>158.0</ele><time>2026-04-12T12:49:27Z</time></trkpt><trkpt lat="50.16598492035696" lon="3.741790093991165"><ele>157.83333333333331</ele><time>2026-04-12T12:49:28Z</time></trkpt><trkpt lat="50.1658849298938" lon="3.741905422626573"><ele>157.66666666666666</ele><time>2026-04-12T12:49:30Z</time></trkpt><trkpt lat="50.1658268721848" lon="3.7419755348739856"><ele>157.5</ele><time>2026-04-12T12:49:31Z</time></trkpt><trkpt lat="50.165766133870726" lon="3.7420383788989495"><ele>157.33333333333334</ele><time>2026-04-12T12:49:32Z</time></trkpt><trkpt lat="50.16570764148122" lon="3.7420881877444625"><ele>157.16666666666669</ele><time>2026-04-12T12:49:33Z</time></trkpt><trkpt lat="50.16565212311901" lon="3.742150185830248"><ele>157.0</ele><time>2026-04-12T12:49:34Z</time></trkpt><trkpt lat="50.16559764045968" lon="3.742209370235119"><ele>156.99999999999997</ele><time>2026-04-12T12:49:35Z</time></trkpt><trkpt lat="50.16554062846927" lon="3.742267320566169"><ele>157.0</ele><time>2026-04-12T12:49:36Z</time></trkpt><trkpt lat="50.16548036567946" lon="3.74233052646873"><ele>157.0</ele><time>2026-04-12T12:49:37Z</time></trkpt><trkpt lat="50.165425099662244" lon="3.74238503810189"><ele>157.0</ele><time>2026-04-12T12:49:38Z</time></trkpt><trkpt lat="50.165368394998225" lon="3.7424460028445257"><ele>157.0</ele><time>2026-04-12T12:49:39Z</time></trkpt><trkpt lat="50.16531348506139" lon="3.742499331119204"><ele>156.99999999999997</ele><time>2026-04-12T12:49:40Z</time></trkpt><trkpt lat="50.165251089156676" lon="3.742553656664668"><ele>157.0</ele><time>2026-04-12T12:49:41Z</time></trkpt><trkpt lat="50.16519394747447" lon="3.742601718471175"><ele>157.0</ele><time>2026-04-12T12:49:42Z</time></trkpt><trkpt lat="50.16513256482501" lon="3.7426585342054275"><ele>157.0</ele><time>2026-04-12T12:49:43Z</time></trkpt><trkpt lat="50.1650750935647" lon="3.7427087349337445"><ele>157.0</ele><time>2026-04-12T12:49:44Z</time></trkpt><trkpt lat="50.16500660801471" lon="3.742765868550773"><ele>157.0</ele><time>2026-04-12T12:49:45Z</time></trkpt><trkpt lat="50.16489437340035" lon="3.7428557362026953"><ele>157.0</ele><time>2026-04-12T12:49:47Z</time></trkpt><trkpt lat="50.16482091799766" lon="3.7428968409754164"><ele>157.0</ele><time>2026-04-12T12:49:48Z</time></trkpt><trkpt lat="50.16474665779442" lon="3.742935088585568"><ele>155.85714285714283</ele><time>2026-04-12T12:49:49Z</time></trkpt><trkpt lat="50.16468907098784" lon="3.7429768791921902"><ele>154.71428571428572</ele><time>2026-04-12T12:49:50Z</time></trkpt><trkpt lat="50.16462550345996" lon="3.7430169372348536"><ele>153.57142857142856</ele><time>2026-04-12T12:49:51Z</time></trkpt><trkpt lat="50.16456132527384" lon="3.743052862242258"><ele>152.42857142857142</ele><time>2026-04-12T12:49:52Z</time></trkpt><trkpt lat="50.1644983500624" lon="3.743089512940374"><ele>151.28571428571428</ele><time>2026-04-12T12:49:53Z</time></trkpt><trkpt lat="50.16443400432214" lon="3.7431228898228746"><ele>150.14285714285714</ele><time>2026-04-12T12:49:54Z</time></trkpt><trkpt lat="50.16437004553272" lon="3.7431619688441207"><ele>149.0</ele><time>2026-04-12T12:49:55Z</time></trkpt><trkpt lat="50.16431075075527" lon="3.7432022311560145"><ele>149.0</ele><time>2026-04-12T12:49:56Z</time></trkpt><trkpt lat="50.1642486986514" lon="3.7432425378064087"><ele>149.0</ele><time>2026-04-12T12:49:57Z</time></trkpt><trkpt lat="50.164187209927626" lon="3.7432717389738963"><ele>149.0</ele><time>2026-04-12T12:49:58Z</time></trkpt><trkpt lat="50.164128091821354" lon="3.7433069143040525"><ele>149.0</ele><time>2026-04-12T12:49:59Z</time></trkpt><trkpt lat="50.16406354576759" lon="3.7433445522754774"><ele>149.0</ele><time>2026-04-12T12:50:00Z</time></trkpt><trkpt lat="50.16400238539554" lon="3.743385670160393"><ele>149.0</ele><time>2026-04-12T12:50:01Z</time></trkpt><trkpt lat="50.16393647355051" lon="3.7434218163104096"><ele>149.0</ele><time>2026-04-12T12:50:02Z</time></trkpt><trkpt lat="50.16386837650997" lon="3.743461441096436"><ele>148.85714285714286</ele><time>2026-04-12T12:50:03Z</time></trkpt><trkpt lat="50.163802513564804" lon="3.7434985509073226"><ele>148.7142857142857</ele><time>2026-04-12T12:50:04Z</time></trkpt><trkpt lat="50.16373919029313" lon="3.7435354035431967"><ele>148.57142857142856</ele><time>2026-04-12T12:50:05Z</time></trkpt><trkpt lat="50.16367401394208" lon="3.743574740389549"><ele>148.42857142857142</ele><time>2026-04-12T12:50:06Z</time></trkpt><trkpt lat="50.16360816110823" lon="3.7436149415660216"><ele>148.28571428571428</ele><time>2026-04-12T12:50:07Z</time></trkpt><trkpt lat="50.16354312276969" lon="3.743647913352295"><ele>148.14285714285714</ele><time>2026-04-12T12:50:08Z</time></trkpt><trkpt lat="50.16347875243977" lon="3.743675547244787"><ele>148.0</ele><time>2026-04-12T12:50:09Z</time></trkpt><trkpt lat="50.16341189627347" lon="3.743700844830302"><ele>146.85714285714286</ele><time>2026-04-12T12:50:10Z</time></trkpt><trkpt lat="50.16334185338384" lon="3.743720202049355"><ele>145.71428571428572</ele><time>2026-04-12T12:50:11Z</time></trkpt><trkpt lat="50.163272770651" lon="3.7437254962781146"><ele>144.57142857142856</ele><time>2026-04-12T12:50:12Z</time></trkpt><trkpt lat="50.16320439967479" lon="3.7437337204307215"><ele>143.42857142857144</ele><time>2026-04-12T12:50:13Z</time></trkpt><trkpt lat="50.16313260376282" lon="3.7437389568681883"><ele>142.28571428571428</ele><time>2026-04-12T12:50:14Z</time></trkpt><trkpt lat="50.163064203834374" lon="3.7437469766424947"><ele>141.14285714285714</ele><time>2026-04-12T12:50:14.999Z</time></trkpt><trkpt lat="50.16299353152751" lon="3.7437502844260346"><ele>140.0</ele><time>2026-04-12T12:50:15.999Z</time></trkpt><trkpt lat="50.16292719023616" lon="3.7437522840002493"><ele>140.0</ele><time>2026-04-12T12:50:16.999Z</time></trkpt><trkpt lat="50.16285868920151" lon="3.7437450934476164"><ele>140.0</ele><time>2026-04-12T12:50:17.999Z</time></trkpt><trkpt lat="50.16279397124863" lon="3.7437363359139293"><ele>140.0</ele><time>2026-04-12T12:50:18.999Z</time></trkpt><trkpt lat="50.16272899191962" lon="3.743726854901393"><ele>140.0</ele><time>2026-04-12T12:50:19.999Z</time></trkpt><trkpt lat="50.16266393223342" lon="3.743716767192478"><ele>140.0</ele><time>2026-04-12T12:50:20.999Z</time></trkpt><trkpt lat="50.16259860488613" lon="3.7437004893672468"><ele>140.0</ele><time>2026-04-12T12:50:21.999Z</time></trkpt><trkpt lat="50.16247711890197" lon="3.7436560724854955"><ele>139.25</ele><time>2026-04-12T12:50:23.999Z</time></trkpt><trkpt lat="50.162356739967976" lon="3.743608430657244"><ele>138.5</ele><time>2026-04-12T12:50:25.999Z</time></trkpt><trkpt lat="50.162238622858496" lon="3.7435697091935105"><ele>137.75</ele><time>2026-04-12T12:50:28Z</time></trkpt><trkpt lat="50.16212447429203" lon="3.7435246391913077"><ele>137.0</ele><time>2026-04-12T12:50:30Z</time></trkpt><trkpt lat="50.16201566292987" lon="3.7434861868523543"><ele>136.79999999999998</ele><time>2026-04-12T12:50:32Z</time></trkpt><trkpt lat="50.16190902554911" lon="3.7434473198049587"><ele>136.6</ele><time>2026-04-12T12:50:34Z</time></trkpt><trkpt lat="50.16180079173898" lon="3.743412415768826"><ele>136.39999999999998</ele><time>2026-04-12T12:50:36Z</time></trkpt><trkpt lat="50.161692765654685" lon="3.743389576137075"><ele>136.2</ele><time>2026-04-12T12:50:38Z</time></trkpt><trkpt lat="50.16159069350643" lon="3.7433580051929756"><ele>136.0</ele><time>2026-04-12T12:50:40Z</time></trkpt><trkpt lat="50.16148872140467" lon="3.7433371309450134"><ele>135.8</ele><time>2026-04-12T12:50:42Z</time></trkpt><trkpt lat="50.16138593783061" lon="3.743341866613956"><ele>135.6</ele><time>2026-04-12T12:50:44Z</time></trkpt><trkpt lat="50.16127696667415" lon="3.743350306900949"><ele>135.4</ele><time>2026-04-12T12:50:46Z</time></trkpt><trkpt lat="50.161165641203546" lon="3.7433818773120846"><ele>135.2</ele><time>2026-04-12T12:50:48Z</time></trkpt><trkpt lat="50.16105982059529" lon="3.7434457496328846"><ele>135.0</ele><time>2026-04-12T12:50:50Z</time></trkpt><trkpt lat="50.160953735051756" lon="3.7434973825443283"><ele>134.8</ele><time>2026-04-12T12:50:52Z</time></trkpt><trkpt lat="50.16084919915392" lon="3.743553727372464"><ele>134.6</ele><time>2026-04-12T12:50:54Z</time></trkpt><trkpt lat="50.160734055180185" lon="3.743578641560657"><ele>134.4</ele><time>2026-04-12T12:50:56Z</time></trkpt><trkpt lat="50.160618952435264" lon="3.743588911361545"><ele>134.2</ele><time>2026-04-12T12:50:58Z</time></trkpt><trkpt lat="50.16051193795463" lon="3.7435785546533027"><ele>134.0</ele><time>2026-04-12T12:51:00Z</time></trkpt><trkpt lat="50.16040629899468" lon="3.7435605408603885"><ele>134.0</ele><time>2026-04-12T12:51:02Z</time></trkpt><trkpt lat="50.16029843566428" lon="3.743531055463381"><ele>134.0</ele><time>2026-04-12T12:51:04Z</time></trkpt><trkpt lat="50.16019031152776" lon="3.7434965434579777"><ele>134.0</ele><time>2026-04-12T12:51:06Z</time></trkpt><trkpt lat="50.16007649649636" lon="3.7434672292455713"><ele>134.0</ele><time>2026-04-12T12:51:08Z</time></trkpt><trkpt lat="50.15996347421851" lon="3.7434410029354153"><ele>134.0</ele><time>2026-04-12T12:51:10Z</time></trkpt><trkpt lat="50.15985326017538" lon="3.7434141462831745"><ele>134.25</ele><time>2026-04-12T12:51:12Z</time></trkpt><trkpt lat="50.15973808997435" lon="3.743385299123361"><ele>134.5</ele><time>2026-04-12T12:51:14Z</time></trkpt><trkpt lat="50.15962403713723" lon="3.743354528367228"><ele>134.75</ele><time>2026-04-12T12:51:16Z</time></trkpt><trkpt lat="50.159509911534144" lon="3.7433282507190517"><ele>135.0</ele><time>2026-04-12T12:51:18Z</time></trkpt><trkpt lat="50.15940149993091" lon="3.74330141409337"><ele>135.0</ele><time>2026-04-12T12:51:20Z</time></trkpt><trkpt lat="50.159295950464205" lon="3.7432667725904225"><ele>135.0</ele><time>2026-04-12T12:51:22Z</time></trkpt><trkpt lat="50.1591896970417" lon="3.7432395140449093"><ele>135.0</ele><time>2026-04-12T12:51:24Z</time></trkpt><trkpt lat="50.15908093809638" lon="3.7432113890165732"><ele>135.0</ele><time>2026-04-12T12:51:26Z</time></trkpt><trkpt lat="50.15897203994176" lon="3.743182617913994"><ele>135.0</ele><time>2026-04-12T12:51:28Z</time></trkpt><trkpt lat="50.15886560821275" lon="3.743149309044705"><ele>134.8</ele><time>2026-04-12T12:51:30Z</time></trkpt><trkpt lat="50.158756725542915" lon="3.7431193121716944"><ele>134.6</ele><time>2026-04-12T12:51:32Z</time></trkpt><trkpt lat="50.15865362194141" lon="3.743091298235002"><ele>134.4</ele><time>2026-04-12T12:51:34Z</time></trkpt><trkpt lat="50.158551324941584" lon="3.7430656229407697"><ele>134.2</ele><time>2026-04-12T12:51:36Z</time></trkpt><trkpt lat="50.158459742392296" lon="3.743035232740036"><ele>134.0</ele><time>2026-04-12T12:51:38Z</time></trkpt><trkpt lat="50.158375001558625" lon="3.7430181697885136"><ele>134.0</ele><time>2026-04-12T12:51:40Z</time></trkpt><trkpt lat="50.158291342327395" lon="3.7429989516868276"><ele>134.0</ele><time>2026-04-12T12:51:42Z</time></trkpt><trkpt lat="50.15821594495284" lon="3.7429861493159047"><ele>134.0</ele><time>2026-04-12T12:51:44Z</time></trkpt><trkpt lat="50.15813126396899" lon="3.7429692139764237"><ele>134.0</ele><time>2026-04-12T12:51:46Z</time></trkpt><trkpt lat="50.158018393265614" lon="3.74291723084159"><ele>134.0</ele><time>2026-04-12T12:51:48Z</time></trkpt><trkpt lat="50.157938513374866" lon="3.7428781076276993"><ele>134.0</ele><time>2026-04-12T12:51:49Z</time></trkpt><trkpt lat="50.15786177956579" lon="3.7428718899482663"><ele>133.6</ele><time>2026-04-12T12:51:50Z</time></trkpt><trkpt lat="50.157781523181455" lon="3.7428834187046958"><ele>133.2</ele><time>2026-04-12T12:51:52Z</time></trkpt><trkpt lat="50.15765725212243" lon="3.7429060174288504"><ele>132.79999999999998</ele><time>2026-04-12T12:51:54Z</time></trkpt><trkpt lat="50.157539558286906" lon="3.742978286798187"><ele>132.4</ele><time>2026-04-12T12:51:56Z</time></trkpt><trkpt lat="50.157478562326446" lon="3.7430109371088705"><ele>132.0</ele><time>2026-04-12T12:51:57Z</time></trkpt><trkpt lat="50.15737045567503" lon="3.7430865329574785"><ele>131.6</ele><time>2026-04-12T12:51:59Z</time></trkpt><trkpt lat="50.15726592972384" lon="3.7431637196131997"><ele>131.2</ele><time>2026-04-12T12:52:01Z</time></trkpt><trkpt lat="50.157176283043974" lon="3.743228895081094"><ele>130.8</ele><time>2026-04-12T12:52:03Z</time></trkpt><trkpt lat="50.15708519827086" lon="3.743280698210127"><ele>130.4</ele><time>2026-04-12T12:52:05Z</time></trkpt><trkpt lat="50.15699490608673" lon="3.743333341844032"><ele>130.0</ele><time>2026-04-12T12:52:07Z</time></trkpt><trkpt lat="50.156909345991394" lon="3.743367170362534"><ele>130.0</ele><time>2026-04-12T12:52:09Z</time></trkpt><trkpt lat="50.156827917156775" lon="3.7434048095020596"><ele>130.0</ele><time>2026-04-12T12:52:11Z</time></trkpt><trkpt lat="50.15674799819516" lon="3.7434320389414526"><ele>130.0</ele><time>2026-04-12T12:52:13Z</time></trkpt><trkpt lat="50.156671851798826" lon="3.743447127015244"><ele>130.0</ele><time>2026-04-12T12:52:15Z</time></trkpt><trkpt lat="50.156594252522176" lon="3.743460496592512"><ele>130.0</ele><time>2026-04-12T12:52:17Z</time></trkpt><trkpt lat="50.15651895020371" lon="3.743489833427215"><ele>130.0</ele><time>2026-04-12T12:52:19Z</time></trkpt><trkpt lat="50.1564426806429" lon="3.743512534538073"><ele>130.33333333333334</ele><time>2026-04-12T12:52:21Z</time></trkpt><trkpt lat="50.156366282386486" lon="3.743526233495898"><ele>130.66666666666669</ele><time>2026-04-12T12:52:23Z</time></trkpt><trkpt lat="50.156286245694375" lon="3.743549060758033"><ele>131.0</ele><time>2026-04-12T12:52:25Z</time></trkpt><trkpt lat="50.15620364351132" lon="3.743574175503594"><ele>131.33333333333334</ele><time>2026-04-12T12:52:27Z</time></trkpt><trkpt lat="50.15611623273996" lon="3.743603459375231"><ele>131.66666666666666</ele><time>2026-04-12T12:52:28.999Z</time></trkpt><trkpt lat="50.156019518483944" lon="3.743626379395232"><ele>132.0</ele><time>2026-04-12T12:52:30.999Z</time></trkpt><trkpt lat="50.155918931490866" lon="3.743666416348959"><ele>132.0</ele><time>2026-04-12T12:52:32.999Z</time></trkpt><trkpt lat="50.15581610676388" lon="3.743717686779251"><ele>132.0</ele><time>2026-04-12T12:52:35Z</time></trkpt><trkpt lat="50.15571140442176" lon="3.7437833874087456"><ele>132.0</ele><time>2026-04-12T12:52:37Z</time></trkpt><trkpt lat="50.15560300527591" lon="3.7438603123609266"><ele>132.0</ele><time>2026-04-12T12:52:39Z</time></trkpt><trkpt lat="50.155502583192536" lon="3.7439532026377647"><ele>131.75</ele><time>2026-04-12T12:52:41Z</time></trkpt><trkpt lat="50.155406229313435" lon="3.744043238960404"><ele>131.5</ele><time>2026-04-12T12:52:43Z</time></trkpt><trkpt lat="50.155319064445735" lon="3.744149215261613"><ele>131.25</ele><time>2026-04-12T12:52:45Z</time></trkpt><trkpt lat="50.15522035000747" lon="3.7442620943588025"><ele>131.0</ele><time>2026-04-12T12:52:47Z</time></trkpt><trkpt lat="50.15512707210518" lon="3.7443863919441176"><ele>130.75</ele><time>2026-04-12T12:52:49Z</time></trkpt><trkpt lat="50.15503123649989" lon="3.744507976468481"><ele>130.5</ele><time>2026-04-12T12:52:51Z</time></trkpt><trkpt lat="50.154936981013606" lon="3.7446319518777855"><ele>130.25</ele><time>2026-04-12T12:52:53Z</time></trkpt><trkpt lat="50.1548424084132" lon="3.744748679156762"><ele>130.0</ele><time>2026-04-12T12:52:55Z</time></trkpt><trkpt lat="50.154748582932974" lon="3.744864340976343"><ele>130.0</ele><time>2026-04-12T12:52:57Z</time></trkpt><trkpt lat="50.15465875822129" lon="3.7449811732204834"><ele>130.0</ele><time>2026-04-12T12:52:59Z</time></trkpt><trkpt lat="50.15456681487211" lon="3.745096856868972"><ele>130.0</ele><time>2026-04-12T12:53:01Z</time></trkpt><trkpt lat="50.154483603387405" lon="3.7452106247313366"><ele>130.0</ele><time>2026-04-12T12:53:03Z</time></trkpt><trkpt lat="50.15439758760349" lon="3.7453188185968145"><ele>130.0</ele><time>2026-04-12T12:53:05Z</time></trkpt><trkpt lat="50.15431216559417" lon="3.745428000356095"><ele>130.0</ele><time>2026-04-12T12:53:07Z</time></trkpt><trkpt lat="50.15422769014365" lon="3.745530094456136"><ele>130.0</ele><time>2026-04-12T12:53:09Z</time></trkpt><trkpt lat="50.15414394636357" lon="3.7456405771722077"><ele>130.0</ele><time>2026-04-12T12:53:11Z</time></trkpt><trkpt lat="50.154057309322724" lon="3.7457460674048417"><ele>130.0</ele><time>2026-04-12T12:53:13Z</time></trkpt><trkpt lat="50.15398579676373" lon="3.7458307913918714"><ele>130.0</ele><time>2026-04-12T12:53:15Z</time></trkpt><trkpt lat="50.15393164997851" lon="3.745899314406843"><ele>130.0</ele><time>2026-04-12T12:53:16Z</time></trkpt><trkpt lat="50.15384541059909" lon="3.7460112474218397"><ele>130.0</ele><time>2026-04-12T12:53:18Z</time></trkpt><trkpt lat="50.15375880219661" lon="3.7461238364334877"><ele>130.0</ele><time>2026-04-12T12:53:20Z</time></trkpt><trkpt lat="50.15367590400863" lon="3.7462344429226273"><ele>130.0</ele><time>2026-04-12T12:53:22Z</time></trkpt><trkpt lat="50.15359351590893" lon="3.746336370874705"><ele>130.2</ele><time>2026-04-12T12:53:24Z</time></trkpt><trkpt lat="50.15351154040324" lon="3.746442923141728"><ele>130.4</ele><time>2026-04-12T12:53:26Z</time></trkpt><trkpt lat="50.15342850128525" lon="3.746550136696841"><ele>130.6</ele><time>2026-04-12T12:53:28Z</time></trkpt><trkpt lat="50.15334734182891" lon="3.746658138333784"><ele>130.8</ele><time>2026-04-12T12:53:30Z</time></trkpt><trkpt lat="50.15326744344333" lon="3.74676225162716"><ele>131.0</ele><time>2026-04-12T12:53:32Z</time></trkpt><trkpt lat="50.15318602613905" lon="3.7468652029496448"><ele>130.8</ele><time>2026-04-12T12:53:34Z</time></trkpt><trkpt lat="50.153104731754745" lon="3.746974235194423"><ele>130.6</ele><time>2026-04-12T12:53:36Z</time></trkpt><trkpt lat="50.153025344932445" lon="3.747075469707669"><ele>130.4</ele><time>2026-04-12T12:53:38Z</time></trkpt><trkpt lat="50.152939354592206" lon="3.747171274132166"><ele>130.2</ele><time>2026-04-12T12:53:40Z</time></trkpt><trkpt lat="50.15286273225354" lon="3.747276140442755"><ele>130.0</ele><time>2026-04-12T12:53:42Z</time></trkpt><trkpt lat="50.15278467543756" lon="3.7473747187497835"><ele>130.0</ele><time>2026-04-12T12:53:44Z</time></trkpt><trkpt lat="50.152703351240724" lon="3.747478259459483"><ele>130.0</ele><time>2026-04-12T12:53:46Z</time></trkpt><trkpt lat="50.15262257229472" lon="3.747579328120304"><ele>130.0</ele><time>2026-04-12T12:53:48Z</time></trkpt><trkpt lat="50.152539911669514" lon="3.7476823249541913"><ele>130.0</ele><time>2026-04-12T12:53:50Z</time></trkpt><trkpt lat="50.152460232580104" lon="3.747790908472844"><ele>130.0</ele><time>2026-04-12T12:53:52Z</time></trkpt><trkpt lat="50.15237883369597" lon="3.7478944988624274"><ele>130.2</ele><time>2026-04-12T12:53:54Z</time></trkpt><trkpt lat="50.15229329155881" lon="3.747998543365163"><ele>130.4</ele><time>2026-04-12T12:53:56Z</time></trkpt><trkpt lat="50.15221241826563" lon="3.748110941935689"><ele>130.6</ele><time>2026-04-12T12:53:58Z</time></trkpt><trkpt lat="50.15212683138332" lon="3.7482212446192986"><ele>130.8</ele><time>2026-04-12T12:54:00Z</time></trkpt><trkpt lat="50.15204168582764" lon="3.7483242688680036"><ele>131.0</ele><time>2026-04-12T12:54:02Z</time></trkpt><trkpt lat="50.151961530658724" lon="3.748427726305737"><ele>131.0</ele><time>2026-04-12T12:54:04Z</time></trkpt><trkpt lat="50.15187860856456" lon="3.748531003399284"><ele>131.0</ele><time>2026-04-12T12:54:06Z</time></trkpt><trkpt lat="50.15179376372051" lon="3.7486348282769075"><ele>131.0</ele><time>2026-04-12T12:54:08Z</time></trkpt><trkpt lat="50.15171372035336" lon="3.7487319561836134"><ele>131.0</ele><time>2026-04-12T12:54:10Z</time></trkpt><trkpt lat="50.15164080861648" lon="3.7488277212337717"><ele>131.0</ele><time>2026-04-12T12:54:12Z</time></trkpt><trkpt lat="50.1515629473895" lon="3.7489238786199137"><ele>130.8</ele><time>2026-04-12T12:54:14Z</time></trkpt><trkpt lat="50.151491505336864" lon="3.7490298533691035"><ele>130.6</ele><time>2026-04-12T12:54:16Z</time></trkpt><trkpt lat="50.15141831095432" lon="3.7491345108531307"><ele>130.4</ele><time>2026-04-12T12:54:17.999Z</time></trkpt><trkpt lat="50.15134291458306" lon="3.7492509726130945"><ele>130.2</ele><time>2026-04-12T12:54:19.999Z</time></trkpt><trkpt lat="50.15127037901915" lon="3.7493693186088275"><ele>130.0</ele><time>2026-04-12T12:54:21.999Z</time></trkpt><trkpt lat="50.15120045217531" lon="3.7494834555472503"><ele>130.0</ele><time>2026-04-12T12:54:23.999Z</time></trkpt><trkpt lat="50.15113550488123" lon="3.7496037618855365"><ele>130.0</ele><time>2026-04-12T12:54:25.999Z</time></trkpt><trkpt lat="50.15106862832634" lon="3.7497237857144374"><ele>130.0</ele><time>2026-04-12T12:54:27.999Z</time></trkpt><trkpt lat="50.15100511987346" lon="3.7498495179440474"><ele>130.0</ele><time>2026-04-12T12:54:29.999Z</time></trkpt><trkpt lat="50.15094301024121" lon="3.7499770026643318"><ele>130.0</ele><time>2026-04-12T12:54:31.999Z</time></trkpt><trkpt lat="50.15088049288" lon="3.750104480479147"><ele>130.0</ele><time>2026-04-12T12:54:33.999Z</time></trkpt><trkpt lat="50.150821271208386" lon="3.7502377604931745"><ele>130.0</ele><time>2026-04-12T12:54:35.999Z</time></trkpt><trkpt lat="50.15076560596776" lon="3.7503668823371963"><ele>130.0</ele><time>2026-04-12T12:54:37.999Z</time></trkpt><trkpt lat="50.15070950923635" lon="3.7505016320804163"><ele>130.0</ele><time>2026-04-12T12:54:40Z</time></trkpt><trkpt lat="50.150659048505474" lon="3.750644450412526"><ele>130.0</ele><time>2026-04-12T12:54:42Z</time></trkpt><trkpt lat="50.15060502024523" lon="3.750770689466898"><ele>130.0</ele><time>2026-04-12T12:54:44Z</time></trkpt><trkpt lat="50.15056429485049" lon="3.7509106295889487"><ele>130.0</ele><time>2026-04-12T12:54:46Z</time></trkpt><trkpt lat="50.150516116411566" lon="3.7510531991141014"><ele>130.0</ele><time>2026-04-12T12:54:48Z</time></trkpt><trkpt lat="50.150471085489045" lon="3.751202007032098"><ele>130.0</ele><time>2026-04-12T12:54:50Z</time></trkpt><trkpt lat="50.15042559616008" lon="3.7513503335083835"><ele>130.0</ele><time>2026-04-12T12:54:52Z</time></trkpt><trkpt lat="50.15037594949205" lon="3.7514984689700905"><ele>130.0</ele><time>2026-04-12T12:54:54Z</time></trkpt><trkpt lat="50.15032365407336" lon="3.7516608363336155"><ele>130.0</ele><time>2026-04-12T12:54:56Z</time></trkpt><trkpt lat="50.150278274736934" lon="3.751817924752138"><ele>130.0</ele><time>2026-04-12T12:54:58Z</time></trkpt><trkpt lat="50.1502303539353" lon="3.751974572260504"><ele>130.0</ele><time>2026-04-12T12:55:00Z</time></trkpt><trkpt lat="50.15018120307117" lon="3.7521329821717844"><ele>130.0</ele><time>2026-04-12T12:55:02Z</time></trkpt><trkpt lat="50.15013494392279" lon="3.7522874930607437"><ele>130.0</ele><time>2026-04-12T12:55:04Z</time></trkpt><trkpt lat="50.15008343778167" lon="3.7524547995284965"><ele>130.0</ele><time>2026-04-12T12:55:06Z</time></trkpt><trkpt lat="50.15003640617774" lon="3.7526055989134885"><ele>130.0</ele><time>2026-04-12T12:55:08Z</time></trkpt><trkpt lat="50.14998937841744" lon="3.7527726074855496"><ele>130.0</ele><time>2026-04-12T12:55:10Z</time></trkpt><trkpt lat="50.149943990755894" lon="3.7529238322705356"><ele>130.0</ele><time>2026-04-12T12:55:12Z</time></trkpt><trkpt lat="50.149896723973626" lon="3.7530770630082357"><ele>130.0</ele><time>2026-04-12T12:55:14Z</time></trkpt><trkpt lat="50.14984599327015" lon="3.7532266495733277"><ele>130.0</ele><time>2026-04-12T12:55:16Z</time></trkpt><trkpt lat="50.149793652694555" lon="3.7533745059040973"><ele>130.0</ele><time>2026-04-12T12:55:18Z</time></trkpt><trkpt lat="50.14973663836551" lon="3.753522198517181"><ele>130.0</ele><time>2026-04-12T12:55:20Z</time></trkpt><trkpt lat="50.14967493733462" lon="3.753659499864358"><ele>130.0</ele><time>2026-04-12T12:55:22Z</time></trkpt><trkpt lat="50.149609684612074" lon="3.75379155535904"><ele>130.0</ele><time>2026-04-12T12:55:24Z</time></trkpt><trkpt lat="50.149536001607174" lon="3.753922815656707"><ele>130.0</ele><time>2026-04-12T12:55:26Z</time></trkpt><trkpt lat="50.14946138141717" lon="3.7540561343878194"><ele>130.0</ele><time>2026-04-12T12:55:28Z</time></trkpt><trkpt lat="50.14938421366793" lon="3.754178330642188"><ele>130.0</ele><time>2026-04-12T12:55:30Z</time></trkpt><trkpt lat="50.149299232614105" lon="3.7542901051496225"><ele>130.0</ele><time>2026-04-12T12:55:32Z</time></trkpt><trkpt lat="50.14921877986682" lon="3.754392679767369"><ele>130.0</ele><time>2026-04-12T12:55:34Z</time></trkpt><trkpt lat="50.14913683901257" lon="3.7544876347118756"><ele>130.0</ele><time>2026-04-12T12:55:36Z</time></trkpt><trkpt lat="50.149055183463204" lon="3.7545821746561723"><ele>130.0</ele><time>2026-04-12T12:55:38Z</time></trkpt><trkpt lat="50.14897098332336" lon="3.754665953419855"><ele>130.4</ele><time>2026-04-12T12:55:40Z</time></trkpt><trkpt lat="50.14887720479105" lon="3.75474258620698"><ele>130.8</ele><time>2026-04-12T12:55:42Z</time></trkpt><trkpt lat="50.14878431738322" lon="3.754808436881035"><ele>131.2</ele><time>2026-04-12T12:55:44Z</time></trkpt><trkpt lat="50.1486996028934" lon="3.7548680408922395"><ele>131.6</ele><time>2026-04-12T12:55:46Z</time></trkpt><trkpt lat="50.14861906758101" lon="3.7549038470330123"><ele>132.0</ele><time>2026-04-12T12:55:48Z</time></trkpt><trkpt lat="50.148531496021064" lon="3.754958432208994"><ele>132.0</ele><time>2026-04-12T12:55:50Z</time></trkpt><trkpt lat="50.14844862378561" lon="3.754991126596937"><ele>132.0</ele><time>2026-04-12T12:55:52Z</time></trkpt><trkpt lat="50.14836326353507" lon="3.755030865218114"><ele>132.0</ele><time>2026-04-12T12:55:54Z</time></trkpt><trkpt lat="50.14827727077487" lon="3.7550581330821817"><ele>132.0</ele><time>2026-04-12T12:55:56Z</time></trkpt><trkpt lat="50.14818148672594" lon="3.7550834345175"><ele>132.0</ele><time>2026-04-12T12:55:58Z</time></trkpt><trkpt lat="50.1480921100623" lon="3.755099485281365"><ele>132.0</ele><time>2026-04-12T12:56:00Z</time></trkpt><trkpt lat="50.1479932106651" lon="3.755116962861357"><ele>132.0</ele><time>2026-04-12T12:56:02Z</time></trkpt><trkpt lat="50.147894838521964" lon="3.7551185750165503"><ele>132.0</ele><time>2026-04-12T12:56:04Z</time></trkpt><trkpt lat="50.14780347078831" lon="3.7551272362597725"><ele>132.0</ele><time>2026-04-12T12:56:06Z</time></trkpt><trkpt lat="50.14771276224337" lon="3.755131709099833"><ele>132.0</ele><time>2026-04-12T12:56:08Z</time></trkpt><trkpt lat="50.147625966433665" lon="3.755135261133163"><ele>132.0</ele><time>2026-04-12T12:56:10Z</time></trkpt><trkpt lat="50.147544079369" lon="3.7551446884191524"><ele>132.0</ele><time>2026-04-12T12:56:12Z</time></trkpt><trkpt lat="50.14746439569985" lon="3.7551524419376436"><ele>132.0</ele><time>2026-04-12T12:56:14Z</time></trkpt><trkpt lat="50.14738288401523" lon="3.7551656973621226"><ele>132.0</ele><time>2026-04-12T12:56:16Z</time></trkpt><trkpt lat="50.1473190905088" lon="3.7551780826244228"><ele>132.0</ele><time>2026-04-12T12:56:18Z</time></trkpt><trkpt lat="50.14724919857874" lon="3.7551728873774626"><ele>132.0</ele><time>2026-04-12T12:56:21Z</time></trkpt><trkpt lat="50.14716645064205" lon="3.755203378838963"><ele>132.0</ele><time>2026-04-12T12:57:15Z</time></trkpt><trkpt lat="50.14708033999954" lon="3.755255047372412"><ele>132.57142857142856</ele><time>2026-04-12T12:57:18Z</time></trkpt><trkpt lat="50.147013126485966" lon="3.755272054709908"><ele>133.14285714285714</ele><time>2026-04-12T12:57:20Z</time></trkpt><trkpt lat="50.14694900957066" lon="3.7553050804653085"><ele>133.71428571428572</ele><time>2026-04-12T12:57:22Z</time></trkpt><trkpt lat="50.14688590067001" lon="3.7553405485170592"><ele>134.28571428571428</ele><time>2026-04-12T12:57:24Z</time></trkpt><trkpt lat="50.146825292473196" lon="3.755380710254808"><ele>134.85714285714286</ele><time>2026-04-12T12:57:26Z</time></trkpt><trkpt lat="50.14676513217576" lon="3.7554267429430563"><ele>135.42857142857142</ele><time>2026-04-12T12:57:28Z</time></trkpt><trkpt lat="50.14670594056891" lon="3.7554719156314245"><ele>136.0</ele><time>2026-04-12T12:57:30Z</time></trkpt><trkpt lat="50.14664027340271" lon="3.7555168887970938"><ele>135.99999999999997</ele><time>2026-04-12T12:57:32Z</time></trkpt><trkpt lat="50.14657528106006" lon="3.7555607053233127"><ele>136.0</ele><time>2026-04-12T12:57:34Z</time></trkpt><trkpt lat="50.14651244748607" lon="3.7556054018152314"><ele>136.0</ele><time>2026-04-12T12:57:36Z</time></trkpt><trkpt lat="50.146449098369594" lon="3.755653183191791"><ele>136.0</ele><time>2026-04-12T12:57:38Z</time></trkpt><trkpt lat="50.1463815422543" lon="3.7556990855274264"><ele>136.0</ele><time>2026-04-12T12:57:40Z</time></trkpt><trkpt lat="50.14631652413237" lon="3.7557510243932466"><ele>135.99999999999997</ele><time>2026-04-12T12:57:42Z</time></trkpt><trkpt lat="50.14625679380717" lon="3.7557932850425244"><ele>136.0</ele><time>2026-04-12T12:57:44Z</time></trkpt><trkpt lat="50.146193506966526" lon="3.7558382712840244"><ele>136.7142857142857</ele><time>2026-04-12T12:57:46Z</time></trkpt><trkpt lat="50.1461321951931" lon="3.755890019661802"><ele>137.42857142857142</ele><time>2026-04-12T12:57:48Z</time></trkpt><trkpt lat="50.14606922741269" lon="3.7559332744120746"><ele>138.14285714285714</ele><time>2026-04-12T12:57:50Z</time></trkpt><trkpt lat="50.14600240125199" lon="3.755983077400065"><ele>138.85714285714283</ele><time>2026-04-12T12:57:52Z</time></trkpt><trkpt lat="50.145936717800524" lon="3.756025246370249"><ele>139.57142857142856</ele><time>2026-04-12T12:57:54Z</time></trkpt><trkpt lat="50.145870818626626" lon="3.7560748281671197"><ele>140.28571428571428</ele><time>2026-04-12T12:57:56Z</time></trkpt><trkpt lat="50.145803920766085" lon="3.7561191074025677"><ele>141.0</ele><time>2026-04-12T12:57:58Z</time></trkpt><trkpt lat="50.14574274855003" lon="3.7561599914844024"><ele>141.28571428571428</ele><time>2026-04-12T12:58:00Z</time></trkpt><trkpt lat="50.145680325026284" lon="3.7562050201326294"><ele>141.57142857142856</ele><time>2026-04-12T12:58:02Z</time></trkpt><trkpt lat="50.14561803954988" lon="3.7562469060770867"><ele>141.85714285714283</ele><time>2026-04-12T12:58:04Z</time></trkpt><trkpt lat="50.14555583624079" lon="3.756287663130226"><ele>142.14285714285714</ele><time>2026-04-12T12:58:06Z</time></trkpt><trkpt lat="50.14548852423184" lon="3.756329109174493"><ele>142.42857142857142</ele><time>2026-04-12T12:58:08Z</time></trkpt><trkpt lat="50.14542341850796" lon="3.7563708760142673"><ele>142.7142857142857</ele><time>2026-04-12T12:58:10Z</time></trkpt><trkpt lat="50.145360325324646" lon="3.7564098356379443"><ele>143.0</ele><time>2026-04-12T12:58:12Z</time></trkpt><trkpt lat="50.14530013125967" lon="3.75644396376211"><ele>142.99999999999997</ele><time>2026-04-12T12:58:14Z</time></trkpt><trkpt lat="50.14523240244792" lon="3.756479403432146"><ele>143.0</ele><time>2026-04-12T12:58:16Z</time></trkpt><trkpt lat="50.14516854674784" lon="3.7565137330656317"><ele>143.0</ele><time>2026-04-12T12:58:18Z</time></trkpt><trkpt lat="50.14510110310351" lon="3.7565499052599294"><ele>143.0</ele><time>2026-04-12T12:58:20Z</time></trkpt><trkpt lat="50.14503903745859" lon="3.7565777456410068"><ele>143.0</ele><time>2026-04-12T12:58:22Z</time></trkpt><trkpt lat="50.14496979806901" lon="3.7566078795100126"><ele>142.99999999999997</ele><time>2026-04-12T12:58:24Z</time></trkpt><trkpt lat="50.1449006637582" lon="3.7566408598360885"><ele>143.0</ele><time>2026-04-12T12:58:26Z</time></trkpt><trkpt lat="50.14482927039421" lon="3.7566761335247367"><ele>143.42857142857142</ele><time>2026-04-12T12:58:28Z</time></trkpt><trkpt lat="50.144758762731854" lon="3.756710786629027"><ele>143.85714285714286</ele><time>2026-04-12T12:58:30Z</time></trkpt><trkpt lat="50.14468732693379" lon="3.7567424796869933"><ele>144.28571428571428</ele><time>2026-04-12T12:58:32Z</time></trkpt><trkpt lat="50.14461651885498" lon="3.7567747766193524"><ele>144.71428571428572</ele><time>2026-04-12T12:58:34Z</time></trkpt><trkpt lat="50.144546780210945" lon="3.7568125014551668"><ele>145.14285714285714</ele><time>2026-04-12T12:58:35.999Z</time></trkpt><trkpt lat="50.14447775048535" lon="3.7568465488967213"><ele>145.57142857142856</ele><time>2026-04-12T12:58:37.999Z</time></trkpt><trkpt lat="50.1444076936272" lon="3.7568847405906474"><ele>146.0</ele><time>2026-04-12T12:58:39.999Z</time></trkpt><trkpt lat="50.14433378376958" lon="3.7569218381690237"><ele>146.33333333333331</ele><time>2026-04-12T12:58:41.999Z</time></trkpt><trkpt lat="50.14426178615041" lon="3.756956720497433"><ele>146.66666666666666</ele><time>2026-04-12T12:58:43.999Z</time></trkpt><trkpt lat="50.14418872740729" lon="3.756991767298144"><ele>147.0</ele><time>2026-04-12T12:58:45.999Z</time></trkpt><trkpt lat="50.144117181730586" lon="3.7570262271950026"><ele>147.33333333333334</ele><time>2026-04-12T12:58:47.999Z</time></trkpt><trkpt lat="50.14404253373038" lon="3.7570570253889697"><ele>147.66666666666669</ele><time>2026-04-12T12:58:49.999Z</time></trkpt><trkpt lat="50.14397387032426" lon="3.7570893951996487"><ele>148.0</ele><time>2026-04-12T12:58:52Z</time></trkpt><trkpt lat="50.143899608570315" lon="3.757121630609247"><ele>148.0</ele><time>2026-04-12T12:58:54Z</time></trkpt><trkpt lat="50.14382713380968" lon="3.7571559575174143"><ele>148.0</ele><time>2026-04-12T12:58:56Z</time></trkpt><trkpt lat="50.143755096257465" lon="3.7571821897332494"><ele>148.0</ele><time>2026-04-12T12:58:58Z</time></trkpt><trkpt lat="50.14367989750751" lon="3.757216134393526"><ele>148.0</ele><time>2026-04-12T12:59:00Z</time></trkpt><trkpt lat="50.143603404022876" lon="3.757246215139782"><ele>148.0</ele><time>2026-04-12T12:59:02Z</time></trkpt><trkpt lat="50.14353052277792" lon="3.7572713182035606"><ele>148.0</ele><time>2026-04-12T12:59:04Z</time></trkpt><trkpt lat="50.14345805689087" lon="3.757298478606174"><ele>148.0</ele><time>2026-04-12T12:59:06Z</time></trkpt><trkpt lat="50.14338977529371" lon="3.757318175939253"><ele>148.0</ele><time>2026-04-12T12:59:08Z</time></trkpt><trkpt lat="50.143317877619786" lon="3.757332612491768"><ele>148.0</ele><time>2026-04-12T12:59:10Z</time></trkpt><trkpt lat="50.143253342757696" lon="3.7573509569609267"><ele>148.0</ele><time>2026-04-12T12:59:12Z</time></trkpt><trkpt lat="50.14318651460014" lon="3.75736409484766"><ele>148.0</ele><time>2026-04-12T12:59:14Z</time></trkpt><trkpt lat="50.14312157209299" lon="3.7573779177991713"><ele>148.0</ele><time>2026-04-12T12:59:16Z</time></trkpt><trkpt lat="50.143058281752715" lon="3.7573840093696123"><ele>148.0</ele><time>2026-04-12T12:59:18Z</time></trkpt><trkpt lat="50.142987732846436" lon="3.757401445062882"><ele>148.28571428571428</ele><time>2026-04-12T12:59:20Z</time></trkpt><trkpt lat="50.14292054528434" lon="3.7574096122638787"><ele>148.57142857142856</ele><time>2026-04-12T12:59:22Z</time></trkpt><trkpt lat="50.1428537799793" lon="3.757416648881673"><ele>148.85714285714283</ele><time>2026-04-12T12:59:24Z</time></trkpt><trkpt lat="50.142786246656215" lon="3.7574254426773446"><ele>149.14285714285714</ele><time>2026-04-12T12:59:26Z</time></trkpt><trkpt lat="50.142716969489484" lon="3.7574514807656367"><ele>149.42857142857142</ele><time>2026-04-12T12:59:28Z</time></trkpt><trkpt lat="50.14264639043646" lon="3.7574707466198762"><ele>149.7142857142857</ele><time>2026-04-12T12:59:30Z</time></trkpt><trkpt lat="50.14255242020879" lon="3.757504995020727"><ele>150.0</ele><time>2026-04-12T12:59:33Z</time></trkpt><trkpt lat="50.142485219835955" lon="3.757534748718118"><ele>149.99999999999997</ele><time>2026-04-12T12:59:35Z</time></trkpt><trkpt lat="50.14242102032131" lon="3.757572594197581"><ele>150.0</ele><time>2026-04-12T12:59:37Z</time></trkpt><trkpt lat="50.142353710237835" lon="3.75761360991137"><ele>150.0</ele><time>2026-04-12T12:59:39Z</time></trkpt><trkpt lat="50.14228868971903" lon="3.7576546516117553"><ele>150.0</ele><time>2026-04-12T12:59:41Z</time></trkpt><trkpt lat="50.142224113140074" lon="3.757703507099674"><ele>150.0</ele><time>2026-04-12T12:59:43Z</time></trkpt><trkpt lat="50.14216114420662" lon="3.7577523945233087"><ele>149.99999999999997</ele><time>2026-04-12T12:59:45Z</time></trkpt><trkpt lat="50.14209344409664" lon="3.7578108627325415"><ele>150.0</ele><time>2026-04-12T12:59:47Z</time></trkpt><trkpt lat="50.142030772291015" lon="3.7578680829689364"><ele>150.0</ele><time>2026-04-12T12:59:49Z</time></trkpt><trkpt lat="50.14196191641316" lon="3.7579338688464454"><ele>150.0</ele><time>2026-04-12T12:59:51Z</time></trkpt><trkpt lat="50.14190421598438" lon="3.7580048923240508"><ele>150.0</ele><time>2026-04-12T12:59:53Z</time></trkpt><trkpt lat="50.141846533644696" lon="3.758077161303305"><ele>150.0</ele><time>2026-04-12T12:59:55Z</time></trkpt><trkpt lat="50.14178629370604" lon="3.7581645257030885"><ele>150.0</ele><time>2026-04-12T12:59:57Z</time></trkpt><trkpt lat="50.14172887966927" lon="3.7582456568773073"><ele>150.0</ele><time>2026-04-12T12:59:59Z</time></trkpt><trkpt lat="50.14167036765535" lon="3.758335379937044"><ele>150.0</ele><time>2026-04-12T13:00:01Z</time></trkpt><trkpt lat="50.14162191648076" lon="3.7584345463203985"><ele>150.0</ele><time>2026-04-12T13:00:03Z</time></trkpt><trkpt lat="50.14157078553678" lon="3.7585345836367194"><ele>150.0</ele><time>2026-04-12T13:00:05Z</time></trkpt><trkpt lat="50.141525132831944" lon="3.7586328287353203"><ele>150.0</ele><time>2026-04-12T13:00:07Z</time></trkpt><trkpt lat="50.141482395493014" lon="3.7587389825080333"><ele>150.0</ele><time>2026-04-12T13:00:09Z</time></trkpt><trkpt lat="50.14143459367444" lon="3.7588433483845765"><ele>150.0</ele><time>2026-04-12T13:00:11Z</time></trkpt><trkpt lat="50.14138592699473" lon="3.7589457921868483"><ele>150.5</ele><time>2026-04-12T13:00:13Z</time></trkpt><trkpt lat="50.14133779401382" lon="3.7590498374384094"><ele>151.0</ele><time>2026-04-12T13:00:15Z</time></trkpt><trkpt lat="50.14129077895061" lon="3.7591497739993636"><ele>151.5</ele><time>2026-04-12T13:00:17Z</time></trkpt><trkpt lat="50.141243732580136" lon="3.7592496328994747"><ele>152.0</ele><time>2026-04-12T13:00:19Z</time></trkpt><trkpt lat="50.141199914379094" lon="3.7593486414095914"><ele>152.5</ele><time>2026-04-12T13:00:21Z</time></trkpt><trkpt lat="50.14114864072783" lon="3.759447307227171"><ele>153.0</ele><time>2026-04-12T13:00:23Z</time></trkpt><trkpt lat="50.141101578225786" lon="3.7595488680987987"><ele>153.16666666666666</ele><time>2026-04-12T13:00:25Z</time></trkpt><trkpt lat="50.141054965769406" lon="3.7596495420743445"><ele>153.33333333333334</ele><time>2026-04-12T13:00:27Z</time></trkpt><trkpt lat="50.14100720030786" lon="3.7597541432650097"><ele>153.5</ele><time>2026-04-12T13:00:29Z</time></trkpt><trkpt lat="50.14094451912953" lon="3.759833253345026"><ele>153.66666666666669</ele><time>2026-04-12T13:00:31Z</time></trkpt><trkpt lat="50.14089446371689" lon="3.7599198491004566"><ele>153.83333333333334</ele><time>2026-04-12T13:00:33Z</time></trkpt><trkpt lat="50.14084021294172" lon="3.7600225783663035"><ele>154.0</ele><time>2026-04-12T13:00:35Z</time></trkpt><trkpt lat="50.14078634019271" lon="3.7601256587092617"><ele>154.16666666666669</ele><time>2026-04-12T13:00:37Z</time></trkpt><trkpt lat="50.14073365901259" lon="3.760224094832186"><ele>154.33333333333334</ele><time>2026-04-12T13:00:39Z</time></trkpt><trkpt lat="50.140677029715455" lon="3.7603172264408493"><ele>154.5</ele><time>2026-04-12T13:00:41Z</time></trkpt><trkpt lat="50.14062288818963" lon="3.7604156325099445"><ele>154.66666666666666</ele><time>2026-04-12T13:00:43Z</time></trkpt><trkpt lat="50.14056729424729" lon="3.760513191616925"><ele>154.83333333333331</ele><time>2026-04-12T13:00:45Z</time></trkpt><trkpt lat="50.14051046973299" lon="3.7606185290338616"><ele>155.0</ele><time>2026-04-12T13:00:47Z</time></trkpt><trkpt lat="50.1404550295754" lon="3.760716811362653"><ele>155.33333333333331</ele><time>2026-04-12T13:00:49Z</time></trkpt><trkpt lat="50.14040270325091" lon="3.760822922811304"><ele>155.66666666666666</ele><time>2026-04-12T13:00:51Z</time></trkpt><trkpt lat="50.14034882430715" lon="3.760915541564121"><ele>156.0</ele><time>2026-04-12T13:00:52.999Z</time></trkpt><trkpt lat="50.14030228870528" lon="3.761012808757265"><ele>156.33333333333334</ele><time>2026-04-12T13:00:54.999Z</time></trkpt><trkpt lat="50.14025150020726" lon="3.761100354531734"><ele>156.66666666666669</ele><time>2026-04-12T13:00:56.999Z</time></trkpt><trkpt lat="50.14020632542369" lon="3.761196104646149"><ele>157.0</ele><time>2026-04-12T13:00:59Z</time></trkpt><trkpt lat="50.14016295438121" lon="3.7612900248607346"><ele>157.16666666666669</ele><time>2026-04-12T13:01:01Z</time></trkpt><trkpt lat="50.14011214156249" lon="3.7613792796226324"><ele>157.33333333333334</ele><time>2026-04-12T13:01:03Z</time></trkpt><trkpt lat="50.140064383415286" lon="3.7614893242362544"><ele>157.5</ele><time>2026-04-12T13:01:05Z</time></trkpt><trkpt lat="50.14000606352327" lon="3.761599587723184"><ele>157.66666666666666</ele><time>2026-04-12T13:01:07Z</time></trkpt><trkpt lat="50.139958053365326" lon="3.761713875705829"><ele>157.83333333333331</ele><time>2026-04-12T13:01:09Z</time></trkpt><trkpt lat="50.13991129352668" lon="3.76181865001703"><ele>158.0</ele><time>2026-04-12T13:01:11Z</time></trkpt><trkpt lat="50.13988445300892" lon="3.7619417664590062"><ele>158.20000000000002</ele><time>2026-04-12T13:01:13Z</time></trkpt><trkpt lat="50.13981988051871" lon="3.762048494170976"><ele>158.4</ele><time>2026-04-12T13:01:15Z</time></trkpt><trkpt lat="50.139765117469196" lon="3.762160327945176"><ele>158.60000000000002</ele><time>2026-04-12T13:01:17Z</time></trkpt><trkpt lat="50.13970960344766" lon="3.7622773929930418"><ele>158.8</ele><time>2026-04-12T13:01:19Z</time></trkpt><trkpt lat="50.13965979702302" lon="3.762389166749839"><ele>159.0</ele><time>2026-04-12T13:01:21Z</time></trkpt><trkpt lat="50.139604638973054" lon="3.7625050284106702"><ele>159.0</ele><time>2026-04-12T13:01:23Z</time></trkpt><trkpt lat="50.13954479118107" lon="3.762625539316045"><ele>159.0</ele><time>2026-04-12T13:01:25Z</time></trkpt><trkpt lat="50.1394833225389" lon="3.762730257030561"><ele>159.0</ele><time>2026-04-12T13:01:27Z</time></trkpt><trkpt lat="50.13942248340731" lon="3.7628442397989614"><ele>159.0</ele><time>2026-04-12T13:01:29Z</time></trkpt><trkpt lat="50.1393579254098" lon="3.7629516847986046"><ele>159.0</ele><time>2026-04-12T13:01:31Z</time></trkpt><trkpt lat="50.13929021833879" lon="3.7630641632791777"><ele>159.4</ele><time>2026-04-12T13:01:33Z</time></trkpt><trkpt lat="50.139222942303235" lon="3.76317311101847"><ele>159.8</ele><time>2026-04-12T13:01:35Z</time></trkpt><trkpt lat="50.1391482015411" lon="3.7632757214522026"><ele>160.20000000000002</ele><time>2026-04-12T13:01:37Z</time></trkpt><trkpt lat="50.13907492302768" lon="3.763373150097372"><ele>160.60000000000002</ele><time>2026-04-12T13:01:39Z</time></trkpt><trkpt lat="50.13900247564654" lon="3.763463040828267"><ele>161.0</ele><time>2026-04-12T13:01:41Z</time></trkpt><trkpt lat="50.138924813058175" lon="3.7635403383444643"><ele>161.0</ele><time>2026-04-12T13:01:43Z</time></trkpt><trkpt lat="50.13884034708063" lon="3.763605593156506"><ele>161.0</ele><time>2026-04-12T13:01:45Z</time></trkpt><trkpt lat="50.138756883550506" lon="3.7636623697424634"><ele>161.0</ele><time>2026-04-12T13:01:47Z</time></trkpt><trkpt lat="50.13866138919194" lon="3.763703791189175"><ele>161.0</ele><time>2026-04-12T13:01:49Z</time></trkpt><trkpt lat="50.13855883105001" lon="3.763729743434892"><ele>161.0</ele><time>2026-04-12T13:01:51Z</time></trkpt><trkpt lat="50.138450295424384" lon="3.7637474815129885"><ele>161.0</ele><time>2026-04-12T13:01:53Z</time></trkpt><trkpt lat="50.13834179108515" lon="3.7637551194910195"><ele>161.0</ele><time>2026-04-12T13:01:55Z</time></trkpt><trkpt lat="50.138232848168464" lon="3.7637396941804626"><ele>161.0</ele><time>2026-04-12T13:01:57Z</time></trkpt><trkpt lat="50.13813282296585" lon="3.7637032714066057"><ele>161.0</ele><time>2026-04-12T13:01:59Z</time></trkpt><trkpt lat="50.13802510409371" lon="3.7636531230741794"><ele>161.0</ele><time>2026-04-12T13:02:01Z</time></trkpt><trkpt lat="50.13791926650942" lon="3.763589966110758"><ele>160.60000000000002</ele><time>2026-04-12T13:02:03Z</time></trkpt><trkpt lat="50.137822045545136" lon="3.763500396840329"><ele>160.20000000000002</ele><time>2026-04-12T13:02:05Z</time></trkpt><trkpt lat="50.13771457702713" lon="3.7633971862382456"><ele>159.8</ele><time>2026-04-12T13:02:07Z</time></trkpt><trkpt lat="50.137664888679794" lon="3.7633352069370543"><ele>159.4</ele><time>2026-04-12T13:02:08Z</time></trkpt><trkpt lat="50.137563738826195" lon="3.763216867758505"><ele>159.0</ele><time>2026-04-12T13:02:10Z</time></trkpt><trkpt lat="50.13745918112987" lon="3.7631088964232227"><ele>158.8</ele><time>2026-04-12T13:02:12Z</time></trkpt><trkpt lat="50.137361464171846" lon="3.762997765587343"><ele>158.60000000000002</ele><time>2026-04-12T13:02:14Z</time></trkpt><trkpt lat="50.13725012250147" lon="3.762905749881018"><ele>158.4</ele><time>2026-04-12T13:02:16Z</time></trkpt><trkpt lat="50.13718893423374" lon="3.7628700801452624"><ele>158.20000000000002</ele><time>2026-04-12T13:02:17Z</time></trkpt><trkpt lat="50.13706759209133" lon="3.762833580873461"><ele>158.0</ele><time>2026-04-12T13:02:19Z</time></trkpt><trkpt lat="50.136949396084454" lon="3.762810277186985"><ele>158.0</ele><time>2026-04-12T13:02:21Z</time></trkpt><trkpt lat="50.13683586876791" lon="3.7627963595311598"><ele>158.0</ele><time>2026-04-12T13:02:23Z</time></trkpt><trkpt lat="50.13672114058048" lon="3.7627816575830733"><ele>158.0</ele><time>2026-04-12T13:02:25Z</time></trkpt><trkpt lat="50.13660541232753" lon="3.7627520985347465"><ele>158.0</ele><time>2026-04-12T13:02:27Z</time></trkpt><trkpt lat="50.13649239518142" lon="3.7626989116186538"><ele>157.66666666666666</ele><time>2026-04-12T13:02:29Z</time></trkpt><trkpt lat="50.13637975192821" lon="3.762625949252567"><ele>157.33333333333331</ele><time>2026-04-12T13:02:31Z</time></trkpt><trkpt lat="50.13627297549003" lon="3.76254414014132"><ele>157.0</ele><time>2026-04-12T13:02:33Z</time></trkpt><trkpt lat="50.13621332060652" lon="3.7624963958797624"><ele>156.66666666666666</ele><time>2026-04-12T13:02:34Z</time></trkpt><trkpt lat="50.13615691718204" lon="3.7624458942759604"><ele>156.33333333333334</ele><time>2026-04-12T13:02:35Z</time></trkpt><trkpt lat="50.136102484920386" lon="3.762388404309746"><ele>156.0</ele><time>2026-04-12T13:02:36Z</time></trkpt><trkpt lat="50.13605238169684" lon="3.7623174435819386"><ele>156.0</ele><time>2026-04-12T13:02:37Z</time></trkpt><trkpt lat="50.1359999381291" lon="3.7622460521447882"><ele>156.0</ele><time>2026-04-12T13:02:38Z</time></trkpt><trkpt lat="50.13595052170183" lon="3.76217676741"><ele>156.0</ele><time>2026-04-12T13:02:39Z</time></trkpt><trkpt lat="50.13590092969689" lon="3.762104697709568"><ele>156.0</ele><time>2026-04-12T13:02:40Z</time></trkpt><trkpt lat="50.135809285015036" lon="3.761963390140588"><ele>156.0</ele><time>2026-04-12T13:02:42Z</time></trkpt><trkpt lat="50.13572143593159" lon="3.761821206513705"><ele>155.4</ele><time>2026-04-12T13:02:44Z</time></trkpt><trkpt lat="50.1356778635944" lon="3.761749968041429"><ele>154.8</ele><time>2026-04-12T13:02:45Z</time></trkpt><trkpt lat="50.13559690805691" lon="3.7616023884455103"><ele>154.20000000000002</ele><time>2026-04-12T13:02:47Z</time></trkpt><trkpt lat="50.13554164044436" lon="3.7615513823964024"><ele>153.6</ele><time>2026-04-12T13:02:48Z</time></trkpt><trkpt lat="50.13543114145311" lon="3.7614687247522522"><ele>153.0</ele><time>2026-04-12T13:02:50Z</time></trkpt><trkpt lat="50.135362880609776" lon="3.7613273406543315"><ele>153.0</ele><time>2026-04-12T13:02:51.999Z</time></trkpt><trkpt lat="50.13531358749773" lon="3.76115580695529"><ele>153.0</ele><time>2026-04-12T13:02:53.999Z</time></trkpt><trkpt lat="50.13522920973645" lon="3.761012922685148"><ele>153.0</ele><time>2026-04-12T13:02:55.999Z</time></trkpt><trkpt lat="50.13512361586795" lon="3.760915814688633"><ele>153.0</ele><time>2026-04-12T13:02:57.999Z</time></trkpt><trkpt lat="50.135007911364255" lon="3.760818629344095"><ele>152.85714285714286</ele><time>2026-04-12T13:02:59.999Z</time></trkpt><trkpt lat="50.134943623324276" lon="3.760763041293667"><ele>152.71428571428572</ele><time>2026-04-12T13:03:00.999Z</time></trkpt><trkpt lat="50.134880554425365" lon="3.7607222614925484"><ele>152.57142857142856</ele><time>2026-04-12T13:03:01.999Z</time></trkpt><trkpt lat="50.1348125424511" lon="3.760679061299807"><ele>152.42857142857144</ele><time>2026-04-12T13:03:02.999Z</time></trkpt><trkpt lat="50.13475560696978" lon="3.7606313265511813"><ele>152.2857142857143</ele><time>2026-04-12T13:03:04Z</time></trkpt><trkpt lat="50.13468653185101" lon="3.7605905120443666"><ele>152.14285714285714</ele><time>2026-04-12T13:03:05Z</time></trkpt><trkpt lat="50.13462184534387" lon="3.7605448247520026"><ele>152.0</ele><time>2026-04-12T13:03:06Z</time></trkpt><trkpt lat="50.13455732028899" lon="3.7604970274843206"><ele>151.7142857142857</ele><time>2026-04-12T13:03:07Z</time></trkpt><trkpt lat="50.134493178420634" lon="3.760450021156282"><ele>151.42857142857144</ele><time>2026-04-12T13:03:08Z</time></trkpt><trkpt lat="50.13443240308122" lon="3.760401712854211"><ele>151.14285714285714</ele><time>2026-04-12T13:03:09Z</time></trkpt><trkpt lat="50.134361850490606" lon="3.7603567821397443"><ele>150.85714285714283</ele><time>2026-04-12T13:03:10Z</time></trkpt><trkpt lat="50.13428737630111" lon="3.760308525412881"><ele>150.57142857142856</ele><time>2026-04-12T13:03:11Z</time></trkpt><trkpt lat="50.13422539449799" lon="3.7602616247562803"><ele>150.28571428571428</ele><time>2026-04-12T13:03:12Z</time></trkpt><trkpt lat="50.134162618926645" lon="3.7602004865842606"><ele>150.0</ele><time>2026-04-12T13:03:13Z</time></trkpt><trkpt lat="50.13410468967812" lon="3.7601337033269995"><ele>149.66666666666666</ele><time>2026-04-12T13:03:14Z</time></trkpt><trkpt lat="50.13405838596875" lon="3.760033765418718"><ele>149.33333333333334</ele><time>2026-04-12T13:03:15Z</time></trkpt><trkpt lat="50.13401755257567" lon="3.759922516021454"><ele>149.0</ele><time>2026-04-12T13:03:16Z</time></trkpt><trkpt lat="50.133988237200995" lon="3.759799798544586"><ele>148.66666666666669</ele><time>2026-04-12T13:03:17Z</time></trkpt><trkpt lat="50.13396729369343" lon="3.7596726344098537"><ele>148.33333333333334</ele><time>2026-04-12T13:03:18Z</time></trkpt><trkpt lat="50.133954256192155" lon="3.7595403342195555"><ele>148.0</ele><time>2026-04-12T13:03:19Z</time></trkpt><trkpt lat="50.13394517423564" lon="3.759415980660722"><ele>147.0</ele><time>2026-04-12T13:03:20Z</time></trkpt><trkpt lat="50.13394123185907" lon="3.7592832247444092"><ele>146.0</ele><time>2026-04-12T13:03:21Z</time></trkpt><trkpt lat="50.13393728104404" lon="3.7591519802649405"><ele>145.0</ele><time>2026-04-12T13:03:22Z</time></trkpt><trkpt lat="50.13392902675577" lon="3.759020906011922"><ele>144.0</ele><time>2026-04-12T13:03:23Z</time></trkpt><trkpt lat="50.13392338332572" lon="3.758887794352407"><ele>143.0</ele><time>2026-04-12T13:03:24Z</time></trkpt><trkpt lat="50.13391523705697" lon="3.758755481222534"><ele>142.0</ele><time>2026-04-12T13:03:25Z</time></trkpt><trkpt lat="50.13390822421597" lon="3.7586220082342696"><ele>141.5</ele><time>2026-04-12T13:03:26Z</time></trkpt><trkpt lat="50.13390027857948" lon="3.758486246549725"><ele>141.0</ele><time>2026-04-12T13:03:27Z</time></trkpt><trkpt lat="50.13389168877593" lon="3.7583475461234683"><ele>140.5</ele><time>2026-04-12T13:03:28Z</time></trkpt><trkpt lat="50.133862575103336" lon="3.7582207371726506"><ele>140.0</ele><time>2026-04-12T13:03:29Z</time></trkpt><trkpt lat="50.13380166651737" lon="3.7581188291965955"><ele>139.5</ele><time>2026-04-12T13:03:30Z</time></trkpt><trkpt lat="50.1337358264688" lon="3.758024862026282"><ele>139.0</ele><time>2026-04-12T13:03:31Z</time></trkpt><trkpt lat="50.133672392798395" lon="3.7579366620586194"><ele>139.0</ele><time>2026-04-12T13:03:32Z</time></trkpt><trkpt lat="50.13360294504635" lon="3.7578630251065657"><ele>139.0</ele><time>2026-04-12T13:03:33Z</time></trkpt><trkpt lat="50.13351322105766" lon="3.7578012846541724"><ele>139.0</ele><time>2026-04-12T13:03:35Z</time></trkpt><trkpt lat="50.13342188569" lon="3.757912421520095"><ele>139.0</ele><time>2026-04-12T13:03:37Z</time></trkpt><trkpt lat="50.13331063694721" lon="3.757964322333697"><ele>139.0</ele><time>2026-04-12T13:03:39Z</time></trkpt><trkpt lat="50.13324853861922" lon="3.757980931233295"><ele>138.16666666666669</ele><time>2026-04-12T13:03:40Z</time></trkpt><trkpt lat="50.1331825725519" lon="3.7580080212220786"><ele>137.33333333333334</ele><time>2026-04-12T13:03:41Z</time></trkpt><trkpt lat="50.13311200997621" lon="3.7580285365487893"><ele>136.5</ele><time>2026-04-12T13:03:42Z</time></trkpt><trkpt lat="50.13304735379421" lon="3.758052741301004"><ele>135.66666666666666</ele><time>2026-04-12T13:03:43Z</time></trkpt><trkpt lat="50.13292802601217" lon="3.758109600875836"><ele>134.83333333333331</ele><time>2026-04-12T13:03:45Z</time></trkpt><trkpt lat="50.132863634801545" lon="3.7581383245088387"><ele>134.0</ele><time>2026-04-12T13:03:46Z</time></trkpt><trkpt lat="50.13280211737615" lon="3.758174266214808"><ele>134.0</ele><time>2026-04-12T13:03:47Z</time></trkpt><trkpt lat="50.13273216591126" lon="3.7582986700070866"><ele>134.0</ele><time>2026-04-12T13:03:49Z</time></trkpt><trkpt lat="50.13268827442938" lon="3.7584128993267534"><ele>134.0</ele><time>2026-04-12T13:03:52Z</time></trkpt><trkpt lat="50.132431662469" lon="3.758951582955303"><ele>134.0</ele><time>2026-04-12T13:13:00Z</time></trkpt><trkpt lat="50.132362211761155" lon="3.7589993396579238"><ele>134.0</ele><time>2026-04-12T13:13:02Z</time></trkpt><trkpt lat="50.13228464253359" lon="3.75904280356261"><ele>134.0</ele><time>2026-04-12T13:13:04Z</time></trkpt><trkpt lat="50.1322073290741" lon="3.759106890625031"><ele>134.0</ele><time>2026-04-12T13:13:06Z</time></trkpt><trkpt lat="50.132118120582945" lon="3.7591832434952055"><ele>134.0</ele><time>2026-04-12T13:13:08Z</time></trkpt><trkpt lat="50.13201968741024" lon="3.75924400632065"><ele>134.0</ele><time>2026-04-12T13:13:10Z</time></trkpt><trkpt lat="50.13191563229971" lon="3.759280046640956"><ele>134.0</ele><time>2026-04-12T13:13:12Z</time></trkpt><trkpt lat="50.131812753077554" lon="3.759326817622562"><ele>134.0</ele><time>2026-04-12T13:13:14Z</time></trkpt><trkpt lat="50.131735954692445" lon="3.7593806885860723"><ele>134.0</ele><time>2026-04-12T13:13:16Z</time></trkpt><trkpt lat="50.13165830908188" lon="3.759434408794182"><ele>134.0</ele><time>2026-04-12T13:13:18Z</time></trkpt><trkpt lat="50.131583877186635" lon="3.759481044061241"><ele>134.33333333333331</ele><time>2026-04-12T13:13:20Z</time></trkpt><trkpt lat="50.13150471415477" lon="3.75953463429034"><ele>134.66666666666666</ele><time>2026-04-12T13:13:22Z</time></trkpt><trkpt lat="50.13142702502437" lon="3.7595965319142746"><ele>135.0</ele><time>2026-04-12T13:13:24Z</time></trkpt><trkpt lat="50.13135343261052" lon="3.7596543305759953"><ele>135.33333333333334</ele><time>2026-04-12T13:13:26Z</time></trkpt><trkpt lat="50.13126470255315" lon="3.7597174039097316"><ele>135.66666666666669</ele><time>2026-04-12T13:13:28Z</time></trkpt><trkpt lat="50.13119356513773" lon="3.7597983763903065"><ele>136.0</ele><time>2026-04-12T13:13:30Z</time></trkpt><trkpt lat="50.13110153196597" lon="3.759861780948446"><ele>136.0</ele><time>2026-04-12T13:13:32Z</time></trkpt><trkpt lat="50.13101979882851" lon="3.759924593241961"><ele>136.0</ele><time>2026-04-12T13:13:34Z</time></trkpt><trkpt lat="50.130920256334356" lon="3.7599409128626546"><ele>136.0</ele><time>2026-04-12T13:13:36Z</time></trkpt><trkpt lat="50.13081816877488" lon="3.759956056061577"><ele>136.0</ele><time>2026-04-12T13:13:38Z</time></trkpt><trkpt lat="50.13072516618305" lon="3.759960769278509"><ele>136.0</ele><time>2026-04-12T13:13:40Z</time></trkpt><trkpt lat="50.13062588493797" lon="3.7599727208237934"><ele>135.4</ele><time>2026-04-12T13:13:42Z</time></trkpt><trkpt lat="50.13053252502811" lon="3.7599767086247646"><ele>134.8</ele><time>2026-04-12T13:13:44Z</time></trkpt><trkpt lat="50.13043815706834" lon="3.7599888621581634"><ele>134.20000000000002</ele><time>2026-04-12T13:13:46Z</time></trkpt><trkpt lat="50.13034064827884" lon="3.759997405788558"><ele>133.6</ele><time>2026-04-12T13:13:48.001Z</time></trkpt><trkpt lat="50.13024686846356" lon="3.7600132300886573"><ele>133.0</ele><time>2026-04-12T13:13:50.001Z</time></trkpt><trkpt lat="50.13015088981052" lon="3.760020267629807"><ele>133.0</ele><time>2026-04-12T13:13:52.001Z</time></trkpt><trkpt lat="50.13006448181586" lon="3.760013336411706"><ele>133.0</ele><time>2026-04-12T13:13:54.001Z</time></trkpt><trkpt lat="50.12996808985899" lon="3.7600418527728734"><ele>133.0</ele><time>2026-04-12T13:13:56.001Z</time></trkpt><trkpt lat="50.12987023650542" lon="3.7600468684155546"><ele>133.0</ele><time>2026-04-12T13:13:58.001Z</time></trkpt><trkpt lat="50.12977520903121" lon="3.7600539788404763"><ele>133.0</ele><time>2026-04-12T13:14:00.001Z</time></trkpt><trkpt lat="50.12968170504169" lon="3.7600640844754816"><ele>133.20000000000002</ele><time>2026-04-12T13:14:02.001Z</time></trkpt><trkpt lat="50.12958331229929" lon="3.760053761200698"><ele>133.4</ele><time>2026-04-12T13:14:04.001Z</time></trkpt><trkpt lat="50.1295020155703" lon="3.760039961553269"><ele>133.60000000000002</ele><time>2026-04-12T13:14:06.001Z</time></trkpt><trkpt lat="50.12940282144732" lon="3.760059002246838"><ele>133.8</ele><time>2026-04-12T13:14:08.001Z</time></trkpt><trkpt lat="50.129304421874906" lon="3.7600480602475055"><ele>134.0</ele><time>2026-04-12T13:14:10.001Z</time></trkpt><trkpt lat="50.12920927127202" lon="3.760034872023662"><ele>134.0</ele><time>2026-04-12T13:14:12.001Z</time></trkpt><trkpt lat="50.1291152758599" lon="3.760012764787194"><ele>134.0</ele><time>2026-04-12T13:14:14.001Z</time></trkpt><trkpt lat="50.12902239953853" lon="3.759994195754629"><ele>134.0</ele><time>2026-04-12T13:14:16.001Z</time></trkpt><trkpt lat="50.12893233337959" lon="3.7599801574539584"><ele>134.0</ele><time>2026-04-12T13:14:18.001Z</time></trkpt><trkpt lat="50.12883904429217" lon="3.7599527824156995"><ele>134.0</ele><time>2026-04-12T13:14:20.001Z</time></trkpt><trkpt lat="50.1287478830499" lon="3.7599160186068"><ele>134.4</ele><time>2026-04-12T13:14:22.001Z</time></trkpt><trkpt lat="50.12865758591077" lon="3.759868540096657"><ele>134.8</ele><time>2026-04-12T13:14:24.001Z</time></trkpt><trkpt lat="50.128570435215956" lon="3.7598140662922868"><ele>135.2</ele><time>2026-04-12T13:14:26.001Z</time></trkpt><trkpt lat="50.12847871602365" lon="3.759745859033363"><ele>135.6</ele><time>2026-04-12T13:14:28.001Z</time></trkpt><trkpt lat="50.128399701102005" lon="3.759677196419723"><ele>136.0</ele><time>2026-04-12T13:14:30.001Z</time></trkpt><trkpt lat="50.12831849308924" lon="3.759591694797771"><ele>136.0</ele><time>2026-04-12T13:14:32.001Z</time></trkpt><trkpt lat="50.12824213887197" lon="3.7594875033426494"><ele>136.0</ele><time>2026-04-12T13:14:34.001Z</time></trkpt><trkpt lat="50.12816186187331" lon="3.759389095761809"><ele>136.0</ele><time>2026-04-12T13:14:36.001Z</time></trkpt><trkpt lat="50.12808140492575" lon="3.759293174001389"><ele>136.0</ele><time>2026-04-12T13:14:38.001Z</time></trkpt><trkpt lat="50.12800640773497" lon="3.7591894469312948"><ele>136.0</ele><time>2026-04-12T13:14:40.001Z</time></trkpt><trkpt lat="50.127928033479726" lon="3.7591026489295682"><ele>136.0</ele><time>2026-04-12T13:14:42.001Z</time></trkpt><trkpt lat="50.1278561269218" lon="3.759016075063132"><ele>136.0</ele><time>2026-04-12T13:14:44.001Z</time></trkpt><trkpt lat="50.127780118734805" lon="3.7589294549474848"><ele>136.0</ele><time>2026-04-12T13:14:46.001Z</time></trkpt><trkpt lat="50.12770110779907" lon="3.7588473450171738"><ele>136.0</ele><time>2026-04-12T13:14:48.001Z</time></trkpt><trkpt lat="50.12762148851682" lon="3.7587696152505967"><ele>136.0</ele><time>2026-04-12T13:14:50.001Z</time></trkpt><trkpt lat="50.1275324526365" lon="3.758706710191349"><ele>136.0</ele><time>2026-04-12T13:14:52.001Z</time></trkpt><trkpt lat="50.1274363470144" lon="3.7586698760357415"><ele>136.0</ele><time>2026-04-12T13:14:54.001Z</time></trkpt><trkpt lat="50.12734501214609" lon="3.758668484042067"><ele>136.0</ele><time>2026-04-12T13:14:56.001Z</time></trkpt><trkpt lat="50.12725462588264" lon="3.7586820333845465"><ele>136.0</ele><time>2026-04-12T13:14:58.001Z</time></trkpt><trkpt lat="50.127165581973316" lon="3.7587018373232124"><ele>136.0</ele><time>2026-04-12T13:15:00.001Z</time></trkpt><trkpt lat="50.12707941279156" lon="3.758739367831678"><ele>136.0</ele><time>2026-04-12T13:15:02.001Z</time></trkpt><trkpt lat="50.12699753460662" lon="3.7587610630703305"><ele>136.0</ele><time>2026-04-12T13:15:04.001Z</time></trkpt><trkpt lat="50.12691393951944" lon="3.7587947687117538"><ele>136.0</ele><time>2026-04-12T13:15:06.001Z</time></trkpt><trkpt lat="50.12682604598413" lon="3.758817171311752"><ele>136.0</ele><time>2026-04-12T13:15:08.001Z</time></trkpt><trkpt lat="50.12673856420696" lon="3.7588458143047383"><ele>136.0</ele><time>2026-04-12T13:15:10.001Z</time></trkpt><trkpt lat="50.1266495478944" lon="3.7588781541268728"><ele>136.0</ele><time>2026-04-12T13:15:12.001Z</time></trkpt><trkpt lat="50.126557433920915" lon="3.758895876312198"><ele>136.33333333333334</ele><time>2026-04-12T13:15:14.001Z</time></trkpt><trkpt lat="50.12646527640664" lon="3.758906989208803"><ele>136.66666666666669</ele><time>2026-04-12T13:15:16.001Z</time></trkpt><trkpt lat="50.126380619327335" lon="3.758924637830742"><ele>137.0</ele><time>2026-04-12T13:15:18.001Z</time></trkpt><trkpt lat="50.1262917443351" lon="3.7589240327636064"><ele>137.33333333333334</ele><time>2026-04-12T13:15:20.001Z</time></trkpt><trkpt lat="50.12619818110045" lon="3.758949031577798"><ele>137.66666666666666</ele><time>2026-04-12T13:15:22.001Z</time></trkpt><trkpt lat="50.126116030371705" lon="3.758965072860938"><ele>138.0</ele><time>2026-04-12T13:15:24.001Z</time></trkpt><trkpt lat="50.126026210229405" lon="3.7589949999930554"><ele>138.0</ele><time>2026-04-12T13:15:26.001Z</time></trkpt><trkpt lat="50.12593105914644" lon="3.7590119050546256"><ele>138.0</ele><time>2026-04-12T13:15:28.001Z</time></trkpt><trkpt lat="50.125849715353645" lon="3.7590336511524285"><ele>138.0</ele><time>2026-04-12T13:15:30.001Z</time></trkpt><trkpt lat="50.12576098844419" lon="3.7589948182826127"><ele>138.0</ele><time>2026-04-12T13:15:32.001Z</time></trkpt><trkpt lat="50.12567614067514" lon="3.758945056807785"><ele>138.0</ele><time>2026-04-12T13:15:34.001Z</time></trkpt><trkpt lat="50.12560560409832" lon="3.7588797300478447"><ele>138.0</ele><time>2026-04-12T13:15:36.001Z</time></trkpt><trkpt lat="50.12553242499175" lon="3.758819304188874"><ele>138.0</ele><time>2026-04-12T13:15:38.001Z</time></trkpt><trkpt lat="50.12545474165453" lon="3.7587401201445685"><ele>138.0</ele><time>2026-04-12T13:15:40.001Z</time></trkpt><trkpt lat="50.12536111501291" lon="3.7586977422212713"><ele>138.0</ele><time>2026-04-12T13:15:42.001Z</time></trkpt><trkpt lat="50.12525863302739" lon="3.758658886559802"><ele>138.0</ele><time>2026-04-12T13:15:44.001Z</time></trkpt><trkpt lat="50.12515699935025" lon="3.7586300472930727"><ele>138.0</ele><time>2026-04-12T13:15:46.001Z</time></trkpt><trkpt lat="50.125055542426296" lon="3.7586082966872096"><ele>138.0</ele><time>2026-04-12T13:15:48.001Z</time></trkpt><trkpt lat="50.124952179557916" lon="3.7585872073023667"><ele>138.0</ele><time>2026-04-12T13:15:50.001Z</time></trkpt><trkpt lat="50.124849865977616" lon="3.758563745381856"><ele>138.0</ele><time>2026-04-12T13:15:52.001Z</time></trkpt><trkpt lat="50.124749856191386" lon="3.7585330316593"><ele>138.0</ele><time>2026-04-12T13:15:54.001Z</time></trkpt><trkpt lat="50.124648350353816" lon="3.75851135538348"><ele>138.0</ele><time>2026-04-12T13:15:56.001Z</time></trkpt><trkpt lat="50.124548483951635" lon="3.7584741360087657"><ele>138.0</ele><time>2026-04-12T13:15:58.001Z</time></trkpt><trkpt lat="50.124452400013695" lon="3.758426782675784"><ele>138.0</ele><time>2026-04-12T13:16:00.001Z</time></trkpt><trkpt lat="50.12435952812888" lon="3.7583728503541924"><ele>138.0</ele><time>2026-04-12T13:16:02.001Z</time></trkpt><trkpt lat="50.124265763711186" lon="3.7583080653222987"><ele>138.0</ele><time>2026-04-12T13:16:04.001Z</time></trkpt><trkpt lat="50.12417900204779" lon="3.758250579483888"><ele>138.0</ele><time>2026-04-12T13:16:06.001Z</time></trkpt><trkpt lat="50.1240900072302" lon="3.7581768408090404"><ele>138.8</ele><time>2026-04-12T13:16:08.001Z</time></trkpt><trkpt lat="50.12400157654767" lon="3.7580902758167025"><ele>139.60000000000002</ele><time>2026-04-12T13:16:10.001Z</time></trkpt><trkpt lat="50.12391233618041" lon="3.7580218029405303"><ele>140.39999999999998</ele><time>2026-04-12T13:16:12.001Z</time></trkpt><trkpt lat="50.12382570449352" lon="3.757934394093067"><ele>141.2</ele><time>2026-04-12T13:16:14.001Z</time></trkpt><trkpt lat="50.12373812745915" lon="3.7578527789822314"><ele>142.0</ele><time>2026-04-12T13:16:16.001Z</time></trkpt><trkpt lat="50.12364959816793" lon="3.757767615095833"><ele>141.4</ele><time>2026-04-12T13:16:18.001Z</time></trkpt><trkpt lat="50.12356276546582" lon="3.757672569336316"><ele>140.79999999999998</ele><time>2026-04-12T13:16:20.001Z</time></trkpt><trkpt lat="50.123484279422065" lon="3.7575781469768446"><ele>140.2</ele><time>2026-04-12T13:16:22.001Z</time></trkpt><trkpt lat="50.12340624263788" lon="3.7574890767179117"><ele>139.6</ele><time>2026-04-12T13:16:24.001Z</time></trkpt><trkpt lat="50.1233300224483" lon="3.757390041787383"><ele>139.0</ele><time>2026-04-12T13:16:26.001Z</time></trkpt><trkpt lat="50.12325554071291" lon="3.7572905277169073"><ele>139.4</ele><time>2026-04-12T13:16:28.001Z</time></trkpt><trkpt lat="50.12318161344505" lon="3.7571768051281906"><ele>139.8</ele><time>2026-04-12T13:16:30.001Z</time></trkpt><trkpt lat="50.123109384422925" lon="3.7570575724539235"><ele>140.2</ele><time>2026-04-12T13:16:32.001Z</time></trkpt><trkpt lat="50.123041594868624" lon="3.756941779299435"><ele>140.6</ele><time>2026-04-12T13:16:34.001Z</time></trkpt><trkpt lat="50.1229631433507" lon="3.756837901632588"><ele>141.0</ele><time>2026-04-12T13:16:36.001Z</time></trkpt><trkpt lat="50.12291603767948" lon="3.7567425592063444"><ele>141.0</ele><time>2026-04-12T13:16:38.001Z</time></trkpt><trkpt lat="50.122874227756796" lon="3.756665302926875"><ele>141.0</ele><time>2026-04-12T13:16:39.001Z</time></trkpt><trkpt lat="50.122811837959695" lon="3.75662492388198"><ele>141.0</ele><time>2026-04-12T13:16:40.001Z</time></trkpt><trkpt lat="50.12271584799344" lon="3.756575956997457"><ele>141.0</ele><time>2026-04-12T13:16:42.001Z</time></trkpt><trkpt lat="50.12261953363522" lon="3.7566072382513513"><ele>141.0</ele><time>2026-04-12T13:16:44.001Z</time></trkpt><trkpt lat="50.122535023546654" lon="3.7567001581023183"><ele>141.0</ele><time>2026-04-12T13:16:46.001Z</time></trkpt><trkpt lat="50.12247038715136" lon="3.756799105029984"><ele>141.0</ele><time>2026-04-12T13:16:48.001Z</time></trkpt><trkpt lat="50.12240954004641" lon="3.756898142962616"><ele>141.0</ele><time>2026-04-12T13:16:50.001Z</time></trkpt><trkpt lat="50.12237136965201" lon="3.7570027125724224"><ele>141.0</ele><time>2026-04-12T13:16:52.001Z</time></trkpt><trkpt lat="50.12232828284181" lon="3.7570970008229185"><ele>141.0</ele><time>2026-04-12T13:16:54.001Z</time></trkpt><trkpt lat="50.122278637105175" lon="3.7572018781960317"><ele>141.0</ele><time>2026-04-12T13:16:56.001Z</time></trkpt><trkpt lat="50.12222419145679" lon="3.7573034444871425"><ele>141.0</ele><time>2026-04-12T13:16:58.001Z</time></trkpt><trkpt lat="50.122164493592784" lon="3.757406968999531"><ele>141.5</ele><time>2026-04-12T13:17:00.001Z</time></trkpt><trkpt lat="50.12210814251465" lon="3.757520069400121"><ele>142.0</ele><time>2026-04-12T13:17:02.001Z</time></trkpt><trkpt lat="50.12205826229403" lon="3.757616901556004"><ele>142.5</ele><time>2026-04-12T13:17:04.001Z</time></trkpt><trkpt lat="50.12200732791812" lon="3.7577065517576225"><ele>143.0</ele><time>2026-04-12T13:17:06.001Z</time></trkpt><trkpt lat="50.12195800098499" lon="3.757816827585492"><ele>143.5</ele><time>2026-04-12T13:17:08.001Z</time></trkpt><trkpt lat="50.12190275990882" lon="3.757934673124759"><ele>144.0</ele><time>2026-04-12T13:17:10.001Z</time></trkpt><trkpt lat="50.12184747542265" lon="3.7580559137181946"><ele>144.0</ele><time>2026-04-12T13:17:12.001Z</time></trkpt><trkpt lat="50.12178823316063" lon="3.7581742222563412"><ele>144.0</ele><time>2026-04-12T13:17:14.001Z</time></trkpt><trkpt lat="50.121725934248225" lon="3.7583025294739065"><ele>144.0</ele><time>2026-04-12T13:17:16.001Z</time></trkpt><trkpt lat="50.12165997688872" lon="3.758420160851239"><ele>144.0</ele><time>2026-04-12T13:17:18.001Z</time></trkpt><trkpt lat="50.121596439115436" lon="3.7585403485946474"><ele>144.0</ele><time>2026-04-12T13:17:20.001Z</time></trkpt><trkpt lat="50.12152387314064" lon="3.7586645615077394"><ele>143.2</ele><time>2026-04-12T13:17:22.001Z</time></trkpt><trkpt lat="50.121445155538616" lon="3.758802959443563"><ele>142.4</ele><time>2026-04-12T13:17:24.001Z</time></trkpt><trkpt lat="50.1213987363198" lon="3.758873814245457"><ele>141.6</ele><time>2026-04-12T13:17:25.001Z</time></trkpt><trkpt lat="50.12131212297983" lon="3.759010431901923"><ele>140.8</ele><time>2026-04-12T13:17:27.001Z</time></trkpt><trkpt lat="50.12122557602531" lon="3.7591523676601963"><ele>140.0</ele><time>2026-04-12T13:17:29.001Z</time></trkpt><trkpt lat="50.12114607035796" lon="3.7592879908903827"><ele>139.66666666666666</ele><time>2026-04-12T13:17:31.001Z</time></trkpt><trkpt lat="50.121107412153535" lon="3.7593701627551446"><ele>139.33333333333331</ele><time>2026-04-12T13:17:32.001Z</time></trkpt><trkpt lat="50.12106556969749" lon="3.7594459403851954"><ele>139.0</ele><time>2026-04-12T13:17:33.001Z</time></trkpt><trkpt lat="50.1210253313241" lon="3.7595265754233798"><ele>138.66666666666666</ele><time>2026-04-12T13:17:34.001Z</time></trkpt><trkpt lat="50.120986813188864" lon="3.759604888608688"><ele>138.33333333333334</ele><time>2026-04-12T13:17:35.001Z</time></trkpt><trkpt lat="50.120949285104935" lon="3.759698419956196"><ele>138.0</ele><time>2026-04-12T13:17:36.001Z</time></trkpt><trkpt lat="50.12088627892522" lon="3.7598650044678528"><ele>138.0</ele><time>2026-04-12T13:17:38.001Z</time></trkpt><trkpt lat="50.120857872280986" lon="3.7599568655463003"><ele>138.0</ele><time>2026-04-12T13:17:39.001Z</time></trkpt><trkpt lat="50.12082807676757" lon="3.7600479232885036"><ele>138.0</ele><time>2026-04-12T13:17:40.001Z</time></trkpt><trkpt lat="50.12079988454537" lon="3.7601398165659536"><ele>138.0</ele><time>2026-04-12T13:17:41.001Z</time></trkpt><trkpt lat="50.120764712268105" lon="3.760238020337988"><ele>138.0</ele><time>2026-04-12T13:17:42.001Z</time></trkpt><trkpt lat="50.12070370934297" lon="3.760414856064811"><ele>138.0</ele><time>2026-04-12T13:17:44.001Z</time></trkpt><trkpt lat="50.12066560698258" lon="3.7605005051359055"><ele>138.66666666666666</ele><time>2026-04-12T13:17:45.001Z</time></trkpt><trkpt lat="50.12062660273455" lon="3.7605884913065073"><ele>139.33333333333334</ele><time>2026-04-12T13:17:46.001Z</time></trkpt><trkpt lat="50.120585921064894" lon="3.7606664471852316"><ele>140.0</ele><time>2026-04-12T13:17:47.001Z</time></trkpt><trkpt lat="50.120536590132474" lon="3.7607328248890055"><ele>140.66666666666669</ele><time>2026-04-12T13:17:48.001Z</time></trkpt><trkpt lat="50.120438440409565" lon="3.7608486115952355"><ele>141.33333333333334</ele><time>2026-04-12T13:17:50.001Z</time></trkpt><trkpt lat="50.12034091153384" lon="3.7609519841373755"><ele>142.0</ele><time>2026-04-12T13:17:52.001Z</time></trkpt><trkpt lat="50.12024946843108" lon="3.7610401499727883"><ele>142.0</ele><time>2026-04-12T13:17:54.001Z</time></trkpt><trkpt lat="50.12015715063769" lon="3.7611167675972306"><ele>142.0</ele><time>2026-04-12T13:17:56.001Z</time></trkpt><trkpt lat="50.12006848501959" lon="3.7611919740726267"><ele>142.0</ele><time>2026-04-12T13:17:58.001Z</time></trkpt><trkpt lat="50.11997886890845" lon="3.76126759754215"><ele>142.0</ele><time>2026-04-12T13:18:00.001Z</time></trkpt><trkpt lat="50.119884495228085" lon="3.761330911103758"><ele>142.0</ele><time>2026-04-12T13:18:02.001Z</time></trkpt><trkpt lat="50.11978078329798" lon="3.7613623437839503"><ele>142.0</ele><time>2026-04-12T13:18:04.001Z</time></trkpt><trkpt lat="50.11968564203042" lon="3.7614286936466925"><ele>142.0</ele><time>2026-04-12T13:18:06.001Z</time></trkpt><trkpt lat="50.11958730171391" lon="3.761483822358812"><ele>142.0</ele><time>2026-04-12T13:18:08.001Z</time></trkpt><trkpt lat="50.11949814925495" lon="3.7615623299159586"><ele>142.0</ele><time>2026-04-12T13:18:10.001Z</time></trkpt><trkpt lat="50.11941616454598" lon="3.7616715728329195"><ele>142.0</ele><time>2026-04-12T13:18:12.001Z</time></trkpt><trkpt lat="50.119346786630075" lon="3.7617592020915627"><ele>141.79999999999998</ele><time>2026-04-12T13:18:14.001Z</time></trkpt><trkpt lat="50.11927644196506" lon="3.7618911224046285"><ele>141.6</ele><time>2026-04-12T13:18:16.001Z</time></trkpt><trkpt lat="50.11921029501159" lon="3.7620017102376133"><ele>141.39999999999998</ele><time>2026-04-12T13:18:18.001Z</time></trkpt><trkpt lat="50.119127001601306" lon="3.7620828675275875"><ele>141.2</ele><time>2026-04-12T13:18:20.001Z</time></trkpt><trkpt lat="50.119032638209205" lon="3.762054009506809"><ele>141.0</ele><time>2026-04-12T13:18:22.001Z</time></trkpt><trkpt lat="50.118949231199075" lon="3.762024430410347"><ele>141.5</ele><time>2026-04-12T13:18:24.001Z</time></trkpt><trkpt lat="50.118871542556555" lon="3.7619865959935557"><ele>142.0</ele><time>2026-04-12T13:18:26.001Z</time></trkpt><trkpt lat="50.11878892386653" lon="3.761936052701489"><ele>142.5</ele><time>2026-04-12T13:18:28.001Z</time></trkpt><trkpt lat="50.11871339453544" lon="3.7618792112301294"><ele>143.0</ele><time>2026-04-12T13:18:30.001Z</time></trkpt><trkpt lat="50.11863556738308" lon="3.7618259843521633"><ele>143.5</ele><time>2026-04-12T13:18:32.001Z</time></trkpt><trkpt lat="50.118560519016846" lon="3.761775493587236"><ele>144.0</ele><time>2026-04-12T13:18:34.001Z</time></trkpt><trkpt lat="50.11848615121609" lon="3.761732901160481"><ele>144.33333333333334</ele><time>2026-04-12T13:18:36.001Z</time></trkpt><trkpt lat="50.11841669720979" lon="3.761693604446504"><ele>144.66666666666666</ele><time>2026-04-12T13:18:38.001Z</time></trkpt><trkpt lat="50.118348704515675" lon="3.761662627913747"><ele>145.0</ele><time>2026-04-12T13:18:40.001Z</time></trkpt><trkpt lat="50.11826558910417" lon="3.7616025901477985"><ele>145.33333333333331</ele><time>2026-04-12T13:18:43.001Z</time></trkpt><trkpt lat="50.11818112424515" lon="3.761557464680128"><ele>145.66666666666666</ele><time>2026-04-12T13:18:46.001Z</time></trkpt><trkpt lat="50.1181080263687" lon="3.7615301174043707"><ele>146.0</ele><time>2026-04-12T13:18:49Z</time></trkpt><trkpt lat="50.11804972153321" lon="3.761476681292952"><ele>147.0</ele><time>2026-04-12T13:18:51Z</time></trkpt><trkpt lat="50.11795650796018" lon="3.7614416785264284"><ele>148.0</ele><time>2026-04-12T13:18:54Z</time></trkpt><trkpt lat="50.117869445203894" lon="3.7613961806812903"><ele>149.0</ele><time>2026-04-12T13:18:57Z</time></trkpt><trkpt lat="50.11778757614216" lon="3.7613524131499894"><ele>150.0</ele><time>2026-04-12T13:19:00Z</time></trkpt><trkpt lat="50.11770175532409" lon="3.7612994740300385"><ele>151.0</ele><time>2026-04-12T13:19:03Z</time></trkpt><trkpt lat="50.1176153688723" lon="3.761256647977878"><ele>151.00000000000003</ele><time>2026-04-12T13:19:06Z</time></trkpt><trkpt lat="50.117553828628196" lon="3.761232608841843"><ele>151.0</ele><time>2026-04-12T13:19:08Z</time></trkpt><trkpt lat="50.11746430879783" lon="3.76119335082712"><ele>151.0</ele><time>2026-04-12T13:19:11Z</time></trkpt><trkpt lat="50.117399683815485" lon="3.7611626364452"><ele>151.0</ele><time>2026-04-12T13:19:13Z</time></trkpt><trkpt lat="50.1173109737487" lon="3.761116443951261"><ele>151.0</ele><time>2026-04-12T13:19:16Z</time></trkpt><trkpt lat="50.11725105725012" lon="3.7610807187984707"><ele>151.00000000000003</ele><time>2026-04-12T13:19:18Z</time></trkpt><trkpt lat="50.11718979562873" lon="3.7610456875899656"><ele>151.0</ele><time>2026-04-12T13:19:20Z</time></trkpt><trkpt lat="50.117131702829006" lon="3.7610035616498076"><ele>151.5</ele><time>2026-04-12T13:19:22Z</time></trkpt><trkpt lat="50.1170510380609" lon="3.76094290982656"><ele>152.0</ele><time>2026-04-12T13:19:25Z</time></trkpt><trkpt lat="50.11696314837729" lon="3.7608859559282406"><ele>152.5</ele><time>2026-04-12T13:19:28Z</time></trkpt><trkpt lat="50.116906669720294" lon="3.760835017830557"><ele>153.0</ele><time>2026-04-12T13:19:30Z</time></trkpt><trkpt lat="50.116849376041614" lon="3.760793920924441"><ele>153.5</ele><time>2026-04-12T13:19:32Z</time></trkpt><trkpt lat="50.11676308893997" lon="3.760727204919009"><ele>154.0</ele><time>2026-04-12T13:19:35Z</time></trkpt><trkpt lat="50.11667604658263" lon="3.7606745463038367"><ele>154.0</ele><time>2026-04-12T13:19:38Z</time></trkpt><trkpt lat="50.11659591586823" lon="3.7606221173731758"><ele>154.0</ele><time>2026-04-12T13:19:41Z</time></trkpt><trkpt lat="50.11650925681637" lon="3.760586950794598"><ele>154.0</ele><time>2026-04-12T13:19:44Z</time></trkpt><trkpt lat="50.116428046322376" lon="3.7605529332324568"><ele>154.0</ele><time>2026-04-12T13:19:47Z</time></trkpt><trkpt lat="50.116348425862476" lon="3.7605284711363414"><ele>154.0</ele><time>2026-04-12T13:19:50Z</time></trkpt><trkpt lat="50.1162686039234" lon="3.7605156432550153"><ele>154.0</ele><time>2026-04-12T13:19:53Z</time></trkpt><trkpt lat="50.11618205402222" lon="3.760492583218533"><ele>154.66666666666669</ele><time>2026-04-12T13:19:56Z</time></trkpt><trkpt lat="50.1160973725278" lon="3.7604843330499853"><ele>155.33333333333334</ele><time>2026-04-12T13:19:59Z</time></trkpt><trkpt lat="50.11600879691705" lon="3.76048616305193"><ele>156.0</ele><time>2026-04-12T13:20:02Z</time></trkpt><trkpt lat="50.11591836261666" lon="3.760491396475817"><ele>156.66666666666666</ele><time>2026-04-12T13:20:05Z</time></trkpt><trkpt lat="50.115834862732285" lon="3.7605057566922557"><ele>157.33333333333331</ele><time>2026-04-12T13:20:08Z</time></trkpt><trkpt lat="50.115756151690434" lon="3.760534681214571"><ele>158.0</ele><time>2026-04-12T13:20:11Z</time></trkpt><trkpt lat="50.11567569923223" lon="3.76056647780147"><ele>158.66666666666666</ele><time>2026-04-12T13:20:14Z</time></trkpt><trkpt lat="50.115595708228895" lon="3.760594256626621"><ele>159.33333333333331</ele><time>2026-04-12T13:20:17Z</time></trkpt><trkpt lat="50.11551615424338" lon="3.760613174741212"><ele>160.0</ele><time>2026-04-12T13:20:20Z</time></trkpt><trkpt lat="50.11544408491989" lon="3.760636966664652"><ele>160.66666666666666</ele><time>2026-04-12T13:20:23Z</time></trkpt><trkpt lat="50.115361889077064" lon="3.760653184902592"><ele>161.33333333333334</ele><time>2026-04-12T13:20:26.001Z</time></trkpt><trkpt lat="50.11528760450424" lon="3.760680011015361"><ele>162.0</ele><time>2026-04-12T13:20:29.001Z</time></trkpt><trkpt lat="50.11520536654732" lon="3.760698786143334"><ele>162.0</ele><time>2026-04-12T13:20:32.001Z</time></trkpt><trkpt lat="50.11512441059468" lon="3.760724569101517"><ele>162.0</ele><time>2026-04-12T13:20:35.001Z</time></trkpt><trkpt lat="50.115043662184654" lon="3.7607430812846143"><ele>162.0</ele><time>2026-04-12T13:20:38.001Z</time></trkpt><trkpt lat="50.11497484735271" lon="3.7607819672232394"><ele>162.0</ele><time>2026-04-12T13:20:41Z</time></trkpt><trkpt lat="50.11488446951828" lon="3.760794988165428"><ele>162.0</ele><time>2026-04-12T13:20:44Z</time></trkpt><trkpt lat="50.11480040923243" lon="3.7608005777442157"><ele>162.0</ele><time>2026-04-12T13:20:47Z</time></trkpt><trkpt lat="50.11472031528019" lon="3.760807205790756"><ele>162.33333333333334</ele><time>2026-04-12T13:20:50Z</time></trkpt><trkpt lat="50.114636464227324" lon="3.7608122170678775"><ele>162.66666666666666</ele><time>2026-04-12T13:20:53Z</time></trkpt><trkpt lat="50.11455365386972" lon="3.7608226847657145"><ele>163.0</ele><time>2026-04-12T13:20:56Z</time></trkpt><trkpt lat="50.114466875796396" lon="3.7608180576624455"><ele>163.33333333333331</ele><time>2026-04-12T13:20:59Z</time></trkpt><trkpt lat="50.11438108788929" lon="3.76081942745472"><ele>163.66666666666666</ele><time>2026-04-12T13:21:02Z</time></trkpt><trkpt lat="50.11428734739652" lon="3.760827026233879"><ele>164.0</ele><time>2026-04-12T13:21:05Z</time></trkpt><trkpt lat="50.11419389383032" lon="3.76082266459562"><ele>163.99999999999997</ele><time>2026-04-12T13:21:08Z</time></trkpt><trkpt lat="50.11409762918436" lon="3.760817196341291"><ele>164.0</ele><time>2026-04-12T13:21:11Z</time></trkpt><trkpt lat="50.11403319274926" lon="3.7608102181077845"><ele>164.0</ele><time>2026-04-12T13:21:13Z</time></trkpt><trkpt lat="50.113969728995606" lon="3.76080229622661"><ele>164.0</ele><time>2026-04-12T13:21:15Z</time></trkpt><trkpt lat="50.113906639731596" lon="3.7607826205500627"><ele>164.0</ele><time>2026-04-12T13:21:17Z</time></trkpt><trkpt lat="50.11384200480057" lon="3.7607695852904057"><ele>163.99999999999997</ele><time>2026-04-12T13:21:19Z</time></trkpt><trkpt lat="50.11375305443727" lon="3.7607472414674494"><ele>164.0</ele><time>2026-04-12T13:21:22Z</time></trkpt><trkpt lat="50.11366296602524" lon="3.7607230568542405"><ele>164.28571428571428</ele><time>2026-04-12T13:21:25Z</time></trkpt><trkpt lat="50.11359504494604" lon="3.7607080843483573"><ele>164.57142857142856</ele><time>2026-04-12T13:21:27Z</time></trkpt><trkpt lat="50.11349981332787" lon="3.7606978912978137"><ele>164.85714285714283</ele><time>2026-04-12T13:21:30Z</time></trkpt><trkpt lat="50.11342843436496" lon="3.760692705714293"><ele>165.14285714285714</ele><time>2026-04-12T13:21:32Z</time></trkpt><trkpt lat="50.113359239225225" lon="3.7606854278005546"><ele>165.42857142857144</ele><time>2026-04-12T13:21:34Z</time></trkpt><trkpt lat="50.11328918963354" lon="3.7606879549173877"><ele>165.7142857142857</ele><time>2026-04-12T13:21:36Z</time></trkpt><trkpt lat="50.113219857480296" lon="3.760693774553625"><ele>166.0</ele><time>2026-04-12T13:21:38Z</time></trkpt><trkpt lat="50.11315144551729" lon="3.7607032188051015"><ele>166.83333333333334</ele><time>2026-04-12T13:21:40Z</time></trkpt><trkpt lat="50.113079432332384" lon="3.7607140626047584"><ele>167.66666666666669</ele><time>2026-04-12T13:21:42Z</time></trkpt><trkpt lat="50.1130136078076" lon="3.7607364441543205"><ele>168.5</ele><time>2026-04-12T13:21:44Z</time></trkpt><trkpt lat="50.11294749963736" lon="3.7607537581970614"><ele>169.33333333333334</ele><time>2026-04-12T13:21:46Z</time></trkpt><trkpt lat="50.11288493746455" lon="3.760782064328899"><ele>170.16666666666666</ele><time>2026-04-12T13:21:48Z</time></trkpt><trkpt lat="50.11279991861624" lon="3.760827310498378"><ele>171.0</ele><time>2026-04-12T13:21:51Z</time></trkpt><trkpt lat="50.11271288416426" lon="3.7608686683289974"><ele>171.0</ele><time>2026-04-12T13:21:54Z</time></trkpt><trkpt lat="50.112622025064525" lon="3.7609101012342903"><ele>171.0</ele><time>2026-04-12T13:21:57Z</time></trkpt><trkpt lat="50.11256118950241" lon="3.760944080627831"><ele>171.0</ele><time>2026-04-12T13:21:59Z</time></trkpt><trkpt lat="50.11247384428605" lon="3.760994049420737"><ele>171.0</ele><time>2026-04-12T13:22:02Z</time></trkpt><trkpt lat="50.11241218904082" lon="3.761016246674947"><ele>171.0</ele><time>2026-04-12T13:22:04Z</time></trkpt><trkpt lat="50.112325213122105" lon="3.761051687177276"><ele>171.0</ele><time>2026-04-12T13:22:07Z</time></trkpt><trkpt lat="50.11223929076302" lon="3.7611045081757"><ele>170.66666666666666</ele><time>2026-04-12T13:22:10Z</time></trkpt><trkpt lat="50.11215159747579" lon="3.7611421314547275"><ele>170.33333333333334</ele><time>2026-04-12T13:22:13Z</time></trkpt><trkpt lat="50.11205990889649" lon="3.7611861106642843"><ele>170.0</ele><time>2026-04-12T13:22:16Z</time></trkpt><trkpt lat="50.11199593538769" lon="3.761214585207775"><ele>169.66666666666669</ele><time>2026-04-12T13:22:18Z</time></trkpt><trkpt lat="50.11193086915366" lon="3.7612498914949435"><ele>169.33333333333334</ele><time>2026-04-12T13:22:20Z</time></trkpt><trkpt lat="50.111859702787164" lon="3.7612789793272996"><ele>169.0</ele><time>2026-04-12T13:22:22Z</time></trkpt><trkpt lat="50.11178668007292" lon="3.7613228181488956"><ele>169.0</ele><time>2026-04-12T13:22:24Z</time></trkpt><trkpt lat="50.11171222221998" lon="3.76136828438095"><ele>169.0</ele><time>2026-04-12T13:22:26Z</time></trkpt><trkpt lat="50.11163603751094" lon="3.7614058048608654"><ele>169.0</ele><time>2026-04-12T13:22:28Z</time></trkpt><trkpt lat="50.11155615872959" lon="3.7614506048400735"><ele>169.0</ele><time>2026-04-12T13:22:30Z</time></trkpt><trkpt lat="50.11148061725256" lon="3.7614991348279996"><ele>169.0</ele><time>2026-04-12T13:22:32Z</time></trkpt><trkpt lat="50.111404026119544" lon="3.7615461285129657"><ele>169.0</ele><time>2026-04-12T13:22:34Z</time></trkpt><trkpt lat="50.111329206585005" lon="3.761596404741053"><ele>169.16666666666669</ele><time>2026-04-12T13:22:36Z</time></trkpt><trkpt lat="50.1112547638103" lon="3.7616505397678335"><ele>169.33333333333334</ele><time>2026-04-12T13:22:38Z</time></trkpt><trkpt lat="50.111184281854094" lon="3.7617079609639497"><ele>169.5</ele><time>2026-04-12T13:22:40Z</time></trkpt><trkpt lat="50.11111274881414" lon="3.7617631925868746"><ele>169.66666666666666</ele><time>2026-04-12T13:22:42Z</time></trkpt><trkpt lat="50.111035151991906" lon="3.761822664214121"><ele>169.83333333333331</ele><time>2026-04-12T13:22:44Z</time></trkpt><trkpt lat="50.11095345518614" lon="3.761888004494304"><ele>170.0</ele><time>2026-04-12T13:22:46Z</time></trkpt><trkpt lat="50.110869538199964" lon="3.7619576757223565"><ele>170.0</ele><time>2026-04-12T13:22:48Z</time></trkpt><trkpt lat="50.11078072286633" lon="3.7620304358055265"><ele>170.0</ele><time>2026-04-12T13:22:50Z</time></trkpt><trkpt lat="50.110691790372776" lon="3.7621114599760874"><ele>170.0</ele><time>2026-04-12T13:22:52Z</time></trkpt><trkpt lat="50.11059208993949" lon="3.7621879383578336"><ele>170.0</ele><time>2026-04-12T13:22:54Z</time></trkpt><trkpt lat="50.11048933686029" lon="3.7622714695826645"><ele>170.0</ele><time>2026-04-12T13:22:56Z</time></trkpt><trkpt lat="50.11037546489247" lon="3.762346495165106"><ele>170.0</ele><time>2026-04-12T13:22:58Z</time></trkpt><trkpt lat="50.11026344821625" lon="3.7624228536455173"><ele>170.0</ele><time>2026-04-12T13:23:00Z</time></trkpt><trkpt lat="50.110204650552205" lon="3.7624599900927778"><ele>170.0</ele><time>2026-04-12T13:23:01Z</time></trkpt><trkpt lat="50.110090991462" lon="3.7625339806288864"><ele>170.0</ele><time>2026-04-12T13:23:03Z</time></trkpt><trkpt lat="50.10997403240474" lon="3.7626102894496625"><ele>170.0</ele><time>2026-04-12T13:23:05Z</time></trkpt><trkpt lat="50.109862689051866" lon="3.762680817946882"><ele>169.14285714285714</ele><time>2026-04-12T13:23:07Z</time></trkpt><trkpt lat="50.109803393640995" lon="3.762715856408811"><ele>168.28571428571428</ele><time>2026-04-12T13:23:08Z</time></trkpt><trkpt lat="50.109744332433095" lon="3.7627536717665673"><ele>167.42857142857142</ele><time>2026-04-12T13:23:09Z</time></trkpt><trkpt lat="50.10968647828106" lon="3.7627935918411834"><ele>166.57142857142856</ele><time>2026-04-12T13:23:10Z</time></trkpt><trkpt lat="50.109571533271065" lon="3.762861872567951"><ele>165.71428571428572</ele><time>2026-04-12T13:23:12Z</time></trkpt><trkpt lat="50.109509746053305" lon="3.762895260007729"><ele>164.85714285714283</ele><time>2026-04-12T13:23:13Z</time></trkpt><trkpt lat="50.10944860813951" lon="3.7629215172475154"><ele>164.0</ele><time>2026-04-12T13:23:14Z</time></trkpt><trkpt lat="50.109322116970176" lon="3.7629378171365997"><ele>164.0</ele><time>2026-04-12T13:23:16Z</time></trkpt><trkpt lat="50.109199521571405" lon="3.762931966184127"><ele>164.0</ele><time>2026-04-12T13:23:18Z</time></trkpt><trkpt lat="50.109075550831186" lon="3.7629218064393126"><ele>164.0</ele><time>2026-04-12T13:23:20Z</time></trkpt><trkpt lat="50.10895731101772" lon="3.762908198980938"><ele>164.0</ele><time>2026-04-12T13:23:22Z</time></trkpt><trkpt lat="50.10884304076129" lon="3.7628897336836573"><ele>164.6</ele><time>2026-04-12T13:23:24Z</time></trkpt><trkpt lat="50.10872766918274" lon="3.7628803861447575"><ele>165.2</ele><time>2026-04-12T13:23:26Z</time></trkpt><trkpt lat="50.10861553285703" lon="3.7628710242653067"><ele>165.79999999999998</ele><time>2026-04-12T13:23:28Z</time></trkpt><trkpt lat="50.10851076693685" lon="3.7628621170907928"><ele>166.39999999999998</ele><time>2026-04-12T13:23:30Z</time></trkpt><trkpt lat="50.10840487790184" lon="3.762847795287419"><ele>167.0</ele><time>2026-04-12T13:23:32Z</time></trkpt><trkpt lat="50.10830513839955" lon="3.7628365242741157"><ele>166.6</ele><time>2026-04-12T13:23:34Z</time></trkpt><trkpt lat="50.10820465013252" lon="3.762823416692522"><ele>166.2</ele><time>2026-04-12T13:23:36Z</time></trkpt><trkpt lat="50.1080995709603" lon="3.7628049872146585"><ele>165.8</ele><time>2026-04-12T13:23:38Z</time></trkpt><trkpt lat="50.107988632990114" lon="3.762786549061932"><ele>165.4</ele><time>2026-04-12T13:23:40Z</time></trkpt><trkpt lat="50.107881271405034" lon="3.762754435720225"><ele>165.0</ele><time>2026-04-12T13:23:42Z</time></trkpt><trkpt lat="50.1077624447468" lon="3.762749646729058"><ele>165.0</ele><time>2026-04-12T13:23:44Z</time></trkpt><trkpt lat="50.10764415023516" lon="3.762741350090604"><ele>165.0</ele><time>2026-04-12T13:23:46Z</time></trkpt><trkpt lat="50.107529861871" lon="3.762722618812008"><ele>165.0</ele><time>2026-04-12T13:23:48Z</time></trkpt><trkpt lat="50.10742086391573" lon="3.762698194422186"><ele>165.0</ele><time>2026-04-12T13:23:50Z</time></trkpt><trkpt lat="50.10731283652311" lon="3.7626799231241757"><ele>165.0</ele><time>2026-04-12T13:23:52Z</time></trkpt><trkpt lat="50.10720583865687" lon="3.7626727670381945"><ele>165.0</ele><time>2026-04-12T13:23:54Z</time></trkpt><trkpt lat="50.10708952216584" lon="3.7626690009297765"><ele>165.0</ele><time>2026-04-12T13:23:56Z</time></trkpt><trkpt lat="50.10698120334461" lon="3.7626737848440435"><ele>165.0</ele><time>2026-04-12T13:23:58Z</time></trkpt><trkpt lat="50.106880082250065" lon="3.762707762828818"><ele>165.0</ele><time>2026-04-12T13:24:00Z</time></trkpt><trkpt lat="50.10677460573337" lon="3.762725704893335"><ele>165.0</ele><time>2026-04-12T13:24:02Z</time></trkpt><trkpt lat="50.10668413377402" lon="3.762783306880915"><ele>165.0</ele><time>2026-04-12T13:24:04Z</time></trkpt><trkpt lat="50.106592562741234" lon="3.762822662817957"><ele>165.0</ele><time>2026-04-12T13:24:06Z</time></trkpt><trkpt lat="50.106504811515215" lon="3.7628604486747705"><ele>165.0</ele><time>2026-04-12T13:24:08Z</time></trkpt><trkpt lat="50.1064184261053" lon="3.7628955704895444"><ele>165.0</ele><time>2026-04-12T13:24:10Z</time></trkpt><trkpt lat="50.10633226089102" lon="3.762933466324474"><ele>165.66666666666666</ele><time>2026-04-12T13:24:12Z</time></trkpt><trkpt lat="50.10624783083513" lon="3.762970472865792"><ele>166.33333333333334</ele><time>2026-04-12T13:24:14Z</time></trkpt><trkpt lat="50.10616691298722" lon="3.7630116317215894"><ele>167.0</ele><time>2026-04-12T13:24:16Z</time></trkpt><trkpt lat="50.106083628349054" lon="3.7630442295926403"><ele>167.66666666666669</ele><time>2026-04-12T13:24:18Z</time></trkpt><trkpt lat="50.10600445099168" lon="3.7630850931228816"><ele>168.33333333333334</ele><time>2026-04-12T13:24:20Z</time></trkpt><trkpt lat="50.10592967992557" lon="3.7631223875219906"><ele>169.0</ele><time>2026-04-12T13:24:22Z</time></trkpt><trkpt lat="50.10585514011969" lon="3.7631683298172574"><ele>169.0</ele><time>2026-04-12T13:24:24Z</time></trkpt><trkpt lat="50.10577846669882" lon="3.7632206383102145"><ele>169.0</ele><time>2026-04-12T13:24:26Z</time></trkpt><trkpt lat="50.10570069936241" lon="3.763271309179578"><ele>169.0</ele><time>2026-04-12T13:24:28Z</time></trkpt><trkpt lat="50.10562123193267" lon="3.7633288453232647"><ele>169.0</ele><time>2026-04-12T13:24:30Z</time></trkpt><trkpt lat="50.10554031478348" lon="3.763392915224043"><ele>169.0</ele><time>2026-04-12T13:24:32Z</time></trkpt><trkpt lat="50.10545278902358" lon="3.763459527750823"><ele>169.0</ele><time>2026-04-12T13:24:34Z</time></trkpt><trkpt lat="50.10536165896657" lon="3.763528183316956"><ele>168.79999999999998</ele><time>2026-04-12T13:24:36Z</time></trkpt><trkpt lat="50.10526245365685" lon="3.763602453023985"><ele>168.6</ele><time>2026-04-12T13:24:38Z</time></trkpt><trkpt lat="50.10516319152467" lon="3.763668269051614"><ele>168.4</ele><time>2026-04-12T13:24:40Z</time></trkpt><trkpt lat="50.105058589955604" lon="3.7637239118654193"><ele>168.2</ele><time>2026-04-12T13:24:42Z</time></trkpt><trkpt lat="50.10495394699789" lon="3.763753759093152"><ele>168.0</ele><time>2026-04-12T13:24:44Z</time></trkpt><trkpt lat="50.104851612702596" lon="3.763767400359849"><ele>168.33333333333334</ele><time>2026-04-12T13:24:46Z</time></trkpt><trkpt lat="50.10475532890284" lon="3.7637734219604644"><ele>168.66666666666666</ele><time>2026-04-12T13:24:48Z</time></trkpt><trkpt lat="50.104666775250216" lon="3.763772254155236"><ele>169.0</ele><time>2026-04-12T13:24:50Z</time></trkpt><trkpt lat="50.10458398814514" lon="3.7637591127101926"><ele>169.33333333333331</ele><time>2026-04-12T13:24:52Z</time></trkpt><trkpt lat="50.104508598510016" lon="3.763757326449224"><ele>169.66666666666666</ele><time>2026-04-12T13:24:54Z</time></trkpt><trkpt lat="50.104438908612174" lon="3.7637507884056687"><ele>170.0</ele><time>2026-04-12T13:24:56Z</time></trkpt><trkpt lat="50.10434616386432" lon="3.7637415917102457"><ele>170.0</ele><time>2026-04-12T13:24:59Z</time></trkpt><trkpt lat="50.10425541672519" lon="3.7637423924011286"><ele>170.0</ele><time>2026-04-12T13:25:02Z</time></trkpt><trkpt lat="50.104188978026656" lon="3.763735684969097"><ele>170.0</ele><time>2026-04-12T13:25:04Z</time></trkpt><trkpt lat="50.10412583700193" lon="3.7637397003385087"><ele>170.0</ele><time>2026-04-12T13:25:06Z</time></trkpt><trkpt lat="50.10406279439736" lon="3.7637309421651692"><ele>170.0</ele><time>2026-04-12T13:25:08Z</time></trkpt><trkpt lat="50.103999226557804" lon="3.7637352519453398"><ele>170.0</ele><time>2026-04-12T13:25:10Z</time></trkpt><trkpt lat="50.103914309468955" lon="3.763721038779818"><ele>170.0</ele><time>2026-04-12T13:25:13Z</time></trkpt><trkpt lat="50.10382008508072" lon="3.7637192965210833"><ele>170.42857142857144</ele><time>2026-04-12T13:25:16Z</time></trkpt><trkpt lat="50.10375674387517" lon="3.7637233280668525"><ele>170.85714285714283</ele><time>2026-04-12T13:25:18Z</time></trkpt><trkpt lat="50.10369038599201" lon="3.7637162436563907"><ele>171.28571428571428</ele><time>2026-04-12T13:25:20Z</time></trkpt><trkpt lat="50.103619446960806" lon="3.763714282419769"><ele>171.71428571428572</ele><time>2026-04-12T13:25:22Z</time></trkpt><trkpt lat="50.103543900210894" lon="3.763712702047015"><ele>172.14285714285717</ele><time>2026-04-12T13:25:24Z</time></trkpt><trkpt lat="50.103470475417254" lon="3.7637101849078363"><ele>172.57142857142856</ele><time>2026-04-12T13:25:26Z</time></trkpt><trkpt lat="50.10340556232029" lon="3.763704314821305"><ele>173.0</ele><time>2026-04-12T13:25:28Z</time></trkpt><trkpt lat="50.103340491860415" lon="3.7637067768009778"><ele>173.66666666666666</ele><time>2026-04-12T13:25:30Z</time></trkpt><trkpt lat="50.103244831659936" lon="3.763703070047722"><ele>174.33333333333331</ele><time>2026-04-12T13:25:33Z</time></trkpt><trkpt lat="50.10315821368422" lon="3.7636942547398125"><ele>175.0</ele><time>2026-04-12T13:25:36Z</time></trkpt><trkpt lat="50.10309126026034" lon="3.763697052371813"><ele>175.66666666666666</ele><time>2026-04-12T13:25:38Z</time></trkpt><trkpt lat="50.10299602995669" lon="3.7636895032465834"><ele>176.33333333333334</ele><time>2026-04-12T13:25:41Z</time></trkpt><trkpt lat="50.10291302463847" lon="3.7636870780666976"><ele>177.0</ele><time>2026-04-12T13:25:44Z</time></trkpt><trkpt lat="50.10282668998876" lon="3.7636835846615853"><ele>177.0</ele><time>2026-04-12T13:25:47Z</time></trkpt><trkpt lat="50.10274080280323" lon="3.7636769289874246"><ele>177.0</ele><time>2026-04-12T13:25:50Z</time></trkpt><trkpt lat="50.10265490933087" lon="3.7636800071545826"><ele>177.0</ele><time>2026-04-12T13:25:53Z</time></trkpt><trkpt lat="50.10256539462777" lon="3.7636738584829756"><ele>177.0</ele><time>2026-04-12T13:25:56Z</time></trkpt><trkpt lat="50.10247328995958" lon="3.7636747557676604"><ele>177.0</ele><time>2026-04-12T13:25:59Z</time></trkpt><trkpt lat="50.10238848376952" lon="3.7636654715433977"><ele>177.0</ele><time>2026-04-12T13:26:02Z</time></trkpt><trkpt lat="50.10230239045047" lon="3.763662149708629"><ele>177.33333333333334</ele><time>2026-04-12T13:26:05Z</time></trkpt><trkpt lat="50.1022150046365" lon="3.763660713374394"><ele>177.66666666666666</ele><time>2026-04-12T13:26:08Z</time></trkpt><trkpt lat="50.10212224502299" lon="3.763656478092978"><ele>178.0</ele><time>2026-04-12T13:26:11Z</time></trkpt><trkpt lat="50.102026116164794" lon="3.763648459415652"><ele>178.33333333333331</ele><time>2026-04-12T13:26:14Z</time></trkpt><trkpt lat="50.10196262289538" lon="3.7636472991020873"><ele>178.66666666666666</ele><time>2026-04-12T13:26:16Z</time></trkpt><trkpt lat="50.10189205546676" lon="3.7636532456762954"><ele>179.0</ele><time>2026-04-12T13:26:18Z</time></trkpt><trkpt lat="50.10181977499983" lon="3.76366119857911"><ele>179.00000000000003</ele><time>2026-04-12T13:26:20Z</time></trkpt><trkpt lat="50.10174784721164" lon="3.763662592229291"><ele>179.0</ele><time>2026-04-12T13:26:22Z</time></trkpt><trkpt lat="50.101678215498" lon="3.763668201212044"><ele>179.0</ele><time>2026-04-12T13:26:24Z</time></trkpt><trkpt lat="50.10160343956521" lon="3.763668132592396"><ele>179.0</ele><time>2026-04-12T13:26:26Z</time></trkpt><trkpt lat="50.10153028762337" lon="3.763668218618798"><ele>179.0</ele><time>2026-04-12T13:26:28Z</time></trkpt><trkpt lat="50.10145758015389" lon="3.763672988695332"><ele>179.00000000000003</ele><time>2026-04-12T13:26:30Z</time></trkpt><trkpt lat="50.101380602236645" lon="3.7636733776344578"><ele>179.0</ele><time>2026-04-12T13:26:32Z</time></trkpt><trkpt lat="50.101302576802986" lon="3.763673772269421"><ele>179.0</ele><time>2026-04-12T13:26:34Z</time></trkpt><trkpt lat="50.10122081254613" lon="3.763671677924619"><ele>179.0</ele><time>2026-04-12T13:26:36Z</time></trkpt><trkpt lat="50.10113889538841" lon="3.7636703727276024"><ele>179.0</ele><time>2026-04-12T13:26:38Z</time></trkpt><trkpt lat="50.10105907043845" lon="3.76367248736808"><ele>179.0</ele><time>2026-04-12T13:26:40Z</time></trkpt><trkpt lat="50.10097666886732" lon="3.763669495344522"><ele>179.0</ele><time>2026-04-12T13:26:42Z</time></trkpt><trkpt lat="50.10089185895616" lon="3.763666381749943"><ele>179.0</ele><time>2026-04-12T13:26:44Z</time></trkpt><trkpt lat="50.10081162996765" lon="3.76367091664753"><ele>179.5</ele><time>2026-04-12T13:26:46Z</time></trkpt><trkpt lat="50.100728362937495" lon="3.7636712050810166"><ele>180.0</ele><time>2026-04-12T13:26:48Z</time></trkpt><trkpt lat="50.100646894474245" lon="3.7636629413635134"><ele>180.5</ele><time>2026-04-12T13:26:50Z</time></trkpt><trkpt lat="50.1005678422789" lon="3.763656719633484"><ele>181.0</ele><time>2026-04-12T13:26:52Z</time></trkpt><trkpt lat="50.100489354846815" lon="3.763655203297295"><ele>181.5</ele><time>2026-04-12T13:26:54Z</time></trkpt><trkpt lat="50.10041042876985" lon="3.7636432044936123"><ele>182.0</ele><time>2026-04-12T13:26:56Z</time></trkpt><trkpt lat="50.100336690557825" lon="3.76362486429816"><ele>182.0</ele><time>2026-04-12T13:26:58Z</time></trkpt><trkpt lat="50.10026310040676" lon="3.7636065885750254"><ele>182.0</ele><time>2026-04-12T13:27:00Z</time></trkpt><trkpt lat="50.10019280611848" lon="3.763589411986647"><ele>182.0</ele><time>2026-04-12T13:27:02Z</time></trkpt><trkpt lat="50.10012271337869" lon="3.7635735672165964"><ele>182.0</ele><time>2026-04-12T13:27:04Z</time></trkpt><trkpt lat="50.10005071176503" lon="3.7635537441660785"><ele>182.0</ele><time>2026-04-12T13:27:06Z</time></trkpt><trkpt lat="50.09997904617772" lon="3.7635327344713803"><ele>182.0</ele><time>2026-04-12T13:27:08Z</time></trkpt><trkpt lat="50.09990797944075" lon="3.7635144544983006"><ele>182.0</ele><time>2026-04-12T13:27:10Z</time></trkpt><trkpt lat="50.09983798394568" lon="3.7634927162045186"><ele>182.57142857142858</ele><time>2026-04-12T13:27:12Z</time></trkpt><trkpt lat="50.09977085098881" lon="3.7634774761192555"><ele>183.14285714285714</ele><time>2026-04-12T13:27:14Z</time></trkpt><trkpt lat="50.099704277383125" lon="3.7634589198619772"><ele>183.71428571428572</ele><time>2026-04-12T13:27:16Z</time></trkpt><trkpt lat="50.09960978956682" lon="3.7634308398440677"><ele>184.28571428571428</ele><time>2026-04-12T13:27:19Z</time></trkpt><trkpt lat="50.099546797486326" lon="3.7634130395745817"><ele>184.85714285714286</ele><time>2026-04-12T13:27:21Z</time></trkpt><trkpt lat="50.09948116361914" lon="3.763390169409957"><ele>185.42857142857144</ele><time>2026-04-12T13:27:23Z</time></trkpt><trkpt lat="50.09941430267423" lon="3.7633784094881855"><ele>186.0</ele><time>2026-04-12T13:27:25Z</time></trkpt><trkpt lat="50.099347438989234" lon="3.763349972950655"><ele>186.00000000000003</ele><time>2026-04-12T13:27:27Z</time></trkpt><trkpt lat="50.09927696318847" lon="3.763334608831385"><ele>186.0</ele><time>2026-04-12T13:27:29Z</time></trkpt><trkpt lat="50.09921048719554" lon="3.7633059491907406"><ele>186.0</ele><time>2026-04-12T13:27:31Z</time></trkpt><trkpt lat="50.099141095819995" lon="3.7632886775933123"><ele>186.0</ele><time>2026-04-12T13:27:33Z</time></trkpt><trkpt lat="50.09907342334492" lon="3.7632632228143885"><ele>186.0</ele><time>2026-04-12T13:27:35Z</time></trkpt><trkpt lat="50.09900263807841" lon="3.763245401392948"><ele>186.00000000000003</ele><time>2026-04-12T13:27:37Z</time></trkpt><trkpt lat="50.098934686458755" lon="3.76322072392569"><ele>186.0</ele><time>2026-04-12T13:27:39Z</time></trkpt><trkpt lat="50.098863153793644" lon="3.7632088627869673"><ele>186.14285714285717</ele><time>2026-04-12T13:27:41Z</time></trkpt><trkpt lat="50.098790867119256" lon="3.7631887306716854"><ele>186.28571428571428</ele><time>2026-04-12T13:27:43Z</time></trkpt><trkpt lat="50.09871434503768" lon="3.76316751570648"><ele>186.42857142857144</ele><time>2026-04-12T13:27:45Z</time></trkpt><trkpt lat="50.09864085218654" lon="3.763149973720962"><ele>186.57142857142858</ele><time>2026-04-12T13:27:47Z</time></trkpt><trkpt lat="50.098567108774766" lon="3.7631265122642166"><ele>186.71428571428572</ele><time>2026-04-12T13:27:49Z</time></trkpt><trkpt lat="50.09849488237066" lon="3.7631139234500934"><ele>186.85714285714286</ele><time>2026-04-12T13:27:51Z</time></trkpt><trkpt lat="50.09842565830814" lon="3.763093932389569"><ele>187.0</ele><time>2026-04-12T13:27:53Z</time></trkpt><trkpt lat="50.098355019826045" lon="3.7630791134463326"><ele>187.0</ele><time>2026-04-12T13:27:55Z</time></trkpt><trkpt lat="50.09828621238373" lon="3.7630643697535144"><ele>187.0</ele><time>2026-04-12T13:27:57Z</time></trkpt><trkpt lat="50.09821641239556" lon="3.7630421573761024"><ele>187.0</ele><time>2026-04-12T13:27:59Z</time></trkpt><trkpt lat="50.09814144294682" lon="3.7630226275730556"><ele>187.0</ele><time>2026-04-12T13:28:01Z</time></trkpt><trkpt lat="50.09807047843996" lon="3.7630004720698045"><ele>187.0</ele><time>2026-04-12T13:28:03Z</time></trkpt><trkpt lat="50.09800140483259" lon="3.7629810561885693"><ele>187.0</ele><time>2026-04-12T13:28:05Z</time></trkpt><trkpt lat="50.09793588121462" lon="3.762963650648875"><ele>187.0</ele><time>2026-04-12T13:28:07Z</time></trkpt><trkpt lat="50.0978694324054" lon="3.762939503674388"><ele>187.42857142857142</ele><time>2026-04-12T13:28:09Z</time></trkpt><trkpt lat="50.097807663757926" lon="3.76291849894096"><ele>187.85714285714286</ele><time>2026-04-12T13:28:11Z</time></trkpt><trkpt lat="50.09774459084938" lon="3.762902166320507"><ele>188.28571428571428</ele><time>2026-04-12T13:28:13Z</time></trkpt><trkpt lat="50.097679663357056" lon="3.7628753315235115"><ele>188.71428571428572</ele><time>2026-04-12T13:28:15Z</time></trkpt><trkpt lat="50.09758817373788" lon="3.762845478593729"><ele>189.14285714285717</ele><time>2026-04-12T13:28:18Z</time></trkpt><trkpt lat="50.09752589695246" lon="3.7628203528890793"><ele>189.57142857142858</ele><time>2026-04-12T13:28:20Z</time></trkpt><trkpt lat="50.097437073600695" lon="3.762795377927538"><ele>190.0</ele><time>2026-04-12T13:28:23Z</time></trkpt><trkpt lat="50.09737205948455" lon="3.762776568898787"><ele>190.16666666666669</ele><time>2026-04-12T13:28:25Z</time></trkpt><trkpt lat="50.09728265133526" lon="3.7627481970119177"><ele>190.33333333333334</ele><time>2026-04-12T13:28:28Z</time></trkpt><trkpt lat="50.097219798813455" lon="3.7627385183303854"><ele>190.5</ele><time>2026-04-12T13:28:30Z</time></trkpt><trkpt lat="50.09712974250788" lon="3.762716922946055"><ele>190.66666666666666</ele><time>2026-04-12T13:28:33Z</time></trkpt><trkpt lat="50.0970437717788" lon="3.762698285453004"><ele>190.83333333333331</ele><time>2026-04-12T13:28:36Z</time></trkpt><trkpt lat="50.09696464909348" lon="3.7626895846673953"><ele>191.0</ele><time>2026-04-12T13:28:38Z</time></trkpt><trkpt lat="50.0969014946606" lon="3.7626811077198408"><ele>191.0</ele><time>2026-04-12T13:28:40Z</time></trkpt><trkpt lat="50.0968351463526" lon="3.7626676123688845"><ele>191.0</ele><time>2026-04-12T13:28:42Z</time></trkpt><trkpt lat="50.09676270776033" lon="3.7626597558480177"><ele>191.0</ele><time>2026-04-12T13:28:44Z</time></trkpt><trkpt lat="50.09669344267481" lon="3.762656525157824"><ele>191.0</ele><time>2026-04-12T13:28:46Z</time></trkpt><trkpt lat="50.09662369375373" lon="3.7626522405342127"><ele>191.0</ele><time>2026-04-12T13:28:48Z</time></trkpt><trkpt lat="50.096552850470005" lon="3.7626462941461862"><ele>191.0</ele><time>2026-04-12T13:28:50Z</time></trkpt><trkpt lat="50.0964675751333" lon="3.7626378836917582"><ele>191.0</ele><time>2026-04-12T13:28:52Z</time></trkpt><trkpt lat="50.0963880987394" lon="3.762641392892086"><ele>190.83333333333331</ele><time>2026-04-12T13:28:54Z</time></trkpt><trkpt lat="50.09630710955234" lon="3.7626332308783783"><ele>190.66666666666666</ele><time>2026-04-12T13:28:56Z</time></trkpt><trkpt lat="50.09622294781266" lon="3.7626285132135897"><ele>190.5</ele><time>2026-04-12T13:28:58Z</time></trkpt><trkpt lat="50.096138716174444" lon="3.762624709442191"><ele>190.33333333333334</ele><time>2026-04-12T13:29:00Z</time></trkpt><trkpt lat="50.09604937544994" lon="3.7626180503097273"><ele>190.16666666666669</ele><time>2026-04-12T13:29:02Z</time></trkpt><trkpt lat="50.095960642401515" lon="3.762618803520164"><ele>190.0</ele><time>2026-04-12T13:29:04Z</time></trkpt><trkpt lat="50.09587967000675" lon="3.762612345978828"><ele>190.0</ele><time>2026-04-12T13:29:06Z</time></trkpt><trkpt lat="50.0957930689699" lon="3.762605184718325"><ele>190.0</ele><time>2026-04-12T13:29:08Z</time></trkpt><trkpt lat="50.09569611518134" lon="3.7626050794025234"><ele>190.0</ele><time>2026-04-12T13:29:10Z</time></trkpt><trkpt lat="50.09559909000739" lon="3.7626020731820384"><ele>190.0</ele><time>2026-04-12T13:29:12Z</time></trkpt><trkpt lat="50.095498111301865" lon="3.7626030759926916"><ele>190.0</ele><time>2026-04-12T13:29:14Z</time></trkpt><trkpt lat="50.09539850543505" lon="3.7626101075404628"><ele>189.8</ele><time>2026-04-12T13:29:16Z</time></trkpt><trkpt lat="50.09530029381535" lon="3.762625485660773"><ele>189.6</ele><time>2026-04-12T13:29:18Z</time></trkpt><trkpt lat="50.095205949978144" lon="3.7626364764031592"><ele>189.39999999999998</ele><time>2026-04-12T13:29:20Z</time></trkpt><trkpt lat="50.095111065625524" lon="3.762645468796531"><ele>189.2</ele><time>2026-04-12T13:29:22Z</time></trkpt><trkpt lat="50.09501480279324" lon="3.762666908474906"><ele>189.0</ele><time>2026-04-12T13:29:24Z</time></trkpt><trkpt lat="50.09491366736125" lon="3.762676675908733"><ele>188.79999999999998</ele><time>2026-04-12T13:29:26Z</time></trkpt><trkpt lat="50.09481271537291" lon="3.7626928095338794"><ele>188.6</ele><time>2026-04-12T13:29:28Z</time></trkpt><trkpt lat="50.09471387499535" lon="3.762705498555683"><ele>188.4</ele><time>2026-04-12T13:29:30Z</time></trkpt><trkpt lat="50.094612944820916" lon="3.7627181273969974"><ele>188.2</ele><time>2026-04-12T13:29:32Z</time></trkpt><trkpt lat="50.09451596576059" lon="3.7627264958797655"><ele>188.0</ele><time>2026-04-12T13:29:34Z</time></trkpt><trkpt lat="50.09441611880669" lon="3.7627332740016173"><ele>188.2</ele><time>2026-04-12T13:29:36Z</time></trkpt><trkpt lat="50.094318999416686" lon="3.7627434217689975"><ele>188.4</ele><time>2026-04-12T13:29:38Z</time></trkpt><trkpt lat="50.09422383286232" lon="3.7627488866502974"><ele>188.6</ele><time>2026-04-12T13:29:40Z</time></trkpt><trkpt lat="50.09412215839001" lon="3.7627582341003505"><ele>188.79999999999998</ele><time>2026-04-12T13:29:42Z</time></trkpt><trkpt lat="50.09402373509284" lon="3.762766840857643"><ele>189.0</ele><time>2026-04-12T13:29:44Z</time></trkpt><trkpt lat="50.093926210236575" lon="3.7627770177883684"><ele>189.0</ele><time>2026-04-12T13:29:46Z</time></trkpt><trkpt lat="50.09382985370629" lon="3.7627873725277707"><ele>189.0</ele><time>2026-04-12T13:29:48Z</time></trkpt><trkpt lat="50.093731287912746" lon="3.7627973486683155"><ele>189.0</ele><time>2026-04-12T13:29:50Z</time></trkpt><trkpt lat="50.0936331283456" lon="3.7628077289122945"><ele>189.0</ele><time>2026-04-12T13:29:52Z</time></trkpt><trkpt lat="50.093535683599384" lon="3.762816298780812"><ele>189.0</ele><time>2026-04-12T13:29:54Z</time></trkpt><trkpt lat="50.093439270181285" lon="3.7628306030992156"><ele>189.0</ele><time>2026-04-12T13:29:56Z</time></trkpt><trkpt lat="50.09333937192457" lon="3.7628438889156017"><ele>189.0</ele><time>2026-04-12T13:29:58Z</time></trkpt><trkpt lat="50.09324037684034" lon="3.76285567541344"><ele>189.0</ele><time>2026-04-12T13:30:00Z</time></trkpt><trkpt lat="50.09314177236195" lon="3.7628716788992578"><ele>189.0</ele><time>2026-04-12T13:30:02Z</time></trkpt><trkpt lat="50.093045689509054" lon="3.7628806635085295"><ele>189.0</ele><time>2026-04-12T13:30:04Z</time></trkpt><trkpt lat="50.09295436260258" lon="3.7628938739035327"><ele>189.33333333333334</ele><time>2026-04-12T13:30:06Z</time></trkpt><trkpt lat="50.09285656720066" lon="3.7629065082513145"><ele>189.66666666666666</ele><time>2026-04-12T13:30:08Z</time></trkpt><trkpt lat="50.09276830121829" lon="3.762916093563098"><ele>190.0</ele><time>2026-04-12T13:30:10Z</time></trkpt><trkpt lat="50.09268355218522" lon="3.7629255154191656"><ele>190.33333333333331</ele><time>2026-04-12T13:30:12Z</time></trkpt><trkpt lat="50.09259641924336" lon="3.7629394003562444"><ele>190.66666666666666</ele><time>2026-04-12T13:30:14Z</time></trkpt><trkpt lat="50.092512829587626" lon="3.762944733815309"><ele>191.0</ele><time>2026-04-12T13:30:16Z</time></trkpt><trkpt lat="50.09242812320876" lon="3.7629525832391386"><ele>191.5</ele><time>2026-04-12T13:30:18Z</time></trkpt><trkpt lat="50.0923466539723" lon="3.7629525640296735"><ele>192.0</ele><time>2026-04-12T13:30:20Z</time></trkpt><trkpt lat="50.09226714257257" lon="3.7629695146603455"><ele>192.5</ele><time>2026-04-12T13:30:22Z</time></trkpt><trkpt lat="50.09218632135011" lon="3.762982501257414"><ele>193.0</ele><time>2026-04-12T13:30:24Z</time></trkpt><trkpt lat="50.092105051170066" lon="3.762990654223351"><ele>193.50000000000003</ele><time>2026-04-12T13:30:26Z</time></trkpt><trkpt lat="50.092021066787765" lon="3.7629939333211504"><ele>194.0</ele><time>2026-04-12T13:30:28Z</time></trkpt><trkpt lat="50.09194769442503" lon="3.7630140519023816"><ele>194.00000000000003</ele><time>2026-04-12T13:30:30Z</time></trkpt><trkpt lat="50.0918744045662" lon="3.7630138004350657"><ele>194.0</ele><time>2026-04-12T13:30:32Z</time></trkpt><trkpt lat="50.091805615746715" lon="3.7630123506620152"><ele>194.0</ele><time>2026-04-12T13:30:34Z</time></trkpt><trkpt lat="50.09173275779755" lon="3.7630244689279233"><ele>194.0</ele><time>2026-04-12T13:30:36Z</time></trkpt><trkpt lat="50.091660371575166" lon="3.7630336307118073"><ele>194.00000000000003</ele><time>2026-04-12T13:30:38Z</time></trkpt><trkpt lat="50.091577932784084" lon="3.7630500748344073"><ele>194.0</ele><time>2026-04-12T13:30:40Z</time></trkpt><trkpt lat="50.09149844197119" lon="3.7630591966794715"><ele>194.33333333333334</ele><time>2026-04-12T13:30:42Z</time></trkpt><trkpt lat="50.091417261309985" lon="3.763073851007809"><ele>194.66666666666669</ele><time>2026-04-12T13:30:44Z</time></trkpt><trkpt lat="50.091343754509076" lon="3.7630826760223277"><ele>195.0</ele><time>2026-04-12T13:30:46Z</time></trkpt><trkpt lat="50.09126712695788" lon="3.76307465978304"><ele>195.33333333333331</ele><time>2026-04-12T13:30:48Z</time></trkpt><trkpt lat="50.091195506963544" lon="3.7630974071234657"><ele>195.66666666666666</ele><time>2026-04-12T13:30:50Z</time></trkpt><trkpt lat="50.0911229302699" lon="3.763109678044276"><ele>196.0</ele><time>2026-04-12T13:30:52Z</time></trkpt><trkpt lat="50.09104116294162" lon="3.7631188777596933"><ele>195.99999999999997</ele><time>2026-04-12T13:30:54Z</time></trkpt><trkpt lat="50.09095998404868" lon="3.76313147046901"><ele>196.0</ele><time>2026-04-12T13:30:56Z</time></trkpt><trkpt lat="50.09087292815554" lon="3.763147799780119"><ele>196.0</ele><time>2026-04-12T13:30:58Z</time></trkpt><trkpt lat="50.09079056351703" lon="3.763161095206266"><ele>196.0</ele><time>2026-04-12T13:31:00Z</time></trkpt><trkpt lat="50.090709628439406" lon="3.763174978037209"><ele>195.99999999999997</ele><time>2026-04-12T13:31:02Z</time></trkpt><trkpt lat="50.09062690618354" lon="3.7631862288224185"><ele>196.0</ele><time>2026-04-12T13:31:04Z</time></trkpt><trkpt lat="50.0905264318489" lon="3.763187660500701"><ele>195.83333333333331</ele><time>2026-04-12T13:31:06Z</time></trkpt><trkpt lat="50.0904505971497" lon="3.7632131992132347"><ele>195.66666666666666</ele><time>2026-04-12T13:31:08Z</time></trkpt><trkpt lat="50.09037206416389" lon="3.7632306798684483"><ele>195.5</ele><time>2026-04-12T13:31:10Z</time></trkpt><trkpt lat="50.09029417580699" lon="3.7632489040762054"><ele>195.33333333333331</ele><time>2026-04-12T13:31:12Z</time></trkpt><trkpt lat="50.09021654500772" lon="3.7632678223250426"><ele>195.16666666666666</ele><time>2026-04-12T13:31:14Z</time></trkpt><trkpt lat="50.090139865872125" lon="3.7632918752793088"><ele>195.0</ele><time>2026-04-12T13:31:16Z</time></trkpt><trkpt lat="50.090059309387016" lon="3.7633116492173473"><ele>195.0</ele><time>2026-04-12T13:31:18Z</time></trkpt><trkpt lat="50.08997672087618" lon="3.7633374617858784"><ele>195.0</ele><time>2026-04-12T13:31:20Z</time></trkpt><trkpt lat="50.089892328151045" lon="3.7633738765578113"><ele>195.0</ele><time>2026-04-12T13:31:22Z</time></trkpt><trkpt lat="50.089805169584935" lon="3.7634006834905973"><ele>195.0</ele><time>2026-04-12T13:31:24Z</time></trkpt><trkpt lat="50.08971894727286" lon="3.7634361726361516"><ele>195.0</ele><time>2026-04-12T13:31:26Z</time></trkpt><trkpt lat="50.08963442839771" lon="3.763474357394006"><ele>195.0</ele><time>2026-04-12T13:31:28Z</time></trkpt><trkpt lat="50.0895442198627" lon="3.763510311138792"><ele>195.0</ele><time>2026-04-12T13:31:30Z</time></trkpt><trkpt lat="50.089459116521866" lon="3.7635551268215464"><ele>195.0</ele><time>2026-04-12T13:31:32Z</time></trkpt><trkpt lat="50.08937121400893" lon="3.763600686748169"><ele>195.0</ele><time>2026-04-12T13:31:34Z</time></trkpt><trkpt lat="50.08927772047463" lon="3.763630694711879"><ele>195.0</ele><time>2026-04-12T13:31:36Z</time></trkpt><trkpt lat="50.08917911250962" lon="3.7636812411885976"><ele>195.0</ele><time>2026-04-12T13:31:38Z</time></trkpt><trkpt lat="50.08907885916087" lon="3.7637168929409395"><ele>194.6</ele><time>2026-04-12T13:31:40Z</time></trkpt><trkpt lat="50.08896998009084" lon="3.7637493166587688"><ele>194.2</ele><time>2026-04-12T13:31:42Z</time></trkpt><trkpt lat="50.08886334652268" lon="3.7637708774602987"><ele>193.8</ele><time>2026-04-12T13:31:44Z</time></trkpt><trkpt lat="50.08874997371452" lon="3.7637846504568215"><ele>193.4</ele><time>2026-04-12T13:31:46Z</time></trkpt><trkpt lat="50.08863440482281" lon="3.763789909912834"><ele>193.0</ele><time>2026-04-12T13:31:48Z</time></trkpt><trkpt lat="50.088513830318554" lon="3.7637883071525957"><ele>193.0</ele><time>2026-04-12T13:31:50Z</time></trkpt><trkpt lat="50.088396664639525" lon="3.7637733429486153"><ele>193.0</ele><time>2026-04-12T13:31:52Z</time></trkpt><trkpt lat="50.08827185243073" lon="3.7637580057553213"><ele>193.0</ele><time>2026-04-12T13:31:54Z</time></trkpt><trkpt lat="50.088147695327635" lon="3.763743792368205"><ele>193.0</ele><time>2026-04-12T13:31:56Z</time></trkpt><trkpt lat="50.088022929462305" lon="3.7637349262471997"><ele>192.57142857142858</ele><time>2026-04-12T13:31:58Z</time></trkpt><trkpt lat="50.08795756250262" lon="3.7637297245499624"><ele>192.14285714285714</ele><time>2026-04-12T13:31:59Z</time></trkpt><trkpt lat="50.0878912193187" lon="3.7637296309566337"><ele>191.71428571428572</ele><time>2026-04-12T13:32:00Z</time></trkpt><trkpt lat="50.087825554828065" lon="3.763725247132185"><ele>191.28571428571428</ele><time>2026-04-12T13:32:01Z</time></trkpt><trkpt lat="50.087757603437566" lon="3.7637187576755835"><ele>190.85714285714286</ele><time>2026-04-12T13:32:02Z</time></trkpt><trkpt lat="50.08769397045187" lon="3.7637122859542225"><ele>190.42857142857144</ele><time>2026-04-12T13:32:03Z</time></trkpt><trkpt lat="50.08762814251784" lon="3.7637148656062753"><ele>190.0</ele><time>2026-04-12T13:32:04Z</time></trkpt><trkpt lat="50.087557960597145" lon="3.76371086933053"><ele>190.0</ele><time>2026-04-12T13:32:05Z</time></trkpt><trkpt lat="50.08748883623192" lon="3.763708755239301"><ele>190.0</ele><time>2026-04-12T13:32:06Z</time></trkpt><trkpt lat="50.08742070869798" lon="3.7637079622440814"><ele>190.0</ele><time>2026-04-12T13:32:07Z</time></trkpt><trkpt lat="50.087352384883246" lon="3.7637090058193294"><ele>190.0</ele><time>2026-04-12T13:32:08Z</time></trkpt><trkpt lat="50.087283375404745" lon="3.763713493789358"><ele>190.0</ele><time>2026-04-12T13:32:09Z</time></trkpt><trkpt lat="50.087215575250134" lon="3.763723510928997"><ele>190.0</ele><time>2026-04-12T13:32:10Z</time></trkpt><trkpt lat="50.08714985076384" lon="3.7637386910522435"><ele>190.0</ele><time>2026-04-12T13:32:11Z</time></trkpt><trkpt lat="50.087084638682896" lon="3.7637486981463146"><ele>189.6</ele><time>2026-04-12T13:32:12Z</time></trkpt><trkpt lat="50.08702060692032" lon="3.7637594727860346"><ele>189.2</ele><time>2026-04-12T13:32:13Z</time></trkpt><trkpt lat="50.086893273649444" lon="3.7637899401426482"><ele>188.8</ele><time>2026-04-12T13:32:15Z</time></trkpt><trkpt lat="50.08676814355539" lon="3.7638214115435495"><ele>188.4</ele><time>2026-04-12T13:32:17Z</time></trkpt><trkpt lat="50.08664687004976" lon="3.763855403132838"><ele>188.0</ele><time>2026-04-12T13:32:19Z</time></trkpt><trkpt lat="50.08658442443323" lon="3.763871850513422"><ele>187.66666666666666</ele><time>2026-04-12T13:32:20Z</time></trkpt><trkpt lat="50.08645918652125" lon="3.7639035543101405"><ele>187.33333333333331</ele><time>2026-04-12T13:32:22Z</time></trkpt><trkpt lat="50.08639521252527" lon="3.763918039682694"><ele>187.0</ele><time>2026-04-12T13:32:23Z</time></trkpt><trkpt lat="50.086331021545476" lon="3.7639246028252313"><ele>186.66666666666666</ele><time>2026-04-12T13:32:24Z</time></trkpt><trkpt lat="50.08620732894662" lon="3.763933672051104"><ele>186.33333333333334</ele><time>2026-04-12T13:32:26Z</time></trkpt><trkpt lat="50.08614372537963" lon="3.7639384893964123"><ele>186.0</ele><time>2026-04-12T13:32:27Z</time></trkpt><trkpt lat="50.086024569292725" lon="3.7639539664430997"><ele>186.0</ele><time>2026-04-12T13:32:29Z</time></trkpt><trkpt lat="50.085904462759245" lon="3.7639825313054316"><ele>186.0</ele><time>2026-04-12T13:32:31Z</time></trkpt><trkpt lat="50.085842829090666" lon="3.764016449355872"><ele>186.0</ele><time>2026-04-12T13:32:32Z</time></trkpt><trkpt lat="50.085740583763794" lon="3.764104631269437"><ele>186.0</ele><time>2026-04-12T13:32:34Z</time></trkpt><trkpt lat="50.0856495218925" lon="3.764232438785428"><ele>186.0</ele><time>2026-04-12T13:32:36Z</time></trkpt><trkpt lat="50.08556644797976" lon="3.7643542909852887"><ele>186.0</ele><time>2026-04-12T13:32:38Z</time></trkpt><trkpt lat="50.08548324792775" lon="3.764481388392649"><ele>186.0</ele><time>2026-04-12T13:32:40Z</time></trkpt><trkpt lat="50.085398131773424" lon="3.7646014087566457"><ele>186.0</ele><time>2026-04-12T13:32:42Z</time></trkpt><trkpt lat="50.08531571473228" lon="3.7647146115496755"><ele>186.0</ele><time>2026-04-12T13:32:44Z</time></trkpt><trkpt lat="50.08523258944407" lon="3.7648256039931316"><ele>186.0</ele><time>2026-04-12T13:32:46Z</time></trkpt><trkpt lat="50.08513337612173" lon="3.7649047268374205"><ele>186.0</ele><time>2026-04-12T13:32:48Z</time></trkpt><trkpt lat="50.08503841023833" lon="3.7650145071411343"><ele>186.0</ele><time>2026-04-12T13:32:50Z</time></trkpt><trkpt lat="50.08494014356857" lon="3.765092615630318"><ele>186.0</ele><time>2026-04-12T13:32:52Z</time></trkpt><trkpt lat="50.084835644275636" lon="3.7651733124120055"><ele>186.0</ele><time>2026-04-12T13:32:54Z</time></trkpt><trkpt lat="50.084732382186544" lon="3.765248470552931"><ele>186.0</ele><time>2026-04-12T13:32:56Z</time></trkpt><trkpt lat="50.08462508829854" lon="3.7653069124502174"><ele>186.0</ele><time>2026-04-12T13:32:58Z</time></trkpt><trkpt lat="50.08451899199564" lon="3.765369837352498"><ele>186.0</ele><time>2026-04-12T13:33:00Z</time></trkpt><trkpt lat="50.084410437561495" lon="3.765428921107059"><ele>186.0</ele><time>2026-04-12T13:33:02Z</time></trkpt><trkpt lat="50.084292052712065" lon="3.7654778695832323"><ele>186.0</ele><time>2026-04-12T13:33:04Z</time></trkpt><trkpt lat="50.08416922850075" lon="3.765539221360733"><ele>186.0</ele><time>2026-04-12T13:33:06Z</time></trkpt><trkpt lat="50.0841052109774" lon="3.765566086249465"><ele>186.0</ele><time>2026-04-12T13:33:07Z</time></trkpt><trkpt lat="50.084041039900654" lon="3.7655956353505964"><ele>186.0</ele><time>2026-04-12T13:33:08Z</time></trkpt><trkpt lat="50.08397548392606" lon="3.7656286849688514"><ele>185.71428571428572</ele><time>2026-04-12T13:33:09Z</time></trkpt><trkpt lat="50.083911395467865" lon="3.765660560410647"><ele>185.42857142857144</ele><time>2026-04-12T13:33:10Z</time></trkpt><trkpt lat="50.08384678104089" lon="3.7656930093791137"><ele>185.14285714285717</ele><time>2026-04-12T13:33:11Z</time></trkpt><trkpt lat="50.08378022004764" lon="3.7657243636355573"><ele>184.85714285714286</ele><time>2026-04-12T13:33:12Z</time></trkpt><trkpt lat="50.08371232992768" lon="3.765747754717001"><ele>184.57142857142856</ele><time>2026-04-12T13:33:13Z</time></trkpt><trkpt lat="50.08364917434752" lon="3.7657787647884344"><ele>184.2857142857143</ele><time>2026-04-12T13:33:14Z</time></trkpt><trkpt lat="50.083583981502244" lon="3.7658126103889558"><ele>184.0</ele><time>2026-04-12T13:33:15Z</time></trkpt><trkpt lat="50.08351503110837" lon="3.765844351138505"><ele>184.0</ele><time>2026-04-12T13:33:16Z</time></trkpt><trkpt lat="50.08344720192447" lon="3.765867652542575"><ele>184.0</ele><time>2026-04-12T13:33:17Z</time></trkpt><trkpt lat="50.08337931069391" lon="3.7658858552285333"><ele>184.0</ele><time>2026-04-12T13:33:18Z</time></trkpt><trkpt lat="50.08330884815324" lon="3.765893300056225"><ele>184.0</ele><time>2026-04-12T13:33:19Z</time></trkpt><trkpt lat="50.083236080858974" lon="3.765879535483208"><ele>184.0</ele><time>2026-04-12T13:33:20Z</time></trkpt><trkpt lat="50.08317112211602" lon="3.7658501363589263"><ele>184.0</ele><time>2026-04-12T13:33:21Z</time></trkpt><trkpt lat="50.08311279485425" lon="3.765802191929512"><ele>184.0</ele><time>2026-04-12T13:33:22Z</time></trkpt><trkpt lat="50.08305908696119" lon="3.765744814242669"><ele>184.2</ele><time>2026-04-12T13:33:23Z</time></trkpt><trkpt lat="50.08296519634792" lon="3.7656171246099426"><ele>184.39999999999998</ele><time>2026-04-12T13:33:25Z</time></trkpt><trkpt lat="50.08290947076985" lon="3.7655514532668053"><ele>184.6</ele><time>2026-04-12T13:33:26Z</time></trkpt><trkpt lat="50.08280236078972" lon="3.7654329133601214"><ele>184.8</ele><time>2026-04-12T13:33:28Z</time></trkpt><trkpt lat="50.082751673822514" lon="3.765366426762674"><ele>185.0</ele><time>2026-04-12T13:33:29Z</time></trkpt><trkpt lat="50.082703772137236" lon="3.765301240579095"><ele>184.99999999999997</ele><time>2026-04-12T13:33:30Z</time></trkpt><trkpt lat="50.08265418451135" lon="3.7652395686858973"><ele>185.0</ele><time>2026-04-12T13:33:31Z</time></trkpt><trkpt lat="50.08260429083083" lon="3.7651777481959594"><ele>185.0</ele><time>2026-04-12T13:33:32Z</time></trkpt><trkpt lat="50.08255602647541" lon="3.7651119736429646"><ele>185.0</ele><time>2026-04-12T13:33:33Z</time></trkpt><trkpt lat="50.082501076178644" lon="3.7650421753135594"><ele>185.0</ele><time>2026-04-12T13:33:34Z</time></trkpt><trkpt lat="50.08245067101916" lon="3.764970748381853"><ele>184.99999999999997</ele><time>2026-04-12T13:33:35Z</time></trkpt><trkpt lat="50.08239985284165" lon="3.764894672286498"><ele>185.0</ele><time>2026-04-12T13:33:36Z</time></trkpt><trkpt lat="50.08234765124153" lon="3.7648189212694283"><ele>184.0</ele><time>2026-04-12T13:33:37Z</time></trkpt><trkpt lat="50.082298451696545" lon="3.764744543489286"><ele>183.0</ele><time>2026-04-12T13:33:38Z</time></trkpt><trkpt lat="50.082225371524764" lon="3.7646299772395184"><ele>182.0</ele><time>2026-04-12T13:33:40Z</time></trkpt><trkpt lat="50.08217280247253" lon="3.764545663400716"><ele>181.0</ele><time>2026-04-12T13:33:42Z</time></trkpt><trkpt lat="50.08211383513059" lon="3.764446885622053"><ele>180.0</ele><time>2026-04-12T13:33:45Z</time></trkpt><trkpt lat="50.082066322749846" lon="3.764377996623029"><ele>179.0</ele><time>2026-04-12T13:34:00Z</time></trkpt><trkpt lat="50.08193968553609" lon="3.7644265776265353"><ele>179.0</ele><time>2026-04-12T13:34:06Z</time></trkpt><trkpt lat="50.08188704270608" lon="3.764482472195482"><ele>179.0</ele><time>2026-04-12T13:34:09Z</time></trkpt><trkpt lat="50.08181466656562" lon="3.7645538934384524"><ele>179.0</ele><time>2026-04-12T13:34:12Z</time></trkpt><trkpt lat="50.08174824437826" lon="3.764599638885242"><ele>179.0</ele><time>2026-04-12T13:34:14Z</time></trkpt><trkpt lat="50.08167675376948" lon="3.7646565102601954"><ele>179.0</ele><time>2026-04-12T13:34:16Z</time></trkpt><trkpt lat="50.08160191697327" lon="3.7647174084590036"><ele>179.0</ele><time>2026-04-12T13:34:18Z</time></trkpt><trkpt lat="50.08152464803652" lon="3.7647820279934816"><ele>178.6</ele><time>2026-04-12T13:34:20Z</time></trkpt><trkpt lat="50.08144662808442" lon="3.764843376075425"><ele>178.2</ele><time>2026-04-12T13:34:22Z</time></trkpt><trkpt lat="50.08135729311541" lon="3.764914384043062"><ele>177.79999999999998</ele><time>2026-04-12T13:34:24Z</time></trkpt><trkpt lat="50.08127456421677" lon="3.7649791992618034"><ele>177.39999999999998</ele><time>2026-04-12T13:34:26Z</time></trkpt><trkpt lat="50.08119612784333" lon="3.7650449352897337"><ele>177.0</ele><time>2026-04-12T13:34:28Z</time></trkpt><trkpt lat="50.08111608004731" lon="3.7651142127011825"><ele>177.0</ele><time>2026-04-12T13:34:30Z</time></trkpt><trkpt lat="50.081036371925975" lon="3.7651812099222757"><ele>177.0</ele><time>2026-04-12T13:34:32Z</time></trkpt><trkpt lat="50.08096009975117" lon="3.765260202389176"><ele>177.0</ele><time>2026-04-12T13:34:34Z</time></trkpt><trkpt lat="50.080884380463" lon="3.765349822264826"><ele>177.0</ele><time>2026-04-12T13:34:36Z</time></trkpt><trkpt lat="50.080823836952625" lon="3.7654174456331493"><ele>177.0</ele><time>2026-04-12T13:34:38Z</time></trkpt><trkpt lat="50.080743555361835" lon="3.765529833435677"><ele>176.8</ele><time>2026-04-12T13:34:40Z</time></trkpt><trkpt lat="50.080678372449775" lon="3.7656274731692427"><ele>176.6</ele><time>2026-04-12T13:34:42Z</time></trkpt><trkpt lat="50.08060973634741" lon="3.765729299727015"><ele>176.4</ele><time>2026-04-12T13:34:44Z</time></trkpt><trkpt lat="50.08054297473027" lon="3.7658144882230586"><ele>176.20000000000002</ele><time>2026-04-12T13:34:46Z</time></trkpt><trkpt lat="50.080478702066" lon="3.7659282149023037"><ele>176.0</ele><time>2026-04-12T13:34:48Z</time></trkpt><trkpt lat="50.080405950680685" lon="3.766019610668977"><ele>176.60000000000002</ele><time>2026-04-12T13:34:50Z</time></trkpt><trkpt lat="50.08034115275801" lon="3.7661313802736456"><ele>177.2</ele><time>2026-04-12T13:34:51.999Z</time></trkpt><trkpt lat="50.08027125677016" lon="3.7662272833736044"><ele>177.8</ele><time>2026-04-12T13:34:53.999Z</time></trkpt><trkpt lat="50.08019906555148" lon="3.766315059999885"><ele>178.39999999999998</ele><time>2026-04-12T13:34:55.999Z</time></trkpt><trkpt lat="50.080114573372065" lon="3.766407750779173"><ele>179.0</ele><time>2026-04-12T13:34:57.999Z</time></trkpt><trkpt lat="50.08003234346102" lon="3.7664960873701916"><ele>179.0</ele><time>2026-04-12T13:34:59.999Z</time></trkpt><trkpt lat="50.079952334923675" lon="3.766583415979498"><ele>179.0</ele><time>2026-04-12T13:35:01.999Z</time></trkpt><trkpt lat="50.07987897130858" lon="3.766653191503444"><ele>179.0</ele><time>2026-04-12T13:35:03.999Z</time></trkpt><trkpt lat="50.079814091464506" lon="3.7667242394900486"><ele>179.0</ele><time>2026-04-12T13:35:06.999Z</time></trkpt><trkpt lat="50.079737477138245" lon="3.766748656964615"><ele>179.0</ele><time>2026-04-12T13:35:10Z</time></trkpt><trkpt lat="50.07967355617727" lon="3.7668444577355613"><ele>179.0</ele><time>2026-04-12T13:35:12Z</time></trkpt><trkpt lat="50.079594948459004" lon="3.766938527349424"><ele>178.6</ele><time>2026-04-12T13:35:14Z</time></trkpt><trkpt lat="50.07950914718507" lon="3.7670275115043714"><ele>178.2</ele><time>2026-04-12T13:35:16Z</time></trkpt><trkpt lat="50.079416538209436" lon="3.767129914751982"><ele>177.79999999999998</ele><time>2026-04-12T13:35:18Z</time></trkpt><trkpt lat="50.07931910972613" lon="3.7672403127238736"><ele>177.39999999999998</ele><time>2026-04-12T13:35:20Z</time></trkpt><trkpt lat="50.07926823845753" lon="3.7672986658312055"><ele>177.0</ele><time>2026-04-12T13:35:21Z</time></trkpt><trkpt lat="50.07918202580391" lon="3.7674235955991837"><ele>177.0</ele><time>2026-04-12T13:35:23Z</time></trkpt><trkpt lat="50.07913079719067" lon="3.767483821929364"><ele>177.0</ele><time>2026-04-12T13:35:24Z</time></trkpt><trkpt lat="50.07903682225036" lon="3.767605743473249"><ele>177.0</ele><time>2026-04-12T13:35:26Z</time></trkpt><trkpt lat="50.07895098894922" lon="3.7677261892526914"><ele>177.0</ele><time>2026-04-12T13:35:28Z</time></trkpt><trkpt lat="50.078867516519956" lon="3.7678502114251393"><ele>177.0</ele><time>2026-04-12T13:35:30Z</time></trkpt><trkpt lat="50.07879380125387" lon="3.7679580035248343"><ele>177.0</ele><time>2026-04-12T13:35:32Z</time></trkpt><trkpt lat="50.07872213883424" lon="3.7680663801616685"><ele>177.0</ele><time>2026-04-12T13:35:34Z</time></trkpt><trkpt lat="50.078658547249084" lon="3.7681680333460017"><ele>177.0</ele><time>2026-04-12T13:35:36Z</time></trkpt><trkpt lat="50.07860781730343" lon="3.768267471481721"><ele>177.0</ele><time>2026-04-12T13:35:38Z</time></trkpt><trkpt lat="50.078582911277095" lon="3.7683792137156726"><ele>177.0</ele><time>2026-04-12T13:35:40Z</time></trkpt><trkpt lat="50.078556751547794" lon="3.7684978985508133"><ele>177.0</ele><time>2026-04-12T13:35:42Z</time></trkpt><trkpt lat="50.078533195655936" lon="3.768609716011123"><ele>177.5</ele><time>2026-04-12T13:35:44Z</time></trkpt><trkpt lat="50.078514400051695" lon="3.7687322250793067"><ele>178.0</ele><time>2026-04-12T13:35:46Z</time></trkpt><trkpt lat="50.07848303066507" lon="3.7688457747285904"><ele>178.5</ele><time>2026-04-12T13:35:48Z</time></trkpt><trkpt lat="50.07845580272396" lon="3.7689560222029"><ele>179.0</ele><time>2026-04-12T13:35:50Z</time></trkpt><trkpt lat="50.07843110590973" lon="3.7690667837366463"><ele>179.5</ele><time>2026-04-12T13:35:52Z</time></trkpt><trkpt lat="50.07840996066596" lon="3.7691786623522097"><ele>180.0</ele><time>2026-04-12T13:35:54Z</time></trkpt><trkpt lat="50.07838521351591" lon="3.769286834649428"><ele>180.28571428571428</ele><time>2026-04-12T13:35:56Z</time></trkpt><trkpt lat="50.0783726204862" lon="3.769394912616802"><ele>180.57142857142858</ele><time>2026-04-12T13:35:58Z</time></trkpt><trkpt lat="50.0783683624128" lon="3.769499612719561"><ele>180.85714285714286</ele><time>2026-04-12T13:36:00Z</time></trkpt><trkpt lat="50.07835055226538" lon="3.7695966468925213"><ele>181.14285714285714</ele><time>2026-04-12T13:36:02Z</time></trkpt><trkpt lat="50.07833376340715" lon="3.769702495374238"><ele>181.42857142857144</ele><time>2026-04-12T13:36:04Z</time></trkpt><trkpt lat="50.078316014434165" lon="3.769826250197725"><ele>181.71428571428572</ele><time>2026-04-12T13:36:06Z</time></trkpt><trkpt lat="50.07829678696291" lon="3.7699501232299872"><ele>182.0</ele><time>2026-04-12T13:36:08Z</time></trkpt><trkpt lat="50.0782772937997" lon="3.770079852122005"><ele>181.83333333333331</ele><time>2026-04-12T13:36:10Z</time></trkpt><trkpt lat="50.078259264926885" lon="3.7702100954478914"><ele>181.66666666666666</ele><time>2026-04-12T13:36:12Z</time></trkpt><trkpt lat="50.07823912482571" lon="3.770339528114104"><ele>181.5</ele><time>2026-04-12T13:36:14Z</time></trkpt><trkpt lat="50.07821267112587" lon="3.770465190819985"><ele>181.33333333333334</ele><time>2026-04-12T13:36:16Z</time></trkpt><trkpt lat="50.07817288261677" lon="3.7705692972983997"><ele>181.16666666666669</ele><time>2026-04-12T13:36:18Z</time></trkpt><trkpt lat="50.07812755512317" lon="3.7706781297177123"><ele>181.0</ele><time>2026-04-12T13:36:20Z</time></trkpt><trkpt lat="50.078085084415854" lon="3.770784861838254"><ele>181.0</ele><time>2026-04-12T13:36:22Z</time></trkpt><trkpt lat="50.0780315899639" lon="3.7708904580700877"><ele>181.0</ele><time>2026-04-12T13:36:24Z</time></trkpt><trkpt lat="50.07798704134368" lon="3.770985869046806"><ele>181.0</ele><time>2026-04-12T13:36:26Z</time></trkpt><trkpt lat="50.07793930452291" lon="3.771097660613737"><ele>181.0</ele><time>2026-04-12T13:36:28Z</time></trkpt><trkpt lat="50.077876231839184" lon="3.7712162457141933"><ele>181.0</ele><time>2026-04-12T13:36:30Z</time></trkpt><trkpt lat="50.07782202568035" lon="3.771335639940971"><ele>181.0</ele><time>2026-04-12T13:36:32Z</time></trkpt><trkpt lat="50.07776180565508" lon="3.7714545902575414"><ele>181.20000000000002</ele><time>2026-04-12T13:36:34Z</time></trkpt><trkpt lat="50.077699582605206" lon="3.7715787427177614"><ele>181.4</ele><time>2026-04-12T13:36:36Z</time></trkpt><trkpt lat="50.077643560419865" lon="3.771698446774107"><ele>181.6</ele><time>2026-04-12T13:36:38Z</time></trkpt><trkpt lat="50.07758231400485" lon="3.771814338589858"><ele>181.8</ele><time>2026-04-12T13:36:40Z</time></trkpt><trkpt lat="50.077526507291424" lon="3.7719356523224756"><ele>182.0</ele><time>2026-04-12T13:36:42Z</time></trkpt><trkpt lat="50.07747314595676" lon="3.7720410644584432"><ele>181.83333333333331</ele><time>2026-04-12T13:36:44Z</time></trkpt><trkpt lat="50.07741870809447" lon="3.7721434214601652"><ele>181.66666666666666</ele><time>2026-04-12T13:36:46Z</time></trkpt><trkpt lat="50.07736767023337" lon="3.7722527762623788"><ele>181.5</ele><time>2026-04-12T13:36:48Z</time></trkpt><trkpt lat="50.07731797092233" lon="3.7723615199105"><ele>181.33333333333334</ele><time>2026-04-12T13:36:50Z</time></trkpt><trkpt lat="50.07726574811586" lon="3.7724674730677066"><ele>181.16666666666669</ele><time>2026-04-12T13:36:52Z</time></trkpt><trkpt lat="50.07721235072503" lon="3.7725775493181732"><ele>181.0</ele><time>2026-04-12T13:36:54Z</time></trkpt><trkpt lat="50.07715998486145" lon="3.772682813461798"><ele>181.16666666666669</ele><time>2026-04-12T13:36:56Z</time></trkpt><trkpt lat="50.077103195445865" lon="3.7727890180978387"><ele>181.33333333333334</ele><time>2026-04-12T13:36:58Z</time></trkpt><trkpt lat="50.077044525552466" lon="3.772894953221787"><ele>181.5</ele><time>2026-04-12T13:37:00Z</time></trkpt><trkpt lat="50.07698153396926" lon="3.77299918784236"><ele>181.66666666666666</ele><time>2026-04-12T13:37:02Z</time></trkpt><trkpt lat="50.07691820149031" lon="3.7731015891138164"><ele>181.83333333333331</ele><time>2026-04-12T13:37:04Z</time></trkpt><trkpt lat="50.076856617410094" lon="3.7731982125819377"><ele>182.0</ele><time>2026-04-12T13:37:06Z</time></trkpt><trkpt lat="50.076795263900216" lon="3.7732928725447743"><ele>182.0</ele><time>2026-04-12T13:37:08Z</time></trkpt><trkpt lat="50.07673110577785" lon="3.7733874286562235"><ele>182.0</ele><time>2026-04-12T13:37:10Z</time></trkpt><trkpt lat="50.07667796708405" lon="3.773462308068326"><ele>182.0</ele><time>2026-04-12T13:37:12Z</time></trkpt><trkpt lat="50.07651570723399" lon="3.7736525014078"><ele>182.0</ele><time>2026-04-12T13:38:02Z</time></trkpt><trkpt lat="50.07646208817447" lon="3.773715848362737"><ele>182.0</ele><time>2026-04-12T13:38:04Z</time></trkpt><trkpt lat="50.07639154925086" lon="3.7738158316601904"><ele>181.8</ele><time>2026-04-12T13:38:06Z</time></trkpt><trkpt lat="50.076321401823634" lon="3.7739011362721246"><ele>181.6</ele><time>2026-04-12T13:38:08Z</time></trkpt><trkpt lat="50.07624750541239" lon="3.7739899990082284"><ele>181.4</ele><time>2026-04-12T13:38:10Z</time></trkpt><trkpt lat="50.07617397953602" lon="3.7740794726898383"><ele>181.20000000000002</ele><time>2026-04-12T13:38:12Z</time></trkpt><trkpt lat="50.07609689633675" lon="3.774165412144372"><ele>181.0</ele><time>2026-04-12T13:38:14Z</time></trkpt><trkpt lat="50.076017655035116" lon="3.7742504746693353"><ele>181.0</ele><time>2026-04-12T13:38:16Z</time></trkpt><trkpt lat="50.075942098112684" lon="3.7743339375884437"><ele>181.0</ele><time>2026-04-12T13:38:18Z</time></trkpt><trkpt lat="50.07586256881456" lon="3.77442087718704"><ele>181.0</ele><time>2026-04-12T13:38:20Z</time></trkpt><trkpt lat="50.07577731549762" lon="3.7745008379348883"><ele>181.0</ele><time>2026-04-12T13:38:22Z</time></trkpt><trkpt lat="50.07572887029121" lon="3.7745994646218364"><ele>181.0</ele><time>2026-04-12T13:38:24Z</time></trkpt><trkpt lat="50.075653179115356" lon="3.7747012428702105"><ele>181.16666666666669</ele><time>2026-04-12T13:38:26Z</time></trkpt><trkpt lat="50.07557909420438" lon="3.7747936966472375"><ele>181.33333333333334</ele><time>2026-04-12T13:38:28Z</time></trkpt><trkpt lat="50.07550831496226" lon="3.77488646699965"><ele>181.5</ele><time>2026-04-12T13:38:30Z</time></trkpt><trkpt lat="50.07544597523797" lon="3.7749578340528847"><ele>181.66666666666666</ele><time>2026-04-12T13:38:32Z</time></trkpt><trkpt lat="50.07537195076097" lon="3.7750613829861153"><ele>181.83333333333331</ele><time>2026-04-12T13:38:34Z</time></trkpt><trkpt lat="50.07530764750092" lon="3.7751404907363932"><ele>182.0</ele><time>2026-04-12T13:38:36Z</time></trkpt><trkpt lat="50.07524202155109" lon="3.7752289245375676"><ele>182.33333333333331</ele><time>2026-04-12T13:38:38Z</time></trkpt><trkpt lat="50.075171491010714" lon="3.7753155233033553"><ele>182.66666666666666</ele><time>2026-04-12T13:38:40Z</time></trkpt><trkpt lat="50.07510458879958" lon="3.7754095990690772"><ele>183.0</ele><time>2026-04-12T13:38:42Z</time></trkpt><trkpt lat="50.07503939691711" lon="3.775495058949327"><ele>183.33333333333334</ele><time>2026-04-12T13:38:44Z</time></trkpt><trkpt lat="50.074974809901626" lon="3.7755864371687036"><ele>183.66666666666669</ele><time>2026-04-12T13:38:46Z</time></trkpt><trkpt lat="50.0749062754437" lon="3.7756719044682923"><ele>184.0</ele><time>2026-04-12T13:38:48Z</time></trkpt><trkpt lat="50.07483855192393" lon="3.7757643004652888"><ele>184.0</ele><time>2026-04-12T13:38:50Z</time></trkpt><trkpt lat="50.07476632024232" lon="3.7758526344635484"><ele>184.0</ele><time>2026-04-12T13:38:52Z</time></trkpt><trkpt lat="50.07469713197522" lon="3.7759338755859613"><ele>184.0</ele><time>2026-04-12T13:38:54Z</time></trkpt><trkpt lat="50.07462022075747" lon="3.7760260627072544"><ele>184.0</ele><time>2026-04-12T13:38:56Z</time></trkpt><trkpt lat="50.074546791074795" lon="3.7761213070535957"><ele>184.0</ele><time>2026-04-12T13:38:58Z</time></trkpt><trkpt lat="50.07446316621127" lon="3.7762151855939425"><ele>184.39999999999998</ele><time>2026-04-12T13:39:00Z</time></trkpt><trkpt lat="50.07438407001241" lon="3.7763049880433384"><ele>184.8</ele><time>2026-04-12T13:39:02Z</time></trkpt><trkpt lat="50.0742952386241" lon="3.776394348679561"><ele>185.2</ele><time>2026-04-12T13:39:04Z</time></trkpt><trkpt lat="50.07420288538495" lon="3.7764865717586495"><ele>185.60000000000002</ele><time>2026-04-12T13:39:06Z</time></trkpt><trkpt lat="50.07410244437031" lon="3.776573562571411"><ele>186.0</ele><time>2026-04-12T13:39:08Z</time></trkpt><trkpt lat="50.074001101713165" lon="3.77666900216467"><ele>185.20000000000002</ele><time>2026-04-12T13:39:10Z</time></trkpt><trkpt lat="50.07389780532273" lon="3.776765664961862"><ele>184.4</ele><time>2026-04-12T13:39:12Z</time></trkpt><trkpt lat="50.073803002560744" lon="3.7768766294411664"><ele>183.6</ele><time>2026-04-12T13:39:14Z</time></trkpt><trkpt lat="50.07370732702621" lon="3.776998856331116"><ele>182.8</ele><time>2026-04-12T13:39:16Z</time></trkpt><trkpt lat="50.0736590731772" lon="3.777065592421448"><ele>182.0</ele><time>2026-04-12T13:39:17Z</time></trkpt><trkpt lat="50.07356151592125" lon="3.7771996070216245"><ele>182.0</ele><time>2026-04-12T13:39:19Z</time></trkpt><trkpt lat="50.07350342272902" lon="3.7772634894094983"><ele>182.0</ele><time>2026-04-12T13:39:20Z</time></trkpt><trkpt lat="50.07344952614687" lon="3.777328998782047"><ele>182.0</ele><time>2026-04-12T13:39:21Z</time></trkpt><trkpt lat="50.07339785612366" lon="3.7773873055215854"><ele>182.0</ele><time>2026-04-12T13:39:22Z</time></trkpt><trkpt lat="50.07334447372608" lon="3.777445996444291"><ele>182.0</ele><time>2026-04-12T13:39:23Z</time></trkpt><trkpt lat="50.07328719152946" lon="3.777509029877114"><ele>182.0</ele><time>2026-04-12T13:39:24Z</time></trkpt><trkpt lat="50.073230363190454" lon="3.7775608960169427"><ele>182.0</ele><time>2026-04-12T13:39:25Z</time></trkpt><trkpt lat="50.073166953303236" lon="3.777603415329766"><ele>181.5</ele><time>2026-04-12T13:39:26Z</time></trkpt><trkpt lat="50.073103937605616" lon="3.7776386559624213"><ele>181.0</ele><time>2026-04-12T13:39:27Z</time></trkpt><trkpt lat="50.07304051407869" lon="3.7776724686120087"><ele>180.5</ele><time>2026-04-12T13:39:28Z</time></trkpt><trkpt lat="50.07297705897408" lon="3.7777024990037624"><ele>180.0</ele><time>2026-04-12T13:39:29Z</time></trkpt><trkpt lat="50.072913883667404" lon="3.7777310628739817"><ele>179.5</ele><time>2026-04-12T13:39:30Z</time></trkpt><trkpt lat="50.07285158743678" lon="3.7777528161110188"><ele>179.0</ele><time>2026-04-12T13:39:31Z</time></trkpt><trkpt lat="50.07272982587067" lon="3.777796000230341"><ele>179.0</ele><time>2026-04-12T13:39:33Z</time></trkpt><trkpt lat="50.072612575993475" lon="3.7778303761537853"><ele>179.0</ele><time>2026-04-12T13:39:35Z</time></trkpt><trkpt lat="50.07249949658944" lon="3.777890048224847"><ele>179.0</ele><time>2026-04-12T13:39:37Z</time></trkpt><trkpt lat="50.07238502209076" lon="3.777953581255832"><ele>179.0</ele><time>2026-04-12T13:39:39Z</time></trkpt><trkpt lat="50.07228222804493" lon="3.7780208746549224"><ele>179.2</ele><time>2026-04-12T13:39:41Z</time></trkpt><trkpt lat="50.07218336479489" lon="3.7780969076804096"><ele>179.39999999999998</ele><time>2026-04-12T13:39:43Z</time></trkpt><trkpt lat="50.072088582810466" lon="3.778159517836608"><ele>179.6</ele><time>2026-04-12T13:39:45Z</time></trkpt><trkpt lat="50.07199720312345" lon="3.7782286258136746"><ele>179.8</ele><time>2026-04-12T13:39:47Z</time></trkpt><trkpt lat="50.07189979829627" lon="3.7782818657635757"><ele>180.0</ele><time>2026-04-12T13:39:49Z</time></trkpt><trkpt lat="50.07181436212068" lon="3.778350803675882"><ele>180.0</ele><time>2026-04-12T13:39:51Z</time></trkpt><trkpt lat="50.07172678238627" lon="3.7784083068662486"><ele>180.0</ele><time>2026-04-12T13:39:52.999Z</time></trkpt><trkpt lat="50.07163494749056" lon="3.7784696840013585"><ele>180.0</ele><time>2026-04-12T13:39:54.999Z</time></trkpt><trkpt lat="50.07154661699816" lon="3.7785353091449974"><ele>180.0</ele><time>2026-04-12T13:39:56.999Z</time></trkpt><trkpt lat="50.0714572102555" lon="3.7786032100516502"><ele>180.0</ele><time>2026-04-12T13:39:58.999Z</time></trkpt><trkpt lat="50.07136512240154" lon="3.7786545772803515"><ele>180.2</ele><time>2026-04-12T13:40:00.999Z</time></trkpt><trkpt lat="50.07127547600468" lon="3.7787132224169206"><ele>180.4</ele><time>2026-04-12T13:40:03Z</time></trkpt><trkpt lat="50.07118196040413" lon="3.778778732299683"><ele>180.60000000000002</ele><time>2026-04-12T13:40:05Z</time></trkpt><trkpt lat="50.07109132243687" lon="3.7788380192742133"><ele>180.8</ele><time>2026-04-12T13:40:07Z</time></trkpt><trkpt lat="50.071006311356726" lon="3.778890445872045"><ele>181.0</ele><time>2026-04-12T13:40:09Z</time></trkpt><trkpt lat="50.07092247870565" lon="3.778949471121498"><ele>181.0</ele><time>2026-04-12T13:40:11Z</time></trkpt><trkpt lat="50.07084446289293" lon="3.7790037240369974"><ele>181.0</ele><time>2026-04-12T13:40:13Z</time></trkpt><trkpt lat="50.07076583179745" lon="3.7790511547453987"><ele>181.0</ele><time>2026-04-12T13:40:15Z</time></trkpt><trkpt lat="50.0706927222278" lon="3.779116029668057"><ele>181.0</ele><time>2026-04-12T13:40:17Z</time></trkpt><trkpt lat="50.07060815392786" lon="3.7791623857429637"><ele>181.0</ele><time>2026-04-12T13:40:19Z</time></trkpt><trkpt lat="50.07050776329752" lon="3.779223738445671"><ele>181.0</ele><time>2026-04-12T13:40:21Z</time></trkpt><trkpt lat="50.070408310618596" lon="3.779298041982999"><ele>181.0</ele><time>2026-04-12T13:40:23Z</time></trkpt><trkpt lat="50.0703131790322" lon="3.779359514041411"><ele>181.0</ele><time>2026-04-12T13:40:25Z</time></trkpt><trkpt lat="50.07021317433973" lon="3.7794386188156093"><ele>181.0</ele><time>2026-04-12T13:40:27Z</time></trkpt><trkpt lat="50.07011833868243" lon="3.7795139545113354"><ele>181.0</ele><time>2026-04-12T13:40:29Z</time></trkpt><trkpt lat="50.070027607152824" lon="3.7795899839899048"><ele>181.0</ele><time>2026-04-12T13:40:31Z</time></trkpt><trkpt lat="50.06994336104953" lon="3.7796818073272562"><ele>181.0</ele><time>2026-04-12T13:40:33Z</time></trkpt><trkpt lat="50.06985957255169" lon="3.7797656340972203"><ele>181.0</ele><time>2026-04-12T13:40:35Z</time></trkpt><trkpt lat="50.06977879440355" lon="3.7798486887328218"><ele>181.0</ele><time>2026-04-12T13:40:37Z</time></trkpt><trkpt lat="50.06969659008824" lon="3.77993594145671"><ele>181.0</ele><time>2026-04-12T13:40:39Z</time></trkpt><trkpt lat="50.069614135816394" lon="3.780015811654314"><ele>181.0</ele><time>2026-04-12T13:40:41Z</time></trkpt><trkpt lat="50.06953493818066" lon="3.7801086492160425"><ele>181.0</ele><time>2026-04-12T13:40:43Z</time></trkpt><trkpt lat="50.06945467182858" lon="3.7801915720658137"><ele>181.0</ele><time>2026-04-12T13:40:45Z</time></trkpt><trkpt lat="50.06937436305274" lon="3.780274857499739"><ele>181.0</ele><time>2026-04-12T13:40:47Z</time></trkpt><trkpt lat="50.069291258891674" lon="3.7803615996287294"><ele>181.0</ele><time>2026-04-12T13:40:49Z</time></trkpt><trkpt lat="50.06920389520303" lon="3.7804424194755217"><ele>181.0</ele><time>2026-04-12T13:40:51Z</time></trkpt><trkpt lat="50.069121510581475" lon="3.780531211029358"><ele>181.0</ele><time>2026-04-12T13:40:53Z</time></trkpt><trkpt lat="50.069042518871065" lon="3.780612284149396"><ele>181.0</ele><time>2026-04-12T13:40:55Z</time></trkpt><trkpt lat="50.06895653878417" lon="3.78069431586744"><ele>181.0</ele><time>2026-04-12T13:40:57Z</time></trkpt><trkpt lat="50.068874729948114" lon="3.7807877500989364"><ele>181.0</ele><time>2026-04-12T13:40:59Z</time></trkpt><trkpt lat="50.06879055311665" lon="3.780869473754136"><ele>181.0</ele><time>2026-04-12T13:41:01Z</time></trkpt><trkpt lat="50.06870971097762" lon="3.7809511165060465"><ele>181.0</ele><time>2026-04-12T13:41:03Z</time></trkpt><trkpt lat="50.068626942665645" lon="3.781034603498204"><ele>181.0</ele><time>2026-04-12T13:41:05Z</time></trkpt><trkpt lat="50.06854117987748" lon="3.7811188903456485"><ele>181.0</ele><time>2026-04-12T13:41:07Z</time></trkpt><trkpt lat="50.06846028671166" lon="3.781203677149112"><ele>181.0</ele><time>2026-04-12T13:41:09Z</time></trkpt><trkpt lat="50.06837748622975" lon="3.7812933203774035"><ele>181.0</ele><time>2026-04-12T13:41:11Z</time></trkpt><trkpt lat="50.0682925646011" lon="3.781380690868644"><ele>181.0</ele><time>2026-04-12T13:41:13Z</time></trkpt><trkpt lat="50.06820997126924" lon="3.7814714004403243"><ele>181.0</ele><time>2026-04-12T13:41:15Z</time></trkpt><trkpt lat="50.06812530435635" lon="3.781561092310447"><ele>181.0</ele><time>2026-04-12T13:41:17Z</time></trkpt><trkpt lat="50.06803451499319" lon="3.7816449843141418"><ele>181.0</ele><time>2026-04-12T13:41:19Z</time></trkpt><trkpt lat="50.06794734669697" lon="3.7817313039471783"><ele>181.20000000000002</ele><time>2026-04-12T13:41:21Z</time></trkpt><trkpt lat="50.0678536757798" lon="3.7818217391033633"><ele>181.4</ele><time>2026-04-12T13:41:23Z</time></trkpt><trkpt lat="50.06776952434862" lon="3.7819132657849437"><ele>181.6</ele><time>2026-04-12T13:41:25Z</time></trkpt><trkpt lat="50.06767826583841" lon="3.7820083291338973"><ele>181.8</ele><time>2026-04-12T13:41:27Z</time></trkpt><trkpt lat="50.06758443597088" lon="3.782095530236692"><ele>182.0</ele><time>2026-04-12T13:41:29Z</time></trkpt><trkpt lat="50.06749547406066" lon="3.7821923782553077"><ele>181.25</ele><time>2026-04-12T13:41:31Z</time></trkpt><trkpt lat="50.06740265001062" lon="3.78228501505888"><ele>180.5</ele><time>2026-04-12T13:41:33Z</time></trkpt><trkpt lat="50.06731340412245" lon="3.7823816982748983"><ele>179.75</ele><time>2026-04-12T13:41:35Z</time></trkpt><trkpt lat="50.06721899946909" lon="3.782489376652273"><ele>179.0</ele><time>2026-04-12T13:41:37Z</time></trkpt><trkpt lat="50.06713583004343" lon="3.782614717737683"><ele>179.6</ele><time>2026-04-12T13:41:39Z</time></trkpt><trkpt lat="50.067059234564674" lon="3.7827531957033576"><ele>180.2</ele><time>2026-04-12T13:41:41Z</time></trkpt><trkpt lat="50.06698971759246" lon="3.7828740689165863"><ele>180.79999999999998</ele><time>2026-04-12T13:41:43Z</time></trkpt><trkpt lat="50.06692562145394" lon="3.7829997611030106"><ele>181.39999999999998</ele><time>2026-04-12T13:41:45Z</time></trkpt><trkpt lat="50.06686086688822" lon="3.783132128030063"><ele>182.0</ele><time>2026-04-12T13:41:47Z</time></trkpt><trkpt lat="50.06680013019255" lon="3.783258632162258"><ele>182.0</ele><time>2026-04-12T13:41:49Z</time></trkpt><trkpt lat="50.0667296325486" lon="3.78338744430142"><ele>182.0</ele><time>2026-04-12T13:41:51Z</time></trkpt><trkpt lat="50.06666716472603" lon="3.78351134762093"><ele>182.0</ele><time>2026-04-12T13:41:53Z</time></trkpt><trkpt lat="50.06659930934198" lon="3.7836334064156785"><ele>182.0</ele><time>2026-04-12T13:41:55Z</time></trkpt><trkpt lat="50.06653728205232" lon="3.7837563797050406"><ele>182.0</ele><time>2026-04-12T13:41:57Z</time></trkpt><trkpt lat="50.06648132436529" lon="3.783884987915276"><ele>182.0</ele><time>2026-04-12T13:41:59Z</time></trkpt><trkpt lat="50.066412735078" lon="3.7840090350516036"><ele>182.0</ele><time>2026-04-12T13:42:01Z</time></trkpt><trkpt lat="50.06634730814869" lon="3.7841306469425136"><ele>182.0</ele><time>2026-04-12T13:42:03Z</time></trkpt><trkpt lat="50.06628163557984" lon="3.784265616950184"><ele>182.0</ele><time>2026-04-12T13:42:05Z</time></trkpt><trkpt lat="50.0662181307432" lon="3.7843993526483555"><ele>182.0</ele><time>2026-04-12T13:42:07Z</time></trkpt><trkpt lat="50.06616330717302" lon="3.784529894858112"><ele>182.6</ele><time>2026-04-12T13:42:09Z</time></trkpt><trkpt lat="50.0661062386967" lon="3.7846552081378926"><ele>183.2</ele><time>2026-04-12T13:42:11Z</time></trkpt><trkpt lat="50.06605240974464" lon="3.7847842003018295"><ele>183.8</ele><time>2026-04-12T13:42:13Z</time></trkpt><trkpt lat="50.065992655780626" lon="3.784913775244173"><ele>184.4</ele><time>2026-04-12T13:42:15Z</time></trkpt><trkpt lat="50.065936671847446" lon="3.785044868376548"><ele>185.0</ele><time>2026-04-12T13:42:17Z</time></trkpt><trkpt lat="50.06588232380975" lon="3.785168676046466"><ele>185.4</ele><time>2026-04-12T13:42:19Z</time></trkpt><trkpt lat="50.0658271346757" lon="3.7853008067036114"><ele>185.8</ele><time>2026-04-12T13:42:21Z</time></trkpt><trkpt lat="50.06577914625921" lon="3.78543490656865"><ele>186.2</ele><time>2026-04-12T13:42:23Z</time></trkpt><trkpt lat="50.06573694187673" lon="3.785569650374531"><ele>186.6</ele><time>2026-04-12T13:42:25Z</time></trkpt><trkpt lat="50.06568201860931" lon="3.7856940950375773"><ele>187.0</ele><time>2026-04-12T13:42:27Z</time></trkpt><trkpt lat="50.065638611943655" lon="3.7858195561517"><ele>186.39999999999998</ele><time>2026-04-12T13:42:29Z</time></trkpt><trkpt lat="50.065586942915004" lon="3.7859521353754486"><ele>185.79999999999998</ele><time>2026-04-12T13:42:31Z</time></trkpt><trkpt lat="50.0655470547683" lon="3.7860855203936117"><ele>185.2</ele><time>2026-04-12T13:42:33Z</time></trkpt><trkpt lat="50.06551858481322" lon="3.7862047174666285"><ele>184.6</ele><time>2026-04-12T13:42:35Z</time></trkpt><trkpt lat="50.065475355871854" lon="3.786336309165206"><ele>184.0</ele><time>2026-04-12T13:42:37Z</time></trkpt><trkpt lat="50.06544400989132" lon="3.786460665201374"><ele>184.0</ele><time>2026-04-12T13:42:39Z</time></trkpt><trkpt lat="50.06540262005062" lon="3.7865942634040324"><ele>184.0</ele><time>2026-04-12T13:42:41Z</time></trkpt><trkpt lat="50.065366446614114" lon="3.7867383800916286"><ele>184.0</ele><time>2026-04-12T13:42:43Z</time></trkpt><trkpt lat="50.06533173920447" lon="3.786877082568878"><ele>184.0</ele><time>2026-04-12T13:42:45Z</time></trkpt><trkpt lat="50.065291383603665" lon="3.7870124243648786"><ele>184.0</ele><time>2026-04-12T13:42:47Z</time></trkpt><trkpt lat="50.06524127415132" lon="3.7871500989182523"><ele>184.0</ele><time>2026-04-12T13:42:49Z</time></trkpt><trkpt lat="50.065202182086225" lon="3.7872874449832423"><ele>184.0</ele><time>2026-04-12T13:42:51Z</time></trkpt><trkpt lat="50.06516770374619" lon="3.7874290112848605"><ele>184.0</ele><time>2026-04-12T13:42:53Z</time></trkpt><trkpt lat="50.065132738656786" lon="3.787575954688651"><ele>184.0</ele><time>2026-04-12T13:42:55Z</time></trkpt><trkpt lat="50.06509308617277" lon="3.787727472639457"><ele>184.0</ele><time>2026-04-12T13:42:57Z</time></trkpt><trkpt lat="50.06505455767531" lon="3.7878751898796086"><ele>184.0</ele><time>2026-04-12T13:42:59Z</time></trkpt><trkpt lat="50.06501214359295" lon="3.7880248416054685"><ele>184.0</ele><time>2026-04-12T13:43:01Z</time></trkpt><trkpt lat="50.064973370187836" lon="3.7881723613152802"><ele>184.0</ele><time>2026-04-12T13:43:03Z</time></trkpt><trkpt lat="50.064931601640104" lon="3.7883361906947846"><ele>184.0</ele><time>2026-04-12T13:43:05Z</time></trkpt><trkpt lat="50.064885473277045" lon="3.7885101897195086"><ele>184.0</ele><time>2026-04-12T13:43:07Z</time></trkpt><trkpt lat="50.0648416626061" lon="3.7886791924723213"><ele>184.2</ele><time>2026-04-12T13:43:09Z</time></trkpt><trkpt lat="50.064797143504734" lon="3.788860541583298"><ele>184.39999999999998</ele><time>2026-04-12T13:43:11Z</time></trkpt><trkpt lat="50.06474016718706" lon="3.789029169164709"><ele>184.6</ele><time>2026-04-12T13:43:13Z</time></trkpt><trkpt lat="50.06469807395126" lon="3.789112151728079"><ele>184.8</ele><time>2026-04-12T13:43:14Z</time></trkpt><trkpt lat="50.06460829325467" lon="3.7892674655371703"><ele>185.0</ele><time>2026-04-12T13:43:16Z</time></trkpt><trkpt lat="50.06454060627885" lon="3.7894180862563935"><ele>185.0</ele><time>2026-04-12T13:43:18Z</time></trkpt><trkpt lat="50.06449402445542" lon="3.7894888591844302"><ele>185.0</ele><time>2026-04-12T13:43:19Z</time></trkpt><trkpt lat="50.06440130486418" lon="3.7896157611882515"><ele>185.0</ele><time>2026-04-12T13:43:21Z</time></trkpt><trkpt lat="50.06430928537686" lon="3.789738250023893"><ele>185.0</ele><time>2026-04-12T13:43:23Z</time></trkpt><trkpt lat="50.06425389002681" lon="3.789792737308717"><ele>185.0</ele><time>2026-04-12T13:43:24Z</time></trkpt><trkpt lat="50.06415800732689" lon="3.7899014766278243"><ele>185.0</ele><time>2026-04-12T13:43:26Z</time></trkpt><trkpt lat="50.06406280846" lon="3.7900127873253875"><ele>185.0</ele><time>2026-04-12T13:43:28Z</time></trkpt><trkpt lat="50.06396825454366" lon="3.7901245810876714"><ele>185.0</ele><time>2026-04-12T13:43:30Z</time></trkpt><trkpt lat="50.063869060143524" lon="3.7902279152559446"><ele>185.0</ele><time>2026-04-12T13:43:32Z</time></trkpt><trkpt lat="50.063776102907454" lon="3.790328838972612"><ele>185.0</ele><time>2026-04-12T13:43:34Z</time></trkpt><trkpt lat="50.0636872561357" lon="3.7904373988803437"><ele>185.0</ele><time>2026-04-12T13:43:36Z</time></trkpt><trkpt lat="50.06359665422179" lon="3.7905337870081173"><ele>185.0</ele><time>2026-04-12T13:43:38Z</time></trkpt><trkpt lat="50.06350741170461" lon="3.7906377908944786"><ele>185.0</ele><time>2026-04-12T13:43:40Z</time></trkpt><trkpt lat="50.06341965266587" lon="3.7907401911819534"><ele>185.0</ele><time>2026-04-12T13:43:42Z</time></trkpt><trkpt lat="50.06332469808141" lon="3.79082996069897"><ele>185.0</ele><time>2026-04-12T13:43:44Z</time></trkpt><trkpt lat="50.063237967539386" lon="3.790931336987756"><ele>185.0</ele><time>2026-04-12T13:43:46Z</time></trkpt><trkpt lat="50.06315420115981" lon="3.7910412996413574"><ele>185.0</ele><time>2026-04-12T13:43:48Z</time></trkpt><trkpt lat="50.063083052020296" lon="3.7911639183848007"><ele>185.0</ele><time>2026-04-12T13:43:50Z</time></trkpt><trkpt lat="50.063012715810146" lon="3.7912859908002403"><ele>185.0</ele><time>2026-04-12T13:43:52Z</time></trkpt><trkpt lat="50.06294994272414" lon="3.791430886320179"><ele>185.0</ele><time>2026-04-12T13:43:54Z</time></trkpt><trkpt lat="50.062891897927976" lon="3.791579489838607"><ele>185.0</ele><time>2026-04-12T13:43:56Z</time></trkpt><trkpt lat="50.06283339714967" lon="3.791730815918551"><ele>185.0</ele><time>2026-04-12T13:43:58Z</time></trkpt><trkpt lat="50.062780001474444" lon="3.7918769151654637"><ele>185.0</ele><time>2026-04-12T13:44:00Z</time></trkpt><trkpt lat="50.06272643770359" lon="3.7920206554457647"><ele>185.0</ele><time>2026-04-12T13:44:02Z</time></trkpt><trkpt lat="50.062672393237726" lon="3.7921561183888817"><ele>185.2</ele><time>2026-04-12T13:44:04Z</time></trkpt><trkpt lat="50.06261994482755" lon="3.792290711863342"><ele>185.4</ele><time>2026-04-12T13:44:06Z</time></trkpt><trkpt lat="50.06256905121276" lon="3.7924281014740564"><ele>185.60000000000002</ele><time>2026-04-12T13:44:08Z</time></trkpt><trkpt lat="50.0625209236022" lon="3.7925600264068215"><ele>185.8</ele><time>2026-04-12T13:44:10Z</time></trkpt><trkpt lat="50.062473388029765" lon="3.792696645197261"><ele>186.0</ele><time>2026-04-12T13:44:12Z</time></trkpt><trkpt lat="50.062421245929954" lon="3.7928417451233267"><ele>186.20000000000002</ele><time>2026-04-12T13:44:14Z</time></trkpt><trkpt lat="50.06237530891929" lon="3.7929535834817654"><ele>186.4</ele><time>2026-04-12T13:44:16Z</time></trkpt><trkpt lat="50.06232249627621" lon="3.7930901303436433"><ele>186.6</ele><time>2026-04-12T13:44:18Z</time></trkpt><trkpt lat="50.062269675053464" lon="3.793218671903011"><ele>186.8</ele><time>2026-04-12T13:44:20Z</time></trkpt><trkpt lat="50.06222206496865" lon="3.79334781894309"><ele>187.0</ele><time>2026-04-12T13:44:22Z</time></trkpt><trkpt lat="50.06217338035343" lon="3.793465491412161"><ele>187.0</ele><time>2026-04-12T13:44:24Z</time></trkpt><trkpt lat="50.062123788698734" lon="3.7935811236313235"><ele>187.0</ele><time>2026-04-12T13:44:26Z</time></trkpt><trkpt lat="50.06207742764619" lon="3.793704428177399"><ele>187.0</ele><time>2026-04-12T13:44:28Z</time></trkpt><trkpt lat="50.06201743189365" lon="3.7938305843329463"><ele>187.0</ele><time>2026-04-12T13:44:30Z</time></trkpt><trkpt lat="50.06195298390433" lon="3.793953016983139"><ele>187.0</ele><time>2026-04-12T13:44:32Z</time></trkpt><trkpt lat="50.06189339148817" lon="3.7940753199199215"><ele>187.0</ele><time>2026-04-12T13:44:34Z</time></trkpt><trkpt lat="50.06183033030639" lon="3.7941969088313194"><ele>187.0</ele><time>2026-04-12T13:44:36Z</time></trkpt><trkpt lat="50.061768868289704" lon="3.794318858946088"><ele>187.0</ele><time>2026-04-12T13:44:38Z</time></trkpt><trkpt lat="50.06170586245387" lon="3.7944372225305547"><ele>187.0</ele><time>2026-04-12T13:44:40Z</time></trkpt><trkpt lat="50.06164134234147" lon="3.794561659641188"><ele>187.0</ele><time>2026-04-12T13:44:42Z</time></trkpt><trkpt lat="50.06157911014123" lon="3.7946745056742635"><ele>186.8</ele><time>2026-04-12T13:44:44Z</time></trkpt><trkpt lat="50.06151051684461" lon="3.794783473314093"><ele>186.6</ele><time>2026-04-12T13:44:46Z</time></trkpt><trkpt lat="50.06145407274151" lon="3.794894149023116"><ele>186.4</ele><time>2026-04-12T13:44:48Z</time></trkpt><trkpt lat="50.06139406457166" lon="3.795015091779636"><ele>186.20000000000002</ele><time>2026-04-12T13:44:50Z</time></trkpt><trkpt lat="50.06132830510409" lon="3.7951262739858604"><ele>186.0</ele><time>2026-04-12T13:44:52Z</time></trkpt><trkpt lat="50.06126838995028" lon="3.795220576552512"><ele>186.60000000000002</ele><time>2026-04-12T13:44:54Z</time></trkpt><trkpt lat="50.06121102159624" lon="3.7953460160647237"><ele>187.2</ele><time>2026-04-12T13:44:56Z</time></trkpt><trkpt lat="50.061150192891795" lon="3.795455782685368"><ele>187.8</ele><time>2026-04-12T13:44:58Z</time></trkpt><trkpt lat="50.06108978629212" lon="3.7955697549558205"><ele>188.39999999999998</ele><time>2026-04-12T13:45:00Z</time></trkpt><trkpt lat="50.06103006123098" lon="3.795690660320411"><ele>189.0</ele><time>2026-04-12T13:45:02Z</time></trkpt><trkpt lat="50.06096348328878" lon="3.7958011576555295"><ele>189.0</ele><time>2026-04-12T13:45:04Z</time></trkpt><trkpt lat="50.060897967255656" lon="3.795927794078601"><ele>189.0</ele><time>2026-04-12T13:45:06Z</time></trkpt><trkpt lat="50.06083487396504" lon="3.7960557218236004"><ele>189.0</ele><time>2026-04-12T13:45:08Z</time></trkpt><trkpt lat="50.06077473430305" lon="3.7961652638360923"><ele>189.0</ele><time>2026-04-12T13:45:10Z</time></trkpt><trkpt lat="50.06071360501655" lon="3.796294728324115"><ele>189.0</ele><time>2026-04-12T13:45:12Z</time></trkpt><trkpt lat="50.06065438402467" lon="3.7964052721291583"><ele>188.79999999999998</ele><time>2026-04-12T13:45:14Z</time></trkpt><trkpt lat="50.06059577696417" lon="3.7965239537233626"><ele>188.6</ele><time>2026-04-12T13:45:16Z</time></trkpt><trkpt lat="50.06053738423822" lon="3.7966270903980686"><ele>188.4</ele><time>2026-04-12T13:45:18Z</time></trkpt><trkpt lat="50.06048358154716" lon="3.796739432543744"><ele>188.2</ele><time>2026-04-12T13:45:20Z</time></trkpt><trkpt lat="50.06043078730163" lon="3.796866972552939"><ele>188.0</ele><time>2026-04-12T13:45:22Z</time></trkpt><trkpt lat="50.060379592129635" lon="3.796988396696035"><ele>188.0</ele><time>2026-04-12T13:45:24Z</time></trkpt><trkpt lat="50.06031765543491" lon="3.7971026362772218"><ele>188.0</ele><time>2026-04-12T13:45:26Z</time></trkpt><trkpt lat="50.06026067874657" lon="3.797222505127342"><ele>188.0</ele><time>2026-04-12T13:45:28Z</time></trkpt><trkpt lat="50.06020017284767" lon="3.7973451210506033"><ele>188.0</ele><time>2026-04-12T13:45:30Z</time></trkpt><trkpt lat="50.060138749470646" lon="3.797472551193988"><ele>188.0</ele><time>2026-04-12T13:45:32Z</time></trkpt><trkpt lat="50.06008477675926" lon="3.7975928067193094"><ele>188.0</ele><time>2026-04-12T13:45:34Z</time></trkpt><trkpt lat="50.06002303185883" lon="3.797715199386356"><ele>188.0</ele><time>2026-04-12T13:45:36Z</time></trkpt><trkpt lat="50.059961928587136" lon="3.7978453792749782"><ele>188.0</ele><time>2026-04-12T13:45:38Z</time></trkpt><trkpt lat="50.059900379176746" lon="3.797973844740297"><ele>188.0</ele><time>2026-04-12T13:45:40Z</time></trkpt><trkpt lat="50.0598386498962" lon="3.798091997921213"><ele>188.0</ele><time>2026-04-12T13:45:42Z</time></trkpt><trkpt lat="50.059775019657415" lon="3.79822081151953"><ele>188.0</ele><time>2026-04-12T13:45:44Z</time></trkpt><trkpt lat="50.05971303939526" lon="3.7983480068427764"><ele>188.0</ele><time>2026-04-12T13:45:46Z</time></trkpt><trkpt lat="50.0596438073774" lon="3.798470762277972"><ele>188.0</ele><time>2026-04-12T13:45:48Z</time></trkpt><trkpt lat="50.059578344635774" lon="3.798602496135593"><ele>188.0</ele><time>2026-04-12T13:45:50Z</time></trkpt><trkpt lat="50.05952025514175" lon="3.7987330592003468"><ele>188.0</ele><time>2026-04-12T13:45:52Z</time></trkpt><trkpt lat="50.05945871824674" lon="3.7988634625001523"><ele>188.2</ele><time>2026-04-12T13:45:54Z</time></trkpt><trkpt lat="50.059396766846454" lon="3.798989852951393"><ele>188.4</ele><time>2026-04-12T13:45:56Z</time></trkpt><trkpt lat="50.059326701719364" lon="3.79911617161911"><ele>188.6</ele><time>2026-04-12T13:45:58Z</time></trkpt><trkpt lat="50.05926553980519" lon="3.79924912494332"><ele>188.79999999999998</ele><time>2026-04-12T13:46:00Z</time></trkpt><trkpt lat="50.059205378876385" lon="3.799373597259812"><ele>189.0</ele><time>2026-04-12T13:46:02Z</time></trkpt><trkpt lat="50.05914496397018" lon="3.799501426314675"><ele>189.2</ele><time>2026-04-12T13:46:04Z</time></trkpt><trkpt lat="50.05909067178914" lon="3.7996237281573553"><ele>189.39999999999998</ele><time>2026-04-12T13:46:06Z</time></trkpt><trkpt lat="50.059035485625934" lon="3.7997399954736006"><ele>189.6</ele><time>2026-04-12T13:46:08Z</time></trkpt><trkpt lat="50.05898195709526" lon="3.7998697581511274"><ele>189.8</ele><time>2026-04-12T13:46:10Z</time></trkpt><trkpt lat="50.058938256180284" lon="3.7999971987128647"><ele>190.0</ele><time>2026-04-12T13:46:12Z</time></trkpt><trkpt lat="50.058892878466104" lon="3.80011478252003"><ele>190.16666666666669</ele><time>2026-04-12T13:46:14Z</time></trkpt><trkpt lat="50.05885426547113" lon="3.8002292582725152"><ele>190.33333333333334</ele><time>2026-04-12T13:46:16Z</time></trkpt><trkpt lat="50.05880989908053" lon="3.800350268496932"><ele>190.5</ele><time>2026-04-12T13:46:18Z</time></trkpt><trkpt lat="50.058769120133604" lon="3.8004726656124226"><ele>190.66666666666666</ele><time>2026-04-12T13:46:20Z</time></trkpt><trkpt lat="50.05873187445116" lon="3.800598490699238"><ele>190.83333333333331</ele><time>2026-04-12T13:46:22Z</time></trkpt><trkpt lat="50.05869369997329" lon="3.8007234921008877"><ele>191.0</ele><time>2026-04-12T13:46:24Z</time></trkpt><trkpt lat="50.05865574506892" lon="3.8008521795256986"><ele>191.0</ele><time>2026-04-12T13:46:26Z</time></trkpt><trkpt lat="50.05862035343084" lon="3.800976953105769"><ele>191.0</ele><time>2026-04-12T13:46:28Z</time></trkpt><trkpt lat="50.05858483985037" lon="3.801093372562752"><ele>191.0</ele><time>2026-04-12T13:46:30Z</time></trkpt><trkpt lat="50.058548003730586" lon="3.8012123246384686"><ele>191.0</ele><time>2026-04-12T13:46:32Z</time></trkpt><trkpt lat="50.058516514072295" lon="3.8013290796817545"><ele>191.0</ele><time>2026-04-12T13:46:34Z</time></trkpt><trkpt lat="50.05848699525088" lon="3.8014456397126697"><ele>191.0</ele><time>2026-04-12T13:46:36Z</time></trkpt><trkpt lat="50.058458918930874" lon="3.801569202624192"><ele>191.33333333333331</ele><time>2026-04-12T13:46:38Z</time></trkpt><trkpt lat="50.05843580160913" lon="3.8016924424833882"><ele>191.66666666666666</ele><time>2026-04-12T13:46:40Z</time></trkpt><trkpt lat="50.05840704503866" lon="3.801806877223166"><ele>192.0</ele><time>2026-04-12T13:46:42Z</time></trkpt><trkpt lat="50.05838499093845" lon="3.8019157590980828"><ele>192.33333333333331</ele><time>2026-04-12T13:46:44Z</time></trkpt><trkpt lat="50.05835008850057" lon="3.8020193457457205"><ele>192.66666666666666</ele><time>2026-04-12T13:46:46Z</time></trkpt><trkpt lat="50.05832830933298" lon="3.802138373305825"><ele>193.0</ele><time>2026-04-12T13:46:48Z</time></trkpt><trkpt lat="50.05830414250465" lon="3.8022582819399"><ele>192.83333333333331</ele><time>2026-04-12T13:46:50Z</time></trkpt><trkpt lat="50.058282803648424" lon="3.8023811423529175"><ele>192.66666666666666</ele><time>2026-04-12T13:46:52Z</time></trkpt><trkpt lat="50.05826049608139" lon="3.8025039125664883"><ele>192.5</ele><time>2026-04-12T13:46:54Z</time></trkpt><trkpt lat="50.05823774296217" lon="3.802621490996724"><ele>192.33333333333331</ele><time>2026-04-12T13:46:56Z</time></trkpt><trkpt lat="50.05821680170745" lon="3.8027428229862563"><ele>192.16666666666666</ele><time>2026-04-12T13:46:58Z</time></trkpt><trkpt lat="50.058196684970376" lon="3.802867706588539"><ele>192.0</ele><time>2026-04-12T13:47:00Z</time></trkpt><trkpt lat="50.058177327940236" lon="3.8029971062022505"><ele>192.33333333333334</ele><time>2026-04-12T13:47:02Z</time></trkpt><trkpt lat="50.05815597034898" lon="3.803131207668947"><ele>192.66666666666669</ele><time>2026-04-12T13:47:04Z</time></trkpt><trkpt lat="50.05812683872012" lon="3.8032593897576255"><ele>193.0</ele><time>2026-04-12T13:47:06Z</time></trkpt><trkpt lat="50.05810441556354" lon="3.8033884171747796"><ele>193.33333333333334</ele><time>2026-04-12T13:47:08Z</time></trkpt><trkpt lat="50.058078265428065" lon="3.8035175038301308"><ele>193.66666666666669</ele><time>2026-04-12T13:47:10Z</time></trkpt><trkpt lat="50.05805452553078" lon="3.8036508439400816"><ele>194.0</ele><time>2026-04-12T13:47:12Z</time></trkpt><trkpt lat="50.0580360274825" lon="3.8037817081727985"><ele>194.33333333333334</ele><time>2026-04-12T13:47:14Z</time></trkpt><trkpt lat="50.05801208891621" lon="3.803917779911667"><ele>194.66666666666669</ele><time>2026-04-12T13:47:16Z</time></trkpt><trkpt lat="50.05798860083796" lon="3.8040492471887224"><ele>195.0</ele><time>2026-04-12T13:47:18Z</time></trkpt><trkpt lat="50.05796678119045" lon="3.804180092500749"><ele>195.33333333333331</ele><time>2026-04-12T13:47:20Z</time></trkpt><trkpt lat="50.05794438538046" lon="3.8043104374113597"><ele>195.66666666666666</ele><time>2026-04-12T13:47:22Z</time></trkpt><trkpt lat="50.05792017779816" lon="3.804437520178266"><ele>196.0</ele><time>2026-04-12T13:47:24Z</time></trkpt><trkpt lat="50.057898044426715" lon="3.804566163401074"><ele>195.99999999999997</ele><time>2026-04-12T13:47:26Z</time></trkpt><trkpt lat="50.05787724230829" lon="3.804694460592075"><ele>196.0</ele><time>2026-04-12T13:47:28Z</time></trkpt><trkpt lat="50.05785621041689" lon="3.8048252958653337"><ele>196.0</ele><time>2026-04-12T13:47:30Z</time></trkpt><trkpt lat="50.05783714458736" lon="3.804953444736541"><ele>196.0</ele><time>2026-04-12T13:47:32Z</time></trkpt><trkpt lat="50.05781215391861" lon="3.805079281838974"><ele>195.99999999999997</ele><time>2026-04-12T13:47:34Z</time></trkpt><trkpt lat="50.05778765538985" lon="3.805217252909476"><ele>196.0</ele><time>2026-04-12T13:47:36Z</time></trkpt><trkpt lat="50.05776445121002" lon="3.8053459332068185"><ele>196.4</ele><time>2026-04-12T13:47:38Z</time></trkpt><trkpt lat="50.05774672665404" lon="3.805490334234103"><ele>196.8</ele><time>2026-04-12T13:47:40Z</time></trkpt><trkpt lat="50.05771826362922" lon="3.8056137497417137"><ele>197.20000000000002</ele><time>2026-04-12T13:47:42Z</time></trkpt><trkpt lat="50.057696106427734" lon="3.805756388965009"><ele>197.60000000000002</ele><time>2026-04-12T13:47:44Z</time></trkpt><trkpt lat="50.05767271211632" lon="3.8059007108698366"><ele>198.0</ele><time>2026-04-12T13:47:46Z</time></trkpt><trkpt lat="50.05764346151092" lon="3.806053770290663"><ele>198.2</ele><time>2026-04-12T13:47:48Z</time></trkpt><trkpt lat="50.05761716255236" lon="3.8062037636011166"><ele>198.4</ele><time>2026-04-12T13:47:50Z</time></trkpt><trkpt lat="50.05758809370548" lon="3.8063500029951096"><ele>198.6</ele><time>2026-04-12T13:47:52Z</time></trkpt><trkpt lat="50.05756348438017" lon="3.806498276090932"><ele>198.79999999999998</ele><time>2026-04-12T13:47:54Z</time></trkpt><trkpt lat="50.057537702213196" lon="3.8066361496990324"><ele>199.0</ele><time>2026-04-12T13:47:56Z</time></trkpt><trkpt lat="50.05751063484357" lon="3.806775284633875"><ele>199.2</ele><time>2026-04-12T13:47:58Z</time></trkpt><trkpt lat="50.057482957528514" lon="3.8069303999222672"><ele>199.39999999999998</ele><time>2026-04-12T13:48:00Z</time></trkpt><trkpt lat="50.05745377158794" lon="3.8070830908687165"><ele>199.6</ele><time>2026-04-12T13:48:02Z</time></trkpt><trkpt lat="50.057418386790275" lon="3.8072364384932884"><ele>199.8</ele><time>2026-04-12T13:48:04Z</time></trkpt><trkpt lat="50.05739223144677" lon="3.8073937167583205"><ele>200.0</ele><time>2026-04-12T13:48:06Z</time></trkpt><trkpt lat="50.05736211662131" lon="3.807550577418525"><ele>199.4</ele><time>2026-04-12T13:48:08Z</time></trkpt><trkpt lat="50.057327738712694" lon="3.807703271406988"><ele>198.8</ele><time>2026-04-12T13:48:10Z</time></trkpt><trkpt lat="50.05729480659498" lon="3.80785509412373"><ele>198.2</ele><time>2026-04-12T13:48:12Z</time></trkpt><trkpt lat="50.05726375866677" lon="3.8080048894406904"><ele>197.6</ele><time>2026-04-12T13:48:14Z</time></trkpt><trkpt lat="50.05722687885885" lon="3.8081548822297084"><ele>197.0</ele><time>2026-04-12T13:48:16Z</time></trkpt><trkpt lat="50.05719039000504" lon="3.8083146807061583"><ele>197.0</ele><time>2026-04-12T13:48:18Z</time></trkpt><trkpt lat="50.05715145368396" lon="3.8084725589978454"><ele>197.0</ele><time>2026-04-12T13:48:20Z</time></trkpt><trkpt lat="50.057115471549906" lon="3.80862732625512"><ele>197.0</ele><time>2026-04-12T13:48:22Z</time></trkpt><trkpt lat="50.05707856315867" lon="3.8087861070255156"><ele>197.0</ele><time>2026-04-12T13:48:24Z</time></trkpt><trkpt lat="50.05704174893997" lon="3.8089308976818192"><ele>197.0</ele><time>2026-04-12T13:48:26Z</time></trkpt><trkpt lat="50.05699782495027" lon="3.80909648476967"><ele>197.0</ele><time>2026-04-12T13:48:28Z</time></trkpt><trkpt lat="50.05695812380168" lon="3.809267473383946"><ele>197.0</ele><time>2026-04-12T13:48:30Z</time></trkpt><trkpt lat="50.05691236083586" lon="3.8094437516071413"><ele>197.0</ele><time>2026-04-12T13:48:32Z</time></trkpt><trkpt lat="50.05687063127524" lon="3.8096214670016235"><ele>197.0</ele><time>2026-04-12T13:48:34Z</time></trkpt><trkpt lat="50.056824405212744" lon="3.809797622734493"><ele>197.00000000000003</ele><time>2026-04-12T13:48:36Z</time></trkpt><trkpt lat="50.05677739922333" lon="3.8099800433487485"><ele>197.0</ele><time>2026-04-12T13:48:38Z</time></trkpt><trkpt lat="50.05675128491603" lon="3.8100717376063833"><ele>197.0</ele><time>2026-04-12T13:48:39Z</time></trkpt><trkpt lat="50.05672771691654" lon="3.8101644328998443"><ele>197.0</ele><time>2026-04-12T13:48:40Z</time></trkpt><trkpt lat="50.056703517214366" lon="3.8102573962646535"><ele>197.00000000000003</ele><time>2026-04-12T13:48:41Z</time></trkpt><trkpt lat="50.05665548677212" lon="3.8104389058041375"><ele>197.0</ele><time>2026-04-12T13:48:43Z</time></trkpt><trkpt lat="50.05660656670242" lon="3.81062260716465"><ele>196.8</ele><time>2026-04-12T13:48:45Z</time></trkpt><trkpt lat="50.056560857399305" lon="3.8108027158726663"><ele>196.6</ele><time>2026-04-12T13:48:47Z</time></trkpt><trkpt lat="50.056535272114004" lon="3.8108971042573323"><ele>196.4</ele><time>2026-04-12T13:48:48Z</time></trkpt><trkpt lat="50.05649212816967" lon="3.8110830078391293"><ele>196.20000000000002</ele><time>2026-04-12T13:48:50Z</time></trkpt><trkpt lat="50.0564673665984" lon="3.8111776370653896"><ele>196.0</ele><time>2026-04-12T13:48:51Z</time></trkpt><trkpt lat="50.05644375189337" lon="3.811365485469389"><ele>196.0</ele><time>2026-04-12T13:48:53Z</time></trkpt><trkpt lat="50.05644319551045" lon="3.811464075111087"><ele>196.0</ele><time>2026-04-12T13:48:54Z</time></trkpt><trkpt lat="50.0564495159469" lon="3.8115622932495814"><ele>196.0</ele><time>2026-04-12T13:48:55Z</time></trkpt><trkpt lat="50.056477820650706" lon="3.8117492912126103"><ele>196.0</ele><time>2026-04-12T13:48:57Z</time></trkpt><trkpt lat="50.05651513010617" lon="3.811925071025844"><ele>196.0</ele><time>2026-04-12T13:48:59Z</time></trkpt><trkpt lat="50.056556637758305" lon="3.8121041944958267"><ele>196.0</ele><time>2026-04-12T13:49:01Z</time></trkpt><trkpt lat="50.05659315019581" lon="3.8122768696481617"><ele>196.0</ele><time>2026-04-12T13:49:03Z</time></trkpt><trkpt lat="50.05663109988542" lon="3.812450028957494"><ele>196.0</ele><time>2026-04-12T13:49:05Z</time></trkpt><trkpt lat="50.0566658265946" lon="3.8126213046726565"><ele>196.0</ele><time>2026-04-12T13:49:07Z</time></trkpt><trkpt lat="50.0567040304981" lon="3.812787136299824"><ele>196.4</ele><time>2026-04-12T13:49:09Z</time></trkpt><trkpt lat="50.05673792148969" lon="3.8129512543236306"><ele>196.8</ele><time>2026-04-12T13:49:11Z</time></trkpt><trkpt lat="50.056775140141134" lon="3.8131108265623137"><ele>197.20000000000002</ele><time>2026-04-12T13:49:13Z</time></trkpt><trkpt lat="50.05680845085007" lon="3.8132746138321987"><ele>197.60000000000002</ele><time>2026-04-12T13:49:15Z</time></trkpt><trkpt lat="50.05684035835621" lon="3.813441775374299"><ele>198.0</ele><time>2026-04-12T13:49:17Z</time></trkpt><trkpt lat="50.05686686406672" lon="3.8136039577874046"><ele>198.25</ele><time>2026-04-12T13:49:19Z</time></trkpt><trkpt lat="50.05687832677682" lon="3.813779458924493"><ele>198.5</ele><time>2026-04-12T13:49:21Z</time></trkpt><trkpt lat="50.05686766380726" lon="3.8139368977212427"><ele>198.75</ele><time>2026-04-12T13:49:23Z</time></trkpt><trkpt lat="50.056822359240286" lon="3.814116148331207"><ele>199.0</ele><time>2026-04-12T13:49:25Z</time></trkpt><trkpt lat="50.05676743409916" lon="3.8142766875951413"><ele>198.75</ele><time>2026-04-12T13:49:27Z</time></trkpt><trkpt lat="50.0566984424869" lon="3.814437481753453"><ele>198.5</ele><time>2026-04-12T13:49:29Z</time></trkpt><trkpt lat="50.05663675253997" lon="3.81460230963918"><ele>198.25</ele><time>2026-04-12T13:49:31Z</time></trkpt><trkpt lat="50.0565723980339" lon="3.81475883095955"><ele>198.0</ele><time>2026-04-12T13:49:33Z</time></trkpt><trkpt lat="50.05651456923092" lon="3.814905577259604"><ele>197.8</ele><time>2026-04-12T13:49:35Z</time></trkpt><trkpt lat="50.05646028954904" lon="3.815046142316564"><ele>197.60000000000002</ele><time>2026-04-12T13:49:37Z</time></trkpt><trkpt lat="50.05639887055395" lon="3.8151884381700345"><ele>197.39999999999998</ele><time>2026-04-12T13:49:39Z</time></trkpt><trkpt lat="50.05634216516104" lon="3.8153415039123635"><ele>197.2</ele><time>2026-04-12T13:49:41Z</time></trkpt><trkpt lat="50.0562772634169" lon="3.8154931306370385"><ele>197.0</ele><time>2026-04-12T13:49:43Z</time></trkpt><trkpt lat="50.056216746329355" lon="3.8156341581503366"><ele>197.39999999999998</ele><time>2026-04-12T13:49:45Z</time></trkpt><trkpt lat="50.05616874176613" lon="3.815796259045349"><ele>197.79999999999998</ele><time>2026-04-12T13:49:47Z</time></trkpt><trkpt lat="50.05610950725815" lon="3.81594139653136"><ele>198.2</ele><time>2026-04-12T13:49:49Z</time></trkpt><trkpt lat="50.056052310112335" lon="3.8160770589974438"><ele>198.6</ele><time>2026-04-12T13:49:51Z</time></trkpt><trkpt lat="50.05600189330402" lon="3.8162138295314447"><ele>199.0</ele><time>2026-04-12T13:49:53Z</time></trkpt><trkpt lat="50.05594873854646" lon="3.8163437361770667"><ele>199.0</ele><time>2026-04-12T13:49:55Z</time></trkpt><trkpt lat="50.05589680254342" lon="3.81647468886297"><ele>199.0</ele><time>2026-04-12T13:49:57Z</time></trkpt><trkpt lat="50.05584372207813" lon="3.816609496523827"><ele>199.0</ele><time>2026-04-12T13:49:59Z</time></trkpt><trkpt lat="50.05579273064682" lon="3.8167367658482134"><ele>199.0</ele><time>2026-04-12T13:50:01Z</time></trkpt><trkpt lat="50.05573925129049" lon="3.8168679312857474"><ele>199.0</ele><time>2026-04-12T13:50:03Z</time></trkpt><trkpt lat="50.05569022927177" lon="3.816997115367507"><ele>199.0</ele><time>2026-04-12T13:50:05Z</time></trkpt><trkpt lat="50.05563809706526" lon="3.8171282450885062"><ele>199.0</ele><time>2026-04-12T13:50:07Z</time></trkpt><trkpt lat="50.055579996017656" lon="3.8172615619142634"><ele>199.0</ele><time>2026-04-12T13:50:09Z</time></trkpt><trkpt lat="50.05552598212435" lon="3.8173986219292178"><ele>199.0</ele><time>2026-04-12T13:50:11Z</time></trkpt><trkpt lat="50.05547573006326" lon="3.817531222913779"><ele>199.0</ele><time>2026-04-12T13:50:13Z</time></trkpt><trkpt lat="50.055422536161124" lon="3.8176674941846303"><ele>199.0</ele><time>2026-04-12T13:50:15Z</time></trkpt><trkpt lat="50.05536929813008" lon="3.817798224816168"><ele>199.0</ele><time>2026-04-12T13:50:17Z</time></trkpt><trkpt lat="50.055320492657025" lon="3.817924433966795"><ele>199.0</ele><time>2026-04-12T13:50:19Z</time></trkpt><trkpt lat="50.055269637834435" lon="3.8180540594269763"><ele>199.0</ele><time>2026-04-12T13:50:21Z</time></trkpt><trkpt lat="50.05521673813829" lon="3.8181851111555516"><ele>199.0</ele><time>2026-04-12T13:50:23Z</time></trkpt><trkpt lat="50.055165447155254" lon="3.8183143457603523"><ele>199.0</ele><time>2026-04-12T13:50:25Z</time></trkpt><trkpt lat="50.055120335985016" lon="3.8184392585288633"><ele>199.0</ele><time>2026-04-12T13:50:27Z</time></trkpt><trkpt lat="50.055069285178995" lon="3.8185645047160475"><ele>199.0</ele><time>2026-04-12T13:50:29Z</time></trkpt><trkpt lat="50.055016488903924" lon="3.8186951804109306"><ele>199.0</ele><time>2026-04-12T13:50:31Z</time></trkpt><trkpt lat="50.05496841360357" lon="3.8188222620773997"><ele>199.0</ele><time>2026-04-12T13:50:33Z</time></trkpt><trkpt lat="50.054918173469964" lon="3.8189524643905894"><ele>199.2</ele><time>2026-04-12T13:50:35Z</time></trkpt><trkpt lat="50.05486486882083" lon="3.819081238361605"><ele>199.39999999999998</ele><time>2026-04-12T13:50:37Z</time></trkpt><trkpt lat="50.05481115252321" lon="3.819210226446449"><ele>199.6</ele><time>2026-04-12T13:50:39Z</time></trkpt><trkpt lat="50.054763609042176" lon="3.819340105569259"><ele>199.8</ele><time>2026-04-12T13:50:41Z</time></trkpt><trkpt lat="50.054711266972916" lon="3.819469091150311"><ele>200.0</ele><time>2026-04-12T13:50:43Z</time></trkpt><trkpt lat="50.05466009391264" lon="3.8195963294479607"><ele>200.0</ele><time>2026-04-12T13:50:45Z</time></trkpt><trkpt lat="50.05460941786094" lon="3.8197249633217707"><ele>200.0</ele><time>2026-04-12T13:50:47Z</time></trkpt><trkpt lat="50.05456579463053" lon="3.819850001232135"><ele>200.0</ele><time>2026-04-12T13:50:49Z</time></trkpt><trkpt lat="50.054519653818936" lon="3.819966024017674"><ele>200.0</ele><time>2026-04-12T13:50:51Z</time></trkpt><trkpt lat="50.05447287023204" lon="3.8200824224032197"><ele>200.0</ele><time>2026-04-12T13:50:53Z</time></trkpt><trkpt lat="50.05442355079539" lon="3.820196815828375"><ele>200.50000000000003</ele><time>2026-04-12T13:50:55Z</time></trkpt><trkpt lat="50.054374972918495" lon="3.8203195063797173"><ele>201.0</ele><time>2026-04-12T13:50:57Z</time></trkpt><trkpt lat="50.054336727135144" lon="3.8204349930617516"><ele>201.5</ele><time>2026-04-12T13:50:59Z</time></trkpt><trkpt lat="50.054285697468636" lon="3.8205534475074923"><ele>202.0</ele><time>2026-04-12T13:51:01Z</time></trkpt><trkpt lat="50.054239831371056" lon="3.8206696401502405"><ele>202.50000000000003</ele><time>2026-04-12T13:51:03Z</time></trkpt><trkpt lat="50.054195824039205" lon="3.8207869061722954"><ele>203.0</ele><time>2026-04-12T13:51:05Z</time></trkpt><trkpt lat="50.054149257149916" lon="3.820907264131733"><ele>202.83333333333334</ele><time>2026-04-12T13:51:07Z</time></trkpt><trkpt lat="50.05410144901355" lon="3.821024854855166"><ele>202.66666666666669</ele><time>2026-04-12T13:51:09Z</time></trkpt><trkpt lat="50.05405554114827" lon="3.8211465679949312"><ele>202.5</ele><time>2026-04-12T13:51:11Z</time></trkpt><trkpt lat="50.05400953295914" lon="3.821266096658409"><ele>202.33333333333331</ele><time>2026-04-12T13:51:13Z</time></trkpt><trkpt lat="50.05396161130379" lon="3.8213799241207926"><ele>202.16666666666666</ele><time>2026-04-12T13:51:15Z</time></trkpt><trkpt lat="50.05391466152912" lon="3.821501064022071"><ele>202.0</ele><time>2026-04-12T13:51:17Z</time></trkpt><trkpt lat="50.05387132365016" lon="3.8216189859489273"><ele>202.0</ele><time>2026-04-12T13:51:19Z</time></trkpt><trkpt lat="50.053820131202265" lon="3.8217448681163906"><ele>202.0</ele><time>2026-04-12T13:51:21Z</time></trkpt><trkpt lat="50.0537710711612" lon="3.8218620751528793"><ele>202.0</ele><time>2026-04-12T13:51:23Z</time></trkpt><trkpt lat="50.053727231133145" lon="3.8219887207015484"><ele>202.0</ele><time>2026-04-12T13:51:25Z</time></trkpt><trkpt lat="50.05367366788327" lon="3.822114393966936"><ele>202.0</ele><time>2026-04-12T13:51:27Z</time></trkpt><trkpt lat="50.05362467940312" lon="3.822250246120759"><ele>202.6</ele><time>2026-04-12T13:51:29Z</time></trkpt><trkpt lat="50.05357069901699" lon="3.82238192850093"><ele>203.2</ele><time>2026-04-12T13:51:31Z</time></trkpt><trkpt lat="50.05351809949577" lon="3.8225195864277457"><ele>203.8</ele><time>2026-04-12T13:51:33Z</time></trkpt><trkpt lat="50.05346051688982" lon="3.822652039152459"><ele>204.4</ele><time>2026-04-12T13:51:35Z</time></trkpt><trkpt lat="50.053405065585544" lon="3.822786289599878"><ele>205.0</ele><time>2026-04-12T13:51:37Z</time></trkpt><trkpt lat="50.05334611436593" lon="3.822941912169816"><ele>205.4</ele><time>2026-04-12T13:51:39Z</time></trkpt><trkpt lat="50.05329256925679" lon="3.8230780676559983"><ele>205.8</ele><time>2026-04-12T13:51:41Z</time></trkpt><trkpt lat="50.05324090335054" lon="3.8232130378608313"><ele>206.2</ele><time>2026-04-12T13:51:43Z</time></trkpt><trkpt lat="50.05319083016767" lon="3.8233429520972937"><ele>206.6</ele><time>2026-04-12T13:51:45Z</time></trkpt><trkpt lat="50.05313327385764" lon="3.8234758437413925"><ele>207.0</ele><time>2026-04-12T13:51:47Z</time></trkpt><trkpt lat="50.053077959298165" lon="3.823612043901795"><ele>207.39999999999998</ele><time>2026-04-12T13:51:49Z</time></trkpt><trkpt lat="50.05302229181976" lon="3.8237518960513155"><ele>207.79999999999998</ele><time>2026-04-12T13:51:51Z</time></trkpt><trkpt lat="50.05297119774019" lon="3.823883122321474"><ele>208.2</ele><time>2026-04-12T13:51:53Z</time></trkpt><trkpt lat="50.05292038243553" lon="3.82401623900149"><ele>208.6</ele><time>2026-04-12T13:51:55Z</time></trkpt><trkpt lat="50.05286707248122" lon="3.8241483660267033"><ele>209.0</ele><time>2026-04-12T13:51:57Z</time></trkpt><trkpt lat="50.05281430953342" lon="3.824276612367411"><ele>208.2</ele><time>2026-04-12T13:51:59Z</time></trkpt><trkpt lat="50.05276318160491" lon="3.8244157811393062"><ele>207.39999999999998</ele><time>2026-04-12T13:52:01Z</time></trkpt><trkpt lat="50.05271014194443" lon="3.824549214891875"><ele>206.6</ele><time>2026-04-12T13:52:03Z</time></trkpt><trkpt lat="50.052657850954176" lon="3.8246839425618266"><ele>205.8</ele><time>2026-04-12T13:52:05Z</time></trkpt><trkpt lat="50.052602924125594" lon="3.824825952477636"><ele>205.0</ele><time>2026-04-12T13:52:07Z</time></trkpt><trkpt lat="50.05255088627613" lon="3.8249659345241245"><ele>205.0</ele><time>2026-04-12T13:52:09Z</time></trkpt><trkpt lat="50.05249171576248" lon="3.825111533530383"><ele>205.0</ele><time>2026-04-12T13:52:11Z</time></trkpt><trkpt lat="50.052433782171654" lon="3.825255009765137"><ele>205.0</ele><time>2026-04-12T13:52:13Z</time></trkpt><trkpt lat="50.05237691251771" lon="3.825395874217057"><ele>205.0</ele><time>2026-04-12T13:52:15Z</time></trkpt><trkpt lat="50.052325058181296" lon="3.8255384730132995"><ele>205.0</ele><time>2026-04-12T13:52:17Z</time></trkpt><trkpt lat="50.052270887292785" lon="3.825674378901007"><ele>204.6</ele><time>2026-04-12T13:52:19Z</time></trkpt><trkpt lat="50.052215134938464" lon="3.8258210080110997"><ele>204.2</ele><time>2026-04-12T13:52:21Z</time></trkpt><trkpt lat="50.05215587476639" lon="3.825963147208391"><ele>203.8</ele><time>2026-04-12T13:52:23Z</time></trkpt><trkpt lat="50.05209807837655" lon="3.826109401243949"><ele>203.4</ele><time>2026-04-12T13:52:25Z</time></trkpt><trkpt lat="50.05204104815108" lon="3.826253924770184"><ele>203.0</ele><time>2026-04-12T13:52:27Z</time></trkpt><trkpt lat="50.05198611772506" lon="3.826394976482018"><ele>203.0</ele><time>2026-04-12T13:52:29Z</time></trkpt><trkpt lat="50.05192996912806" lon="3.8265358779737846"><ele>203.0</ele><time>2026-04-12T13:52:31Z</time></trkpt><trkpt lat="50.05187127485135" lon="3.826679362602515"><ele>203.0</ele><time>2026-04-12T13:52:33Z</time></trkpt><trkpt lat="50.0518139610471" lon="3.8268302207521163"><ele>203.0</ele><time>2026-04-12T13:52:35Z</time></trkpt><trkpt lat="50.05175444706819" lon="3.8269761906559108"><ele>203.0</ele><time>2026-04-12T13:52:37Z</time></trkpt><trkpt lat="50.051697936863654" lon="3.8271227958669964"><ele>202.8</ele><time>2026-04-12T13:52:39Z</time></trkpt><trkpt lat="50.05163918292211" lon="3.8272653802989534"><ele>202.60000000000002</ele><time>2026-04-12T13:52:41Z</time></trkpt><trkpt lat="50.051581887151045" lon="3.8274153720094417"><ele>202.39999999999998</ele><time>2026-04-12T13:52:43Z</time></trkpt><trkpt lat="50.05152815909955" lon="3.8275575401811692"><ele>202.2</ele><time>2026-04-12T13:52:45Z</time></trkpt><trkpt lat="50.05147504531899" lon="3.827698401486112"><ele>202.0</ele><time>2026-04-12T13:52:47Z</time></trkpt><trkpt lat="50.0514121397332" lon="3.8278457742110596"><ele>202.5</ele><time>2026-04-12T13:52:49Z</time></trkpt><trkpt lat="50.051350781257774" lon="3.8280025726929403"><ele>203.0</ele><time>2026-04-12T13:52:51Z</time></trkpt><trkpt lat="50.05129095632751" lon="3.8281562929156774"><ele>203.5</ele><time>2026-04-12T13:52:53Z</time></trkpt><trkpt lat="50.051232873723414" lon="3.828304508219931"><ele>204.0</ele><time>2026-04-12T13:52:55Z</time></trkpt><trkpt lat="50.051177689390514" lon="3.8284471278591425"><ele>204.6</ele><time>2026-04-12T13:52:57Z</time></trkpt><trkpt lat="50.05112704873986" lon="3.8285835926584104"><ele>205.2</ele><time>2026-04-12T13:52:59Z</time></trkpt><trkpt lat="50.051068332116294" lon="3.8287198390763026"><ele>205.79999999999998</ele><time>2026-04-12T13:53:01Z</time></trkpt><trkpt lat="50.05102052750562" lon="3.828873189064541"><ele>206.39999999999998</ele><time>2026-04-12T13:53:03Z</time></trkpt><trkpt lat="50.05096062794448" lon="3.8290142918677863"><ele>207.0</ele><time>2026-04-12T13:53:05Z</time></trkpt><trkpt lat="50.050896404492235" lon="3.8291638697130543"><ele>207.0</ele><time>2026-04-12T13:53:07Z</time></trkpt><trkpt lat="50.05083895780098" lon="3.8293155752646775"><ele>207.0</ele><time>2026-04-12T13:53:09Z</time></trkpt><trkpt lat="50.05078131612155" lon="3.8294589741045657"><ele>207.0</ele><time>2026-04-12T13:53:11Z</time></trkpt><trkpt lat="50.05072227664773" lon="3.8296044671321483"><ele>207.0</ele><time>2026-04-12T13:53:13Z</time></trkpt><trkpt lat="50.0506638934916" lon="3.8297471173328175"><ele>207.0</ele><time>2026-04-12T13:53:15Z</time></trkpt><trkpt lat="50.05060940647932" lon="3.829898464061591"><ele>207.2</ele><time>2026-04-12T13:53:17Z</time></trkpt><trkpt lat="50.05055322301248" lon="3.830040131596312"><ele>207.39999999999998</ele><time>2026-04-12T13:53:19Z</time></trkpt><trkpt lat="50.05049222034256" lon="3.8301825716547815"><ele>207.60000000000002</ele><time>2026-04-12T13:53:21Z</time></trkpt><trkpt lat="50.0504384350672" lon="3.8303313482363084"><ele>207.8</ele><time>2026-04-12T13:53:23Z</time></trkpt><trkpt lat="50.050380611989944" lon="3.830475160263831"><ele>208.0</ele><time>2026-04-12T13:53:25Z</time></trkpt><trkpt lat="50.05032156012623" lon="3.830628537179252"><ele>207.5</ele><time>2026-04-12T13:53:27Z</time></trkpt><trkpt lat="50.05025761878862" lon="3.8307818826604745"><ele>207.0</ele><time>2026-04-12T13:53:29Z</time></trkpt><trkpt lat="50.05020005564831" lon="3.830935602541087"><ele>206.5</ele><time>2026-04-12T13:53:31Z</time></trkpt><trkpt lat="50.05014254436626" lon="3.8310896962062606"><ele>206.0</ele><time>2026-04-12T13:53:33Z</time></trkpt><trkpt lat="50.05008122020681" lon="3.8312399162539124"><ele>205.8</ele><time>2026-04-12T13:53:35Z</time></trkpt><trkpt lat="50.050023527843194" lon="3.8313823096612962"><ele>205.60000000000002</ele><time>2026-04-12T13:53:37Z</time></trkpt><trkpt lat="50.04996770334568" lon="3.831522793687422"><ele>205.4</ele><time>2026-04-12T13:53:39Z</time></trkpt><trkpt lat="50.049915392425355" lon="3.8316635261637426"><ele>205.2</ele><time>2026-04-12T13:53:41Z</time></trkpt><trkpt lat="50.049862944242385" lon="3.831803109314448"><ele>205.0</ele><time>2026-04-12T13:53:43Z</time></trkpt><trkpt lat="50.04980768669032" lon="3.831940749349028"><ele>204.8</ele><time>2026-04-12T13:53:45Z</time></trkpt><trkpt lat="50.04975150450975" lon="3.8320765661414367"><ele>204.6</ele><time>2026-04-12T13:53:47Z</time></trkpt><trkpt lat="50.049697971095306" lon="3.832215399929726"><ele>204.39999999999998</ele><time>2026-04-12T13:53:49Z</time></trkpt><trkpt lat="50.049645081144334" lon="3.8323493240805155"><ele>204.2</ele><time>2026-04-12T13:53:51Z</time></trkpt><trkpt lat="50.04959041371122" lon="3.832485247388583"><ele>204.0</ele><time>2026-04-12T13:53:53Z</time></trkpt><trkpt lat="50.049539398160626" lon="3.832614883147481"><ele>204.39999999999998</ele><time>2026-04-12T13:53:55Z</time></trkpt><trkpt lat="50.04948694749655" lon="3.832747432264964"><ele>204.8</ele><time>2026-04-12T13:53:57Z</time></trkpt><trkpt lat="50.04943333041547" lon="3.8328849497822617"><ele>205.2</ele><time>2026-04-12T13:53:59Z</time></trkpt><trkpt lat="50.04938167410854" lon="3.833018671313542"><ele>205.60000000000002</ele><time>2026-04-12T13:54:01Z</time></trkpt><trkpt lat="50.04932874068702" lon="3.8331556110923697"><ele>206.0</ele><time>2026-04-12T13:54:03Z</time></trkpt><trkpt lat="50.049273288077444" lon="3.833292069762172"><ele>206.0</ele><time>2026-04-12T13:54:05Z</time></trkpt><trkpt lat="50.04921499994548" lon="3.8334260560869"><ele>206.0</ele><time>2026-04-12T13:54:07Z</time></trkpt><trkpt lat="50.04916658000588" lon="3.8335592278015973"><ele>206.0</ele><time>2026-04-12T13:54:09Z</time></trkpt><trkpt lat="50.04911017964661" lon="3.8336987686653883"><ele>206.0</ele><time>2026-04-12T13:54:11Z</time></trkpt><trkpt lat="50.049057630733934" lon="3.8338314192273404"><ele>206.0</ele><time>2026-04-12T13:54:13Z</time></trkpt><trkpt lat="50.049006336186395" lon="3.8339729714889987"><ele>205.8</ele><time>2026-04-12T13:54:15Z</time></trkpt><trkpt lat="50.048956023373535" lon="3.8340991658027685"><ele>205.60000000000002</ele><time>2026-04-12T13:54:17Z</time></trkpt><trkpt lat="50.04890342258037" lon="3.8342352566786726"><ele>205.4</ele><time>2026-04-12T13:54:19Z</time></trkpt><trkpt lat="50.048845740752036" lon="3.834376429751248"><ele>205.2</ele><time>2026-04-12T13:54:21Z</time></trkpt><trkpt lat="50.04879164157062" lon="3.8345157070314646"><ele>205.0</ele><time>2026-04-12T13:54:23Z</time></trkpt><trkpt lat="50.04873963154668" lon="3.8346479779489986"><ele>205.0</ele><time>2026-04-12T13:54:25Z</time></trkpt><trkpt lat="50.0486856322022" lon="3.83478341645822"><ele>205.0</ele><time>2026-04-12T13:54:27Z</time></trkpt><trkpt lat="50.048637742718924" lon="3.8349131540035044"><ele>205.0</ele><time>2026-04-12T13:54:29Z</time></trkpt><trkpt lat="50.048583080429886" lon="3.8350526470610293"><ele>205.0</ele><time>2026-04-12T13:54:31Z</time></trkpt><trkpt lat="50.0485270397364" lon="3.835195321345071"><ele>205.0</ele><time>2026-04-12T13:54:33Z</time></trkpt><trkpt lat="50.04847585022221" lon="3.8353289781877233"><ele>205.0</ele><time>2026-04-12T13:54:35Z</time></trkpt><trkpt lat="50.048419824517396" lon="3.8354734631718586"><ele>205.0</ele><time>2026-04-12T13:54:37Z</time></trkpt><trkpt lat="50.04835867053497" lon="3.8356183814985636"><ele>205.0</ele><time>2026-04-12T13:54:39Z</time></trkpt><trkpt lat="50.048299533655744" lon="3.835756949471919"><ele>205.0</ele><time>2026-04-12T13:54:41Z</time></trkpt><trkpt lat="50.048236962133345" lon="3.835902810890557"><ele>205.0</ele><time>2026-04-12T13:54:43Z</time></trkpt><trkpt lat="50.04818394670598" lon="3.8360367489537106"><ele>204.8</ele><time>2026-04-12T13:54:45Z</time></trkpt><trkpt lat="50.04812299972445" lon="3.83618343715205"><ele>204.6</ele><time>2026-04-12T13:54:47Z</time></trkpt><trkpt lat="50.04805990210021" lon="3.836326897115679"><ele>204.39999999999998</ele><time>2026-04-12T13:54:49Z</time></trkpt><trkpt lat="50.048003970968146" lon="3.836473415380992"><ele>204.2</ele><time>2026-04-12T13:54:51Z</time></trkpt><trkpt lat="50.047946884556644" lon="3.836618809410581"><ele>204.0</ele><time>2026-04-12T13:54:53Z</time></trkpt><trkpt lat="50.047888625988804" lon="3.836760573909104"><ele>204.2</ele><time>2026-04-12T13:54:55Z</time></trkpt><trkpt lat="50.04782923774832" lon="3.8369047387354094"><ele>204.39999999999998</ele><time>2026-04-12T13:54:57Z</time></trkpt><trkpt lat="50.047771180109955" lon="3.837051822001373"><ele>204.6</ele><time>2026-04-12T13:54:59Z</time></trkpt><trkpt lat="50.04771521335345" lon="3.837201671096889"><ele>204.8</ele><time>2026-04-12T13:55:01Z</time></trkpt><trkpt lat="50.0476662706347" lon="3.837356863369034"><ele>205.0</ele><time>2026-04-12T13:55:03Z</time></trkpt><trkpt lat="50.04762843693529" lon="3.8375173045160036"><ele>205.4</ele><time>2026-04-12T13:55:05Z</time></trkpt><trkpt lat="50.04759520454582" lon="3.837681105423757"><ele>205.8</ele><time>2026-04-12T13:55:07Z</time></trkpt><trkpt lat="50.04756393184878" lon="3.837846187953178"><ele>206.2</ele><time>2026-04-12T13:55:09Z</time></trkpt><trkpt lat="50.047536993255605" lon="3.8380151195077756"><ele>206.6</ele><time>2026-04-12T13:55:11Z</time></trkpt><trkpt lat="50.047527108314114" lon="3.838176350212097"><ele>207.0</ele><time>2026-04-12T13:55:13Z</time></trkpt><trkpt lat="50.04750769659532" lon="3.838351537664196"><ele>207.39999999999998</ele><time>2026-04-12T13:55:15Z</time></trkpt><trkpt lat="50.04749160494904" lon="3.8385142016624827"><ele>207.79999999999998</ele><time>2026-04-12T13:55:17Z</time></trkpt><trkpt lat="50.047479218565094" lon="3.8386758292916405"><ele>208.2</ele><time>2026-04-12T13:55:19Z</time></trkpt><trkpt lat="50.047461417963454" lon="3.838832700427076"><ele>208.6</ele><time>2026-04-12T13:55:21Z</time></trkpt><trkpt lat="50.04744494201803" lon="3.838981699120519"><ele>209.0</ele><time>2026-04-12T13:55:23Z</time></trkpt><trkpt lat="50.047437083913934" lon="3.8391280694409726"><ele>208.79999999999998</ele><time>2026-04-12T13:55:25Z</time></trkpt><trkpt lat="50.04741934097498" lon="3.8392679729782957"><ele>208.6</ele><time>2026-04-12T13:55:27Z</time></trkpt><trkpt lat="50.047405446445175" lon="3.839412363736128"><ele>208.4</ele><time>2026-04-12T13:55:29Z</time></trkpt><trkpt lat="50.04738882327126" lon="3.839563214436005"><ele>208.2</ele><time>2026-04-12T13:55:31Z</time></trkpt><trkpt lat="50.04737154028108" lon="3.839710956046278"><ele>208.0</ele><time>2026-04-12T13:55:33Z</time></trkpt><trkpt lat="50.04735842105733" lon="3.8398684015842197"><ele>208.0</ele><time>2026-04-12T13:55:35Z</time></trkpt><trkpt lat="50.04734182240849" lon="3.840019505127954"><ele>208.0</ele><time>2026-04-12T13:55:37Z</time></trkpt><trkpt lat="50.04732579169322" lon="3.8401658041836733"><ele>208.0</ele><time>2026-04-12T13:55:39Z</time></trkpt><trkpt lat="50.047311089439084" lon="3.8403188778334747"><ele>208.0</ele><time>2026-04-12T13:55:41Z</time></trkpt><trkpt lat="50.04729416525426" lon="3.8404627823974296"><ele>208.0</ele><time>2026-04-12T13:55:43Z</time></trkpt><trkpt lat="50.04727906118499" lon="3.8406050313003868"><ele>208.2</ele><time>2026-04-12T13:55:45Z</time></trkpt><trkpt lat="50.047263741722716" lon="3.8407431827649487"><ele>208.4</ele><time>2026-04-12T13:55:47Z</time></trkpt><trkpt lat="50.04724972675981" lon="3.840879544174748"><ele>208.6</ele><time>2026-04-12T13:55:49Z</time></trkpt><trkpt lat="50.047238291201616" lon="3.8410216308514182"><ele>208.79999999999998</ele><time>2026-04-12T13:55:51Z</time></trkpt><trkpt lat="50.04722068664328" lon="3.841169736058582"><ele>209.0</ele><time>2026-04-12T13:55:53Z</time></trkpt><trkpt lat="50.04720447855896" lon="3.841311450808004"><ele>209.0</ele><time>2026-04-12T13:55:55Z</time></trkpt><trkpt lat="50.0471933346449" lon="3.8414561369000393"><ele>209.0</ele><time>2026-04-12T13:55:57Z</time></trkpt><trkpt lat="50.0471779505875" lon="3.8416038155428605"><ele>209.0</ele><time>2026-04-12T13:55:59Z</time></trkpt><trkpt lat="50.04716312608641" lon="3.8417565717652495"><ele>209.0</ele><time>2026-04-12T13:56:01Z</time></trkpt><trkpt lat="50.04714801782775" lon="3.8419034622294457"><ele>209.0</ele><time>2026-04-12T13:56:03Z</time></trkpt><trkpt lat="50.04713285208856" lon="3.842043704909711"><ele>209.0</ele><time>2026-04-12T13:56:05Z</time></trkpt><trkpt lat="50.04711914032484" lon="3.842185566157298"><ele>209.0</ele><time>2026-04-12T13:56:07Z</time></trkpt><trkpt lat="50.04710420251631" lon="3.8423302869297857"><ele>209.0</ele><time>2026-04-12T13:56:09Z</time></trkpt><trkpt lat="50.047090156098896" lon="3.842483119601866"><ele>209.0</ele><time>2026-04-12T13:56:11Z</time></trkpt><trkpt lat="50.04707522121262" lon="3.842630088511731"><ele>209.0</ele><time>2026-04-12T13:56:13Z</time></trkpt><trkpt lat="50.04706197094457" lon="3.842776281550451"><ele>209.0</ele><time>2026-04-12T13:56:15Z</time></trkpt><trkpt lat="50.047044229542955" lon="3.842922481129865"><ele>209.0</ele><time>2026-04-12T13:56:17Z</time></trkpt><trkpt lat="50.04702522676908" lon="3.843067016886197"><ele>209.0</ele><time>2026-04-12T13:56:19Z</time></trkpt><trkpt lat="50.04700439904827" lon="3.843213321669118"><ele>209.0</ele><time>2026-04-12T13:56:21Z</time></trkpt><trkpt lat="50.04697982103665" lon="3.8433560057929457"><ele>209.0</ele><time>2026-04-12T13:56:23Z</time></trkpt><trkpt lat="50.04695209389054" lon="3.8434942401983347"><ele>208.79999999999998</ele><time>2026-04-12T13:56:25Z</time></trkpt><trkpt lat="50.04691230976782" lon="3.8436320659609944"><ele>208.6</ele><time>2026-04-12T13:56:27Z</time></trkpt><trkpt lat="50.046870198905346" lon="3.8437712025545374"><ele>208.4</ele><time>2026-04-12T13:56:29Z</time></trkpt><trkpt lat="50.04682229480998" lon="3.843898549091185"><ele>208.2</ele><time>2026-04-12T13:56:31Z</time></trkpt><trkpt lat="50.04676901348298" lon="3.844028385590062"><ele>208.0</ele><time>2026-04-12T13:56:33Z</time></trkpt><trkpt lat="50.046715129730515" lon="3.8441544164525845"><ele>207.99999999999997</ele><time>2026-04-12T13:56:35Z</time></trkpt><trkpt lat="50.046660650734395" lon="3.844263443482145"><ele>208.0</ele><time>2026-04-12T13:56:37Z</time></trkpt><trkpt lat="50.046611559799516" lon="3.8443693882857586"><ele>208.0</ele><time>2026-04-12T13:56:39Z</time></trkpt><trkpt lat="50.0465486042903" lon="3.8444703296675993"><ele>208.0</ele><time>2026-04-12T13:56:41Z</time></trkpt><trkpt lat="50.04647994815465" lon="3.844567728067465"><ele>207.99999999999997</ele><time>2026-04-12T13:56:43Z</time></trkpt><trkpt lat="50.0464089988612" lon="3.8446610050664822"><ele>208.0</ele><time>2026-04-12T13:56:45Z</time></trkpt><trkpt lat="50.046337080106944" lon="3.8447505871536385"><ele>208.60000000000002</ele><time>2026-04-12T13:56:47Z</time></trkpt><trkpt lat="50.04625996045409" lon="3.844827262806368"><ele>209.20000000000002</ele><time>2026-04-12T13:56:49Z</time></trkpt><trkpt lat="50.046190249957675" lon="3.844893036366301"><ele>209.8</ele><time>2026-04-12T13:56:51Z</time></trkpt><trkpt lat="50.046116359064115" lon="3.8449564265429808"><ele>210.4</ele><time>2026-04-12T13:56:53Z</time></trkpt><trkpt lat="50.046050219129256" lon="3.8450089974384496"><ele>211.0</ele><time>2026-04-12T13:56:55Z</time></trkpt><trkpt lat="50.046061263336846" lon="3.8452610358743624"><ele>211.0</ele><time>2026-04-12T13:56:57Z</time></trkpt><trkpt lat="50.046100877989154" lon="3.8453953877277165"><ele>211.0</ele><time>2026-04-12T13:56:59Z</time></trkpt><trkpt lat="50.04612622526048" lon="3.845536189889548"><ele>211.0</ele><time>2026-04-12T13:57:01Z</time></trkpt><trkpt lat="50.04615566829677" lon="3.845672674034244"><ele>211.0</ele><time>2026-04-12T13:57:03Z</time></trkpt><trkpt lat="50.04617764194537" lon="3.845809996841663"><ele>211.0</ele><time>2026-04-12T13:57:05Z</time></trkpt><trkpt lat="50.046195494411016" lon="3.845949058750066"><ele>211.20000000000002</ele><time>2026-04-12T13:57:07Z</time></trkpt><trkpt lat="50.04621300041664" lon="3.846086216118241"><ele>211.4</ele><time>2026-04-12T13:57:09Z</time></trkpt><trkpt lat="50.04622802580614" lon="3.846223556152412"><ele>211.6</ele><time>2026-04-12T13:57:11Z</time></trkpt><trkpt lat="50.046250282674386" lon="3.846365030040798"><ele>211.8</ele><time>2026-04-12T13:57:13Z</time></trkpt><trkpt lat="50.04626387558257" lon="3.8465050476689524"><ele>212.0</ele><time>2026-04-12T13:57:15Z</time></trkpt><trkpt lat="50.04628474308985" lon="3.8466429487089777"><ele>212.0</ele><time>2026-04-12T13:57:17Z</time></trkpt><trkpt lat="50.046305980044366" lon="3.8467761603961406"><ele>212.0</ele><time>2026-04-12T13:57:19Z</time></trkpt><trkpt lat="50.04632177782188" lon="3.8469149472455397"><ele>212.0</ele><time>2026-04-12T13:57:21Z</time></trkpt><trkpt lat="50.04633900566415" lon="3.8470555192483054"><ele>212.0</ele><time>2026-04-12T13:57:23Z</time></trkpt><trkpt lat="50.04635820082837" lon="3.8471974499676205"><ele>212.0</ele><time>2026-04-12T13:57:25Z</time></trkpt><trkpt lat="50.0463712067427" lon="3.847333516232918"><ele>212.6</ele><time>2026-04-12T13:57:27Z</time></trkpt><trkpt lat="50.04637789399039" lon="3.8474721306368704"><ele>213.2</ele><time>2026-04-12T13:57:29Z</time></trkpt><trkpt lat="50.046387898350275" lon="3.847612852386319"><ele>213.8</ele><time>2026-04-12T13:57:31Z</time></trkpt><trkpt lat="50.04639751704545" lon="3.8477498028996595"><ele>214.4</ele><time>2026-04-12T13:57:33Z</time></trkpt><trkpt lat="50.04641820157215" lon="3.8478800663615234"><ele>215.0</ele><time>2026-04-12T13:57:35Z</time></trkpt><trkpt lat="50.04646433441791" lon="3.848009311182793"><ele>215.2</ele><time>2026-04-12T13:57:37Z</time></trkpt><trkpt lat="50.04652139292227" lon="3.8481298876794585"><ele>215.4</ele><time>2026-04-12T13:57:39Z</time></trkpt><trkpt lat="50.04658121673058" lon="3.8482491894479653"><ele>215.60000000000002</ele><time>2026-04-12T13:57:41Z</time></trkpt><trkpt lat="50.04663858202641" lon="3.848365966563287"><ele>215.8</ele><time>2026-04-12T13:57:43Z</time></trkpt><trkpt lat="50.04670400348763" lon="3.8484898446951483"><ele>216.0</ele><time>2026-04-12T13:57:45Z</time></trkpt><trkpt lat="50.04676711713334" lon="3.848613254946397"><ele>215.60000000000002</ele><time>2026-04-12T13:57:47Z</time></trkpt><trkpt lat="50.046833688074955" lon="3.848738181802243"><ele>215.20000000000002</ele><time>2026-04-12T13:57:49Z</time></trkpt><trkpt lat="50.046900514193375" lon="3.8488669912125735"><ele>214.79999999999998</ele><time>2026-04-12T13:57:51Z</time></trkpt><trkpt lat="50.04695913885621" lon="3.848977851557225"><ele>214.39999999999998</ele><time>2026-04-12T13:57:53Z</time></trkpt><trkpt lat="50.047018137972955" lon="3.8490862640717567"><ele>214.0</ele><time>2026-04-12T13:57:55Z</time></trkpt><trkpt lat="50.04707362995527" lon="3.84919878977558"><ele>213.6</ele><time>2026-04-12T13:57:57Z</time></trkpt><trkpt lat="50.04713531430162" lon="3.8493104711727923"><ele>213.2</ele><time>2026-04-12T13:57:59Z</time></trkpt><trkpt lat="50.04720482434933" lon="3.8494348475378732"><ele>212.79999999999998</ele><time>2026-04-12T13:58:01Z</time></trkpt><trkpt lat="50.04727729954917" lon="3.8495700769380052"><ele>212.39999999999998</ele><time>2026-04-12T13:58:03Z</time></trkpt><trkpt lat="50.04735046297868" lon="3.8496876712629167"><ele>212.0</ele><time>2026-04-12T13:58:05Z</time></trkpt><trkpt lat="50.047425901292364" lon="3.8497996956889"><ele>212.0</ele><time>2026-04-12T13:58:07Z</time></trkpt><trkpt lat="50.0475057225406" lon="3.849893888533435"><ele>212.0</ele><time>2026-04-12T13:58:09Z</time></trkpt><trkpt lat="50.04757382711048" lon="3.8500062702381364"><ele>212.0</ele><time>2026-04-12T13:58:11Z</time></trkpt><trkpt lat="50.04755853711835" lon="3.8501130289023777"><ele>212.0</ele><time>2026-04-12T13:58:12Z</time></trkpt><trkpt lat="50.047536798788684" lon="3.8502866626395"><ele>212.0</ele><time>2026-04-12T13:58:14Z</time></trkpt><trkpt lat="50.04751613533932" lon="3.8504606425206465"><ele>212.0</ele><time>2026-04-12T13:58:16Z</time></trkpt><trkpt lat="50.0475025475656" lon="3.8506343592547916"><ele>212.0</ele><time>2026-04-12T13:58:18Z</time></trkpt><trkpt lat="50.04750024654636" lon="3.8508157881600744"><ele>212.0</ele><time>2026-04-12T13:58:20Z</time></trkpt><trkpt lat="50.04748715207695" lon="3.8509845291226865"><ele>212.0</ele><time>2026-04-12T13:58:22Z</time></trkpt><trkpt lat="50.04748545052731" lon="3.85108492720337"><ele>212.0</ele><time>2026-04-12T13:58:23Z</time></trkpt><trkpt lat="50.04748742229776" lon="3.8511969813972775"><ele>211.71428571428572</ele><time>2026-04-12T13:58:24Z</time></trkpt><trkpt lat="50.04748056078504" lon="3.8513028117006662"><ele>211.42857142857142</ele><time>2026-04-12T13:58:25Z</time></trkpt><trkpt lat="50.04748057012327" lon="3.8514079049550642"><ele>211.14285714285714</ele><time>2026-04-12T13:58:26Z</time></trkpt><trkpt lat="50.047480352158935" lon="3.8515124832911436"><ele>210.85714285714286</ele><time>2026-04-12T13:58:27Z</time></trkpt><trkpt lat="50.0474758822365" lon="3.8516264621157585"><ele>210.57142857142856</ele><time>2026-04-12T13:58:28Z</time></trkpt><trkpt lat="50.04747714513118" lon="3.8517369313551177"><ele>210.28571428571428</ele><time>2026-04-12T13:58:29Z</time></trkpt><trkpt lat="50.04747588439744" lon="3.8518373726648156"><ele>210.0</ele><time>2026-04-12T13:58:30Z</time></trkpt><trkpt lat="50.04747766191888" lon="3.8519496582505077"><ele>209.83333333333334</ele><time>2026-04-12T13:58:31Z</time></trkpt><trkpt lat="50.047470987507424" lon="3.852063148005687"><ele>209.66666666666669</ele><time>2026-04-12T13:58:32Z</time></trkpt><trkpt lat="50.047469613782106" lon="3.8521701190114896"><ele>209.5</ele><time>2026-04-12T13:58:33Z</time></trkpt><trkpt lat="50.04746696653679" lon="3.852277516711525"><ele>209.33333333333334</ele><time>2026-04-12T13:58:34Z</time></trkpt><trkpt lat="50.04746269979357" lon="3.852384144735866"><ele>209.16666666666669</ele><time>2026-04-12T13:58:35Z</time></trkpt><trkpt lat="50.047466236527676" lon="3.852493731510688"><ele>209.0</ele><time>2026-04-12T13:58:36Z</time></trkpt><trkpt lat="50.04746036688007" lon="3.8526874208232957"><ele>209.0</ele><time>2026-04-12T13:58:38Z</time></trkpt><trkpt lat="50.04745553956285" lon="3.8527881357281553"><ele>209.0</ele><time>2026-04-12T13:58:39Z</time></trkpt><trkpt lat="50.04745532959268" lon="3.85290110669688"><ele>209.0</ele><time>2026-04-12T13:58:40Z</time></trkpt><trkpt lat="50.047452816258485" lon="3.8530000258852115"><ele>209.0</ele><time>2026-04-12T13:58:41Z</time></trkpt><trkpt lat="50.047457217371495" lon="3.853109327157093"><ele>209.0</ele><time>2026-04-12T13:58:42Z</time></trkpt><trkpt lat="50.04745809152817" lon="3.8532168183815574"><ele>209.0</ele><time>2026-04-12T13:58:43Z</time></trkpt><trkpt lat="50.04745641094494" lon="3.8533229787058247"><ele>209.0</ele><time>2026-04-12T13:58:44Z</time></trkpt><trkpt lat="50.04745532484002" lon="3.8534290227463526"><ele>209.33333333333334</ele><time>2026-04-12T13:58:45Z</time></trkpt><trkpt lat="50.04745193499982" lon="3.8535405770970605"><ele>209.66666666666669</ele><time>2026-04-12T13:58:46Z</time></trkpt><trkpt lat="50.047449806878085" lon="3.8536395464935893"><ele>210.0</ele><time>2026-04-12T13:58:47Z</time></trkpt><trkpt lat="50.04744706296643" lon="3.853741951846042"><ele>210.33333333333331</ele><time>2026-04-12T13:58:48Z</time></trkpt><trkpt lat="50.04744629555511" lon="3.853850543267203"><ele>210.66666666666666</ele><time>2026-04-12T13:58:49Z</time></trkpt><trkpt lat="50.0474424308703" lon="3.8540527549661237"><ele>211.0</ele><time>2026-04-12T13:58:51Z</time></trkpt><trkpt lat="50.0474404971486" lon="3.8541569499283366"><ele>210.99999999999997</ele><time>2026-04-12T13:58:52Z</time></trkpt><trkpt lat="50.047440101141625" lon="3.854258569688182"><ele>211.0</ele><time>2026-04-12T13:58:53Z</time></trkpt><trkpt lat="50.04743396115393" lon="3.8543610247676425"><ele>211.0</ele><time>2026-04-12T13:58:54Z</time></trkpt><trkpt lat="50.047431772908986" lon="3.8544622518676888"><ele>211.0</ele><time>2026-04-12T13:58:55Z</time></trkpt><trkpt lat="50.047432666379045" lon="3.854565132948517"><ele>210.99999999999997</ele><time>2026-04-12T13:58:56Z</time></trkpt><trkpt lat="50.04743003703245" lon="3.854759206322708"><ele>211.0</ele><time>2026-04-12T13:58:58Z</time></trkpt><trkpt lat="50.04742585162752" lon="3.8549469890366668"><ele>210.25</ele><time>2026-04-12T13:59:00Z</time></trkpt><trkpt lat="50.04742477904645" lon="3.85514299739824"><ele>209.5</ele><time>2026-04-12T13:59:02Z</time></trkpt><trkpt lat="50.04741802070116" lon="3.8553256751784706"><ele>208.75</ele><time>2026-04-12T13:59:04Z</time></trkpt><trkpt lat="50.04740880544167" lon="3.855508411456268"><ele>208.0</ele><time>2026-04-12T13:59:06Z</time></trkpt><trkpt lat="50.04739603896999" lon="3.8556874472223255"><ele>208.0</ele><time>2026-04-12T13:59:08Z</time></trkpt><trkpt lat="50.04739820848699" lon="3.8558746688933243"><ele>208.0</ele><time>2026-04-12T13:59:10Z</time></trkpt><trkpt lat="50.047389678902356" lon="3.856063243048181"><ele>208.0</ele><time>2026-04-12T13:59:12Z</time></trkpt><trkpt lat="50.04738868754536" lon="3.8561659926453813"><ele>208.0</ele><time>2026-04-12T13:59:13Z</time></trkpt><trkpt lat="50.04738396325512" lon="3.856344663682258"><ele>208.0</ele><time>2026-04-12T13:59:15Z</time></trkpt><trkpt lat="50.04738859645683" lon="3.856519385100436"><ele>207.60000000000002</ele><time>2026-04-12T13:59:17Z</time></trkpt><trkpt lat="50.04739235054283" lon="3.856666933950383"><ele>207.20000000000002</ele><time>2026-04-12T13:59:19Z</time></trkpt><trkpt lat="50.04752116661065" lon="3.8567159315527353"><ele>206.8</ele><time>2026-04-12T13:59:20Z</time></trkpt><trkpt lat="50.04762679949395" lon="3.856813892037668"><ele>206.4</ele><time>2026-04-12T13:59:22Z</time></trkpt><trkpt lat="50.04767354917981" lon="3.8568813221769958"><ele>206.0</ele><time>2026-04-12T13:59:23Z</time></trkpt><trkpt lat="50.04771825952318" lon="3.8569557612114336"><ele>205.42857142857142</ele><time>2026-04-12T13:59:24Z</time></trkpt><trkpt lat="50.04775955312568" lon="3.857032480726752"><ele>204.85714285714286</ele><time>2026-04-12T13:59:25Z</time></trkpt><trkpt lat="50.04780647538156" lon="3.8571111904689372"><ele>204.28571428571428</ele><time>2026-04-12T13:59:26Z</time></trkpt><trkpt lat="50.0478562351755" lon="3.85719170704596"><ele>203.71428571428572</ele><time>2026-04-12T13:59:27Z</time></trkpt><trkpt lat="50.04790578178456" lon="3.857272601442753"><ele>203.14285714285714</ele><time>2026-04-12T13:59:28Z</time></trkpt><trkpt lat="50.04795676827029" lon="3.8573517280032084"><ele>202.57142857142856</ele><time>2026-04-12T13:59:29Z</time></trkpt><trkpt lat="50.048006251812915" lon="3.8574332409215937"><ele>202.0</ele><time>2026-04-12T13:59:30Z</time></trkpt><trkpt lat="50.04805929958624" lon="3.8575178110184347"><ele>201.99999999999997</ele><time>2026-04-12T13:59:31Z</time></trkpt><trkpt lat="50.04811407928193" lon="3.857605084336684"><ele>202.0</ele><time>2026-04-12T13:59:32Z</time></trkpt><trkpt lat="50.04816964207298" lon="3.8576933212114404"><ele>202.0</ele><time>2026-04-12T13:59:33Z</time></trkpt><trkpt lat="50.04822677645069" lon="3.857783575375132"><ele>202.0</ele><time>2026-04-12T13:59:34Z</time></trkpt><trkpt lat="50.04828531282347" lon="3.857874016044332"><ele>201.99999999999997</ele><time>2026-04-12T13:59:35Z</time></trkpt><trkpt lat="50.04834112873584" lon="3.8579707010707205"><ele>202.0</ele><time>2026-04-12T13:59:36Z</time></trkpt><trkpt lat="50.048400148182246" lon="3.8580630464052597"><ele>201.66666666666666</ele><time>2026-04-12T13:59:37Z</time></trkpt><trkpt lat="50.048462455477" lon="3.8581532779211725"><ele>201.33333333333331</ele><time>2026-04-12T13:59:38Z</time></trkpt><trkpt lat="50.048525393100654" lon="3.8582420060636933"><ele>201.0</ele><time>2026-04-12T13:59:39Z</time></trkpt><trkpt lat="50.048588453456624" lon="3.8583357334684303"><ele>200.66666666666669</ele><time>2026-04-12T13:59:40Z</time></trkpt><trkpt lat="50.048648451058135" lon="3.858433769133788"><ele>200.33333333333334</ele><time>2026-04-12T13:59:41Z</time></trkpt><trkpt lat="50.04871149126826" lon="3.8585341534944684"><ele>200.0</ele><time>2026-04-12T13:59:42Z</time></trkpt><trkpt lat="50.04876335624414" lon="3.858649429998791"><ele>199.6</ele><time>2026-04-12T13:59:43Z</time></trkpt><trkpt lat="50.0488374354833" lon="3.8587382166616204"><ele>199.2</ele><time>2026-04-12T13:59:44Z</time></trkpt><trkpt lat="50.04888682079321" lon="3.8588665890368734"><ele>198.8</ele><time>2026-04-12T13:59:45Z</time></trkpt><trkpt lat="50.04895721389969" lon="3.858969512482305"><ele>198.4</ele><time>2026-04-12T13:59:46Z</time></trkpt><trkpt lat="50.04901944494018" lon="3.8590866779212334"><ele>198.0</ele><time>2026-04-12T13:59:47Z</time></trkpt><trkpt lat="50.04907820410643" lon="3.859203043345115"><ele>197.60000000000002</ele><time>2026-04-12T13:59:48Z</time></trkpt><trkpt lat="50.049139725292875" lon="3.85932352952753"><ele>197.20000000000002</ele><time>2026-04-12T13:59:49Z</time></trkpt><trkpt lat="50.049201839981485" lon="3.8594418179293726"><ele>196.8</ele><time>2026-04-12T13:59:50Z</time></trkpt><trkpt lat="50.04926217583963" lon="3.8595547587120027"><ele>196.4</ele><time>2026-04-12T13:59:51Z</time></trkpt><trkpt lat="50.04931967750017" lon="3.8596785109086613"><ele>196.0</ele><time>2026-04-12T13:59:52Z</time></trkpt><trkpt lat="50.049382962853066" lon="3.8597925284240837"><ele>196.0</ele><time>2026-04-12T13:59:53Z</time></trkpt><trkpt lat="50.04944412232544" lon="3.859909876480615"><ele>196.0</ele><time>2026-04-12T13:59:54Z</time></trkpt><trkpt lat="50.049504907763165" lon="3.8600256442972247"><ele>196.0</ele><time>2026-04-12T13:59:55Z</time></trkpt><trkpt lat="50.04956878977346" lon="3.8601510634860436"><ele>196.0</ele><time>2026-04-12T13:59:56Z</time></trkpt><trkpt lat="50.049632257180576" lon="3.860262359309463"><ele>196.0</ele><time>2026-04-12T13:59:57Z</time></trkpt><trkpt lat="50.049695500308786" lon="3.8603708553042413"><ele>196.0</ele><time>2026-04-12T13:59:58Z</time></trkpt><trkpt lat="50.049742735582655" lon="3.8604983231192866"><ele>196.0</ele><time>2026-04-12T13:59:59Z</time></trkpt><trkpt lat="50.04980520096652" lon="3.860608329441052"><ele>196.0</ele><time>2026-04-12T14:00:00Z</time></trkpt><trkpt lat="50.04986630695057" lon="3.8607074978837708"><ele>196.0</ele><time>2026-04-12T14:00:01Z</time></trkpt><trkpt lat="50.04993944971386" lon="3.860791778354998"><ele>196.0</ele><time>2026-04-12T14:00:02Z</time></trkpt><trkpt lat="50.05000338997993" lon="3.8608867057894334"><ele>195.66666666666666</ele><time>2026-04-12T14:00:03Z</time></trkpt><trkpt lat="50.05005222879207" lon="3.8610016087304544"><ele>195.33333333333331</ele><time>2026-04-12T14:00:04Z</time></trkpt><trkpt lat="50.05010979831144" lon="3.8610989815615175"><ele>195.0</ele><time>2026-04-12T14:00:05Z</time></trkpt><trkpt lat="50.050167723938564" lon="3.8611982154743307"><ele>194.66666666666669</ele><time>2026-04-12T14:00:06Z</time></trkpt><trkpt lat="50.050223622382596" lon="3.8612939758646885"><ele>194.33333333333334</ele><time>2026-04-12T14:00:07Z</time></trkpt><trkpt lat="50.050273038752344" lon="3.8613767224202196"><ele>194.0</ele><time>2026-04-12T14:00:08Z</time></trkpt><trkpt lat="50.05031991178667" lon="3.8614525408345264"><ele>194.00000000000003</ele><time>2026-04-12T14:00:09Z</time></trkpt><trkpt lat="50.05037295243232" lon="3.861514475707485"><ele>194.0</ele><time>2026-04-12T14:00:10Z</time></trkpt><trkpt lat="50.05044770922446" lon="3.861649530010958"><ele>194.0</ele><time>2026-04-12T14:00:12Z</time></trkpt><trkpt lat="50.05046742974259" lon="3.861750380835565"><ele>194.0</ele><time>2026-04-12T14:00:13Z</time></trkpt><trkpt lat="50.050428490769605" lon="3.861833729775558"><ele>194.00000000000003</ele><time>2026-04-12T14:00:14Z</time></trkpt><trkpt lat="50.05041600288051" lon="3.861940708476627"><ele>194.0</ele><time>2026-04-12T14:00:15Z</time></trkpt><trkpt lat="50.05041912940496" lon="3.8620559508035166"><ele>193.83333333333334</ele><time>2026-04-12T14:00:16Z</time></trkpt><trkpt lat="50.0504180848317" lon="3.8621810388332873"><ele>193.66666666666669</ele><time>2026-04-12T14:00:17Z</time></trkpt><trkpt lat="50.050440755431445" lon="3.862304918086294"><ele>193.5</ele><time>2026-04-12T14:00:18Z</time></trkpt><trkpt lat="50.05047966504905" lon="3.8624229394504055"><ele>193.33333333333331</ele><time>2026-04-12T14:00:19Z</time></trkpt><trkpt lat="50.050501949355976" lon="3.86255218157335"><ele>193.16666666666666</ele><time>2026-04-12T14:00:20Z</time></trkpt><trkpt lat="50.05055495909165" lon="3.8626597619716336"><ele>193.0</ele><time>2026-04-12T14:00:21Z</time></trkpt><trkpt lat="50.05058609696514" lon="3.862783076505938"><ele>192.49999999999997</ele><time>2026-04-12T14:00:22Z</time></trkpt><trkpt lat="50.05062577071402" lon="3.8629028972083503"><ele>192.0</ele><time>2026-04-12T14:00:23Z</time></trkpt><trkpt lat="50.05066089280872" lon="3.863026848185789"><ele>191.5</ele><time>2026-04-12T14:00:24Z</time></trkpt><trkpt lat="50.05069643977242" lon="3.8631487108926565"><ele>191.0</ele><time>2026-04-12T14:00:25Z</time></trkpt><trkpt lat="50.05072940179989" lon="3.863277581792127"><ele>190.5</ele><time>2026-04-12T14:00:26Z</time></trkpt><trkpt lat="50.050760326270456" lon="3.863403364290749"><ele>190.0</ele><time>2026-04-12T14:00:27Z</time></trkpt><trkpt lat="50.05079273538824" lon="3.8635295815907273"><ele>189.16666666666669</ele><time>2026-04-12T14:00:28Z</time></trkpt><trkpt lat="50.05082265246067" lon="3.8636561107475957"><ele>188.33333333333334</ele><time>2026-04-12T14:00:29Z</time></trkpt><trkpt lat="50.05085551949485" lon="3.8637841371914536"><ele>187.5</ele><time>2026-04-12T14:00:30Z</time></trkpt><trkpt lat="50.05088924079453" lon="3.8639085790685463"><ele>186.66666666666666</ele><time>2026-04-12T14:00:31Z</time></trkpt><trkpt lat="50.0509276593014" lon="3.864032082429762"><ele>185.83333333333331</ele><time>2026-04-12T14:00:32Z</time></trkpt><trkpt lat="50.05096431892759" lon="3.8641524273195804"><ele>185.0</ele><time>2026-04-12T14:00:33Z</time></trkpt><trkpt lat="50.05100567481382" lon="3.864271499344798"><ele>184.83333333333331</ele><time>2026-04-12T14:00:34Z</time></trkpt><trkpt lat="50.051052746313765" lon="3.8643835354349787"><ele>184.66666666666666</ele><time>2026-04-12T14:00:35Z</time></trkpt><trkpt lat="50.05110461900745" lon="3.864490071322488"><ele>184.5</ele><time>2026-04-12T14:00:36Z</time></trkpt><trkpt lat="50.051161460317964" lon="3.8645893344762574"><ele>184.33333333333334</ele><time>2026-04-12T14:00:37Z</time></trkpt><trkpt lat="50.05122066743189" lon="3.8646885789099192"><ele>184.16666666666669</ele><time>2026-04-12T14:00:38Z</time></trkpt><trkpt lat="50.0512821009384" lon="3.864783305922377"><ele>184.0</ele><time>2026-04-12T14:00:39Z</time></trkpt><trkpt lat="50.05134444306317" lon="3.8648760559021342"><ele>184.0</ele><time>2026-04-12T14:00:40Z</time></trkpt><trkpt lat="50.0514098172539" lon="3.8649663058749453"><ele>184.0</ele><time>2026-04-12T14:00:41Z</time></trkpt><trkpt lat="50.051474232759524" lon="3.8650612849165977"><ele>184.0</ele><time>2026-04-12T14:00:42Z</time></trkpt><trkpt lat="50.051537969524304" lon="3.8651674251172365"><ele>184.0</ele><time>2026-04-12T14:00:43Z</time></trkpt><trkpt lat="50.05159278398332" lon="3.8652800134496554"><ele>184.0</ele><time>2026-04-12T14:00:44Z</time></trkpt><trkpt lat="50.05164537571583" lon="3.8654051394122733"><ele>183.6</ele><time>2026-04-12T14:00:45Z</time></trkpt><trkpt lat="50.05169220593327" lon="3.865531134922206"><ele>183.2</ele><time>2026-04-12T14:00:46Z</time></trkpt><trkpt lat="50.0517364685226" lon="3.8656628816056795"><ele>182.79999999999998</ele><time>2026-04-12T14:00:47Z</time></trkpt><trkpt lat="50.05177205685076" lon="3.8657964539939296"><ele>182.39999999999998</ele><time>2026-04-12T14:00:48Z</time></trkpt><trkpt lat="50.05180327956265" lon="3.8659294893748775"><ele>182.0</ele><time>2026-04-12T14:00:49Z</time></trkpt><trkpt lat="50.05183218038226" lon="3.8660634863569494"><ele>181.83333333333331</ele><time>2026-04-12T14:00:50Z</time></trkpt><trkpt lat="50.05185822963773" lon="3.8661968924739636"><ele>181.66666666666666</ele><time>2026-04-12T14:00:51Z</time></trkpt><trkpt lat="50.05188294296686" lon="3.866328314059996"><ele>181.5</ele><time>2026-04-12T14:00:52Z</time></trkpt><trkpt lat="50.0519046893106" lon="3.8664573272894938"><ele>181.33333333333334</ele><time>2026-04-12T14:00:53Z</time></trkpt><trkpt lat="50.051927481611976" lon="3.8665863102760363"><ele>181.16666666666669</ele><time>2026-04-12T14:00:54Z</time></trkpt><trkpt lat="50.05194884726339" lon="3.8667123522810543"><ele>181.0</ele><time>2026-04-12T14:00:55Z</time></trkpt><trkpt lat="50.05197124161832" lon="3.8668396191841654"><ele>180.66666666666669</ele><time>2026-04-12T14:00:56Z</time></trkpt><trkpt lat="50.05199561891707" lon="3.866965068111813"><ele>180.33333333333334</ele><time>2026-04-12T14:00:57Z</time></trkpt><trkpt lat="50.052022941403074" lon="3.8670938692458168"><ele>180.0</ele><time>2026-04-12T14:00:58Z</time></trkpt><trkpt lat="50.05205165651317" lon="3.867226354372957"><ele>179.66666666666666</ele><time>2026-04-12T14:00:59Z</time></trkpt><trkpt lat="50.05208302992725" lon="3.867354353636574"><ele>179.33333333333331</ele><time>2026-04-12T14:01:00Z</time></trkpt><trkpt lat="50.052115172545044" lon="3.8674824542438655"><ele>179.0</ele><time>2026-04-12T14:01:01Z</time></trkpt><trkpt lat="50.05214592774903" lon="3.8676090809014108"><ele>178.83333333333331</ele><time>2026-04-12T14:01:02Z</time></trkpt><trkpt lat="50.05218048346183" lon="3.8677331406998237"><ele>178.66666666666666</ele><time>2026-04-12T14:01:03Z</time></trkpt><trkpt lat="50.052220484604916" lon="3.867857034253063"><ele>178.5</ele><time>2026-04-12T14:01:04Z</time></trkpt><trkpt lat="50.052260783488094" lon="3.86797650346317"><ele>178.33333333333334</ele><time>2026-04-12T14:01:05Z</time></trkpt><trkpt lat="50.05230697809088" lon="3.8680911166510947"><ele>178.16666666666669</ele><time>2026-04-12T14:01:06Z</time></trkpt><trkpt lat="50.052359512679566" lon="3.8681981019128457"><ele>178.0</ele><time>2026-04-12T14:01:07Z</time></trkpt><trkpt lat="50.052413684410936" lon="3.8682985030576837"><ele>178.0</ele><time>2026-04-12T14:01:08Z</time></trkpt><trkpt lat="50.052467792386324" lon="3.868389423564004"><ele>178.0</ele><time>2026-04-12T14:01:09Z</time></trkpt><trkpt lat="50.052520466362346" lon="3.8684633746582247"><ele>178.0</ele><time>2026-04-12T14:01:10Z</time></trkpt><trkpt lat="50.05257505211159" lon="3.868516144561294"><ele>178.0</ele><time>2026-04-12T14:01:11Z</time></trkpt><trkpt lat="50.05265475873369" lon="3.868628223412191"><ele>178.0</ele><time>2026-04-12T14:01:13Z</time></trkpt><trkpt lat="50.05267330230468" lon="3.8688222519851503"><ele>178.0</ele><time>2026-04-12T14:01:15Z</time></trkpt><trkpt lat="50.052674314441695" lon="3.8689221341927906"><ele>177.66666666666669</ele><time>2026-04-12T14:01:16Z</time></trkpt><trkpt lat="50.05267824054985" lon="3.869035057149085"><ele>177.33333333333334</ele><time>2026-04-12T14:01:17Z</time></trkpt><trkpt lat="50.0526831066806" lon="3.8691533225152064"><ele>177.0</ele><time>2026-04-12T14:01:18Z</time></trkpt><trkpt lat="50.05268823023167" lon="3.869285763499547"><ele>176.66666666666666</ele><time>2026-04-12T14:01:19Z</time></trkpt><trkpt lat="50.052692516032245" lon="3.8694153765194454"><ele>176.33333333333331</ele><time>2026-04-12T14:01:20Z</time></trkpt><trkpt lat="50.05269918952639" lon="3.8695422922387896"><ele>176.0</ele><time>2026-04-12T14:01:21Z</time></trkpt><trkpt lat="50.05271432210198" lon="3.869670669053696"><ele>175.60000000000002</ele><time>2026-04-12T14:01:22Z</time></trkpt><trkpt lat="50.052728490245066" lon="3.869800641247665"><ele>175.2</ele><time>2026-04-12T14:01:23Z</time></trkpt><trkpt lat="50.05275617816055" lon="3.86993796427932"><ele>174.8</ele><time>2026-04-12T14:01:24Z</time></trkpt><trkpt lat="50.052783951664935" lon="3.870075380012985"><ele>174.39999999999998</ele><time>2026-04-12T14:01:25Z</time></trkpt><trkpt lat="50.05279905478116" lon="3.8702235674810104"><ele>174.0</ele><time>2026-04-12T14:01:26Z</time></trkpt><trkpt lat="50.05279855717122" lon="3.870368978494658"><ele>173.83333333333334</ele><time>2026-04-12T14:01:27Z</time></trkpt><trkpt lat="50.05278678312807" lon="3.8705110465760884"><ele>173.66666666666666</ele><time>2026-04-12T14:01:28Z</time></trkpt><trkpt lat="50.052762955328525" lon="3.8706487859066425"><ele>173.5</ele><time>2026-04-12T14:01:29Z</time></trkpt><trkpt lat="50.05273334571462" lon="3.8707729550794268"><ele>173.33333333333331</ele><time>2026-04-12T14:01:30Z</time></trkpt><trkpt lat="50.05270488615335" lon="3.8709093320755055"><ele>173.16666666666666</ele><time>2026-04-12T14:01:31Z</time></trkpt><trkpt lat="50.052678254972385" lon="3.8710372286420904"><ele>173.0</ele><time>2026-04-12T14:01:32Z</time></trkpt><trkpt lat="50.0526441836411" lon="3.8711803022861777"><ele>172.60000000000002</ele><time>2026-04-12T14:01:33Z</time></trkpt><trkpt lat="50.05261531917953" lon="3.8713109443968317"><ele>172.20000000000002</ele><time>2026-04-12T14:01:34Z</time></trkpt><trkpt lat="50.05257944628372" lon="3.871456019940461"><ele>171.8</ele><time>2026-04-12T14:01:35Z</time></trkpt><trkpt lat="50.05254657479685" lon="3.871599220556646"><ele>171.4</ele><time>2026-04-12T14:01:36Z</time></trkpt><trkpt lat="50.05252188688074" lon="3.8717411292835737"><ele>171.0</ele><time>2026-04-12T14:01:37Z</time></trkpt><trkpt lat="50.05248594404382" lon="3.8718839818531414"><ele>170.4</ele><time>2026-04-12T14:01:38Z</time></trkpt><trkpt lat="50.05245254984592" lon="3.872024402115635"><ele>169.8</ele><time>2026-04-12T14:01:39Z</time></trkpt><trkpt lat="50.052425472029164" lon="3.872168934280073"><ele>169.20000000000002</ele><time>2026-04-12T14:01:40Z</time></trkpt><trkpt lat="50.05240213537718" lon="3.872313134681436"><ele>168.60000000000002</ele><time>2026-04-12T14:01:41Z</time></trkpt><trkpt lat="50.052373941985536" lon="3.8724566429027516"><ele>168.0</ele><time>2026-04-12T14:01:42Z</time></trkpt><trkpt lat="50.05234534287677" lon="3.8725998991542396"><ele>167.4</ele><time>2026-04-12T14:01:43Z</time></trkpt><trkpt lat="50.052313897325725" lon="3.872740301728031"><ele>166.8</ele><time>2026-04-12T14:01:44Z</time></trkpt><trkpt lat="50.0522804574475" lon="3.8728762355849233"><ele>166.2</ele><time>2026-04-12T14:01:45Z</time></trkpt><trkpt lat="50.052241224550585" lon="3.8730103857228806"><ele>165.6</ele><time>2026-04-12T14:01:46Z</time></trkpt><trkpt lat="50.05220132048104" lon="3.87314181304064"><ele>165.0</ele><time>2026-04-12T14:01:47Z</time></trkpt><trkpt lat="50.052164291073794" lon="3.8732665862460864"><ele>165.0</ele><time>2026-04-12T14:01:48Z</time></trkpt><trkpt lat="50.05212812704698" lon="3.8733861050579717"><ele>165.0</ele><time>2026-04-12T14:01:49Z</time></trkpt><trkpt lat="50.05207601763817" lon="3.8734894139368996"><ele>165.0</ele><time>2026-04-12T14:01:50Z</time></trkpt><trkpt lat="50.052052176319876" lon="3.8736119792176362"><ele>165.0</ele><time>2026-04-12T14:01:51Z</time></trkpt><trkpt lat="50.052020230980425" lon="3.8737144898671714"><ele>165.0</ele><time>2026-04-12T14:01:52Z</time></trkpt><trkpt lat="50.051992513509546" lon="3.8738159931535905"><ele>165.0</ele><time>2026-04-12T14:01:53Z</time></trkpt><trkpt lat="50.05196847024908" lon="3.873919130711442"><ele>164.6</ele><time>2026-04-12T14:01:54Z</time></trkpt><trkpt lat="50.05194689069371" lon="3.8740248000748583"><ele>164.2</ele><time>2026-04-12T14:01:55Z</time></trkpt><trkpt lat="50.05191340881621" lon="3.8741158715646846"><ele>163.8</ele><time>2026-04-12T14:01:56Z</time></trkpt><trkpt lat="50.05187031514902" lon="3.874278737977052"><ele>163.4</ele><time>2026-04-12T14:01:58Z</time></trkpt><trkpt lat="50.051988770674775" lon="3.8744338151338202"><ele>163.0</ele><time>2026-04-12T14:01:59Z</time></trkpt><trkpt lat="50.05203844775584" lon="3.8746146605842116"><ele>162.83333333333334</ele><time>2026-04-12T14:02:01Z</time></trkpt><trkpt lat="50.052055855684145" lon="3.874710562538804"><ele>162.66666666666669</ele><time>2026-04-12T14:02:02Z</time></trkpt><trkpt lat="50.05205985041744" lon="3.8748946768698525"><ele>162.5</ele><time>2026-04-12T14:02:04Z</time></trkpt><trkpt lat="50.05207001041047" lon="3.8749979120346327"><ele>162.33333333333334</ele><time>2026-04-12T14:02:05Z</time></trkpt><trkpt lat="50.05208007816018" lon="3.875107645439506"><ele>162.16666666666666</ele><time>2026-04-12T14:02:06Z</time></trkpt><trkpt lat="50.05208611605097" lon="3.875214834554823"><ele>162.0</ele><time>2026-04-12T14:02:07Z</time></trkpt><trkpt lat="50.05209533362136" lon="3.8753207184825262"><ele>162.33333333333334</ele><time>2026-04-12T14:02:08Z</time></trkpt><trkpt lat="50.05210733836229" lon="3.8754284132658268"><ele>162.66666666666666</ele><time>2026-04-12T14:02:09Z</time></trkpt><trkpt lat="50.05211270816664" lon="3.8755303199061664"><ele>163.0</ele><time>2026-04-12T14:02:10Z</time></trkpt><trkpt lat="50.05212123701099" lon="3.8756353039184086"><ele>163.33333333333331</ele><time>2026-04-12T14:02:11Z</time></trkpt><trkpt lat="50.05213045723056" lon="3.8757403507810904"><ele>163.66666666666666</ele><time>2026-04-12T14:02:12Z</time></trkpt><trkpt lat="50.05213929243562" lon="3.875843999222247"><ele>164.0</ele><time>2026-04-12T14:02:13Z</time></trkpt><trkpt lat="50.05216232462736" lon="3.876034375033934"><ele>164.6</ele><time>2026-04-12T14:02:15Z</time></trkpt><trkpt lat="50.05218225971763" lon="3.8762110194770423"><ele>165.2</ele><time>2026-04-12T14:02:17Z</time></trkpt><trkpt lat="50.05219721068304" lon="3.8763782111320926"><ele>165.79999999999998</ele><time>2026-04-12T14:02:19Z</time></trkpt><trkpt lat="50.05217873647285" lon="3.876480686627825"><ele>166.39999999999998</ele><time>2026-04-12T14:02:21Z</time></trkpt><trkpt lat="50.052093092957236" lon="3.876399782518071"><ele>167.0</ele><time>2026-04-12T14:02:22Z</time></trkpt><trkpt lat="50.05202146210435" lon="3.8763625463768654"><ele>167.0</ele><time>2026-04-12T14:02:24Z</time></trkpt><trkpt lat="50.051952446827364" lon="3.876287597349544"><ele>167.0</ele><time>2026-04-12T14:02:26Z</time></trkpt><trkpt lat="50.05186542489152" lon="3.8762100210672714"><ele>167.0</ele><time>2026-04-12T14:02:28Z</time></trkpt><trkpt lat="50.051766066597864" lon="3.876145302464916"><ele>167.0</ele><time>2026-04-12T14:02:30Z</time></trkpt><trkpt lat="50.05166200583857" lon="3.876090510656049"><ele>167.0</ele><time>2026-04-12T14:02:32Z</time></trkpt><trkpt lat="50.05155633527283" lon="3.8760584049737212"><ele>166.8</ele><time>2026-04-12T14:02:34Z</time></trkpt><trkpt lat="50.0514608125385" lon="3.8760001815178744"><ele>166.6</ele><time>2026-04-12T14:02:36Z</time></trkpt><trkpt lat="50.051358968233004" lon="3.8759592205715347"><ele>166.4</ele><time>2026-04-12T14:02:38Z</time></trkpt><trkpt lat="50.05125917353567" lon="3.875920866573829"><ele>166.20000000000002</ele><time>2026-04-12T14:02:40Z</time></trkpt><trkpt lat="50.05116183080276" lon="3.8758995860347554"><ele>166.0</ele><time>2026-04-12T14:02:42Z</time></trkpt><trkpt lat="50.05106834964929" lon="3.87591660177212"><ele>166.60000000000002</ele><time>2026-04-12T14:02:44Z</time></trkpt><trkpt lat="50.050967853881964" lon="3.8759567992830513"><ele>167.2</ele><time>2026-04-12T14:02:46Z</time></trkpt><trkpt lat="50.050887701411526" lon="3.876049744049795"><ele>167.8</ele><time>2026-04-12T14:02:48Z</time></trkpt><trkpt lat="50.05082694440546" lon="3.87616804857399"><ele>168.39999999999998</ele><time>2026-04-12T14:02:50Z</time></trkpt><trkpt lat="50.05077273442393" lon="3.8762922380137073"><ele>169.0</ele><time>2026-04-12T14:02:52Z</time></trkpt><trkpt lat="50.05071441242758" lon="3.8764272793741736"><ele>169.33333333333334</ele><time>2026-04-12T14:02:54Z</time></trkpt><trkpt lat="50.050677089046154" lon="3.8765464177898807"><ele>169.66666666666669</ele><time>2026-04-12T14:02:56Z</time></trkpt><trkpt lat="50.05063549453395" lon="3.8766744155035218"><ele>170.0</ele><time>2026-04-12T14:02:58Z</time></trkpt><trkpt lat="50.05059698231464" lon="3.8767978248279875"><ele>170.33333333333334</ele><time>2026-04-12T14:03:00Z</time></trkpt><trkpt lat="50.050565033569434" lon="3.876912997526665"><ele>170.66666666666666</ele><time>2026-04-12T14:03:02Z</time></trkpt><trkpt lat="50.05052908228853" lon="3.877021663075626"><ele>171.0</ele><time>2026-04-12T14:03:04Z</time></trkpt><trkpt lat="50.050494005253114" lon="3.8771423496826665"><ele>171.42857142857142</ele><time>2026-04-12T14:03:06Z</time></trkpt><trkpt lat="50.050462899599395" lon="3.877250486205743"><ele>171.85714285714286</ele><time>2026-04-12T14:03:08Z</time></trkpt><trkpt lat="50.05043607580252" lon="3.877357303984048"><ele>172.28571428571428</ele><time>2026-04-12T14:03:10Z</time></trkpt><trkpt lat="50.05040426394911" lon="3.8774541326886465"><ele>172.71428571428572</ele><time>2026-04-12T14:03:12Z</time></trkpt><trkpt lat="50.05037010424032" lon="3.87755264333756"><ele>173.14285714285714</ele><time>2026-04-12T14:03:14Z</time></trkpt><trkpt lat="50.050327573363866" lon="3.877640789765971"><ele>173.57142857142856</ele><time>2026-04-12T14:03:16Z</time></trkpt><trkpt lat="50.05028276725768" lon="3.8777115846927477"><ele>174.0</ele><time>2026-04-12T14:03:18Z</time></trkpt><trkpt lat="50.050224642900034" lon="3.8777681603411778"><ele>174.83333333333334</ele><time>2026-04-12T14:03:20Z</time></trkpt><trkpt lat="50.050155897558646" lon="3.8777620825273047"><ele>175.66666666666666</ele><time>2026-04-12T14:03:22Z</time></trkpt><trkpt lat="50.05010186142422" lon="3.8778131308593933"><ele>176.5</ele><time>2026-04-12T14:03:24Z</time></trkpt><trkpt lat="50.05001331411112" lon="3.8778388897596785"><ele>177.33333333333331</ele><time>2026-04-12T14:03:27Z</time></trkpt><trkpt lat="50.04992743148358" lon="3.877872737523998"><ele>178.16666666666666</ele><time>2026-04-12T14:03:30Z</time></trkpt><trkpt lat="50.04984355689837" lon="3.8779110581089307"><ele>179.0</ele><time>2026-04-12T14:03:33Z</time></trkpt><trkpt lat="50.049761284647175" lon="3.8779547685897895"><ele>179.5</ele><time>2026-04-12T14:03:36Z</time></trkpt><trkpt lat="50.049674063318584" lon="3.877990299487419"><ele>180.0</ele><time>2026-04-12T14:03:39Z</time></trkpt><trkpt lat="50.04960377751081" lon="3.87802561132043"><ele>180.5</ele><time>2026-04-12T14:03:42Z</time></trkpt><trkpt lat="50.04952915436058" lon="3.878065699934065"><ele>181.0</ele><time>2026-04-12T14:03:45Z</time></trkpt><trkpt lat="50.04945947703264" lon="3.878102330869206"><ele>181.5</ele><time>2026-04-12T14:03:48Z</time></trkpt><trkpt lat="50.049389874864154" lon="3.8781464741785263"><ele>182.0</ele><time>2026-04-12T14:03:51Z</time></trkpt><trkpt lat="50.04931698416954" lon="3.878181000551974"><ele>182.0</ele><time>2026-04-12T14:03:54Z</time></trkpt><trkpt lat="50.0492407813516" lon="3.878213492621665"><ele>182.0</ele><time>2026-04-12T14:03:57Z</time></trkpt><trkpt lat="50.04916016239878" lon="3.878237796665967"><ele>182.0</ele><time>2026-04-12T14:04:00Z</time></trkpt><trkpt lat="50.04908757484309" lon="3.8782419439021942"><ele>182.0</ele><time>2026-04-12T14:04:03Z</time></trkpt><trkpt lat="50.04901341195548" lon="3.878258272869576"><ele>182.0</ele><time>2026-04-12T14:04:06Z</time></trkpt><trkpt lat="50.04893699337752" lon="3.8782556461727866"><ele>182.0</ele><time>2026-04-12T14:04:09Z</time></trkpt><trkpt lat="50.04885448037317" lon="3.8782596170955164"><ele>182.33333333333331</ele><time>2026-04-12T14:04:12Z</time></trkpt><trkpt lat="50.04877784185702" lon="3.8782601444533693"><ele>182.66666666666666</ele><time>2026-04-12T14:04:15Z</time></trkpt><trkpt lat="50.04869713894689" lon="3.8782638194225973"><ele>183.0</ele><time>2026-04-12T14:04:18Z</time></trkpt><trkpt lat="50.04861889639437" lon="3.8782748279901194"><ele>183.33333333333334</ele><time>2026-04-12T14:04:21Z</time></trkpt><trkpt lat="50.04854292271617" lon="3.878281769290868"><ele>183.66666666666669</ele><time>2026-04-12T14:04:24Z</time></trkpt><trkpt lat="50.04845595463383" lon="3.878300006972741"><ele>184.0</ele><time>2026-04-12T14:04:27Z</time></trkpt><trkpt lat="50.0483735158865" lon="3.878322857037896"><ele>184.2</ele><time>2026-04-12T14:04:30Z</time></trkpt><trkpt lat="50.04828786424133" lon="3.878363703465677"><ele>184.39999999999998</ele><time>2026-04-12T14:04:33Z</time></trkpt><trkpt lat="50.048203747087804" lon="3.8784132749584366"><ele>184.6</ele><time>2026-04-12T14:04:36Z</time></trkpt><trkpt lat="50.04811760390825" lon="3.8784617050657477"><ele>184.8</ele><time>2026-04-12T14:04:39Z</time></trkpt><trkpt lat="50.048036459180715" lon="3.8785187203441236"><ele>185.0</ele><time>2026-04-12T14:04:42Z</time></trkpt><trkpt lat="50.04794848417729" lon="3.8785693733013464"><ele>185.5</ele><time>2026-04-12T14:04:45Z</time></trkpt><trkpt lat="50.04786761382799" lon="3.8786270304352595"><ele>186.0</ele><time>2026-04-12T14:04:48Z</time></trkpt><trkpt lat="50.0478066887483" lon="3.8786656582003283"><ele>186.5</ele><time>2026-04-12T14:04:50Z</time></trkpt><trkpt lat="50.047722291260285" lon="3.87872444727884"><ele>187.0</ele><time>2026-04-12T14:04:53Z</time></trkpt><trkpt lat="50.0476418390377" lon="3.8787837673883816"><ele>187.5</ele><time>2026-04-12T14:04:56Z</time></trkpt><trkpt lat="50.04756262476182" lon="3.8788410294575453"><ele>188.0</ele><time>2026-04-12T14:04:59Z</time></trkpt><trkpt lat="50.04750231099211" lon="3.8788799452700995"><ele>188.33333333333331</ele><time>2026-04-12T14:05:01Z</time></trkpt><trkpt lat="50.04742014946585" lon="3.878932617465766"><ele>188.66666666666666</ele><time>2026-04-12T14:05:04Z</time></trkpt><trkpt lat="50.04733719121167" lon="3.878981125457285"><ele>189.0</ele><time>2026-04-12T14:05:07Z</time></trkpt><trkpt lat="50.04726966850532" lon="3.879015835479277"><ele>189.33333333333334</ele><time>2026-04-12T14:05:09Z</time></trkpt><trkpt lat="50.0472090501766" lon="3.879048826062972"><ele>189.66666666666669</ele><time>2026-04-12T14:05:11Z</time></trkpt><trkpt lat="50.047116504501695" lon="3.8790811189917314"><ele>190.0</ele><time>2026-04-12T14:05:14Z</time></trkpt><trkpt lat="50.04702412299082" lon="3.8791127866226134"><ele>190.0</ele><time>2026-04-12T14:05:17Z</time></trkpt><trkpt lat="50.04693791309325" lon="3.879131064877552"><ele>190.0</ele><time>2026-04-12T14:05:20Z</time></trkpt><trkpt lat="50.04684857565881" lon="3.8791580806905146"><ele>190.0</ele><time>2026-04-12T14:05:23Z</time></trkpt><trkpt lat="50.04675881834324" lon="3.8791883451503804"><ele>190.0</ele><time>2026-04-12T14:05:26Z</time></trkpt><trkpt lat="50.046675333219504" lon="3.879208575383084"><ele>190.0</ele><time>2026-04-12T14:05:29Z</time></trkpt><trkpt lat="50.04661313991095" lon="3.8792300835765543"><ele>190.0</ele><time>2026-04-12T14:05:31Z</time></trkpt><trkpt lat="50.04652762923719" lon="3.8792601082554445"><ele>190.71428571428572</ele><time>2026-04-12T14:05:34Z</time></trkpt><trkpt lat="50.04646471490089" lon="3.879277610056393"><ele>191.42857142857144</ele><time>2026-04-12T14:05:36Z</time></trkpt><trkpt lat="50.04640319308575" lon="3.8792996120732326"><ele>192.14285714285714</ele><time>2026-04-12T14:05:38Z</time></trkpt><trkpt lat="50.04633514448217" lon="3.879325329989701"><ele>192.85714285714286</ele><time>2026-04-12T14:05:40Z</time></trkpt><trkpt lat="50.046259003161744" lon="3.8793600887508632"><ele>193.57142857142856</ele><time>2026-04-12T14:05:42Z</time></trkpt><trkpt lat="50.046188247243265" lon="3.879394205623893"><ele>194.28571428571428</ele><time>2026-04-12T14:05:44Z</time></trkpt><trkpt lat="50.04611311483498" lon="3.8794288371369725"><ele>195.0</ele><time>2026-04-12T14:05:46Z</time></trkpt><trkpt lat="50.04603942925674" lon="3.8794763453330163"><ele>195.0</ele><time>2026-04-12T14:05:48Z</time></trkpt><trkpt lat="50.04596757200463" lon="3.8795188257531645"><ele>195.0</ele><time>2026-04-12T14:05:50Z</time></trkpt><trkpt lat="50.04589726866181" lon="3.879566524056778"><ele>195.0</ele><time>2026-04-12T14:05:52Z</time></trkpt><trkpt lat="50.04582641922141" lon="3.8796133603769967"><ele>195.0</ele><time>2026-04-12T14:05:54Z</time></trkpt><trkpt lat="50.04575295734536" lon="3.879668727615086"><ele>195.0</ele><time>2026-04-12T14:05:56Z</time></trkpt><trkpt lat="50.04568397626432" lon="3.8797170066634044"><ele>195.0</ele><time>2026-04-12T14:05:58Z</time></trkpt><trkpt lat="50.04561566117125" lon="3.879768121731606"><ele>195.16666666666666</ele><time>2026-04-12T14:06:00Z</time></trkpt><trkpt lat="50.045546005568376" lon="3.8798223893322277"><ele>195.33333333333331</ele><time>2026-04-12T14:06:02Z</time></trkpt><trkpt lat="50.04547811264626" lon="3.8798751209908366"><ele>195.5</ele><time>2026-04-12T14:06:04Z</time></trkpt><trkpt lat="50.04541047368817" lon="3.879924826640853"><ele>195.66666666666666</ele><time>2026-04-12T14:06:06Z</time></trkpt><trkpt lat="50.0453447249925" lon="3.879979858749015"><ele>195.83333333333331</ele><time>2026-04-12T14:06:08Z</time></trkpt><trkpt lat="50.04527213811656" lon="3.8800377242684414"><ele>196.0</ele><time>2026-04-12T14:06:10Z</time></trkpt><trkpt lat="50.04520891842231" lon="3.880097247015006"><ele>196.42857142857142</ele><time>2026-04-12T14:06:12Z</time></trkpt><trkpt lat="50.04513703164642" lon="3.880152627259286"><ele>196.85714285714286</ele><time>2026-04-12T14:06:14Z</time></trkpt><trkpt lat="50.04507198813652" lon="3.8802094843885344"><ele>197.28571428571428</ele><time>2026-04-12T14:06:16Z</time></trkpt><trkpt lat="50.045013001538635" lon="3.8802659835941387"><ele>197.71428571428572</ele><time>2026-04-12T14:06:18Z</time></trkpt><trkpt lat="50.04495485359783" lon="3.8803234385706533"><ele>198.14285714285714</ele><time>2026-04-12T14:06:20Z</time></trkpt><trkpt lat="50.044898203838294" lon="3.880376479298656"><ele>198.57142857142856</ele><time>2026-04-12T14:06:22Z</time></trkpt><trkpt lat="50.0448482133116" lon="3.880439687056634"><ele>199.0</ele><time>2026-04-12T14:06:24Z</time></trkpt><trkpt lat="50.04479710645718" lon="3.8804975972595646"><ele>198.99999999999997</ele><time>2026-04-12T14:06:26Z</time></trkpt><trkpt lat="50.04474652464191" lon="3.8805646190803382"><ele>199.0</ele><time>2026-04-12T14:06:28Z</time></trkpt><trkpt lat="50.04469244937675" lon="3.880626229060939"><ele>199.0</ele><time>2026-04-12T14:06:30Z</time></trkpt><trkpt lat="50.04461623513525" lon="3.880713430273333"><ele>199.0</ele><time>2026-04-12T14:06:33Z</time></trkpt><trkpt lat="50.04456481499477" lon="3.880779973076836"><ele>199.0</ele><time>2026-04-12T14:06:35Z</time></trkpt><trkpt lat="50.0445103218276" lon="3.880853275620038"><ele>198.99999999999997</ele><time>2026-04-12T14:06:37Z</time></trkpt><trkpt lat="50.0444595935723" lon="3.8809232281383386"><ele>199.0</ele><time>2026-04-12T14:06:39Z</time></trkpt><trkpt lat="50.04440283095518" lon="3.880988192900592"><ele>199.28571428571428</ele><time>2026-04-12T14:06:41Z</time></trkpt><trkpt lat="50.04435265997562" lon="3.8810581873951424"><ele>199.57142857142856</ele><time>2026-04-12T14:06:43Z</time></trkpt><trkpt lat="50.04429334350423" lon="3.8811457783619465"><ele>199.85714285714283</ele><time>2026-04-12T14:06:46Z</time></trkpt><trkpt lat="50.04424919776048" lon="3.881216486288683"><ele>200.14285714285714</ele><time>2026-04-12T14:06:49Z</time></trkpt><trkpt lat="50.04417149679071" lon="3.881283148592856"><ele>200.42857142857144</ele><time>2026-04-12T14:06:53Z</time></trkpt><trkpt lat="50.04411478374466" lon="3.881346185161753"><ele>200.7142857142857</ele><time>2026-04-12T14:06:55Z</time></trkpt><trkpt lat="50.04407797654778" lon="3.881448035369324"><ele>201.0</ele><time>2026-04-12T14:06:57Z</time></trkpt><trkpt lat="50.04404410854537" lon="3.881543801707201"><ele>201.0</ele><time>2026-04-12T14:06:59Z</time></trkpt><trkpt lat="50.04401005819762" lon="3.8816425552690323"><ele>201.0</ele><time>2026-04-12T14:07:01Z</time></trkpt><trkpt lat="50.04396362419246" lon="3.881729098135874"><ele>201.0</ele><time>2026-04-12T14:07:03Z</time></trkpt><trkpt lat="50.04391891097207" lon="3.8818285366283876"><ele>201.0</ele><time>2026-04-12T14:07:05Z</time></trkpt><trkpt lat="50.043879637728466" lon="3.881937541706678"><ele>201.0</ele><time>2026-04-12T14:07:07Z</time></trkpt><trkpt lat="50.04383025344014" lon="3.8820413397605487"><ele>201.0</ele><time>2026-04-12T14:07:09Z</time></trkpt><trkpt lat="50.0437850879147" lon="3.8821533188392983"><ele>201.20000000000002</ele><time>2026-04-12T14:07:11Z</time></trkpt><trkpt lat="50.04373694841893" lon="3.882259889649089"><ele>201.4</ele><time>2026-04-12T14:07:13Z</time></trkpt><trkpt lat="50.04368880359293" lon="3.882378970316249"><ele>201.6</ele><time>2026-04-12T14:07:15Z</time></trkpt><trkpt lat="50.04363593728669" lon="3.8825020787006177"><ele>201.8</ele><time>2026-04-12T14:07:17Z</time></trkpt><trkpt lat="50.04358155525847" lon="3.882616602505071"><ele>202.0</ele><time>2026-04-12T14:07:19Z</time></trkpt><trkpt lat="50.043526761996574" lon="3.88273104617407"><ele>202.39999999999998</ele><time>2026-04-12T14:07:21Z</time></trkpt><trkpt lat="50.043479182853396" lon="3.882848736192538"><ele>202.79999999999998</ele><time>2026-04-12T14:07:23Z</time></trkpt><trkpt lat="50.043430799600635" lon="3.8829660596769404"><ele>203.2</ele><time>2026-04-12T14:07:25Z</time></trkpt><trkpt lat="50.043371506700566" lon="3.883080461608391"><ele>203.6</ele><time>2026-04-12T14:07:27Z</time></trkpt><trkpt lat="50.04331453152898" lon="3.8831954714451653"><ele>204.0</ele><time>2026-04-12T14:07:29Z</time></trkpt><trkpt lat="50.04325905537212" lon="3.883316861231566"><ele>203.6</ele><time>2026-04-12T14:07:31Z</time></trkpt><trkpt lat="50.043203430408724" lon="3.883439463586938"><ele>203.2</ele><time>2026-04-12T14:07:33Z</time></trkpt><trkpt lat="50.043144564851865" lon="3.8835588145013613"><ele>202.79999999999998</ele><time>2026-04-12T14:07:35Z</time></trkpt><trkpt lat="50.04308655571202" lon="3.8836768122098526"><ele>202.39999999999998</ele><time>2026-04-12T14:07:37Z</time></trkpt><trkpt lat="50.04302999924113" lon="3.8837966854355215"><ele>202.0</ele><time>2026-04-12T14:07:39Z</time></trkpt><trkpt lat="50.04297137448473" lon="3.8839165156095476"><ele>202.0</ele><time>2026-04-12T14:07:41Z</time></trkpt><trkpt lat="50.04291356413206" lon="3.8840414064817583"><ele>202.0</ele><time>2026-04-12T14:07:43Z</time></trkpt><trkpt lat="50.04285465157772" lon="3.8841625449423463"><ele>202.0</ele><time>2026-04-12T14:07:45Z</time></trkpt><trkpt lat="50.04279243624501" lon="3.8842879305222393"><ele>202.0</ele><time>2026-04-12T14:07:47Z</time></trkpt><trkpt lat="50.042730825257856" lon="3.884417740026481"><ele>202.0</ele><time>2026-04-12T14:07:49Z</time></trkpt><trkpt lat="50.0426635453957" lon="3.8845401958723462"><ele>202.39999999999998</ele><time>2026-04-12T14:07:51Z</time></trkpt><trkpt lat="50.04259333116536" lon="3.8846667306412677"><ele>202.79999999999998</ele><time>2026-04-12T14:07:53Z</time></trkpt><trkpt lat="50.04252121409631" lon="3.884796172623989"><ele>203.2</ele><time>2026-04-12T14:07:55Z</time></trkpt><trkpt lat="50.0424420388088" lon="3.8849311430942848"><ele>203.6</ele><time>2026-04-12T14:07:57Z</time></trkpt><trkpt lat="50.04239285864529" lon="3.8849958080179037"><ele>204.0</ele><time>2026-04-12T14:07:58Z</time></trkpt><trkpt lat="50.042298581307264" lon="3.8851185954354395"><ele>203.2</ele><time>2026-04-12T14:08:00Z</time></trkpt><trkpt lat="50.0422052713644" lon="3.88524469800989"><ele>202.39999999999998</ele><time>2026-04-12T14:08:02Z</time></trkpt><trkpt lat="50.04210736450858" lon="3.885375414158411"><ele>201.6</ele><time>2026-04-12T14:08:04Z</time></trkpt><trkpt lat="50.04206818931579" lon="3.8854723666772326"><ele>200.8</ele><time>2026-04-12T14:08:05Z</time></trkpt><trkpt lat="50.04203776773917" lon="3.8855761201669896"><ele>200.0</ele><time>2026-04-12T14:08:06Z</time></trkpt><trkpt lat="50.04200906943968" lon="3.885671525076838"><ele>200.00000000000003</ele><time>2026-04-12T14:08:07Z</time></trkpt><trkpt lat="50.04197307668969" lon="3.885771440919879"><ele>200.0</ele><time>2026-04-12T14:08:08Z</time></trkpt><trkpt lat="50.04193227573662" lon="3.885881980090072"><ele>200.0</ele><time>2026-04-12T14:08:09Z</time></trkpt><trkpt lat="50.04188940226816" lon="3.885983333904108"><ele>200.0</ele><time>2026-04-12T14:08:10Z</time></trkpt><trkpt lat="50.04184268940698" lon="3.8860888956494195"><ele>200.00000000000003</ele><time>2026-04-12T14:08:11Z</time></trkpt><trkpt lat="50.041790589558765" lon="3.8861935988055176"><ele>200.0</ele><time>2026-04-12T14:08:12Z</time></trkpt><trkpt lat="50.041735766912836" lon="3.886290676070633"><ele>200.00000000000003</ele><time>2026-04-12T14:08:13Z</time></trkpt><trkpt lat="50.04167932362066" lon="3.8863875468657905"><ele>200.0</ele><time>2026-04-12T14:08:14Z</time></trkpt><trkpt lat="50.04161405959824" lon="3.886460817205239"><ele>200.0</ele><time>2026-04-12T14:08:15Z</time></trkpt><trkpt lat="50.041548822003634" lon="3.886532227846715"><ele>200.0</ele><time>2026-04-12T14:08:16Z</time></trkpt><trkpt lat="50.04148174449964" lon="3.8865924214223355"><ele>200.00000000000003</ele><time>2026-04-12T14:08:17Z</time></trkpt><trkpt lat="50.04140982493863" lon="3.886630167484234"><ele>200.0</ele><time>2026-04-12T14:08:18Z</time></trkpt><trkpt lat="50.04134143740536" lon="3.8866686881011963"><ele>199.85714285714286</ele><time>2026-04-12T14:08:19Z</time></trkpt><trkpt lat="50.041275985781915" lon="3.8867056738906434"><ele>199.71428571428572</ele><time>2026-04-12T14:08:20Z</time></trkpt><trkpt lat="50.0412051816187" lon="3.8867383642336226"><ele>199.57142857142856</ele><time>2026-04-12T14:08:21Z</time></trkpt><trkpt lat="50.04114203216836" lon="3.88677276067389"><ele>199.42857142857144</ele><time>2026-04-12T14:08:22Z</time></trkpt><trkpt lat="50.041080769196526" lon="3.8868173766254888"><ele>199.28571428571428</ele><time>2026-04-12T14:08:23Z</time></trkpt><trkpt lat="50.041020717508324" lon="3.8868675625594866"><ele>199.14285714285714</ele><time>2026-04-12T14:08:24Z</time></trkpt><trkpt lat="50.04096487539578" lon="3.886921958222901"><ele>199.0</ele><time>2026-04-12T14:08:25Z</time></trkpt><trkpt lat="50.04091040501099" lon="3.886983273380307"><ele>199.0</ele><time>2026-04-12T14:08:26Z</time></trkpt><trkpt lat="50.04085556705767" lon="3.887040281894517"><ele>199.0</ele><time>2026-04-12T14:08:27Z</time></trkpt><trkpt lat="50.040802305533" lon="3.8870967518821007"><ele>199.0</ele><time>2026-04-12T14:08:28Z</time></trkpt><trkpt lat="50.040702724465504" lon="3.88719749417389"><ele>199.0</ele><time>2026-04-12T14:08:30Z</time></trkpt><trkpt lat="50.04061177478613" lon="3.8872877189968484"><ele>199.0</ele><time>2026-04-12T14:08:32Z</time></trkpt><trkpt lat="50.040512644082526" lon="3.8873778447079683"><ele>199.0</ele><time>2026-04-12T14:08:34Z</time></trkpt><trkpt lat="50.04041907393759" lon="3.8874644877540794"><ele>199.0</ele><time>2026-04-12T14:08:36Z</time></trkpt><trkpt lat="50.04031644806394" lon="3.8875558109954094"><ele>199.0</ele><time>2026-04-12T14:08:38Z</time></trkpt><trkpt lat="50.0402143000917" lon="3.887641470637254"><ele>199.0</ele><time>2026-04-12T14:08:40Z</time></trkpt><trkpt lat="50.04012187742526" lon="3.887725540175928"><ele>199.0</ele><time>2026-04-12T14:08:42Z</time></trkpt><trkpt lat="50.0400335316833" lon="3.8878704859238145"><ele>199.0</ele><time>2026-04-12T14:08:44Z</time></trkpt><trkpt lat="50.039973920929654" lon="3.888035972034707"><ele>199.0</ele><time>2026-04-12T14:08:46Z</time></trkpt><trkpt lat="50.03991225644285" lon="3.888182008573482"><ele>199.0</ele><time>2026-04-12T14:08:48Z</time></trkpt><trkpt lat="50.03983323051308" lon="3.88828989831295"><ele>199.0</ele><time>2026-04-12T14:08:50Z</time></trkpt><trkpt lat="50.03978952082583" lon="3.888378035295366"><ele>199.0</ele><time>2026-04-12T14:08:51Z</time></trkpt><trkpt lat="50.03973156479406" lon="3.888510943824285"><ele>199.0</ele><time>2026-04-12T14:08:53Z</time></trkpt><trkpt lat="50.03966376337452" lon="3.888586291115738"><ele>199.0</ele><time>2026-04-12T14:08:55Z</time></trkpt><trkpt lat="50.03952180626056" lon="3.888516203261379"><ele>199.0</ele><time>2026-04-12T14:08:59Z</time></trkpt><trkpt lat="50.039453374018365" lon="3.888386301571294"><ele>198.16666666666666</ele><time>2026-04-12T14:09:01Z</time></trkpt><trkpt lat="50.0393671518885" lon="3.888261568010504"><ele>197.33333333333331</ele><time>2026-04-12T14:09:03Z</time></trkpt><trkpt lat="50.039320839262786" lon="3.888188432632796"><ele>196.5</ele><time>2026-04-12T14:09:04Z</time></trkpt><trkpt lat="50.039268634578775" lon="3.888109616473089"><ele>195.66666666666669</ele><time>2026-04-12T14:09:05Z</time></trkpt><trkpt lat="50.0392173012406" lon="3.8880228007648423"><ele>194.83333333333334</ele><time>2026-04-12T14:09:06Z</time></trkpt><trkpt lat="50.03916350242851" lon="3.8879422347578747"><ele>194.0</ele><time>2026-04-12T14:09:07Z</time></trkpt><trkpt lat="50.039104184084835" lon="3.8878523576265525"><ele>192.83333333333334</ele><time>2026-04-12T14:09:08Z</time></trkpt><trkpt lat="50.0390452867323" lon="3.88776208440426"><ele>191.66666666666669</ele><time>2026-04-12T14:09:09Z</time></trkpt><trkpt lat="50.03898653870938" lon="3.8876694658697626"><ele>190.5</ele><time>2026-04-12T14:09:10Z</time></trkpt><trkpt lat="50.03892725832603" lon="3.887571632114968"><ele>189.33333333333334</ele><time>2026-04-12T14:09:11Z</time></trkpt><trkpt lat="50.03886683547313" lon="3.8874773887184744"><ele>188.16666666666669</ele><time>2026-04-12T14:09:12Z</time></trkpt><trkpt lat="50.03880429835552" lon="3.887381042775068"><ele>187.0</ele><time>2026-04-12T14:09:13Z</time></trkpt><trkpt lat="50.0387418959677" lon="3.8872904576058596"><ele>186.83333333333334</ele><time>2026-04-12T14:09:14Z</time></trkpt><trkpt lat="50.038682090072356" lon="3.887193312385173"><ele>186.66666666666669</ele><time>2026-04-12T14:09:15Z</time></trkpt><trkpt lat="50.0386210452185" lon="3.887094715361173"><ele>186.5</ele><time>2026-04-12T14:09:16Z</time></trkpt><trkpt lat="50.03855966033805" lon="3.886993180293748"><ele>186.33333333333334</ele><time>2026-04-12T14:09:17Z</time></trkpt><trkpt lat="50.03849859514725" lon="3.886894979541543"><ele>186.16666666666666</ele><time>2026-04-12T14:09:18Z</time></trkpt><trkpt lat="50.038439213265676" lon="3.8867979837172904"><ele>186.0</ele><time>2026-04-12T14:09:19Z</time></trkpt><trkpt lat="50.038377958070626" lon="3.886707651708338"><ele>185.85714285714286</ele><time>2026-04-12T14:09:20Z</time></trkpt><trkpt lat="50.038323143086195" lon="3.886616033184074"><ele>185.71428571428572</ele><time>2026-04-12T14:09:21Z</time></trkpt><trkpt lat="50.03826653009285" lon="3.8865339652497757"><ele>185.57142857142856</ele><time>2026-04-12T14:09:22Z</time></trkpt><trkpt lat="50.038212700802355" lon="3.8864567198606164"><ele>185.42857142857144</ele><time>2026-04-12T14:09:23Z</time></trkpt><trkpt lat="50.038160957503855" lon="3.8863804757806384"><ele>185.28571428571428</ele><time>2026-04-12T14:09:24Z</time></trkpt><trkpt lat="50.038115385287824" lon="3.886292116891129"><ele>185.14285714285714</ele><time>2026-04-12T14:09:25Z</time></trkpt><trkpt lat="50.038058038455674" lon="3.8862282808667783"><ele>185.0</ele><time>2026-04-12T14:09:26Z</time></trkpt><trkpt lat="50.03801427168921" lon="3.8861470552448654"><ele>185.5</ele><time>2026-04-12T14:09:27Z</time></trkpt><trkpt lat="50.03796947731433" lon="3.8860686697898448"><ele>186.0</ele><time>2026-04-12T14:09:28Z</time></trkpt><trkpt lat="50.03791411238175" lon="3.885997817445032"><ele>186.5</ele><time>2026-04-12T14:09:29Z</time></trkpt><trkpt lat="50.03782499100642" lon="3.885861135342486"><ele>187.0</ele><time>2026-04-12T14:09:31Z</time></trkpt><trkpt lat="50.037780239693376" lon="3.885785232345912"><ele>187.5</ele><time>2026-04-12T14:09:32Z</time></trkpt><trkpt lat="50.03773839658263" lon="3.885704086483285"><ele>188.0</ele><time>2026-04-12T14:09:33Z</time></trkpt><trkpt lat="50.037661989355435" lon="3.885548769089591"><ele>188.0</ele><time>2026-04-12T14:09:35Z</time></trkpt><trkpt lat="50.03762560796623" lon="3.8854650104639545"><ele>188.0</ele><time>2026-04-12T14:09:36Z</time></trkpt><trkpt lat="50.03755881154593" lon="3.8853190553162804"><ele>188.0</ele><time>2026-04-12T14:09:38Z</time></trkpt><trkpt lat="50.037521814090205" lon="3.8851896781069386"><ele>188.0</ele><time>2026-04-12T14:09:40Z</time></trkpt><trkpt lat="50.037407810918126" lon="3.885237935369248"><ele>188.0</ele><time>2026-04-12T14:09:41Z</time></trkpt><trkpt lat="50.03731821348921" lon="3.8852139167830746"><ele>188.66666666666666</ele><time>2026-04-12T14:09:43Z</time></trkpt><trkpt lat="50.03723361043469" lon="3.885189209982724"><ele>189.33333333333331</ele><time>2026-04-12T14:09:45Z</time></trkpt><trkpt lat="50.03714960340747" lon="3.885161677697596"><ele>190.0</ele><time>2026-04-12T14:09:47Z</time></trkpt><trkpt lat="50.03707102299567" lon="3.8851440675651703"><ele>190.66666666666666</ele><time>2026-04-12T14:09:49Z</time></trkpt><trkpt lat="50.036993882176766" lon="3.8851222324390515"><ele>191.33333333333334</ele><time>2026-04-12T14:09:51Z</time></trkpt><trkpt lat="50.036923131993426" lon="3.8851124689757555"><ele>192.0</ele><time>2026-04-12T14:09:53Z</time></trkpt><trkpt lat="50.03685110220581" lon="3.885105743121031"><ele>191.99999999999997</ele><time>2026-04-12T14:09:55Z</time></trkpt><trkpt lat="50.03678443627052" lon="3.8850971378532217"><ele>192.0</ele><time>2026-04-12T14:09:57Z</time></trkpt><trkpt lat="50.03669168800142" lon="3.8850997158067737"><ele>192.0</ele><time>2026-04-12T14:10:00Z</time></trkpt><trkpt lat="50.03662825418177" lon="3.885099700673762"><ele>192.0</ele><time>2026-04-12T14:10:02Z</time></trkpt><trkpt lat="50.036534738909225" lon="3.8851043872644264"><ele>192.0</ele><time>2026-04-12T14:10:05Z</time></trkpt><trkpt lat="50.0364717821128" lon="3.885103501515729"><ele>191.99999999999997</ele><time>2026-04-12T14:10:07Z</time></trkpt><trkpt lat="50.03640761801882" lon="3.8851092992320106"><ele>192.0</ele><time>2026-04-12T14:10:09Z</time></trkpt><trkpt lat="50.036341489597795" lon="3.8851084872675843"><ele>192.57142857142856</ele><time>2026-04-12T14:10:11Z</time></trkpt><trkpt lat="50.03627871880586" lon="3.8851161858611896"><ele>193.14285714285714</ele><time>2026-04-12T14:10:13Z</time></trkpt><trkpt lat="50.03621305827962" lon="3.885119357378779"><ele>193.71428571428572</ele><time>2026-04-12T14:10:15Z</time></trkpt><trkpt lat="50.03614893264165" lon="3.8851246756938163"><ele>194.28571428571428</ele><time>2026-04-12T14:10:17Z</time></trkpt><trkpt lat="50.0360814786436" lon="3.885126969379195"><ele>194.85714285714286</ele><time>2026-04-12T14:10:19Z</time></trkpt><trkpt lat="50.03601662220173" lon="3.885129185611791"><ele>195.42857142857142</ele><time>2026-04-12T14:10:21Z</time></trkpt><trkpt lat="50.03595030960778" lon="3.8851373900674933"><ele>196.0</ele><time>2026-04-12T14:10:23Z</time></trkpt><trkpt lat="50.035885679561076" lon="3.885140721873216"><ele>195.99999999999997</ele><time>2026-04-12T14:10:25Z</time></trkpt><trkpt lat="50.03581914647631" lon="3.885143712824297"><ele>196.0</ele><time>2026-04-12T14:10:27Z</time></trkpt><trkpt lat="50.035725712040595" lon="3.8851483564253284"><ele>196.0</ele><time>2026-04-12T14:10:30Z</time></trkpt><trkpt lat="50.03565648391332" lon="3.885145793350585"><ele>196.0</ele><time>2026-04-12T14:10:32Z</time></trkpt><trkpt lat="50.03558512017046" lon="3.8851489926429954"><ele>195.99999999999997</ele><time>2026-04-12T14:10:34Z</time></trkpt><trkpt lat="50.035507845108896" lon="3.885148855328344"><ele>196.0</ele><time>2026-04-12T14:10:36Z</time></trkpt><trkpt lat="50.03542778609072" lon="3.8851432273102486"><ele>196.42857142857142</ele><time>2026-04-12T14:10:38Z</time></trkpt><trkpt lat="50.03535271051146" lon="3.885141201197223"><ele>196.85714285714286</ele><time>2026-04-12T14:10:40Z</time></trkpt><trkpt lat="50.03527877504695" lon="3.8851361665261623"><ele>197.28571428571428</ele><time>2026-04-12T14:10:42Z</time></trkpt><trkpt lat="50.03520822947198" lon="3.885130004738829"><ele>197.71428571428572</ele><time>2026-04-12T14:10:44Z</time></trkpt><trkpt lat="50.03514063019467" lon="3.885124929806963"><ele>198.14285714285714</ele><time>2026-04-12T14:10:46Z</time></trkpt><trkpt lat="50.03507529322668" lon="3.8851129053520386"><ele>198.57142857142856</ele><time>2026-04-12T14:10:48Z</time></trkpt><trkpt lat="50.03500520175762" lon="3.885098102066052"><ele>199.0</ele><time>2026-04-12T14:10:50Z</time></trkpt><trkpt lat="50.03493994984317" lon="3.885088671167454"><ele>199.83333333333331</ele><time>2026-04-12T14:10:52Z</time></trkpt><trkpt lat="50.034850826399236" lon="3.8850636243956242"><ele>200.66666666666666</ele><time>2026-04-12T14:10:55Z</time></trkpt><trkpt lat="50.03476641983143" lon="3.885041144114047"><ele>201.5</ele><time>2026-04-12T14:10:58Z</time></trkpt><trkpt lat="50.03467742320513" lon="3.885018489676861"><ele>202.33333333333331</ele><time>2026-04-12T14:11:01Z</time></trkpt><trkpt lat="50.03459234566748" lon="3.8850006483877326"><ele>203.16666666666666</ele><time>2026-04-12T14:11:04Z</time></trkpt><trkpt lat="50.03450430061425" lon="3.884969828875702"><ele>204.0</ele><time>2026-04-12T14:11:07Z</time></trkpt><trkpt lat="50.034415618081006" lon="3.884939037671737"><ele>204.0</ele><time>2026-04-12T14:11:10Z</time></trkpt><trkpt lat="50.034324289224955" lon="3.884906430388143"><ele>204.0</ele><time>2026-04-12T14:11:13Z</time></trkpt><trkpt lat="50.03423755464649" lon="3.884881725593532"><ele>204.0</ele><time>2026-04-12T14:11:16Z</time></trkpt><trkpt lat="50.03415488968098" lon="3.8848503980249696"><ele>204.0</ele><time>2026-04-12T14:11:19Z</time></trkpt><trkpt lat="50.03407403196421" lon="3.8848257041722674"><ele>204.0</ele><time>2026-04-12T14:11:22Z</time></trkpt><trkpt lat="50.033999458580155" lon="3.8848044678791314"><ele>204.0</ele><time>2026-04-12T14:11:25Z</time></trkpt><trkpt lat="50.03392297093022" lon="3.8847727989172363"><ele>204.83333333333334</ele><time>2026-04-12T14:11:28Z</time></trkpt><trkpt lat="50.03384067504637" lon="3.884737400850677"><ele>205.66666666666669</ele><time>2026-04-12T14:11:31Z</time></trkpt><trkpt lat="50.033749148177456" lon="3.884711721841699"><ele>206.5</ele><time>2026-04-12T14:11:34Z</time></trkpt><trkpt lat="50.03366146128645" lon="3.884685211766106"><ele>207.33333333333334</ele><time>2026-04-12T14:11:37Z</time></trkpt><trkpt lat="50.033577216177626" lon="3.884658681277181"><ele>208.16666666666669</ele><time>2026-04-12T14:11:40Z</time></trkpt><trkpt lat="50.03349338696159" lon="3.884632781014781"><ele>209.0</ele><time>2026-04-12T14:11:43Z</time></trkpt><trkpt lat="50.03340621722659" lon="3.884603752729405"><ele>209.0</ele><time>2026-04-12T14:11:46Z</time></trkpt><trkpt lat="50.03331808387179" lon="3.884589716597651"><ele>209.0</ele><time>2026-04-12T14:11:49Z</time></trkpt><trkpt lat="50.03322972789621" lon="3.8845794997263727"><ele>209.0</ele><time>2026-04-12T14:11:52Z</time></trkpt><trkpt lat="50.033136709892084" lon="3.884563264341512"><ele>209.0</ele><time>2026-04-12T14:11:55Z</time></trkpt><trkpt lat="50.033047847721896" lon="3.884560934429876"><ele>209.0</ele><time>2026-04-12T14:11:58Z</time></trkpt><trkpt lat="50.03295622339784" lon="3.8845520454985043"><ele>209.42857142857142</ele><time>2026-04-12T14:12:01Z</time></trkpt><trkpt lat="50.03289267004289" lon="3.8845523369843344"><ele>209.85714285714283</ele><time>2026-04-12T14:12:03Z</time></trkpt><trkpt lat="50.03282223539376" lon="3.884550587817875"><ele>210.28571428571428</ele><time>2026-04-12T14:12:05Z</time></trkpt><trkpt lat="50.03275292239415" lon="3.8845482897780457"><ele>210.71428571428572</ele><time>2026-04-12T14:12:07Z</time></trkpt><trkpt lat="50.03268333123204" lon="3.8845429152820135"><ele>211.14285714285714</ele><time>2026-04-12T14:12:09Z</time></trkpt><trkpt lat="50.03261745934133" lon="3.8845269960018074"><ele>211.57142857142858</ele><time>2026-04-12T14:12:11Z</time></trkpt><trkpt lat="50.03255354000122" lon="3.8845185135335436"><ele>212.0</ele><time>2026-04-12T14:12:13Z</time></trkpt><trkpt lat="50.03246284326689" lon="3.8844965601096404"><ele>212.42857142857144</ele><time>2026-04-12T14:12:16Z</time></trkpt><trkpt lat="50.03237442232407" lon="3.8844784873972076"><ele>212.85714285714283</ele><time>2026-04-12T14:12:19Z</time></trkpt><trkpt lat="50.03231068734495" lon="3.8844541502391974"><ele>213.28571428571428</ele><time>2026-04-12T14:12:21Z</time></trkpt><trkpt lat="50.032245056567945" lon="3.884436117273728"><ele>213.71428571428572</ele><time>2026-04-12T14:12:23Z</time></trkpt><trkpt lat="50.032181871279036" lon="3.884407670778662"><ele>214.14285714285717</ele><time>2026-04-12T14:12:25Z</time></trkpt><trkpt lat="50.0321199609167" lon="3.8843846271330826"><ele>214.57142857142856</ele><time>2026-04-12T14:12:27Z</time></trkpt><trkpt lat="50.032033827561506" lon="3.884344438697704"><ele>215.0</ele><time>2026-04-12T14:12:30Z</time></trkpt><trkpt lat="50.03195553355178" lon="3.8842939307482838"><ele>215.0</ele><time>2026-04-12T14:12:33Z</time></trkpt><trkpt lat="50.0318924204867" lon="3.8842800546581406"><ele>215.0</ele><time>2026-04-12T14:12:35Z</time></trkpt><trkpt lat="50.03181633156754" lon="3.8842568037064376"><ele>214.0</ele><time>2026-04-12T14:12:38Z</time></trkpt><trkpt lat="50.03173940359741" lon="3.8841977134114125"><ele>214.0</ele><time>2026-04-12T14:12:41Z</time></trkpt><trkpt lat="50.03165437553728" lon="3.884169440633725"><ele>214.0</ele><time>2026-04-12T14:12:44Z</time></trkpt><trkpt lat="50.03156896823736" lon="3.8841224078840177"><ele>216.0</ele><time>2026-04-12T14:12:47Z</time></trkpt></trkseg></trk></gpx>